<?xml version="1.0" encoding="UTF-8" standalone="no" ?>
<gpx xmlns="http://www.topografix.com/GPX/1/1" xmlns:xsi="http://www.w3.org/2001/XMLSchema-instance" xsi:schemaLocation="http://www.topografix.com/GPX/1/1 http://www.topografix.com/GPX/1/1/gpx.xsd" version="1.1" creator="VisuGPX - https://www.visugpx.com">
  <metadata>
    <name>16 mars - Nice-Villefranche</name>
    <desc><![CDATA[Parti de Saint-Roch vers l’Observatoire de Nice puis descente vers la Corniche d’Or au-dessus de Villefranche. ]]></desc>
  </metadata>
  <trk>
    <name><![CDATA[16 mars - Nice-Villefranche]]></name>
    <trkseg>
      <trkpt lat="43.71166" lon="7.29277">
        <ele>21.507</ele>
        <time>2018-03-16T12:09:14Z</time>
      </trkpt>
      <trkpt lat="43.71149" lon="7.29278">
        <ele>54.879</ele>
        <time>2018-03-16T12:09:14Z</time>
      </trkpt>
      <trkpt lat="43.71149" lon="7.29278">
        <ele>59.427</ele>
        <time>2018-03-16T12:09:16Z</time>
      </trkpt>
      <trkpt lat="43.71153" lon="7.2927">
        <ele>64.209</ele>
        <time>2018-03-16T12:09:17Z</time>
      </trkpt>
      <trkpt lat="43.71153" lon="7.29278">
        <ele>76.364</ele>
        <time>2018-03-16T12:09:18Z</time>
      </trkpt>
      <trkpt lat="43.71156" lon="7.29272">
        <ele>70.041</ele>
        <time>2018-03-16T12:09:19Z</time>
      </trkpt>
      <trkpt lat="43.71156" lon="7.29272">
        <ele>70.041</ele>
        <time>2018-03-16T12:09:19Z</time>
      </trkpt>
      <trkpt lat="43.71153" lon="7.29263">
        <ele>56.557</ele>
        <time>2018-03-16T12:09:20Z</time>
      </trkpt>
      <trkpt lat="43.71153" lon="7.29263">
        <ele>23.012</ele>
        <time>2018-03-16T12:09:21Z</time>
      </trkpt>
      <trkpt lat="43.71149" lon="7.29258">
        <ele>22.852</ele>
        <time>2018-03-16T12:09:22Z</time>
      </trkpt>
      <trkpt lat="43.71149" lon="7.29258">
        <ele>28.022</ele>
        <time>2018-03-16T12:09:34Z</time>
      </trkpt>
      <trkpt lat="43.7115" lon="7.2926">
        <ele>26.295</ele>
        <time>2018-03-16T12:09:35Z</time>
      </trkpt>
      <trkpt lat="43.71152" lon="7.29285">
        <ele>24.898</ele>
        <time>2018-03-16T12:09:36Z</time>
      </trkpt>
      <trkpt lat="43.71152" lon="7.29285">
        <ele>24.145</ele>
        <time>2018-03-16T12:09:37Z</time>
      </trkpt>
      <trkpt lat="43.71152" lon="7.29285">
        <ele>26.509</ele>
        <time>2018-03-16T12:09:42Z</time>
      </trkpt>
      <trkpt lat="43.71153" lon="7.29286">
        <ele>25.872</ele>
        <time>2018-03-16T12:09:43Z</time>
      </trkpt>
      <trkpt lat="43.71151" lon="7.29285">
        <ele>25.291</ele>
        <time>2018-03-16T12:09:45Z</time>
      </trkpt>
      <trkpt lat="43.71147" lon="7.29286">
        <ele>25.849</ele>
        <time>2018-03-16T12:09:49Z</time>
      </trkpt>
      <trkpt lat="43.71143" lon="7.29287">
        <ele>27.194</ele>
        <time>2018-03-16T12:09:53Z</time>
      </trkpt>
      <trkpt lat="43.7114" lon="7.29287">
        <ele>26.129</ele>
        <time>2018-03-16T12:09:56Z</time>
      </trkpt>
      <trkpt lat="43.71137" lon="7.2929">
        <ele>25.786</ele>
        <time>2018-03-16T12:09:59Z</time>
      </trkpt>
      <trkpt lat="43.71136" lon="7.29291">
        <ele>25.38</ele>
        <time>2018-03-16T12:10:00Z</time>
      </trkpt>
      <trkpt lat="43.71135" lon="7.29292">
        <ele>25.025</ele>
        <time>2018-03-16T12:10:01Z</time>
      </trkpt>
      <trkpt lat="43.71133" lon="7.29295">
        <ele>24.623</ele>
        <time>2018-03-16T12:10:04Z</time>
      </trkpt>
      <trkpt lat="43.7113" lon="7.29297">
        <ele>24.492</ele>
        <time>2018-03-16T12:10:06Z</time>
      </trkpt>
      <trkpt lat="43.71126" lon="7.29296">
        <ele>25.345</ele>
        <time>2018-03-16T12:10:10Z</time>
      </trkpt>
      <trkpt lat="43.71118" lon="7.29292">
        <ele>25.848</ele>
        <time>2018-03-16T12:10:17Z</time>
      </trkpt>
      <trkpt lat="43.71115" lon="7.29291">
        <ele>24.649</ele>
        <time>2018-03-16T12:10:19Z</time>
      </trkpt>
      <trkpt lat="43.7111" lon="7.29291">
        <ele>24.609</ele>
        <time>2018-03-16T12:10:22Z</time>
      </trkpt>
      <trkpt lat="43.71103" lon="7.29293">
        <ele>23.768</ele>
        <time>2018-03-16T12:10:27Z</time>
      </trkpt>
      <trkpt lat="43.71102" lon="7.29293">
        <ele>23.882</ele>
        <time>2018-03-16T12:10:28Z</time>
      </trkpt>
      <trkpt lat="43.71101" lon="7.29293">
        <ele>23.728</ele>
        <time>2018-03-16T12:10:29Z</time>
      </trkpt>
      <trkpt lat="43.71095" lon="7.29295">
        <ele>24.175</ele>
        <time>2018-03-16T12:10:33Z</time>
      </trkpt>
      <trkpt lat="43.71093" lon="7.29294">
        <ele>24.36</ele>
        <time>2018-03-16T12:10:35Z</time>
      </trkpt>
      <trkpt lat="43.7109" lon="7.29293">
        <ele>24.586</ele>
        <time>2018-03-16T12:10:37Z</time>
      </trkpt>
      <trkpt lat="43.71085" lon="7.29294">
        <ele>23.83</ele>
        <time>2018-03-16T12:10:41Z</time>
      </trkpt>
      <trkpt lat="43.71079" lon="7.29294">
        <ele>23.873</ele>
        <time>2018-03-16T12:10:45Z</time>
      </trkpt>
      <trkpt lat="43.71074" lon="7.29293">
        <ele>23.739</ele>
        <time>2018-03-16T12:10:49Z</time>
      </trkpt>
      <trkpt lat="43.71071" lon="7.29294">
        <ele>23.843</ele>
        <time>2018-03-16T12:10:52Z</time>
      </trkpt>
      <trkpt lat="43.71069" lon="7.29295">
        <ele>23.918</ele>
        <time>2018-03-16T12:10:54Z</time>
      </trkpt>
      <trkpt lat="43.71062" lon="7.29297">
        <ele>23.712</ele>
        <time>2018-03-16T12:11:00Z</time>
      </trkpt>
      <trkpt lat="43.71052" lon="7.29297">
        <ele>23.161</ele>
        <time>2018-03-16T12:11:06Z</time>
      </trkpt>
      <trkpt lat="43.71047" lon="7.29297">
        <ele>21.949</ele>
        <time>2018-03-16T12:11:09Z</time>
      </trkpt>
      <trkpt lat="43.71043" lon="7.29297">
        <ele>21.439</ele>
        <time>2018-03-16T12:11:12Z</time>
      </trkpt>
      <trkpt lat="43.71041" lon="7.29301">
        <ele>21.356</ele>
        <time>2018-03-16T12:11:14Z</time>
      </trkpt>
      <trkpt lat="43.71039" lon="7.29302">
        <ele>21.13</ele>
        <time>2018-03-16T12:11:16Z</time>
      </trkpt>
      <trkpt lat="43.71034" lon="7.29301">
        <ele>20.691</ele>
        <time>2018-03-16T12:11:19Z</time>
      </trkpt>
      <trkpt lat="43.7103" lon="7.29305">
        <ele>20.547</ele>
        <time>2018-03-16T12:11:22Z</time>
      </trkpt>
      <trkpt lat="43.71027" lon="7.29306">
        <ele>20.621</ele>
        <time>2018-03-16T12:11:23Z</time>
      </trkpt>
      <trkpt lat="43.71024" lon="7.29306">
        <ele>20.529</ele>
        <time>2018-03-16T12:11:25Z</time>
      </trkpt>
      <trkpt lat="43.7102" lon="7.29306">
        <ele>20.669</ele>
        <time>2018-03-16T12:11:28Z</time>
      </trkpt>
      <trkpt lat="43.71016" lon="7.29303">
        <ele>20.55</ele>
        <time>2018-03-16T12:11:31Z</time>
      </trkpt>
      <trkpt lat="43.71013" lon="7.29301">
        <ele>20.467</ele>
        <time>2018-03-16T12:11:33Z</time>
      </trkpt>
      <trkpt lat="43.70995" lon="7.29298">
        <ele>20.436</ele>
        <time>2018-03-16T12:11:45Z</time>
      </trkpt>
      <trkpt lat="43.70983" lon="7.29288">
        <ele>21.089</ele>
        <time>2018-03-16T12:11:54Z</time>
      </trkpt>
      <trkpt lat="43.7098" lon="7.29286">
        <ele>21.385</ele>
        <time>2018-03-16T12:11:57Z</time>
      </trkpt>
      <trkpt lat="43.70978" lon="7.29286">
        <ele>21.25</ele>
        <time>2018-03-16T12:11:58Z</time>
      </trkpt>
      <trkpt lat="43.70974" lon="7.29287">
        <ele>21.237</ele>
        <time>2018-03-16T12:12:01Z</time>
      </trkpt>
      <trkpt lat="43.70971" lon="7.2929">
        <ele>20.76</ele>
        <time>2018-03-16T12:12:03Z</time>
      </trkpt>
      <trkpt lat="43.70969" lon="7.29294">
        <ele>20.489</ele>
        <time>2018-03-16T12:12:05Z</time>
      </trkpt>
      <trkpt lat="43.70969" lon="7.293">
        <ele>20.43</ele>
        <time>2018-03-16T12:12:07Z</time>
      </trkpt>
      <trkpt lat="43.70971" lon="7.29311">
        <ele>20.612</ele>
        <time>2018-03-16T12:12:12Z</time>
      </trkpt>
      <trkpt lat="43.70972" lon="7.29317">
        <ele>20.479</ele>
        <time>2018-03-16T12:12:15Z</time>
      </trkpt>
      <trkpt lat="43.70972" lon="7.29324">
        <ele>20.541</ele>
        <time>2018-03-16T12:12:18Z</time>
      </trkpt>
      <trkpt lat="43.70971" lon="7.29333">
        <ele>20.665</ele>
        <time>2018-03-16T12:12:22Z</time>
      </trkpt>
      <trkpt lat="43.70969" lon="7.29345">
        <ele>20.492</ele>
        <time>2018-03-16T12:12:28Z</time>
      </trkpt>
      <trkpt lat="43.7097" lon="7.29352">
        <ele>20.628</ele>
        <time>2018-03-16T12:12:31Z</time>
      </trkpt>
      <trkpt lat="43.70971" lon="7.29353">
        <ele>20.623</ele>
        <time>2018-03-16T12:12:32Z</time>
      </trkpt>
      <trkpt lat="43.70972" lon="7.29355">
        <ele>20.648</ele>
        <time>2018-03-16T12:12:33Z</time>
      </trkpt>
      <trkpt lat="43.70973" lon="7.29356">
        <ele>20.723</ele>
        <time>2018-03-16T12:12:34Z</time>
      </trkpt>
      <trkpt lat="43.70974" lon="7.29358">
        <ele>20.828</ele>
        <time>2018-03-16T12:12:35Z</time>
      </trkpt>
      <trkpt lat="43.70974" lon="7.29364">
        <ele>20.936</ele>
        <time>2018-03-16T12:12:38Z</time>
      </trkpt>
      <trkpt lat="43.70974" lon="7.29368">
        <ele>21.144</ele>
        <time>2018-03-16T12:12:40Z</time>
      </trkpt>
      <trkpt lat="43.70974" lon="7.29369">
        <ele>21.496</ele>
        <time>2018-03-16T12:12:41Z</time>
      </trkpt>
      <trkpt lat="43.70974" lon="7.29376">
        <ele>22.278</ele>
        <time>2018-03-16T12:12:45Z</time>
      </trkpt>
      <trkpt lat="43.70972" lon="7.29381">
        <ele>21.811</ele>
        <time>2018-03-16T12:12:48Z</time>
      </trkpt>
      <trkpt lat="43.70971" lon="7.29382">
        <ele>21.631</ele>
        <time>2018-03-16T12:12:50Z</time>
      </trkpt>
      <trkpt lat="43.70972" lon="7.29385">
        <ele>21.583</ele>
        <time>2018-03-16T12:12:54Z</time>
      </trkpt>
      <trkpt lat="43.70972" lon="7.29388">
        <ele>21.58</ele>
        <time>2018-03-16T12:12:57Z</time>
      </trkpt>
      <trkpt lat="43.70974" lon="7.29389">
        <ele>21.448</ele>
        <time>2018-03-16T12:12:59Z</time>
      </trkpt>
      <trkpt lat="43.70973" lon="7.29392">
        <ele>21.755</ele>
        <time>2018-03-16T12:13:02Z</time>
      </trkpt>
      <trkpt lat="43.70972" lon="7.29393">
        <ele>21.768</ele>
        <time>2018-03-16T12:13:04Z</time>
      </trkpt>
      <trkpt lat="43.70972" lon="7.29393">
        <ele>21.768</ele>
        <time>2018-03-16T12:13:04Z</time>
      </trkpt>
      <trkpt lat="43.70972" lon="7.29393">
        <ele>21.854</ele>
        <time>2018-03-16T12:13:05Z</time>
      </trkpt>
      <trkpt lat="43.70971" lon="7.29393">
        <ele>22.003</ele>
        <time>2018-03-16T12:13:06Z</time>
      </trkpt>
      <trkpt lat="43.70971" lon="7.29393">
        <ele>22.003</ele>
        <time>2018-03-16T12:13:06Z</time>
      </trkpt>
      <trkpt lat="43.70971" lon="7.29393">
        <ele>22.085</ele>
        <time>2018-03-16T12:13:07Z</time>
      </trkpt>
      <trkpt lat="43.70971" lon="7.29394">
        <ele>22.137</ele>
        <time>2018-03-16T12:13:08Z</time>
      </trkpt>
      <trkpt lat="43.70971" lon="7.29398">
        <ele>22.321</ele>
        <time>2018-03-16T12:13:12Z</time>
      </trkpt>
      <trkpt lat="43.7097" lon="7.29401">
        <ele>22.41</ele>
        <time>2018-03-16T12:13:16Z</time>
      </trkpt>
      <trkpt lat="43.7097" lon="7.29404">
        <ele>22.556</ele>
        <time>2018-03-16T12:13:20Z</time>
      </trkpt>
      <trkpt lat="43.7097" lon="7.29407">
        <ele>22.919</ele>
        <time>2018-03-16T12:13:24Z</time>
      </trkpt>
      <trkpt lat="43.70972" lon="7.29408">
        <ele>22.978</ele>
        <time>2018-03-16T12:13:27Z</time>
      </trkpt>
      <trkpt lat="43.7097" lon="7.29411">
        <ele>23.2</ele>
        <time>2018-03-16T12:13:30Z</time>
      </trkpt>
      <trkpt lat="43.70968" lon="7.29416">
        <ele>23.535</ele>
        <time>2018-03-16T12:13:34Z</time>
      </trkpt>
      <trkpt lat="43.70967" lon="7.2942">
        <ele>23.522</ele>
        <time>2018-03-16T12:13:36Z</time>
      </trkpt>
      <trkpt lat="43.70966" lon="7.29424">
        <ele>23.827</ele>
        <time>2018-03-16T12:13:40Z</time>
      </trkpt>
      <trkpt lat="43.70965" lon="7.29425">
        <ele>24.138</ele>
        <time>2018-03-16T12:13:42Z</time>
      </trkpt>
      <trkpt lat="43.70965" lon="7.29425">
        <ele>24.159</ele>
        <time>2018-03-16T12:13:43Z</time>
      </trkpt>
      <trkpt lat="43.70965" lon="7.29426">
        <ele>24.259</ele>
        <time>2018-03-16T12:13:44Z</time>
      </trkpt>
      <trkpt lat="43.70966" lon="7.29429">
        <ele>24.65</ele>
        <time>2018-03-16T12:13:48Z</time>
      </trkpt>
      <trkpt lat="43.70966" lon="7.2943">
        <ele>24.172</ele>
        <time>2018-03-16T12:13:50Z</time>
      </trkpt>
      <trkpt lat="43.70966" lon="7.29432">
        <ele>24.476</ele>
        <time>2018-03-16T12:13:52Z</time>
      </trkpt>
      <trkpt lat="43.70967" lon="7.29433">
        <ele>24.733</ele>
        <time>2018-03-16T12:13:55Z</time>
      </trkpt>
      <trkpt lat="43.70966" lon="7.29435">
        <ele>24.982</ele>
        <time>2018-03-16T12:13:57Z</time>
      </trkpt>
      <trkpt lat="43.70966" lon="7.29436">
        <ele>25.755</ele>
        <time>2018-03-16T12:13:59Z</time>
      </trkpt>
      <trkpt lat="43.70966" lon="7.29436">
        <ele>25.998</ele>
        <time>2018-03-16T12:14:00Z</time>
      </trkpt>
      <trkpt lat="43.70966" lon="7.29436">
        <ele>25.998</ele>
        <time>2018-03-16T12:14:00Z</time>
      </trkpt>
      <trkpt lat="43.70966" lon="7.29437">
        <ele>26.251</ele>
        <time>2018-03-16T12:14:01Z</time>
      </trkpt>
      <trkpt lat="43.70966" lon="7.29437">
        <ele>27.209</ele>
        <time>2018-03-16T12:14:02Z</time>
      </trkpt>
      <trkpt lat="43.70966" lon="7.29438">
        <ele>26.432</ele>
        <time>2018-03-16T12:14:03Z</time>
      </trkpt>
      <trkpt lat="43.70965" lon="7.2944">
        <ele>27.031</ele>
        <time>2018-03-16T12:14:05Z</time>
      </trkpt>
      <trkpt lat="43.70962" lon="7.29444">
        <ele>28.732</ele>
        <time>2018-03-16T12:14:16Z</time>
      </trkpt>
      <trkpt lat="43.70962" lon="7.29444">
        <ele>28.732</ele>
        <time>2018-03-16T12:14:16Z</time>
      </trkpt>
      <trkpt lat="43.70962" lon="7.29445">
        <ele>29.139</ele>
        <time>2018-03-16T12:14:17Z</time>
      </trkpt>
      <trkpt lat="43.7096" lon="7.29448">
        <ele>28.234</ele>
        <time>2018-03-16T12:14:22Z</time>
      </trkpt>
      <trkpt lat="43.70959" lon="7.29448">
        <ele>28.521</ele>
        <time>2018-03-16T12:14:23Z</time>
      </trkpt>
      <trkpt lat="43.70955" lon="7.29446">
        <ele>28.496</ele>
        <time>2018-03-16T12:14:25Z</time>
      </trkpt>
      <trkpt lat="43.70947" lon="7.29439">
        <ele>29.518</ele>
        <time>2018-03-16T12:14:31Z</time>
      </trkpt>
      <trkpt lat="43.70946" lon="7.29437">
        <ele>29.995</ele>
        <time>2018-03-16T12:14:32Z</time>
      </trkpt>
      <trkpt lat="43.70942" lon="7.29437">
        <ele>29.943</ele>
        <time>2018-03-16T12:14:35Z</time>
      </trkpt>
      <trkpt lat="43.70939" lon="7.29436">
        <ele>30.458</ele>
        <time>2018-03-16T12:14:38Z</time>
      </trkpt>
      <trkpt lat="43.70936" lon="7.29436">
        <ele>30.355</ele>
        <time>2018-03-16T12:14:40Z</time>
      </trkpt>
      <trkpt lat="43.70933" lon="7.29439">
        <ele>30.715</ele>
        <time>2018-03-16T12:14:43Z</time>
      </trkpt>
      <trkpt lat="43.7093" lon="7.29438">
        <ele>30.483</ele>
        <time>2018-03-16T12:14:46Z</time>
      </trkpt>
      <trkpt lat="43.70928" lon="7.29438">
        <ele>31.257</ele>
        <time>2018-03-16T12:14:49Z</time>
      </trkpt>
      <trkpt lat="43.70928" lon="7.29438">
        <ele>31.333</ele>
        <time>2018-03-16T12:14:51Z</time>
      </trkpt>
      <trkpt lat="43.70926" lon="7.29439">
        <ele>31.867</ele>
        <time>2018-03-16T12:14:52Z</time>
      </trkpt>
      <trkpt lat="43.70926" lon="7.29439">
        <ele>31.867</ele>
        <time>2018-03-16T12:14:52Z</time>
      </trkpt>
      <trkpt lat="43.70926" lon="7.29439">
        <ele>31.129</ele>
        <time>2018-03-16T12:14:53Z</time>
      </trkpt>
      <trkpt lat="43.70926" lon="7.29439">
        <ele>32.121</ele>
        <time>2018-03-16T12:15:05Z</time>
      </trkpt>
      <trkpt lat="43.70923" lon="7.29437">
        <ele>31.217</ele>
        <time>2018-03-16T12:15:06Z</time>
      </trkpt>
      <trkpt lat="43.70921" lon="7.29436">
        <ele>31.652</ele>
        <time>2018-03-16T12:15:08Z</time>
      </trkpt>
      <trkpt lat="43.70915" lon="7.29432">
        <ele>31.817</ele>
        <time>2018-03-16T12:15:12Z</time>
      </trkpt>
      <trkpt lat="43.7091" lon="7.29427">
        <ele>31.487</ele>
        <time>2018-03-16T12:15:16Z</time>
      </trkpt>
      <trkpt lat="43.70909" lon="7.29426">
        <ele>31.715</ele>
        <time>2018-03-16T12:15:17Z</time>
      </trkpt>
      <trkpt lat="43.70904" lon="7.29423">
        <ele>31.583</ele>
        <time>2018-03-16T12:15:21Z</time>
      </trkpt>
      <trkpt lat="43.70902" lon="7.29421">
        <ele>31.487</ele>
        <time>2018-03-16T12:15:22Z</time>
      </trkpt>
      <trkpt lat="43.70898" lon="7.29416">
        <ele>31.109</ele>
        <time>2018-03-16T12:15:25Z</time>
      </trkpt>
      <trkpt lat="43.70882" lon="7.29397">
        <ele>31.691</ele>
        <time>2018-03-16T12:15:39Z</time>
      </trkpt>
      <trkpt lat="43.70882" lon="7.29397">
        <ele>30.948</ele>
        <time>2018-03-16T12:15:40Z</time>
      </trkpt>
      <trkpt lat="43.70882" lon="7.29397">
        <ele>30.677</ele>
        <time>2018-03-16T12:15:41Z</time>
      </trkpt>
      <trkpt lat="43.70882" lon="7.29397">
        <ele>30.279</ele>
        <time>2018-03-16T12:15:48Z</time>
      </trkpt>
      <trkpt lat="43.70884" lon="7.29396">
        <ele>30.156</ele>
        <time>2018-03-16T12:15:49Z</time>
      </trkpt>
      <trkpt lat="43.70884" lon="7.29396">
        <ele>30.199</ele>
        <time>2018-03-16T12:15:50Z</time>
      </trkpt>
      <trkpt lat="43.70884" lon="7.29396">
        <ele>30.012</ele>
        <time>2018-03-16T12:16:06Z</time>
      </trkpt>
      <trkpt lat="43.70885" lon="7.29396">
        <ele>29.253</ele>
        <time>2018-03-16T12:16:07Z</time>
      </trkpt>
      <trkpt lat="43.70892" lon="7.294">
        <ele>28.786</ele>
        <time>2018-03-16T12:16:12Z</time>
      </trkpt>
      <trkpt lat="43.70895" lon="7.29403">
        <ele>27.991</ele>
        <time>2018-03-16T12:16:14Z</time>
      </trkpt>
      <trkpt lat="43.70899" lon="7.29406">
        <ele>28.14</ele>
        <time>2018-03-16T12:16:17Z</time>
      </trkpt>
      <trkpt lat="43.70903" lon="7.29408">
        <ele>28.199</ele>
        <time>2018-03-16T12:16:21Z</time>
      </trkpt>
      <trkpt lat="43.70912" lon="7.29409">
        <ele>27.941</ele>
        <time>2018-03-16T12:16:27Z</time>
      </trkpt>
      <trkpt lat="43.70915" lon="7.29415">
        <ele>28.419</ele>
        <time>2018-03-16T12:16:29Z</time>
      </trkpt>
      <trkpt lat="43.70918" lon="7.29422">
        <ele>29.076</ele>
        <time>2018-03-16T12:16:33Z</time>
      </trkpt>
      <trkpt lat="43.70925" lon="7.29432">
        <ele>30.167</ele>
        <time>2018-03-16T12:16:39Z</time>
      </trkpt>
      <trkpt lat="43.70928" lon="7.29434">
        <ele>30.21</ele>
        <time>2018-03-16T12:16:42Z</time>
      </trkpt>
      <trkpt lat="43.70933" lon="7.29437">
        <ele>30.928</ele>
        <time>2018-03-16T12:16:46Z</time>
      </trkpt>
      <trkpt lat="43.70937" lon="7.29441">
        <ele>31.492</ele>
        <time>2018-03-16T12:16:49Z</time>
      </trkpt>
      <trkpt lat="43.70945" lon="7.29446">
        <ele>31.569</ele>
        <time>2018-03-16T12:16:56Z</time>
      </trkpt>
      <trkpt lat="43.70947" lon="7.29446">
        <ele>31.188</ele>
        <time>2018-03-16T12:16:58Z</time>
      </trkpt>
      <trkpt lat="43.70951" lon="7.29445">
        <ele>31.294</ele>
        <time>2018-03-16T12:17:01Z</time>
      </trkpt>
      <trkpt lat="43.70953" lon="7.29447">
        <ele>31.583</ele>
        <time>2018-03-16T12:17:03Z</time>
      </trkpt>
      <trkpt lat="43.70962" lon="7.29448">
        <ele>32.311</ele>
        <time>2018-03-16T12:17:11Z</time>
      </trkpt>
      <trkpt lat="43.70964" lon="7.29447">
        <ele>32.263</ele>
        <time>2018-03-16T12:17:12Z</time>
      </trkpt>
      <trkpt lat="43.70967" lon="7.29445">
        <ele>32.198</ele>
        <time>2018-03-16T12:17:13Z</time>
      </trkpt>
      <trkpt lat="43.70971" lon="7.29443">
        <ele>32.056</ele>
        <time>2018-03-16T12:17:16Z</time>
      </trkpt>
      <trkpt lat="43.7098" lon="7.29441">
        <ele>32.913</ele>
        <time>2018-03-16T12:17:23Z</time>
      </trkpt>
      <trkpt lat="43.70986" lon="7.29442">
        <ele>33.116</ele>
        <time>2018-03-16T12:17:28Z</time>
      </trkpt>
      <trkpt lat="43.70996" lon="7.29446">
        <ele>34.709</ele>
        <time>2018-03-16T12:17:37Z</time>
      </trkpt>
      <trkpt lat="43.70999" lon="7.29445">
        <ele>35.251</ele>
        <time>2018-03-16T12:17:40Z</time>
      </trkpt>
      <trkpt lat="43.71001" lon="7.29448">
        <ele>35.519</ele>
        <time>2018-03-16T12:17:43Z</time>
      </trkpt>
      <trkpt lat="43.71002" lon="7.2945">
        <ele>36.14</ele>
        <time>2018-03-16T12:17:45Z</time>
      </trkpt>
      <trkpt lat="43.71002" lon="7.29451">
        <ele>36.425</ele>
        <time>2018-03-16T12:17:47Z</time>
      </trkpt>
      <trkpt lat="43.71003" lon="7.29452">
        <ele>36.533</ele>
        <time>2018-03-16T12:17:48Z</time>
      </trkpt>
      <trkpt lat="43.71006" lon="7.29454">
        <ele>36.637</ele>
        <time>2018-03-16T12:17:51Z</time>
      </trkpt>
      <trkpt lat="43.71017" lon="7.2946">
        <ele>38.6</ele>
        <time>2018-03-16T12:17:59Z</time>
      </trkpt>
      <trkpt lat="43.71019" lon="7.29461">
        <ele>38.178</ele>
        <time>2018-03-16T12:18:01Z</time>
      </trkpt>
      <trkpt lat="43.71021" lon="7.29461">
        <ele>38.531</ele>
        <time>2018-03-16T12:18:02Z</time>
      </trkpt>
      <trkpt lat="43.71022" lon="7.29461">
        <ele>38.655</ele>
        <time>2018-03-16T12:18:03Z</time>
      </trkpt>
      <trkpt lat="43.71023" lon="7.29462">
        <ele>38.723</ele>
        <time>2018-03-16T12:18:04Z</time>
      </trkpt>
      <trkpt lat="43.71025" lon="7.29466">
        <ele>39.159</ele>
        <time>2018-03-16T12:18:06Z</time>
      </trkpt>
      <trkpt lat="43.71031" lon="7.2948">
        <ele>40.035</ele>
        <time>2018-03-16T12:18:12Z</time>
      </trkpt>
      <trkpt lat="43.71031" lon="7.2948">
        <ele>39.799</ele>
        <time>2018-03-16T12:18:13Z</time>
      </trkpt>
      <trkpt lat="43.71035" lon="7.29479">
        <ele>39.537</ele>
        <time>2018-03-16T12:18:26Z</time>
      </trkpt>
      <trkpt lat="43.71035" lon="7.29479">
        <ele>39.554</ele>
        <time>2018-03-16T12:18:29Z</time>
      </trkpt>
      <trkpt lat="43.71035" lon="7.29479">
        <ele>39.669</ele>
        <time>2018-03-16T12:18:30Z</time>
      </trkpt>
      <trkpt lat="43.71035" lon="7.29479">
        <ele>39.669</ele>
        <time>2018-03-16T12:18:30Z</time>
      </trkpt>
      <trkpt lat="43.71035" lon="7.29479">
        <ele>39.889</ele>
        <time>2018-03-16T12:18:31Z</time>
      </trkpt>
      <trkpt lat="43.71035" lon="7.29479">
        <ele>39.775</ele>
        <time>2018-03-16T12:18:40Z</time>
      </trkpt>
      <trkpt lat="43.71036" lon="7.29478">
        <ele>39.436</ele>
        <time>2018-03-16T12:18:41Z</time>
      </trkpt>
      <trkpt lat="43.71036" lon="7.29478">
        <ele>39.201</ele>
        <time>2018-03-16T12:18:42Z</time>
      </trkpt>
      <trkpt lat="43.71036" lon="7.29478">
        <ele>39.395</ele>
        <time>2018-03-16T12:18:45Z</time>
      </trkpt>
      <trkpt lat="43.71038" lon="7.29478">
        <ele>39.826</ele>
        <time>2018-03-16T12:18:46Z</time>
      </trkpt>
      <trkpt lat="43.71043" lon="7.29481">
        <ele>41.391</ele>
        <time>2018-03-16T12:18:50Z</time>
      </trkpt>
      <trkpt lat="43.71047" lon="7.29484">
        <ele>40.983</ele>
        <time>2018-03-16T12:18:53Z</time>
      </trkpt>
      <trkpt lat="43.71056" lon="7.29492">
        <ele>41.086</ele>
        <time>2018-03-16T12:19:00Z</time>
      </trkpt>
      <trkpt lat="43.71061" lon="7.29494">
        <ele>41.091</ele>
        <time>2018-03-16T12:19:04Z</time>
      </trkpt>
      <trkpt lat="43.71061" lon="7.29493">
        <ele>40.972</ele>
        <time>2018-03-16T12:19:05Z</time>
      </trkpt>
      <trkpt lat="43.71061" lon="7.29493">
        <ele>40.971</ele>
        <time>2018-03-16T12:19:06Z</time>
      </trkpt>
      <trkpt lat="43.71061" lon="7.29493">
        <ele>40.971</ele>
        <time>2018-03-16T12:19:06Z</time>
      </trkpt>
      <trkpt lat="43.71061" lon="7.29493">
        <ele>40.89</ele>
        <time>2018-03-16T12:19:07Z</time>
      </trkpt>
      <trkpt lat="43.71061" lon="7.29493">
        <ele>41.233</ele>
        <time>2018-03-16T12:19:09Z</time>
      </trkpt>
      <trkpt lat="43.71059" lon="7.29493">
        <ele>41.522</ele>
        <time>2018-03-16T12:19:10Z</time>
      </trkpt>
      <trkpt lat="43.71059" lon="7.29493">
        <ele>41.456</ele>
        <time>2018-03-16T12:19:11Z</time>
      </trkpt>
      <trkpt lat="43.71059" lon="7.29493">
        <ele>41.456</ele>
        <time>2018-03-16T12:19:11Z</time>
      </trkpt>
      <trkpt lat="43.71058" lon="7.29494">
        <ele>41.588</ele>
        <time>2018-03-16T12:19:12Z</time>
      </trkpt>
      <trkpt lat="43.71057" lon="7.29497">
        <ele>41.557</ele>
        <time>2018-03-16T12:19:14Z</time>
      </trkpt>
      <trkpt lat="43.71056" lon="7.295">
        <ele>42.093</ele>
        <time>2018-03-16T12:19:17Z</time>
      </trkpt>
      <trkpt lat="43.71056" lon="7.295">
        <ele>42.1</ele>
        <time>2018-03-16T12:19:18Z</time>
      </trkpt>
      <trkpt lat="43.71056" lon="7.295">
        <ele>42.1</ele>
        <time>2018-03-16T12:19:18Z</time>
      </trkpt>
      <trkpt lat="43.71056" lon="7.29501">
        <ele>41.904</ele>
        <time>2018-03-16T12:19:19Z</time>
      </trkpt>
      <trkpt lat="43.71056" lon="7.29501">
        <ele>41.999</ele>
        <time>2018-03-16T12:19:20Z</time>
      </trkpt>
      <trkpt lat="43.71056" lon="7.29501">
        <ele>41.999</ele>
        <time>2018-03-16T12:19:20Z</time>
      </trkpt>
      <trkpt lat="43.71056" lon="7.29501">
        <ele>42.008</ele>
        <time>2018-03-16T12:19:21Z</time>
      </trkpt>
      <trkpt lat="43.71058" lon="7.29501">
        <ele>42.543</ele>
        <time>2018-03-16T12:19:24Z</time>
      </trkpt>
      <trkpt lat="43.71061" lon="7.29499">
        <ele>43.063</ele>
        <time>2018-03-16T12:19:26Z</time>
      </trkpt>
      <trkpt lat="43.71066" lon="7.29498">
        <ele>43.831</ele>
        <time>2018-03-16T12:19:29Z</time>
      </trkpt>
      <trkpt lat="43.71069" lon="7.29502">
        <ele>43.72</ele>
        <time>2018-03-16T12:19:31Z</time>
      </trkpt>
      <trkpt lat="43.71072" lon="7.29507">
        <ele>43.238</ele>
        <time>2018-03-16T12:19:34Z</time>
      </trkpt>
      <trkpt lat="43.71075" lon="7.29509">
        <ele>45.037</ele>
        <time>2018-03-16T12:19:37Z</time>
      </trkpt>
      <trkpt lat="43.71079" lon="7.29508">
        <ele>46.533</ele>
        <time>2018-03-16T12:19:41Z</time>
      </trkpt>
      <trkpt lat="43.7108" lon="7.29511">
        <ele>45.756</ele>
        <time>2018-03-16T12:19:44Z</time>
      </trkpt>
      <trkpt lat="43.71082" lon="7.29515">
        <ele>45.672</ele>
        <time>2018-03-16T12:19:46Z</time>
      </trkpt>
      <trkpt lat="43.71084" lon="7.29517">
        <ele>45.442</ele>
        <time>2018-03-16T12:19:48Z</time>
      </trkpt>
      <trkpt lat="43.71086" lon="7.29522">
        <ele>45.772</ele>
        <time>2018-03-16T12:19:51Z</time>
      </trkpt>
      <trkpt lat="43.71085" lon="7.29525">
        <ele>46.128</ele>
        <time>2018-03-16T12:19:53Z</time>
      </trkpt>
      <trkpt lat="43.71081" lon="7.29525">
        <ele>46.399</ele>
        <time>2018-03-16T12:19:56Z</time>
      </trkpt>
      <trkpt lat="43.71079" lon="7.29524">
        <ele>46.608</ele>
        <time>2018-03-16T12:19:58Z</time>
      </trkpt>
      <trkpt lat="43.7107" lon="7.29518">
        <ele>47.422</ele>
        <time>2018-03-16T12:20:04Z</time>
      </trkpt>
      <trkpt lat="43.71067" lon="7.29516">
        <ele>47.945</ele>
        <time>2018-03-16T12:20:07Z</time>
      </trkpt>
      <trkpt lat="43.71051" lon="7.29501">
        <ele>47.557</ele>
        <time>2018-03-16T12:20:22Z</time>
      </trkpt>
      <trkpt lat="43.71043" lon="7.29498">
        <ele>47.962</ele>
        <time>2018-03-16T12:20:29Z</time>
      </trkpt>
      <trkpt lat="43.7104" lon="7.29498">
        <ele>48.085</ele>
        <time>2018-03-16T12:20:32Z</time>
      </trkpt>
      <trkpt lat="43.71036" lon="7.29499">
        <ele>48.434</ele>
        <time>2018-03-16T12:20:35Z</time>
      </trkpt>
      <trkpt lat="43.71035" lon="7.29503">
        <ele>48.882</ele>
        <time>2018-03-16T12:20:38Z</time>
      </trkpt>
      <trkpt lat="43.71033" lon="7.29508">
        <ele>49.276</ele>
        <time>2018-03-16T12:20:41Z</time>
      </trkpt>
      <trkpt lat="43.71033" lon="7.29508">
        <ele>49.312</ele>
        <time>2018-03-16T12:20:42Z</time>
      </trkpt>
      <trkpt lat="43.71033" lon="7.29508">
        <ele>49.617</ele>
        <time>2018-03-16T12:20:43Z</time>
      </trkpt>
      <trkpt lat="43.71033" lon="7.2951">
        <ele>49.753</ele>
        <time>2018-03-16T12:20:44Z</time>
      </trkpt>
      <trkpt lat="43.71033" lon="7.29511">
        <ele>49.492</ele>
        <time>2018-03-16T12:20:45Z</time>
      </trkpt>
      <trkpt lat="43.71033" lon="7.29511">
        <ele>49.75</ele>
        <time>2018-03-16T12:20:46Z</time>
      </trkpt>
      <trkpt lat="43.71033" lon="7.29511">
        <ele>49.75</ele>
        <time>2018-03-16T12:20:46Z</time>
      </trkpt>
      <trkpt lat="43.71033" lon="7.29512">
        <ele>49.493</ele>
        <time>2018-03-16T12:20:47Z</time>
      </trkpt>
      <trkpt lat="43.71034" lon="7.29514">
        <ele>49.666</ele>
        <time>2018-03-16T12:20:49Z</time>
      </trkpt>
      <trkpt lat="43.71036" lon="7.29519">
        <ele>49.227</ele>
        <time>2018-03-16T12:20:53Z</time>
      </trkpt>
      <trkpt lat="43.71036" lon="7.29519">
        <ele>48.151</ele>
        <time>2018-03-16T12:21:00Z</time>
      </trkpt>
      <trkpt lat="43.71034" lon="7.29519">
        <ele>48.537</ele>
        <time>2018-03-16T12:21:01Z</time>
      </trkpt>
      <trkpt lat="43.71035" lon="7.29525">
        <ele>48.297</ele>
        <time>2018-03-16T12:21:05Z</time>
      </trkpt>
      <trkpt lat="43.71038" lon="7.29527">
        <ele>48.235</ele>
        <time>2018-03-16T12:21:07Z</time>
      </trkpt>
      <trkpt lat="43.71038" lon="7.29528">
        <ele>49.093</ele>
        <time>2018-03-16T12:21:11Z</time>
      </trkpt>
      <trkpt lat="43.71038" lon="7.29529">
        <ele>48.057</ele>
        <time>2018-03-16T12:21:12Z</time>
      </trkpt>
      <trkpt lat="43.71039" lon="7.29531">
        <ele>48.65</ele>
        <time>2018-03-16T12:21:15Z</time>
      </trkpt>
      <trkpt lat="43.71039" lon="7.29532">
        <ele>50.297</ele>
        <time>2018-03-16T12:21:16Z</time>
      </trkpt>
      <trkpt lat="43.71041" lon="7.29535">
        <ele>52.172</ele>
        <time>2018-03-16T12:21:20Z</time>
      </trkpt>
      <trkpt lat="43.71041" lon="7.29535">
        <ele>52.162</ele>
        <time>2018-03-16T12:21:21Z</time>
      </trkpt>
      <trkpt lat="43.71044" lon="7.29538">
        <ele>53.461</ele>
        <time>2018-03-16T12:21:25Z</time>
      </trkpt>
      <trkpt lat="43.71044" lon="7.29538">
        <ele>52.743</ele>
        <time>2018-03-16T12:21:26Z</time>
      </trkpt>
      <trkpt lat="43.71044" lon="7.29538">
        <ele>52.352</ele>
        <time>2018-03-16T12:21:28Z</time>
      </trkpt>
      <trkpt lat="43.71045" lon="7.29538">
        <ele>53.41</ele>
        <time>2018-03-16T12:21:29Z</time>
      </trkpt>
      <trkpt lat="43.71045" lon="7.29538">
        <ele>52.506</ele>
        <time>2018-03-16T12:21:30Z</time>
      </trkpt>
      <trkpt lat="43.71045" lon="7.29542">
        <ele>52.399</ele>
        <time>2018-03-16T12:21:34Z</time>
      </trkpt>
      <trkpt lat="43.71045" lon="7.29542">
        <ele>52.749</ele>
        <time>2018-03-16T12:21:35Z</time>
      </trkpt>
      <trkpt lat="43.71045" lon="7.29542">
        <ele>54.527</ele>
        <time>2018-03-16T12:21:36Z</time>
      </trkpt>
      <trkpt lat="43.71042" lon="7.29543">
        <ele>55.06</ele>
        <time>2018-03-16T12:21:39Z</time>
      </trkpt>
      <trkpt lat="43.71039" lon="7.29542">
        <ele>55.168</ele>
        <time>2018-03-16T12:21:42Z</time>
      </trkpt>
      <trkpt lat="43.71032" lon="7.29542">
        <ele>55.614</ele>
        <time>2018-03-16T12:21:48Z</time>
      </trkpt>
      <trkpt lat="43.71029" lon="7.29543">
        <ele>55.379</ele>
        <time>2018-03-16T12:21:51Z</time>
      </trkpt>
      <trkpt lat="43.71026" lon="7.29544">
        <ele>55.61</ele>
        <time>2018-03-16T12:21:54Z</time>
      </trkpt>
      <trkpt lat="43.71025" lon="7.29544">
        <ele>55.463</ele>
        <time>2018-03-16T12:21:56Z</time>
      </trkpt>
      <trkpt lat="43.71024" lon="7.29545">
        <ele>56.173</ele>
        <time>2018-03-16T12:21:57Z</time>
      </trkpt>
      <trkpt lat="43.7102" lon="7.29547">
        <ele>56.136</ele>
        <time>2018-03-16T12:22:00Z</time>
      </trkpt>
      <trkpt lat="43.71017" lon="7.29547">
        <ele>56.117</ele>
        <time>2018-03-16T12:22:02Z</time>
      </trkpt>
      <trkpt lat="43.71014" lon="7.29547">
        <ele>55.823</ele>
        <time>2018-03-16T12:22:05Z</time>
      </trkpt>
      <trkpt lat="43.71012" lon="7.29547">
        <ele>56.122</ele>
        <time>2018-03-16T12:22:07Z</time>
      </trkpt>
      <trkpt lat="43.71007" lon="7.29547">
        <ele>56.759</ele>
        <time>2018-03-16T12:22:11Z</time>
      </trkpt>
      <trkpt lat="43.71004" lon="7.29548">
        <ele>56.951</ele>
        <time>2018-03-16T12:22:14Z</time>
      </trkpt>
      <trkpt lat="43.71" lon="7.29548">
        <ele>57.989</ele>
        <time>2018-03-16T12:22:16Z</time>
      </trkpt>
      <trkpt lat="43.70997" lon="7.29547">
        <ele>58.644</ele>
        <time>2018-03-16T12:22:18Z</time>
      </trkpt>
      <trkpt lat="43.70993" lon="7.29545">
        <ele>58.994</ele>
        <time>2018-03-16T12:22:21Z</time>
      </trkpt>
      <trkpt lat="43.70991" lon="7.29545">
        <ele>59.086</ele>
        <time>2018-03-16T12:22:23Z</time>
      </trkpt>
      <trkpt lat="43.70989" lon="7.29548">
        <ele>60.157</ele>
        <time>2018-03-16T12:22:27Z</time>
      </trkpt>
      <trkpt lat="43.70986" lon="7.29549">
        <ele>60.716</ele>
        <time>2018-03-16T12:22:30Z</time>
      </trkpt>
      <trkpt lat="43.70982" lon="7.29547">
        <ele>60.442</ele>
        <time>2018-03-16T12:22:33Z</time>
      </trkpt>
      <trkpt lat="43.70979" lon="7.29546">
        <ele>61.059</ele>
        <time>2018-03-16T12:22:35Z</time>
      </trkpt>
      <trkpt lat="43.70974" lon="7.29545">
        <ele>62.019</ele>
        <time>2018-03-16T12:22:38Z</time>
      </trkpt>
      <trkpt lat="43.70962" lon="7.2954">
        <ele>64.098</ele>
        <time>2018-03-16T12:22:46Z</time>
      </trkpt>
      <trkpt lat="43.70955" lon="7.29537">
        <ele>65.056</ele>
        <time>2018-03-16T12:22:52Z</time>
      </trkpt>
      <trkpt lat="43.70949" lon="7.29537">
        <ele>65.571</ele>
        <time>2018-03-16T12:22:57Z</time>
      </trkpt>
      <trkpt lat="43.70947" lon="7.2954">
        <ele>65.629</ele>
        <time>2018-03-16T12:23:00Z</time>
      </trkpt>
      <trkpt lat="43.70945" lon="7.29544">
        <ele>65.725</ele>
        <time>2018-03-16T12:23:03Z</time>
      </trkpt>
      <trkpt lat="43.70942" lon="7.29545">
        <ele>65.977</ele>
        <time>2018-03-16T12:23:08Z</time>
      </trkpt>
      <trkpt lat="43.70939" lon="7.29545">
        <ele>66.446</ele>
        <time>2018-03-16T12:23:11Z</time>
      </trkpt>
      <trkpt lat="43.70936" lon="7.29546">
        <ele>66.857</ele>
        <time>2018-03-16T12:23:13Z</time>
      </trkpt>
      <trkpt lat="43.70932" lon="7.29549">
        <ele>67.143</ele>
        <time>2018-03-16T12:23:17Z</time>
      </trkpt>
      <trkpt lat="43.70931" lon="7.29549">
        <ele>66.975</ele>
        <time>2018-03-16T12:23:18Z</time>
      </trkpt>
      <trkpt lat="43.70931" lon="7.29549">
        <ele>66.975</ele>
        <time>2018-03-16T12:23:18Z</time>
      </trkpt>
      <trkpt lat="43.70931" lon="7.29549">
        <ele>66.891</ele>
        <time>2018-03-16T12:23:19Z</time>
      </trkpt>
      <trkpt lat="43.70931" lon="7.29549">
        <ele>66.891</ele>
        <time>2018-03-16T12:23:19Z</time>
      </trkpt>
      <trkpt lat="43.70931" lon="7.29549">
        <ele>66.845</ele>
        <time>2018-03-16T12:23:20Z</time>
      </trkpt>
      <trkpt lat="43.70931" lon="7.29549">
        <ele>66.845</ele>
        <time>2018-03-16T12:23:20Z</time>
      </trkpt>
      <trkpt lat="43.70931" lon="7.29549">
        <ele>66.754</ele>
        <time>2018-03-16T12:23:21Z</time>
      </trkpt>
      <trkpt lat="43.70931" lon="7.29549">
        <ele>66.893</ele>
        <time>2018-03-16T12:23:23Z</time>
      </trkpt>
      <trkpt lat="43.70931" lon="7.29548">
        <ele>66.999</ele>
        <time>2018-03-16T12:23:24Z</time>
      </trkpt>
      <trkpt lat="43.70931" lon="7.29548">
        <ele>66.798</ele>
        <time>2018-03-16T12:23:25Z</time>
      </trkpt>
      <trkpt lat="43.70931" lon="7.29548">
        <ele>66.87</ele>
        <time>2018-03-16T12:23:26Z</time>
      </trkpt>
      <trkpt lat="43.70931" lon="7.29548">
        <ele>66.879</ele>
        <time>2018-03-16T12:23:30Z</time>
      </trkpt>
      <trkpt lat="43.7093" lon="7.29549">
        <ele>67.004</ele>
        <time>2018-03-16T12:23:31Z</time>
      </trkpt>
      <trkpt lat="43.70927" lon="7.29549">
        <ele>66.442</ele>
        <time>2018-03-16T12:23:34Z</time>
      </trkpt>
      <trkpt lat="43.7092" lon="7.29546">
        <ele>66.546</ele>
        <time>2018-03-16T12:23:40Z</time>
      </trkpt>
      <trkpt lat="43.70917" lon="7.29545">
        <ele>68.082</ele>
        <time>2018-03-16T12:23:43Z</time>
      </trkpt>
      <trkpt lat="43.70916" lon="7.29545">
        <ele>68.251</ele>
        <time>2018-03-16T12:23:44Z</time>
      </trkpt>
      <trkpt lat="43.70915" lon="7.29545">
        <ele>68.286</ele>
        <time>2018-03-16T12:23:45Z</time>
      </trkpt>
      <trkpt lat="43.70912" lon="7.29542">
        <ele>67.768</ele>
        <time>2018-03-16T12:23:47Z</time>
      </trkpt>
      <trkpt lat="43.709" lon="7.29533">
        <ele>68.316</ele>
        <time>2018-03-16T12:23:57Z</time>
      </trkpt>
      <trkpt lat="43.70897" lon="7.2953">
        <ele>68.904</ele>
        <time>2018-03-16T12:24:00Z</time>
      </trkpt>
      <trkpt lat="43.7089" lon="7.29526">
        <ele>69.392</ele>
        <time>2018-03-16T12:24:05Z</time>
      </trkpt>
      <trkpt lat="43.70886" lon="7.29526">
        <ele>69.515</ele>
        <time>2018-03-16T12:24:07Z</time>
      </trkpt>
      <trkpt lat="43.70885" lon="7.29526">
        <ele>69.453</ele>
        <time>2018-03-16T12:24:08Z</time>
      </trkpt>
      <trkpt lat="43.70879" lon="7.2952">
        <ele>69.694</ele>
        <time>2018-03-16T12:24:15Z</time>
      </trkpt>
      <trkpt lat="43.70882" lon="7.29523">
        <ele>69.631</ele>
        <time>2018-03-16T12:24:18Z</time>
      </trkpt>
      <trkpt lat="43.70883" lon="7.29523">
        <ele>69.67</ele>
        <time>2018-03-16T12:24:19Z</time>
      </trkpt>
      <trkpt lat="43.70883" lon="7.29523">
        <ele>69.531</ele>
        <time>2018-03-16T12:24:20Z</time>
      </trkpt>
      <trkpt lat="43.70883" lon="7.29523">
        <ele>69.531</ele>
        <time>2018-03-16T12:24:20Z</time>
      </trkpt>
      <trkpt lat="43.70884" lon="7.29523">
        <ele>69.531</ele>
        <time>2018-03-16T12:24:21Z</time>
      </trkpt>
      <trkpt lat="43.70885" lon="7.29524">
        <ele>69.74</ele>
        <time>2018-03-16T12:24:22Z</time>
      </trkpt>
      <trkpt lat="43.70886" lon="7.29524">
        <ele>69.9</ele>
        <time>2018-03-16T12:24:23Z</time>
      </trkpt>
      <trkpt lat="43.70886" lon="7.29524">
        <ele>69.9</ele>
        <time>2018-03-16T12:24:23Z</time>
      </trkpt>
      <trkpt lat="43.70886" lon="7.29524">
        <ele>70.039</ele>
        <time>2018-03-16T12:24:24Z</time>
      </trkpt>
      <trkpt lat="43.70886" lon="7.29524">
        <ele>70.138</ele>
        <time>2018-03-16T12:24:28Z</time>
      </trkpt>
      <trkpt lat="43.70885" lon="7.29522">
        <ele>70.236</ele>
        <time>2018-03-16T12:24:29Z</time>
      </trkpt>
      <trkpt lat="43.70885" lon="7.29521">
        <ele>70.308</ele>
        <time>2018-03-16T12:24:30Z</time>
      </trkpt>
      <trkpt lat="43.70884" lon="7.29521">
        <ele>70.454</ele>
        <time>2018-03-16T12:24:31Z</time>
      </trkpt>
      <trkpt lat="43.70884" lon="7.29521">
        <ele>70.639</ele>
        <time>2018-03-16T12:24:32Z</time>
      </trkpt>
      <trkpt lat="43.70884" lon="7.29521">
        <ele>70.821</ele>
        <time>2018-03-16T12:24:33Z</time>
      </trkpt>
      <trkpt lat="43.70884" lon="7.29521">
        <ele>70.929</ele>
        <time>2018-03-16T12:25:14Z</time>
      </trkpt>
      <trkpt lat="43.70882" lon="7.2952">
        <ele>70.966</ele>
        <time>2018-03-16T12:25:15Z</time>
      </trkpt>
      <trkpt lat="43.70879" lon="7.29521">
        <ele>70.785</ele>
        <time>2018-03-16T12:25:17Z</time>
      </trkpt>
      <trkpt lat="43.70876" lon="7.29521">
        <ele>71.181</ele>
        <time>2018-03-16T12:25:19Z</time>
      </trkpt>
      <trkpt lat="43.70873" lon="7.29518">
        <ele>72.554</ele>
        <time>2018-03-16T12:25:22Z</time>
      </trkpt>
      <trkpt lat="43.70871" lon="7.29516">
        <ele>73.27</ele>
        <time>2018-03-16T12:25:23Z</time>
      </trkpt>
      <trkpt lat="43.70863" lon="7.29513">
        <ele>72.776</ele>
        <time>2018-03-16T12:25:28Z</time>
      </trkpt>
      <trkpt lat="43.7086" lon="7.29512">
        <ele>72.499</ele>
        <time>2018-03-16T12:25:32Z</time>
      </trkpt>
      <trkpt lat="43.70857" lon="7.29511">
        <ele>72.204</ele>
        <time>2018-03-16T12:25:34Z</time>
      </trkpt>
      <trkpt lat="43.70854" lon="7.2951">
        <ele>72.161</ele>
        <time>2018-03-16T12:25:36Z</time>
      </trkpt>
      <trkpt lat="43.70851" lon="7.29511">
        <ele>71.98</ele>
        <time>2018-03-16T12:25:39Z</time>
      </trkpt>
      <trkpt lat="43.70844" lon="7.29518">
        <ele>72.464</ele>
        <time>2018-03-16T12:25:46Z</time>
      </trkpt>
      <trkpt lat="43.70841" lon="7.29527">
        <ele>72.022</ele>
        <time>2018-03-16T12:25:51Z</time>
      </trkpt>
      <trkpt lat="43.70841" lon="7.29533">
        <ele>71.574</ele>
        <time>2018-03-16T12:25:55Z</time>
      </trkpt>
      <trkpt lat="43.70843" lon="7.29537">
        <ele>71.894</ele>
        <time>2018-03-16T12:25:58Z</time>
      </trkpt>
      <trkpt lat="43.70846" lon="7.29539">
        <ele>71.977</ele>
        <time>2018-03-16T12:26:00Z</time>
      </trkpt>
      <trkpt lat="43.70849" lon="7.29539">
        <ele>71.965</ele>
        <time>2018-03-16T12:26:02Z</time>
      </trkpt>
      <trkpt lat="43.70852" lon="7.29541">
        <ele>72.037</ele>
        <time>2018-03-16T12:26:04Z</time>
      </trkpt>
      <trkpt lat="43.70855" lon="7.29543">
        <ele>71.929</ele>
        <time>2018-03-16T12:26:06Z</time>
      </trkpt>
      <trkpt lat="43.70858" lon="7.29544">
        <ele>72.267</ele>
        <time>2018-03-16T12:26:09Z</time>
      </trkpt>
      <trkpt lat="43.70858" lon="7.29544">
        <ele>72.267</ele>
        <time>2018-03-16T12:26:09Z</time>
      </trkpt>
      <trkpt lat="43.70859" lon="7.29543">
        <ele>71.989</ele>
        <time>2018-03-16T12:26:10Z</time>
      </trkpt>
      <trkpt lat="43.7086" lon="7.29542">
        <ele>71.367</ele>
        <time>2018-03-16T12:26:12Z</time>
      </trkpt>
      <trkpt lat="43.70863" lon="7.29542">
        <ele>71.4</ele>
        <time>2018-03-16T12:26:14Z</time>
      </trkpt>
      <trkpt lat="43.70867" lon="7.29542">
        <ele>71.383</ele>
        <time>2018-03-16T12:26:17Z</time>
      </trkpt>
      <trkpt lat="43.7087" lon="7.29541">
        <ele>71.114</ele>
        <time>2018-03-16T12:26:20Z</time>
      </trkpt>
      <trkpt lat="43.70871" lon="7.29541">
        <ele>71.302</ele>
        <time>2018-03-16T12:26:21Z</time>
      </trkpt>
      <trkpt lat="43.70874" lon="7.29539">
        <ele>71.201</ele>
        <time>2018-03-16T12:26:24Z</time>
      </trkpt>
      <trkpt lat="43.70877" lon="7.29536">
        <ele>71.322</ele>
        <time>2018-03-16T12:26:28Z</time>
      </trkpt>
      <trkpt lat="43.70877" lon="7.29536">
        <ele>71.177</ele>
        <time>2018-03-16T12:26:29Z</time>
      </trkpt>
      <trkpt lat="43.70878" lon="7.29535">
        <ele>71.507</ele>
        <time>2018-03-16T12:26:31Z</time>
      </trkpt>
      <trkpt lat="43.70878" lon="7.29535">
        <ele>71.995</ele>
        <time>2018-03-16T12:26:37Z</time>
      </trkpt>
      <trkpt lat="43.70877" lon="7.29532">
        <ele>71.917</ele>
        <time>2018-03-16T12:26:38Z</time>
      </trkpt>
      <trkpt lat="43.70878" lon="7.29531">
        <ele>72.446</ele>
        <time>2018-03-16T12:26:40Z</time>
      </trkpt>
      <trkpt lat="43.70878" lon="7.29532">
        <ele>72.306</ele>
        <time>2018-03-16T12:26:42Z</time>
      </trkpt>
      <trkpt lat="43.70878" lon="7.29532">
        <ele>72.31</ele>
        <time>2018-03-16T12:26:53Z</time>
      </trkpt>
      <trkpt lat="43.7088" lon="7.29532">
        <ele>71.897</ele>
        <time>2018-03-16T12:26:54Z</time>
      </trkpt>
      <trkpt lat="43.7088" lon="7.29532">
        <ele>72.152</ele>
        <time>2018-03-16T12:26:55Z</time>
      </trkpt>
      <trkpt lat="43.7088" lon="7.29532">
        <ele>72.242</ele>
        <time>2018-03-16T12:26:56Z</time>
      </trkpt>
      <trkpt lat="43.70882" lon="7.29534">
        <ele>73.324</ele>
        <time>2018-03-16T12:27:02Z</time>
      </trkpt>
      <trkpt lat="43.70882" lon="7.29534">
        <ele>73.335</ele>
        <time>2018-03-16T12:27:36Z</time>
      </trkpt>
      <trkpt lat="43.70882" lon="7.29534">
        <ele>73.553</ele>
        <time>2018-03-16T12:27:37Z</time>
      </trkpt>
      <trkpt lat="43.70882" lon="7.29534">
        <ele>73.505</ele>
        <time>2018-03-16T12:27:38Z</time>
      </trkpt>
      <trkpt lat="43.70882" lon="7.29534">
        <ele>73.523</ele>
        <time>2018-03-16T12:27:39Z</time>
      </trkpt>
      <trkpt lat="43.70882" lon="7.29534">
        <ele>72.558</ele>
        <time>2018-03-16T12:28:14Z</time>
      </trkpt>
      <trkpt lat="43.70886" lon="7.29535">
        <ele>72.454</ele>
        <time>2018-03-16T12:28:15Z</time>
      </trkpt>
      <trkpt lat="43.70886" lon="7.29535">
        <ele>72.941</ele>
        <time>2018-03-16T12:28:16Z</time>
      </trkpt>
      <trkpt lat="43.70886" lon="7.29535">
        <ele>73.811</ele>
        <time>2018-03-16T12:28:17Z</time>
      </trkpt>
      <trkpt lat="43.70886" lon="7.29535">
        <ele>73.945</ele>
        <time>2018-03-16T12:28:23Z</time>
      </trkpt>
      <trkpt lat="43.70885" lon="7.29535">
        <ele>73.41</ele>
        <time>2018-03-16T12:28:24Z</time>
      </trkpt>
      <trkpt lat="43.70885" lon="7.29535">
        <ele>73.453</ele>
        <time>2018-03-16T12:28:25Z</time>
      </trkpt>
      <trkpt lat="43.70885" lon="7.29535">
        <ele>73.453</ele>
        <time>2018-03-16T12:28:25Z</time>
      </trkpt>
      <trkpt lat="43.70885" lon="7.29535">
        <ele>73.462</ele>
        <time>2018-03-16T12:28:26Z</time>
      </trkpt>
      <trkpt lat="43.70884" lon="7.2953">
        <ele>73.031</ele>
        <time>2018-03-16T12:28:28Z</time>
      </trkpt>
      <trkpt lat="43.70885" lon="7.29526">
        <ele>72.512</ele>
        <time>2018-03-16T12:28:29Z</time>
      </trkpt>
      <trkpt lat="43.70885" lon="7.29516">
        <ele>71.449</ele>
        <time>2018-03-16T12:28:32Z</time>
      </trkpt>
      <trkpt lat="43.70885" lon="7.29516">
        <ele>71.449</ele>
        <time>2018-03-16T12:28:32Z</time>
      </trkpt>
      <trkpt lat="43.70884" lon="7.29522">
        <ele>71.718</ele>
        <time>2018-03-16T12:28:33Z</time>
      </trkpt>
      <trkpt lat="43.70884" lon="7.29522">
        <ele>72.275</ele>
        <time>2018-03-16T12:28:34Z</time>
      </trkpt>
      <trkpt lat="43.70885" lon="7.29524">
        <ele>72.06</ele>
        <time>2018-03-16T12:28:35Z</time>
      </trkpt>
      <trkpt lat="43.70886" lon="7.29527">
        <ele>72.087</ele>
        <time>2018-03-16T12:28:36Z</time>
      </trkpt>
      <trkpt lat="43.70888" lon="7.29527">
        <ele>72.056</ele>
        <time>2018-03-16T12:28:38Z</time>
      </trkpt>
      <trkpt lat="43.70889" lon="7.29526">
        <ele>71.778</ele>
        <time>2018-03-16T12:28:39Z</time>
      </trkpt>
      <trkpt lat="43.70889" lon="7.29526">
        <ele>71.898</ele>
        <time>2018-03-16T12:28:40Z</time>
      </trkpt>
      <trkpt lat="43.70889" lon="7.29526">
        <ele>71.898</ele>
        <time>2018-03-16T12:28:40Z</time>
      </trkpt>
      <trkpt lat="43.70888" lon="7.29527">
        <ele>72.384</ele>
        <time>2018-03-16T12:28:41Z</time>
      </trkpt>
      <trkpt lat="43.70888" lon="7.29527">
        <ele>72.494</ele>
        <time>2018-03-16T12:28:43Z</time>
      </trkpt>
      <trkpt lat="43.70888" lon="7.29527">
        <ele>72.494</ele>
        <time>2018-03-16T12:28:43Z</time>
      </trkpt>
      <trkpt lat="43.70887" lon="7.29527">
        <ele>72.357</ele>
        <time>2018-03-16T12:28:44Z</time>
      </trkpt>
      <trkpt lat="43.70883" lon="7.29528">
        <ele>72.008</ele>
        <time>2018-03-16T12:28:48Z</time>
      </trkpt>
      <trkpt lat="43.70883" lon="7.29528">
        <ele>71.562</ele>
        <time>2018-03-16T12:28:49Z</time>
      </trkpt>
      <trkpt lat="43.70883" lon="7.29528">
        <ele>71.562</ele>
        <time>2018-03-16T12:28:49Z</time>
      </trkpt>
      <trkpt lat="43.70881" lon="7.29529">
        <ele>70.797</ele>
        <time>2018-03-16T12:28:50Z</time>
      </trkpt>
      <trkpt lat="43.70879" lon="7.29531">
        <ele>70.974</ele>
        <time>2018-03-16T12:28:53Z</time>
      </trkpt>
      <trkpt lat="43.70878" lon="7.29532">
        <ele>71.428</ele>
        <time>2018-03-16T12:28:54Z</time>
      </trkpt>
      <trkpt lat="43.70875" lon="7.29535">
        <ele>72.975</ele>
        <time>2018-03-16T12:28:57Z</time>
      </trkpt>
      <trkpt lat="43.70873" lon="7.29534">
        <ele>72.579</ele>
        <time>2018-03-16T12:29:01Z</time>
      </trkpt>
      <trkpt lat="43.70873" lon="7.29534">
        <ele>71.2</ele>
        <time>2018-03-16T12:29:42Z</time>
      </trkpt>
      <trkpt lat="43.70871" lon="7.29535">
        <ele>71.282</ele>
        <time>2018-03-16T12:29:43Z</time>
      </trkpt>
      <trkpt lat="43.7087" lon="7.29535">
        <ele>72.15</ele>
        <time>2018-03-16T12:29:44Z</time>
      </trkpt>
      <trkpt lat="43.70866" lon="7.29537">
        <ele>73.116</ele>
        <time>2018-03-16T12:29:46Z</time>
      </trkpt>
      <trkpt lat="43.70861" lon="7.29538">
        <ele>73.272</ele>
        <time>2018-03-16T12:29:50Z</time>
      </trkpt>
      <trkpt lat="43.70858" lon="7.29542">
        <ele>73.696</ele>
        <time>2018-03-16T12:29:53Z</time>
      </trkpt>
      <trkpt lat="43.70855" lon="7.29544">
        <ele>74.223</ele>
        <time>2018-03-16T12:29:56Z</time>
      </trkpt>
      <trkpt lat="43.70848" lon="7.29538">
        <ele>75.835</ele>
        <time>2018-03-16T12:30:02Z</time>
      </trkpt>
      <trkpt lat="43.70844" lon="7.29534">
        <ele>76.076</ele>
        <time>2018-03-16T12:30:05Z</time>
      </trkpt>
      <trkpt lat="43.70842" lon="7.29529">
        <ele>76.214</ele>
        <time>2018-03-16T12:30:08Z</time>
      </trkpt>
      <trkpt lat="43.70842" lon="7.29524">
        <ele>75.386</ele>
        <time>2018-03-16T12:30:11Z</time>
      </trkpt>
      <trkpt lat="43.70843" lon="7.29517">
        <ele>75.532</ele>
        <time>2018-03-16T12:30:15Z</time>
      </trkpt>
      <trkpt lat="43.70847" lon="7.2951">
        <ele>75.215</ele>
        <time>2018-03-16T12:30:19Z</time>
      </trkpt>
      <trkpt lat="43.70849" lon="7.29508">
        <ele>75.231</ele>
        <time>2018-03-16T12:30:21Z</time>
      </trkpt>
      <trkpt lat="43.70859" lon="7.29506">
        <ele>75.766</ele>
        <time>2018-03-16T12:30:27Z</time>
      </trkpt>
      <trkpt lat="43.70868" lon="7.29506">
        <ele>75.365</ele>
        <time>2018-03-16T12:30:34Z</time>
      </trkpt>
      <trkpt lat="43.7087" lon="7.29505">
        <ele>75.265</ele>
        <time>2018-03-16T12:30:35Z</time>
      </trkpt>
      <trkpt lat="43.70872" lon="7.29502">
        <ele>75.319</ele>
        <time>2018-03-16T12:30:38Z</time>
      </trkpt>
      <trkpt lat="43.70875" lon="7.29504">
        <ele>74.961</ele>
        <time>2018-03-16T12:30:40Z</time>
      </trkpt>
      <trkpt lat="43.70883" lon="7.29514">
        <ele>74.348</ele>
        <time>2018-03-16T12:30:46Z</time>
      </trkpt>
      <trkpt lat="43.70885" lon="7.29518">
        <ele>73.732</ele>
        <time>2018-03-16T12:30:50Z</time>
      </trkpt>
      <trkpt lat="43.70888" lon="7.29522">
        <ele>73.506</ele>
        <time>2018-03-16T12:30:54Z</time>
      </trkpt>
      <trkpt lat="43.70888" lon="7.29522">
        <ele>73.722</ele>
        <time>2018-03-16T12:30:55Z</time>
      </trkpt>
      <trkpt lat="43.70888" lon="7.29522">
        <ele>73.722</ele>
        <time>2018-03-16T12:30:55Z</time>
      </trkpt>
      <trkpt lat="43.7089" lon="7.29523">
        <ele>73.437</ele>
        <time>2018-03-16T12:30:56Z</time>
      </trkpt>
      <trkpt lat="43.70893" lon="7.29526">
        <ele>73.65</ele>
        <time>2018-03-16T12:30:59Z</time>
      </trkpt>
      <trkpt lat="43.70898" lon="7.29529">
        <ele>73.15</ele>
        <time>2018-03-16T12:31:02Z</time>
      </trkpt>
      <trkpt lat="43.709" lon="7.29533">
        <ele>73.19</ele>
        <time>2018-03-16T12:31:05Z</time>
      </trkpt>
      <trkpt lat="43.70901" lon="7.29537">
        <ele>72.947</ele>
        <time>2018-03-16T12:31:08Z</time>
      </trkpt>
      <trkpt lat="43.70904" lon="7.29537">
        <ele>72.831</ele>
        <time>2018-03-16T12:31:10Z</time>
      </trkpt>
      <trkpt lat="43.70918" lon="7.29542">
        <ele>71.926</ele>
        <time>2018-03-16T12:31:18Z</time>
      </trkpt>
      <trkpt lat="43.70921" lon="7.29542">
        <ele>72.012</ele>
        <time>2018-03-16T12:31:20Z</time>
      </trkpt>
      <trkpt lat="43.70942" lon="7.29544">
        <ele>71.645</ele>
        <time>2018-03-16T12:31:34Z</time>
      </trkpt>
      <trkpt lat="43.70944" lon="7.29542">
        <ele>71.37</ele>
        <time>2018-03-16T12:31:36Z</time>
      </trkpt>
      <trkpt lat="43.70947" lon="7.29538">
        <ele>71.163</ele>
        <time>2018-03-16T12:31:39Z</time>
      </trkpt>
      <trkpt lat="43.70947" lon="7.29537">
        <ele>70.944</ele>
        <time>2018-03-16T12:31:40Z</time>
      </trkpt>
      <trkpt lat="43.70945" lon="7.29539">
        <ele>70.389</ele>
        <time>2018-03-16T12:31:43Z</time>
      </trkpt>
      <trkpt lat="43.70945" lon="7.29539">
        <ele>70.389</ele>
        <time>2018-03-16T12:31:43Z</time>
      </trkpt>
      <trkpt lat="43.70945" lon="7.29539">
        <ele>70.425</ele>
        <time>2018-03-16T12:31:44Z</time>
      </trkpt>
      <trkpt lat="43.70946" lon="7.29539">
        <ele>70.414</ele>
        <time>2018-03-16T12:31:45Z</time>
      </trkpt>
      <trkpt lat="43.70948" lon="7.29538">
        <ele>70.189</ele>
        <time>2018-03-16T12:31:47Z</time>
      </trkpt>
      <trkpt lat="43.70948" lon="7.29537">
        <ele>70.15</ele>
        <time>2018-03-16T12:31:49Z</time>
      </trkpt>
      <trkpt lat="43.70948" lon="7.29537">
        <ele>70.106</ele>
        <time>2018-03-16T12:31:50Z</time>
      </trkpt>
      <trkpt lat="43.70948" lon="7.29536">
        <ele>70.058</ele>
        <time>2018-03-16T12:31:51Z</time>
      </trkpt>
      <trkpt lat="43.70948" lon="7.29534">
        <ele>69.83</ele>
        <time>2018-03-16T12:31:52Z</time>
      </trkpt>
      <trkpt lat="43.70949" lon="7.29532">
        <ele>69.596</ele>
        <time>2018-03-16T12:31:53Z</time>
      </trkpt>
      <trkpt lat="43.70951" lon="7.2953">
        <ele>69.533</ele>
        <time>2018-03-16T12:31:56Z</time>
      </trkpt>
      <trkpt lat="43.70956" lon="7.29528">
        <ele>69.337</ele>
        <time>2018-03-16T12:31:59Z</time>
      </trkpt>
      <trkpt lat="43.7096" lon="7.29529">
        <ele>69.207</ele>
        <time>2018-03-16T12:32:02Z</time>
      </trkpt>
      <trkpt lat="43.70963" lon="7.29531">
        <ele>69.048</ele>
        <time>2018-03-16T12:32:04Z</time>
      </trkpt>
      <trkpt lat="43.70969" lon="7.29533">
        <ele>69.81</ele>
        <time>2018-03-16T12:32:09Z</time>
      </trkpt>
      <trkpt lat="43.70977" lon="7.29536">
        <ele>70.271</ele>
        <time>2018-03-16T12:32:15Z</time>
      </trkpt>
      <trkpt lat="43.70977" lon="7.29536">
        <ele>70.198</ele>
        <time>2018-03-16T12:32:16Z</time>
      </trkpt>
      <trkpt lat="43.70981" lon="7.29537">
        <ele>70.331</ele>
        <time>2018-03-16T12:32:19Z</time>
      </trkpt>
      <trkpt lat="43.70985" lon="7.29538">
        <ele>70.742</ele>
        <time>2018-03-16T12:32:22Z</time>
      </trkpt>
      <trkpt lat="43.70986" lon="7.29538">
        <ele>70.575</ele>
        <time>2018-03-16T12:32:23Z</time>
      </trkpt>
      <trkpt lat="43.70987" lon="7.29537">
        <ele>70.644</ele>
        <time>2018-03-16T12:32:24Z</time>
      </trkpt>
      <trkpt lat="43.70996" lon="7.29535">
        <ele>70.001</ele>
        <time>2018-03-16T12:32:29Z</time>
      </trkpt>
      <trkpt lat="43.7101" lon="7.29533">
        <ele>69.016</ele>
        <time>2018-03-16T12:32:38Z</time>
      </trkpt>
      <trkpt lat="43.71018" lon="7.29527">
        <ele>67.767</ele>
        <time>2018-03-16T12:32:44Z</time>
      </trkpt>
      <trkpt lat="43.71021" lon="7.29525">
        <ele>67.548</ele>
        <time>2018-03-16T12:32:46Z</time>
      </trkpt>
      <trkpt lat="43.71026" lon="7.29524">
        <ele>67.466</ele>
        <time>2018-03-16T12:32:49Z</time>
      </trkpt>
      <trkpt lat="43.71029" lon="7.29521">
        <ele>67.06</ele>
        <time>2018-03-16T12:32:51Z</time>
      </trkpt>
      <trkpt lat="43.71033" lon="7.29519">
        <ele>66.792</ele>
        <time>2018-03-16T12:32:54Z</time>
      </trkpt>
      <trkpt lat="43.71036" lon="7.29522">
        <ele>66.943</ele>
        <time>2018-03-16T12:32:56Z</time>
      </trkpt>
      <trkpt lat="43.71039" lon="7.29526">
        <ele>66.066</ele>
        <time>2018-03-16T12:32:58Z</time>
      </trkpt>
      <trkpt lat="43.71042" lon="7.2953">
        <ele>65.711</ele>
        <time>2018-03-16T12:33:00Z</time>
      </trkpt>
      <trkpt lat="43.71045" lon="7.29534">
        <ele>65.822</ele>
        <time>2018-03-16T12:33:03Z</time>
      </trkpt>
      <trkpt lat="43.71047" lon="7.29533">
        <ele>65.496</ele>
        <time>2018-03-16T12:33:06Z</time>
      </trkpt>
      <trkpt lat="43.71047" lon="7.29531">
        <ele>65.383</ele>
        <time>2018-03-16T12:33:08Z</time>
      </trkpt>
      <trkpt lat="43.71046" lon="7.29526">
        <ele>64.586</ele>
        <time>2018-03-16T12:33:11Z</time>
      </trkpt>
      <trkpt lat="43.71045" lon="7.29525">
        <ele>64.367</ele>
        <time>2018-03-16T12:33:13Z</time>
      </trkpt>
      <trkpt lat="43.71044" lon="7.29518">
        <ele>63.686</ele>
        <time>2018-03-16T12:33:19Z</time>
      </trkpt>
      <trkpt lat="43.71041" lon="7.29513">
        <ele>63.652</ele>
        <time>2018-03-16T12:33:22Z</time>
      </trkpt>
      <trkpt lat="43.71037" lon="7.29508">
        <ele>63.448</ele>
        <time>2018-03-16T12:33:25Z</time>
      </trkpt>
      <trkpt lat="43.71035" lon="7.29506">
        <ele>62.842</ele>
        <time>2018-03-16T12:33:26Z</time>
      </trkpt>
      <trkpt lat="43.71032" lon="7.29501">
        <ele>62.71</ele>
        <time>2018-03-16T12:33:29Z</time>
      </trkpt>
      <trkpt lat="43.71032" lon="7.29502">
        <ele>60.25</ele>
        <time>2018-03-16T12:33:33Z</time>
      </trkpt>
      <trkpt lat="43.71032" lon="7.29503">
        <ele>60.314</ele>
        <time>2018-03-16T12:33:34Z</time>
      </trkpt>
      <trkpt lat="43.71032" lon="7.29506">
        <ele>59.153</ele>
        <time>2018-03-16T12:33:36Z</time>
      </trkpt>
      <trkpt lat="43.71032" lon="7.29506">
        <ele>59.216</ele>
        <time>2018-03-16T12:33:37Z</time>
      </trkpt>
      <trkpt lat="43.71032" lon="7.29506">
        <ele>59.223</ele>
        <time>2018-03-16T12:33:38Z</time>
      </trkpt>
      <trkpt lat="43.71033" lon="7.29509">
        <ele>59.474</ele>
        <time>2018-03-16T12:33:39Z</time>
      </trkpt>
      <trkpt lat="43.71033" lon="7.29511">
        <ele>59.231</ele>
        <time>2018-03-16T12:33:40Z</time>
      </trkpt>
      <trkpt lat="43.71034" lon="7.29515">
        <ele>59.388</ele>
        <time>2018-03-16T12:33:42Z</time>
      </trkpt>
      <trkpt lat="43.71035" lon="7.29516">
        <ele>59.552</ele>
        <time>2018-03-16T12:33:43Z</time>
      </trkpt>
      <trkpt lat="43.71035" lon="7.29515">
        <ele>59.548</ele>
        <time>2018-03-16T12:33:44Z</time>
      </trkpt>
      <trkpt lat="43.71036" lon="7.29514">
        <ele>59.344</ele>
        <time>2018-03-16T12:33:45Z</time>
      </trkpt>
      <trkpt lat="43.71036" lon="7.29499">
        <ele>57.686</ele>
        <time>2018-03-16T12:33:51Z</time>
      </trkpt>
      <trkpt lat="43.71038" lon="7.29492">
        <ele>57.281</ele>
        <time>2018-03-16T12:33:55Z</time>
      </trkpt>
      <trkpt lat="43.71041" lon="7.29494">
        <ele>56.232</ele>
        <time>2018-03-16T12:33:58Z</time>
      </trkpt>
      <trkpt lat="43.71041" lon="7.29495">
        <ele>56.127</ele>
        <time>2018-03-16T12:33:59Z</time>
      </trkpt>
      <trkpt lat="43.71041" lon="7.29498">
        <ele>56.096</ele>
        <time>2018-03-16T12:34:02Z</time>
      </trkpt>
      <trkpt lat="43.71045" lon="7.29498">
        <ele>54.82</ele>
        <time>2018-03-16T12:34:05Z</time>
      </trkpt>
      <trkpt lat="43.71049" lon="7.29498">
        <ele>54.194</ele>
        <time>2018-03-16T12:34:08Z</time>
      </trkpt>
      <trkpt lat="43.71063" lon="7.29507">
        <ele>52.172</ele>
        <time>2018-03-16T12:34:18Z</time>
      </trkpt>
      <trkpt lat="43.71071" lon="7.29512">
        <ele>51.33</ele>
        <time>2018-03-16T12:34:23Z</time>
      </trkpt>
      <trkpt lat="43.71078" lon="7.2952">
        <ele>51.333</ele>
        <time>2018-03-16T12:34:29Z</time>
      </trkpt>
      <trkpt lat="43.7108" lon="7.29523">
        <ele>51.695</ele>
        <time>2018-03-16T12:34:33Z</time>
      </trkpt>
      <trkpt lat="43.71082" lon="7.29525">
        <ele>51.718</ele>
        <time>2018-03-16T12:34:37Z</time>
      </trkpt>
      <trkpt lat="43.71084" lon="7.29524">
        <ele>51.569</ele>
        <time>2018-03-16T12:34:40Z</time>
      </trkpt>
      <trkpt lat="43.71085" lon="7.29523">
        <ele>51.539</ele>
        <time>2018-03-16T12:34:41Z</time>
      </trkpt>
      <trkpt lat="43.71085" lon="7.29523">
        <ele>51.133</ele>
        <time>2018-03-16T12:34:42Z</time>
      </trkpt>
      <trkpt lat="43.71087" lon="7.29523">
        <ele>51.256</ele>
        <time>2018-03-16T12:34:44Z</time>
      </trkpt>
      <trkpt lat="43.71094" lon="7.29523">
        <ele>51.081</ele>
        <time>2018-03-16T12:34:49Z</time>
      </trkpt>
      <trkpt lat="43.71098" lon="7.29522">
        <ele>51.056</ele>
        <time>2018-03-16T12:34:52Z</time>
      </trkpt>
      <trkpt lat="43.71102" lon="7.29526">
        <ele>50.937</ele>
        <time>2018-03-16T12:34:54Z</time>
      </trkpt>
      <trkpt lat="43.71105" lon="7.29528">
        <ele>51.192</ele>
        <time>2018-03-16T12:34:57Z</time>
      </trkpt>
      <trkpt lat="43.71108" lon="7.29529">
        <ele>51.047</ele>
        <time>2018-03-16T12:35:00Z</time>
      </trkpt>
      <trkpt lat="43.71112" lon="7.29529">
        <ele>51.024</ele>
        <time>2018-03-16T12:35:03Z</time>
      </trkpt>
      <trkpt lat="43.71117" lon="7.29526">
        <ele>50.66</ele>
        <time>2018-03-16T12:35:08Z</time>
      </trkpt>
      <trkpt lat="43.7112" lon="7.29531">
        <ele>50.864</ele>
        <time>2018-03-16T12:35:11Z</time>
      </trkpt>
      <trkpt lat="43.71123" lon="7.29531">
        <ele>51.115</ele>
        <time>2018-03-16T12:35:13Z</time>
      </trkpt>
      <trkpt lat="43.71126" lon="7.2953">
        <ele>51.195</ele>
        <time>2018-03-16T12:35:15Z</time>
      </trkpt>
      <trkpt lat="43.71132" lon="7.29527">
        <ele>50.901</ele>
        <time>2018-03-16T12:35:19Z</time>
      </trkpt>
      <trkpt lat="43.71135" lon="7.29531">
        <ele>51.295</ele>
        <time>2018-03-16T12:35:21Z</time>
      </trkpt>
      <trkpt lat="43.7114" lon="7.2954">
        <ele>51.852</ele>
        <time>2018-03-16T12:35:24Z</time>
      </trkpt>
      <trkpt lat="43.71147" lon="7.2954">
        <ele>52.438</ele>
        <time>2018-03-16T12:35:28Z</time>
      </trkpt>
      <trkpt lat="43.7115" lon="7.29539">
        <ele>52.254</ele>
        <time>2018-03-16T12:35:30Z</time>
      </trkpt>
      <trkpt lat="43.71155" lon="7.29542">
        <ele>52.156</ele>
        <time>2018-03-16T12:35:33Z</time>
      </trkpt>
      <trkpt lat="43.71162" lon="7.2955">
        <ele>52.721</ele>
        <time>2018-03-16T12:35:38Z</time>
      </trkpt>
      <trkpt lat="43.71165" lon="7.29556">
        <ele>52.969</ele>
        <time>2018-03-16T12:35:43Z</time>
      </trkpt>
      <trkpt lat="43.71166" lon="7.29562">
        <ele>53.432</ele>
        <time>2018-03-16T12:35:46Z</time>
      </trkpt>
      <trkpt lat="43.71169" lon="7.29564">
        <ele>53.616</ele>
        <time>2018-03-16T12:35:48Z</time>
      </trkpt>
      <trkpt lat="43.71184" lon="7.2957">
        <ele>54.455</ele>
        <time>2018-03-16T12:35:58Z</time>
      </trkpt>
      <trkpt lat="43.71191" lon="7.29573">
        <ele>55.164</ele>
        <time>2018-03-16T12:36:03Z</time>
      </trkpt>
      <trkpt lat="43.71192" lon="7.29573">
        <ele>55.283</ele>
        <time>2018-03-16T12:36:04Z</time>
      </trkpt>
      <trkpt lat="43.71193" lon="7.29574">
        <ele>55.351</ele>
        <time>2018-03-16T12:36:05Z</time>
      </trkpt>
      <trkpt lat="43.71194" lon="7.29574">
        <ele>55.121</ele>
        <time>2018-03-16T12:36:06Z</time>
      </trkpt>
      <trkpt lat="43.712" lon="7.29575">
        <ele>55.849</ele>
        <time>2018-03-16T12:36:10Z</time>
      </trkpt>
      <trkpt lat="43.71203" lon="7.29578">
        <ele>56.161</ele>
        <time>2018-03-16T12:36:13Z</time>
      </trkpt>
      <trkpt lat="43.71212" lon="7.29583">
        <ele>57.239</ele>
        <time>2018-03-16T12:36:22Z</time>
      </trkpt>
      <trkpt lat="43.71223" lon="7.29583">
        <ele>57.522</ele>
        <time>2018-03-16T12:36:31Z</time>
      </trkpt>
      <trkpt lat="43.71228" lon="7.29582">
        <ele>58.004</ele>
        <time>2018-03-16T12:36:35Z</time>
      </trkpt>
      <trkpt lat="43.7123" lon="7.29581">
        <ele>58.349</ele>
        <time>2018-03-16T12:36:38Z</time>
      </trkpt>
      <trkpt lat="43.7123" lon="7.29581">
        <ele>58.349</ele>
        <time>2018-03-16T12:36:38Z</time>
      </trkpt>
      <trkpt lat="43.7123" lon="7.29581">
        <ele>58.358</ele>
        <time>2018-03-16T12:36:39Z</time>
      </trkpt>
      <trkpt lat="43.71233" lon="7.2958">
        <ele>58.427</ele>
        <time>2018-03-16T12:36:41Z</time>
      </trkpt>
      <trkpt lat="43.71244" lon="7.29575">
        <ele>58.324</ele>
        <time>2018-03-16T12:36:48Z</time>
      </trkpt>
      <trkpt lat="43.71251" lon="7.29577">
        <ele>58.823</ele>
        <time>2018-03-16T12:36:52Z</time>
      </trkpt>
      <trkpt lat="43.71257" lon="7.29582">
        <ele>60.251</ele>
        <time>2018-03-16T12:36:56Z</time>
      </trkpt>
      <trkpt lat="43.71259" lon="7.29584">
        <ele>60.754</ele>
        <time>2018-03-16T12:36:58Z</time>
      </trkpt>
      <trkpt lat="43.71263" lon="7.29585">
        <ele>61.544</ele>
        <time>2018-03-16T12:37:01Z</time>
      </trkpt>
      <trkpt lat="43.71271" lon="7.29587">
        <ele>61.526</ele>
        <time>2018-03-16T12:37:07Z</time>
      </trkpt>
      <trkpt lat="43.71275" lon="7.29589">
        <ele>61.635</ele>
        <time>2018-03-16T12:37:10Z</time>
      </trkpt>
      <trkpt lat="43.71281" lon="7.29589">
        <ele>61.958</ele>
        <time>2018-03-16T12:37:15Z</time>
      </trkpt>
      <trkpt lat="43.71283" lon="7.29586">
        <ele>62.059</ele>
        <time>2018-03-16T12:37:18Z</time>
      </trkpt>
      <trkpt lat="43.7129" lon="7.29584">
        <ele>62.056</ele>
        <time>2018-03-16T12:37:22Z</time>
      </trkpt>
      <trkpt lat="43.71292" lon="7.29584">
        <ele>62.168</ele>
        <time>2018-03-16T12:37:24Z</time>
      </trkpt>
      <trkpt lat="43.71295" lon="7.29588">
        <ele>62.384</ele>
        <time>2018-03-16T12:37:27Z</time>
      </trkpt>
      <trkpt lat="43.71297" lon="7.29591">
        <ele>62.809</ele>
        <time>2018-03-16T12:37:29Z</time>
      </trkpt>
      <trkpt lat="43.7131" lon="7.29602">
        <ele>63.898</ele>
        <time>2018-03-16T12:37:39Z</time>
      </trkpt>
      <trkpt lat="43.71312" lon="7.29604">
        <ele>64.048</ele>
        <time>2018-03-16T12:37:41Z</time>
      </trkpt>
      <trkpt lat="43.71326" lon="7.29616">
        <ele>65.081</ele>
        <time>2018-03-16T12:37:53Z</time>
      </trkpt>
      <trkpt lat="43.71333" lon="7.29616">
        <ele>65.026</ele>
        <time>2018-03-16T12:37:58Z</time>
      </trkpt>
      <trkpt lat="43.71334" lon="7.29621">
        <ele>65.48</ele>
        <time>2018-03-16T12:38:01Z</time>
      </trkpt>
      <trkpt lat="43.71337" lon="7.29629">
        <ele>66.03</ele>
        <time>2018-03-16T12:38:05Z</time>
      </trkpt>
      <trkpt lat="43.7134" lon="7.29627">
        <ele>66.083</ele>
        <time>2018-03-16T12:38:07Z</time>
      </trkpt>
      <trkpt lat="43.71343" lon="7.29627">
        <ele>66.348</ele>
        <time>2018-03-16T12:38:09Z</time>
      </trkpt>
      <trkpt lat="43.71346" lon="7.2963">
        <ele>66.477</ele>
        <time>2018-03-16T12:38:11Z</time>
      </trkpt>
      <trkpt lat="43.7135" lon="7.29635">
        <ele>67.294</ele>
        <time>2018-03-16T12:38:15Z</time>
      </trkpt>
      <trkpt lat="43.71355" lon="7.29637">
        <ele>67.098</ele>
        <time>2018-03-16T12:38:19Z</time>
      </trkpt>
      <trkpt lat="43.71358" lon="7.29637">
        <ele>66.968</ele>
        <time>2018-03-16T12:38:22Z</time>
      </trkpt>
      <trkpt lat="43.71365" lon="7.29639">
        <ele>66.735</ele>
        <time>2018-03-16T12:38:27Z</time>
      </trkpt>
      <trkpt lat="43.71378" lon="7.29653">
        <ele>67.854</ele>
        <time>2018-03-16T12:38:38Z</time>
      </trkpt>
      <trkpt lat="43.71381" lon="7.29657">
        <ele>68.421</ele>
        <time>2018-03-16T12:38:41Z</time>
      </trkpt>
      <trkpt lat="43.71396" lon="7.2967">
        <ele>70.568</ele>
        <time>2018-03-16T12:38:55Z</time>
      </trkpt>
      <trkpt lat="43.714" lon="7.2967">
        <ele>70.715</ele>
        <time>2018-03-16T12:38:58Z</time>
      </trkpt>
      <trkpt lat="43.71409" lon="7.29669">
        <ele>70.637</ele>
        <time>2018-03-16T12:39:06Z</time>
      </trkpt>
      <trkpt lat="43.71413" lon="7.29671">
        <ele>71.413</ele>
        <time>2018-03-16T12:39:10Z</time>
      </trkpt>
      <trkpt lat="43.7142" lon="7.29675">
        <ele>71.724</ele>
        <time>2018-03-16T12:39:15Z</time>
      </trkpt>
      <trkpt lat="43.71425" lon="7.29677">
        <ele>71.8</ele>
        <time>2018-03-16T12:39:18Z</time>
      </trkpt>
      <trkpt lat="43.71427" lon="7.2968">
        <ele>72.556</ele>
        <time>2018-03-16T12:39:20Z</time>
      </trkpt>
      <trkpt lat="43.71428" lon="7.29683">
        <ele>72.747</ele>
        <time>2018-03-16T12:39:22Z</time>
      </trkpt>
      <trkpt lat="43.71428" lon="7.29684">
        <ele>73.021</ele>
        <time>2018-03-16T12:39:23Z</time>
      </trkpt>
      <trkpt lat="43.71432" lon="7.29685">
        <ele>72.589</ele>
        <time>2018-03-16T12:39:26Z</time>
      </trkpt>
      <trkpt lat="43.71434" lon="7.29688">
        <ele>72.927</ele>
        <time>2018-03-16T12:39:28Z</time>
      </trkpt>
      <trkpt lat="43.71439" lon="7.29691">
        <ele>73.222</ele>
        <time>2018-03-16T12:39:32Z</time>
      </trkpt>
      <trkpt lat="43.71444" lon="7.29692">
        <ele>73.504</ele>
        <time>2018-03-16T12:39:36Z</time>
      </trkpt>
      <trkpt lat="43.71449" lon="7.29694">
        <ele>73.881</ele>
        <time>2018-03-16T12:39:40Z</time>
      </trkpt>
      <trkpt lat="43.71452" lon="7.29693">
        <ele>73.968</ele>
        <time>2018-03-16T12:39:42Z</time>
      </trkpt>
      <trkpt lat="43.71456" lon="7.29692">
        <ele>74.277</ele>
        <time>2018-03-16T12:39:45Z</time>
      </trkpt>
      <trkpt lat="43.71459" lon="7.29693">
        <ele>75.105</ele>
        <time>2018-03-16T12:39:48Z</time>
      </trkpt>
      <trkpt lat="43.71467" lon="7.29698">
        <ele>76.452</ele>
        <time>2018-03-16T12:39:55Z</time>
      </trkpt>
      <trkpt lat="43.71467" lon="7.29698">
        <ele>76.899</ele>
        <time>2018-03-16T12:39:56Z</time>
      </trkpt>
      <trkpt lat="43.71467" lon="7.29698">
        <ele>76.812</ele>
        <time>2018-03-16T12:40:04Z</time>
      </trkpt>
      <trkpt lat="43.71468" lon="7.29698">
        <ele>77.493</ele>
        <time>2018-03-16T12:40:05Z</time>
      </trkpt>
      <trkpt lat="43.71469" lon="7.29697">
        <ele>77.492</ele>
        <time>2018-03-16T12:40:06Z</time>
      </trkpt>
      <trkpt lat="43.71473" lon="7.29695">
        <ele>79.481</ele>
        <time>2018-03-16T12:40:08Z</time>
      </trkpt>
      <trkpt lat="43.71476" lon="7.29695">
        <ele>79.665</ele>
        <time>2018-03-16T12:40:11Z</time>
      </trkpt>
      <trkpt lat="43.71481" lon="7.29701">
        <ele>79.745</ele>
        <time>2018-03-16T12:40:14Z</time>
      </trkpt>
      <trkpt lat="43.71484" lon="7.29704">
        <ele>80.288</ele>
        <time>2018-03-16T12:40:16Z</time>
      </trkpt>
      <trkpt lat="43.7149" lon="7.29708">
        <ele>81.507</ele>
        <time>2018-03-16T12:40:21Z</time>
      </trkpt>
      <trkpt lat="43.71496" lon="7.29712">
        <ele>82.181</ele>
        <time>2018-03-16T12:40:26Z</time>
      </trkpt>
      <trkpt lat="43.71497" lon="7.29711">
        <ele>82.141</ele>
        <time>2018-03-16T12:40:27Z</time>
      </trkpt>
      <trkpt lat="43.715" lon="7.29711">
        <ele>82.682</ele>
        <time>2018-03-16T12:40:30Z</time>
      </trkpt>
      <trkpt lat="43.71506" lon="7.29713">
        <ele>82.396</ele>
        <time>2018-03-16T12:40:35Z</time>
      </trkpt>
      <trkpt lat="43.71511" lon="7.29713">
        <ele>83.106</ele>
        <time>2018-03-16T12:40:39Z</time>
      </trkpt>
      <trkpt lat="43.71516" lon="7.29714">
        <ele>83.225</ele>
        <time>2018-03-16T12:40:43Z</time>
      </trkpt>
      <trkpt lat="43.71521" lon="7.29711">
        <ele>84.542</ele>
        <time>2018-03-16T12:40:48Z</time>
      </trkpt>
      <trkpt lat="43.71524" lon="7.29709">
        <ele>84.989</ele>
        <time>2018-03-16T12:40:51Z</time>
      </trkpt>
      <trkpt lat="43.71528" lon="7.2971">
        <ele>84.995</ele>
        <time>2018-03-16T12:40:54Z</time>
      </trkpt>
      <trkpt lat="43.71536" lon="7.29715">
        <ele>85.331</ele>
        <time>2018-03-16T12:41:01Z</time>
      </trkpt>
      <trkpt lat="43.71541" lon="7.29719">
        <ele>85.754</ele>
        <time>2018-03-16T12:41:05Z</time>
      </trkpt>
      <trkpt lat="43.71542" lon="7.29719">
        <ele>86.044</ele>
        <time>2018-03-16T12:41:06Z</time>
      </trkpt>
      <trkpt lat="43.71545" lon="7.29718">
        <ele>85.853</ele>
        <time>2018-03-16T12:41:09Z</time>
      </trkpt>
      <trkpt lat="43.71558" lon="7.29719">
        <ele>87.118</ele>
        <time>2018-03-16T12:41:18Z</time>
      </trkpt>
      <trkpt lat="43.71562" lon="7.29721">
        <ele>87.518</ele>
        <time>2018-03-16T12:41:21Z</time>
      </trkpt>
      <trkpt lat="43.71571" lon="7.2972">
        <ele>88.473</ele>
        <time>2018-03-16T12:41:28Z</time>
      </trkpt>
      <trkpt lat="43.71577" lon="7.29724">
        <ele>88.195</ele>
        <time>2018-03-16T12:41:34Z</time>
      </trkpt>
      <trkpt lat="43.7158" lon="7.29726">
        <ele>89.88</ele>
        <time>2018-03-16T12:41:38Z</time>
      </trkpt>
      <trkpt lat="43.7158" lon="7.29725">
        <ele>89.865</ele>
        <time>2018-03-16T12:41:39Z</time>
      </trkpt>
      <trkpt lat="43.71581" lon="7.29725">
        <ele>90.252</ele>
        <time>2018-03-16T12:41:41Z</time>
      </trkpt>
      <trkpt lat="43.71585" lon="7.29726">
        <ele>90.526</ele>
        <time>2018-03-16T12:41:44Z</time>
      </trkpt>
      <trkpt lat="43.71588" lon="7.29726">
        <ele>90.593</ele>
        <time>2018-03-16T12:41:47Z</time>
      </trkpt>
      <trkpt lat="43.71591" lon="7.29726">
        <ele>90.426</ele>
        <time>2018-03-16T12:41:50Z</time>
      </trkpt>
      <trkpt lat="43.71595" lon="7.29725">
        <ele>90.721</ele>
        <time>2018-03-16T12:41:53Z</time>
      </trkpt>
      <trkpt lat="43.71599" lon="7.29726">
        <ele>91.31</ele>
        <time>2018-03-16T12:41:56Z</time>
      </trkpt>
      <trkpt lat="43.71602" lon="7.29727">
        <ele>92.149</ele>
        <time>2018-03-16T12:41:59Z</time>
      </trkpt>
      <trkpt lat="43.71609" lon="7.29728">
        <ele>92.46</ele>
        <time>2018-03-16T12:42:04Z</time>
      </trkpt>
      <trkpt lat="43.71609" lon="7.29729">
        <ele>92.682</ele>
        <time>2018-03-16T12:42:06Z</time>
      </trkpt>
      <trkpt lat="43.71609" lon="7.29729">
        <ele>92.593</ele>
        <time>2018-03-16T12:42:07Z</time>
      </trkpt>
      <trkpt lat="43.7161" lon="7.29727">
        <ele>93.458</ele>
        <time>2018-03-16T12:42:10Z</time>
      </trkpt>
      <trkpt lat="43.71613" lon="7.29725">
        <ele>92.812</ele>
        <time>2018-03-16T12:42:12Z</time>
      </trkpt>
      <trkpt lat="43.71614" lon="7.29726">
        <ele>92.76</ele>
        <time>2018-03-16T12:42:14Z</time>
      </trkpt>
      <trkpt lat="43.71617" lon="7.29728">
        <ele>92.922</ele>
        <time>2018-03-16T12:42:16Z</time>
      </trkpt>
      <trkpt lat="43.71621" lon="7.2973">
        <ele>93.609</ele>
        <time>2018-03-16T12:42:19Z</time>
      </trkpt>
      <trkpt lat="43.71621" lon="7.29734">
        <ele>93.712</ele>
        <time>2018-03-16T12:42:21Z</time>
      </trkpt>
      <trkpt lat="43.71622" lon="7.29735">
        <ele>93.707</ele>
        <time>2018-03-16T12:42:22Z</time>
      </trkpt>
      <trkpt lat="43.71624" lon="7.29737">
        <ele>93.839</ele>
        <time>2018-03-16T12:42:24Z</time>
      </trkpt>
      <trkpt lat="43.71628" lon="7.29737">
        <ele>94.186</ele>
        <time>2018-03-16T12:42:27Z</time>
      </trkpt>
      <trkpt lat="43.71631" lon="7.29737">
        <ele>94.212</ele>
        <time>2018-03-16T12:42:30Z</time>
      </trkpt>
      <trkpt lat="43.71632" lon="7.29738">
        <ele>94.255</ele>
        <time>2018-03-16T12:42:31Z</time>
      </trkpt>
      <trkpt lat="43.71633" lon="7.29739">
        <ele>94.801</ele>
        <time>2018-03-16T12:42:32Z</time>
      </trkpt>
      <trkpt lat="43.71637" lon="7.29741">
        <ele>95.129</ele>
        <time>2018-03-16T12:42:35Z</time>
      </trkpt>
      <trkpt lat="43.71641" lon="7.29742">
        <ele>95.14</ele>
        <time>2018-03-16T12:42:37Z</time>
      </trkpt>
      <trkpt lat="43.71642" lon="7.29743">
        <ele>95.319</ele>
        <time>2018-03-16T12:42:39Z</time>
      </trkpt>
      <trkpt lat="43.71642" lon="7.29743">
        <ele>95.319</ele>
        <time>2018-03-16T12:42:39Z</time>
      </trkpt>
      <trkpt lat="43.71644" lon="7.29744">
        <ele>95.551</ele>
        <time>2018-03-16T12:42:40Z</time>
      </trkpt>
      <trkpt lat="43.71645" lon="7.29744">
        <ele>95.511</ele>
        <time>2018-03-16T12:42:41Z</time>
      </trkpt>
      <trkpt lat="43.71646" lon="7.29745">
        <ele>95.565</ele>
        <time>2018-03-16T12:42:42Z</time>
      </trkpt>
      <trkpt lat="43.71652" lon="7.29747">
        <ele>96.035</ele>
        <time>2018-03-16T12:42:46Z</time>
      </trkpt>
      <trkpt lat="43.71654" lon="7.2975">
        <ele>96.088</ele>
        <time>2018-03-16T12:42:49Z</time>
      </trkpt>
      <trkpt lat="43.71656" lon="7.29749">
        <ele>96.521</ele>
        <time>2018-03-16T12:42:51Z</time>
      </trkpt>
      <trkpt lat="43.71657" lon="7.29749">
        <ele>96.415</ele>
        <time>2018-03-16T12:42:52Z</time>
      </trkpt>
      <trkpt lat="43.71658" lon="7.29749">
        <ele>96.512</ele>
        <time>2018-03-16T12:42:53Z</time>
      </trkpt>
      <trkpt lat="43.7166" lon="7.29748">
        <ele>96.616</ele>
        <time>2018-03-16T12:42:54Z</time>
      </trkpt>
      <trkpt lat="43.71662" lon="7.29748">
        <ele>96.602</ele>
        <time>2018-03-16T12:42:56Z</time>
      </trkpt>
      <trkpt lat="43.71665" lon="7.29747">
        <ele>96.393</ele>
        <time>2018-03-16T12:42:59Z</time>
      </trkpt>
      <trkpt lat="43.71668" lon="7.29746">
        <ele>96.622</ele>
        <time>2018-03-16T12:43:03Z</time>
      </trkpt>
      <trkpt lat="43.71671" lon="7.29748">
        <ele>96.656</ele>
        <time>2018-03-16T12:43:08Z</time>
      </trkpt>
      <trkpt lat="43.71671" lon="7.29749">
        <ele>97.195</ele>
        <time>2018-03-16T12:43:09Z</time>
      </trkpt>
      <trkpt lat="43.71673" lon="7.2975">
        <ele>97.75</ele>
        <time>2018-03-16T12:43:11Z</time>
      </trkpt>
      <trkpt lat="43.71676" lon="7.2975">
        <ele>99.079</ele>
        <time>2018-03-16T12:43:14Z</time>
      </trkpt>
      <trkpt lat="43.71681" lon="7.29754">
        <ele>100.42</ele>
        <time>2018-03-16T12:43:18Z</time>
      </trkpt>
      <trkpt lat="43.71688" lon="7.29753">
        <ele>101.23</ele>
        <time>2018-03-16T12:43:24Z</time>
      </trkpt>
      <trkpt lat="43.71689" lon="7.29751">
        <ele>101.603</ele>
        <time>2018-03-16T12:43:26Z</time>
      </trkpt>
      <trkpt lat="43.71689" lon="7.29749">
        <ele>101.699</ele>
        <time>2018-03-16T12:43:27Z</time>
      </trkpt>
      <trkpt lat="43.71689" lon="7.29748">
        <ele>102.033</ele>
        <time>2018-03-16T12:43:28Z</time>
      </trkpt>
      <trkpt lat="43.7169" lon="7.29748">
        <ele>101.741</ele>
        <time>2018-03-16T12:43:29Z</time>
      </trkpt>
      <trkpt lat="43.71693" lon="7.2975">
        <ele>101.206</ele>
        <time>2018-03-16T12:43:31Z</time>
      </trkpt>
      <trkpt lat="43.71697" lon="7.29754">
        <ele>101.68</ele>
        <time>2018-03-16T12:43:34Z</time>
      </trkpt>
      <trkpt lat="43.71703" lon="7.2976">
        <ele>102.363</ele>
        <time>2018-03-16T12:43:39Z</time>
      </trkpt>
      <trkpt lat="43.71707" lon="7.29765">
        <ele>101.938</ele>
        <time>2018-03-16T12:43:42Z</time>
      </trkpt>
      <trkpt lat="43.7171" lon="7.29771">
        <ele>102.381</ele>
        <time>2018-03-16T12:43:45Z</time>
      </trkpt>
      <trkpt lat="43.7171" lon="7.29776">
        <ele>102.132</ele>
        <time>2018-03-16T12:43:47Z</time>
      </trkpt>
      <trkpt lat="43.71713" lon="7.29785">
        <ele>102.496</ele>
        <time>2018-03-16T12:43:53Z</time>
      </trkpt>
      <trkpt lat="43.71715" lon="7.29788">
        <ele>103.146</ele>
        <time>2018-03-16T12:43:55Z</time>
      </trkpt>
      <trkpt lat="43.71722" lon="7.29793">
        <ele>101.465</ele>
        <time>2018-03-16T12:44:00Z</time>
      </trkpt>
      <trkpt lat="43.71725" lon="7.29794">
        <ele>101.943</ele>
        <time>2018-03-16T12:44:02Z</time>
      </trkpt>
      <trkpt lat="43.7173" lon="7.29802">
        <ele>102.834</ele>
        <time>2018-03-16T12:44:06Z</time>
      </trkpt>
      <trkpt lat="43.71738" lon="7.29811">
        <ele>103.996</ele>
        <time>2018-03-16T12:44:11Z</time>
      </trkpt>
      <trkpt lat="43.71744" lon="7.29817">
        <ele>104.549</ele>
        <time>2018-03-16T12:44:16Z</time>
      </trkpt>
      <trkpt lat="43.71748" lon="7.29823">
        <ele>104.829</ele>
        <time>2018-03-16T12:44:19Z</time>
      </trkpt>
      <trkpt lat="43.71749" lon="7.29824">
        <ele>104.736</ele>
        <time>2018-03-16T12:44:21Z</time>
      </trkpt>
      <trkpt lat="43.7175" lon="7.29825">
        <ele>104.985</ele>
        <time>2018-03-16T12:44:22Z</time>
      </trkpt>
      <trkpt lat="43.71752" lon="7.29828">
        <ele>105.027</ele>
        <time>2018-03-16T12:44:24Z</time>
      </trkpt>
      <trkpt lat="43.71756" lon="7.29836">
        <ele>106.11</ele>
        <time>2018-03-16T12:44:28Z</time>
      </trkpt>
      <trkpt lat="43.71757" lon="7.29837">
        <ele>106.171</ele>
        <time>2018-03-16T12:44:30Z</time>
      </trkpt>
      <trkpt lat="43.7176" lon="7.2984">
        <ele>106.227</ele>
        <time>2018-03-16T12:44:34Z</time>
      </trkpt>
      <trkpt lat="43.71763" lon="7.29843">
        <ele>106.117</ele>
        <time>2018-03-16T12:44:36Z</time>
      </trkpt>
      <trkpt lat="43.71766" lon="7.29846">
        <ele>106.646</ele>
        <time>2018-03-16T12:44:39Z</time>
      </trkpt>
      <trkpt lat="43.71768" lon="7.29849">
        <ele>107.564</ele>
        <time>2018-03-16T12:44:42Z</time>
      </trkpt>
      <trkpt lat="43.7177" lon="7.2985">
        <ele>107.33</ele>
        <time>2018-03-16T12:44:44Z</time>
      </trkpt>
      <trkpt lat="43.71773" lon="7.29851">
        <ele>107.349</ele>
        <time>2018-03-16T12:44:46Z</time>
      </trkpt>
      <trkpt lat="43.71776" lon="7.29852">
        <ele>108.132</ele>
        <time>2018-03-16T12:44:49Z</time>
      </trkpt>
      <trkpt lat="43.71781" lon="7.29853">
        <ele>108.825</ele>
        <time>2018-03-16T12:44:54Z</time>
      </trkpt>
      <trkpt lat="43.71783" lon="7.29854">
        <ele>109.308</ele>
        <time>2018-03-16T12:44:56Z</time>
      </trkpt>
      <trkpt lat="43.71787" lon="7.29853">
        <ele>109.838</ele>
        <time>2018-03-16T12:44:58Z</time>
      </trkpt>
      <trkpt lat="43.71794" lon="7.29849">
        <ele>111.079</ele>
        <time>2018-03-16T12:45:04Z</time>
      </trkpt>
      <trkpt lat="43.718" lon="7.29842">
        <ele>111.245</ele>
        <time>2018-03-16T12:45:09Z</time>
      </trkpt>
      <trkpt lat="43.71801" lon="7.29841">
        <ele>110.974</ele>
        <time>2018-03-16T12:45:10Z</time>
      </trkpt>
      <trkpt lat="43.71803" lon="7.29837">
        <ele>110.961</ele>
        <time>2018-03-16T12:45:14Z</time>
      </trkpt>
      <trkpt lat="43.71808" lon="7.29831">
        <ele>110.941</ele>
        <time>2018-03-16T12:45:18Z</time>
      </trkpt>
      <trkpt lat="43.71819" lon="7.29816">
        <ele>111.509</ele>
        <time>2018-03-16T12:45:33Z</time>
      </trkpt>
      <trkpt lat="43.71822" lon="7.29814">
        <ele>111.843</ele>
        <time>2018-03-16T12:45:36Z</time>
      </trkpt>
      <trkpt lat="43.71829" lon="7.29807">
        <ele>112.718</ele>
        <time>2018-03-16T12:45:43Z</time>
      </trkpt>
      <trkpt lat="43.71831" lon="7.29805">
        <ele>113.028</ele>
        <time>2018-03-16T12:45:46Z</time>
      </trkpt>
      <trkpt lat="43.71835" lon="7.29799">
        <ele>113.483</ele>
        <time>2018-03-16T12:45:51Z</time>
      </trkpt>
      <trkpt lat="43.71838" lon="7.29795">
        <ele>113.723</ele>
        <time>2018-03-16T12:45:55Z</time>
      </trkpt>
      <trkpt lat="43.71841" lon="7.29793">
        <ele>114.132</ele>
        <time>2018-03-16T12:45:57Z</time>
      </trkpt>
      <trkpt lat="43.71846" lon="7.29788">
        <ele>114.412</ele>
        <time>2018-03-16T12:46:02Z</time>
      </trkpt>
      <trkpt lat="43.71851" lon="7.29785">
        <ele>114.064</ele>
        <time>2018-03-16T12:46:07Z</time>
      </trkpt>
      <trkpt lat="43.71854" lon="7.29782">
        <ele>113.783</ele>
        <time>2018-03-16T12:46:10Z</time>
      </trkpt>
      <trkpt lat="43.71857" lon="7.2978">
        <ele>113.789</ele>
        <time>2018-03-16T12:46:13Z</time>
      </trkpt>
      <trkpt lat="43.7186" lon="7.29778">
        <ele>114.38</ele>
        <time>2018-03-16T12:46:16Z</time>
      </trkpt>
      <trkpt lat="43.71862" lon="7.29774">
        <ele>114.55</ele>
        <time>2018-03-16T12:46:19Z</time>
      </trkpt>
      <trkpt lat="43.71864" lon="7.2977">
        <ele>114.871</ele>
        <time>2018-03-16T12:46:22Z</time>
      </trkpt>
      <trkpt lat="43.71864" lon="7.29768">
        <ele>115.298</ele>
        <time>2018-03-16T12:46:25Z</time>
      </trkpt>
      <trkpt lat="43.71864" lon="7.29768">
        <ele>115.096</ele>
        <time>2018-03-16T12:46:26Z</time>
      </trkpt>
      <trkpt lat="43.71864" lon="7.29767">
        <ele>115.266</ele>
        <time>2018-03-16T12:46:27Z</time>
      </trkpt>
      <trkpt lat="43.71864" lon="7.29766">
        <ele>114.865</ele>
        <time>2018-03-16T12:46:28Z</time>
      </trkpt>
      <trkpt lat="43.71862" lon="7.29763">
        <ele>114.68</ele>
        <time>2018-03-16T12:46:30Z</time>
      </trkpt>
      <trkpt lat="43.71862" lon="7.29759">
        <ele>115.916</ele>
        <time>2018-03-16T12:46:32Z</time>
      </trkpt>
      <trkpt lat="43.71862" lon="7.29755">
        <ele>115.544</ele>
        <time>2018-03-16T12:46:34Z</time>
      </trkpt>
      <trkpt lat="43.71865" lon="7.29752">
        <ele>115.609</ele>
        <time>2018-03-16T12:46:36Z</time>
      </trkpt>
      <trkpt lat="43.71867" lon="7.2975">
        <ele>116.03</ele>
        <time>2018-03-16T12:46:38Z</time>
      </trkpt>
      <trkpt lat="43.71869" lon="7.29747">
        <ele>116.3</ele>
        <time>2018-03-16T12:46:40Z</time>
      </trkpt>
      <trkpt lat="43.71873" lon="7.29742">
        <ele>116.511</ele>
        <time>2018-03-16T12:46:44Z</time>
      </trkpt>
      <trkpt lat="43.71876" lon="7.29739">
        <ele>116.788</ele>
        <time>2018-03-16T12:46:47Z</time>
      </trkpt>
      <trkpt lat="43.71878" lon="7.29736">
        <ele>116.92</ele>
        <time>2018-03-16T12:46:49Z</time>
      </trkpt>
      <trkpt lat="43.7188" lon="7.29733">
        <ele>116.949</ele>
        <time>2018-03-16T12:46:52Z</time>
      </trkpt>
      <trkpt lat="43.71892" lon="7.29722">
        <ele>119.041</ele>
        <time>2018-03-16T12:47:04Z</time>
      </trkpt>
      <trkpt lat="43.71895" lon="7.29719">
        <ele>119.477</ele>
        <time>2018-03-16T12:47:07Z</time>
      </trkpt>
      <trkpt lat="43.71898" lon="7.29716">
        <ele>119.72</ele>
        <time>2018-03-16T12:47:10Z</time>
      </trkpt>
      <trkpt lat="43.719" lon="7.29712">
        <ele>119.854</ele>
        <time>2018-03-16T12:47:13Z</time>
      </trkpt>
      <trkpt lat="43.71902" lon="7.29711">
        <ele>120.32</ele>
        <time>2018-03-16T12:47:15Z</time>
      </trkpt>
      <trkpt lat="43.71903" lon="7.2971">
        <ele>120.386</ele>
        <time>2018-03-16T12:47:16Z</time>
      </trkpt>
      <trkpt lat="43.71906" lon="7.29708">
        <ele>120.473</ele>
        <time>2018-03-16T12:47:19Z</time>
      </trkpt>
      <trkpt lat="43.7191" lon="7.29704">
        <ele>121.205</ele>
        <time>2018-03-16T12:47:23Z</time>
      </trkpt>
      <trkpt lat="43.71912" lon="7.29701">
        <ele>121.69</ele>
        <time>2018-03-16T12:47:25Z</time>
      </trkpt>
      <trkpt lat="43.71923" lon="7.29688">
        <ele>123.573</ele>
        <time>2018-03-16T12:47:36Z</time>
      </trkpt>
      <trkpt lat="43.71929" lon="7.29687">
        <ele>124.559</ele>
        <time>2018-03-16T12:47:41Z</time>
      </trkpt>
      <trkpt lat="43.71931" lon="7.29683">
        <ele>124.618</ele>
        <time>2018-03-16T12:47:44Z</time>
      </trkpt>
      <trkpt lat="43.71933" lon="7.29678">
        <ele>124.587</ele>
        <time>2018-03-16T12:47:48Z</time>
      </trkpt>
      <trkpt lat="43.71934" lon="7.29677">
        <ele>124.845</ele>
        <time>2018-03-16T12:47:50Z</time>
      </trkpt>
      <trkpt lat="43.71937" lon="7.29677">
        <ele>125.683</ele>
        <time>2018-03-16T12:47:54Z</time>
      </trkpt>
      <trkpt lat="43.7194" lon="7.29674">
        <ele>125.835</ele>
        <time>2018-03-16T12:47:57Z</time>
      </trkpt>
      <trkpt lat="43.71942" lon="7.29671">
        <ele>126.064</ele>
        <time>2018-03-16T12:48:00Z</time>
      </trkpt>
      <trkpt lat="43.71945" lon="7.29669">
        <ele>126.517</ele>
        <time>2018-03-16T12:48:02Z</time>
      </trkpt>
      <trkpt lat="43.71952" lon="7.29662">
        <ele>127.794</ele>
        <time>2018-03-16T12:48:09Z</time>
      </trkpt>
      <trkpt lat="43.71955" lon="7.29659">
        <ele>128.088</ele>
        <time>2018-03-16T12:48:12Z</time>
      </trkpt>
      <trkpt lat="43.71957" lon="7.29656">
        <ele>127.955</ele>
        <time>2018-03-16T12:48:15Z</time>
      </trkpt>
      <trkpt lat="43.71962" lon="7.29649">
        <ele>128.228</ele>
        <time>2018-03-16T12:48:21Z</time>
      </trkpt>
      <trkpt lat="43.71967" lon="7.29646">
        <ele>128.552</ele>
        <time>2018-03-16T12:48:26Z</time>
      </trkpt>
      <trkpt lat="43.7197" lon="7.29644">
        <ele>129.046</ele>
        <time>2018-03-16T12:48:29Z</time>
      </trkpt>
      <trkpt lat="43.71973" lon="7.29641">
        <ele>129.118</ele>
        <time>2018-03-16T12:48:32Z</time>
      </trkpt>
      <trkpt lat="43.71976" lon="7.29639">
        <ele>129.369</ele>
        <time>2018-03-16T12:48:35Z</time>
      </trkpt>
      <trkpt lat="43.71981" lon="7.2964">
        <ele>129.942</ele>
        <time>2018-03-16T12:48:39Z</time>
      </trkpt>
      <trkpt lat="43.71984" lon="7.29643">
        <ele>130.858</ele>
        <time>2018-03-16T12:48:44Z</time>
      </trkpt>
      <trkpt lat="43.71988" lon="7.29643">
        <ele>131.928</ele>
        <time>2018-03-16T12:48:47Z</time>
      </trkpt>
      <trkpt lat="43.71989" lon="7.29644">
        <ele>132.293</ele>
        <time>2018-03-16T12:48:49Z</time>
      </trkpt>
      <trkpt lat="43.71989" lon="7.29644">
        <ele>132.545</ele>
        <time>2018-03-16T12:48:50Z</time>
      </trkpt>
      <trkpt lat="43.71989" lon="7.29644">
        <ele>132.545</ele>
        <time>2018-03-16T12:48:50Z</time>
      </trkpt>
      <trkpt lat="43.71989" lon="7.29645">
        <ele>132.782</ele>
        <time>2018-03-16T12:48:51Z</time>
      </trkpt>
      <trkpt lat="43.71989" lon="7.29645">
        <ele>133.038</ele>
        <time>2018-03-16T12:48:52Z</time>
      </trkpt>
      <trkpt lat="43.71989" lon="7.29645">
        <ele>133.198</ele>
        <time>2018-03-16T12:48:54Z</time>
      </trkpt>
      <trkpt lat="43.7199" lon="7.29647">
        <ele>133.084</ele>
        <time>2018-03-16T12:48:55Z</time>
      </trkpt>
      <trkpt lat="43.7199" lon="7.29648">
        <ele>133.457</ele>
        <time>2018-03-16T12:48:58Z</time>
      </trkpt>
      <trkpt lat="43.7199" lon="7.29648">
        <ele>133.453</ele>
        <time>2018-03-16T12:48:59Z</time>
      </trkpt>
      <trkpt lat="43.7199" lon="7.29648">
        <ele>133.777</ele>
        <time>2018-03-16T12:49:01Z</time>
      </trkpt>
      <trkpt lat="43.71991" lon="7.29647">
        <ele>134.367</ele>
        <time>2018-03-16T12:49:02Z</time>
      </trkpt>
      <trkpt lat="43.71991" lon="7.29647">
        <ele>134.886</ele>
        <time>2018-03-16T12:49:03Z</time>
      </trkpt>
      <trkpt lat="43.71994" lon="7.29648">
        <ele>134.897</ele>
        <time>2018-03-16T12:49:06Z</time>
      </trkpt>
      <trkpt lat="43.71998" lon="7.29648">
        <ele>135.223</ele>
        <time>2018-03-16T12:49:09Z</time>
      </trkpt>
      <trkpt lat="43.71999" lon="7.29648">
        <ele>135.73</ele>
        <time>2018-03-16T12:49:11Z</time>
      </trkpt>
      <trkpt lat="43.72" lon="7.29648">
        <ele>135.709</ele>
        <time>2018-03-16T12:49:13Z</time>
      </trkpt>
      <trkpt lat="43.72" lon="7.29648">
        <ele>135.829</ele>
        <time>2018-03-16T12:49:15Z</time>
      </trkpt>
      <trkpt lat="43.72001" lon="7.29647">
        <ele>135.356</ele>
        <time>2018-03-16T12:49:16Z</time>
      </trkpt>
      <trkpt lat="43.72005" lon="7.29648">
        <ele>135.748</ele>
        <time>2018-03-16T12:49:20Z</time>
      </trkpt>
      <trkpt lat="43.72007" lon="7.29648">
        <ele>135.895</ele>
        <time>2018-03-16T12:49:21Z</time>
      </trkpt>
      <trkpt lat="43.72009" lon="7.29649">
        <ele>136.224</ele>
        <time>2018-03-16T12:49:23Z</time>
      </trkpt>
      <trkpt lat="43.72009" lon="7.29649">
        <ele>135.948</ele>
        <time>2018-03-16T12:49:25Z</time>
      </trkpt>
      <trkpt lat="43.72009" lon="7.29649">
        <ele>135.779</ele>
        <time>2018-03-16T12:49:26Z</time>
      </trkpt>
      <trkpt lat="43.72009" lon="7.29649">
        <ele>135.779</ele>
        <time>2018-03-16T12:49:26Z</time>
      </trkpt>
      <trkpt lat="43.72009" lon="7.29649">
        <ele>135.785</ele>
        <time>2018-03-16T12:49:27Z</time>
      </trkpt>
      <trkpt lat="43.7201" lon="7.29649">
        <ele>135.978</ele>
        <time>2018-03-16T12:49:31Z</time>
      </trkpt>
      <trkpt lat="43.7201" lon="7.29649">
        <ele>135.984</ele>
        <time>2018-03-16T12:49:32Z</time>
      </trkpt>
      <trkpt lat="43.7201" lon="7.29649">
        <ele>135.97</ele>
        <time>2018-03-16T12:49:36Z</time>
      </trkpt>
      <trkpt lat="43.7201" lon="7.29649">
        <ele>136.033</ele>
        <time>2018-03-16T12:49:37Z</time>
      </trkpt>
      <trkpt lat="43.7201" lon="7.29649">
        <ele>136.033</ele>
        <time>2018-03-16T12:49:37Z</time>
      </trkpt>
      <trkpt lat="43.7201" lon="7.29649">
        <ele>136.075</ele>
        <time>2018-03-16T12:49:38Z</time>
      </trkpt>
      <trkpt lat="43.7201" lon="7.29649">
        <ele>136.055</ele>
        <time>2018-03-16T12:49:48Z</time>
      </trkpt>
      <trkpt lat="43.7201" lon="7.2965">
        <ele>135.792</ele>
        <time>2018-03-16T12:49:49Z</time>
      </trkpt>
      <trkpt lat="43.7201" lon="7.2965">
        <ele>135.792</ele>
        <time>2018-03-16T12:49:49Z</time>
      </trkpt>
      <trkpt lat="43.7201" lon="7.2965">
        <ele>135.703</ele>
        <time>2018-03-16T12:49:50Z</time>
      </trkpt>
      <trkpt lat="43.7201" lon="7.2965">
        <ele>135.703</ele>
        <time>2018-03-16T12:49:50Z</time>
      </trkpt>
      <trkpt lat="43.7201" lon="7.2965">
        <ele>135.659</ele>
        <time>2018-03-16T12:49:51Z</time>
      </trkpt>
      <trkpt lat="43.7201" lon="7.29649">
        <ele>136.067</ele>
        <time>2018-03-16T12:49:52Z</time>
      </trkpt>
      <trkpt lat="43.7201" lon="7.29649">
        <ele>135.932</ele>
        <time>2018-03-16T12:49:53Z</time>
      </trkpt>
      <trkpt lat="43.7201" lon="7.29649">
        <ele>136.1</ele>
        <time>2018-03-16T12:49:57Z</time>
      </trkpt>
      <trkpt lat="43.72011" lon="7.29646">
        <ele>136.467</ele>
        <time>2018-03-16T12:49:58Z</time>
      </trkpt>
      <trkpt lat="43.72012" lon="7.29644">
        <ele>136.825</ele>
        <time>2018-03-16T12:49:59Z</time>
      </trkpt>
      <trkpt lat="43.72014" lon="7.29637">
        <ele>136.814</ele>
        <time>2018-03-16T12:50:03Z</time>
      </trkpt>
      <trkpt lat="43.72013" lon="7.29631">
        <ele>135.691</ele>
        <time>2018-03-16T12:50:08Z</time>
      </trkpt>
      <trkpt lat="43.72014" lon="7.2963">
        <ele>136.608</ele>
        <time>2018-03-16T12:50:11Z</time>
      </trkpt>
      <trkpt lat="43.72014" lon="7.2963">
        <ele>136.451</ele>
        <time>2018-03-16T12:50:12Z</time>
      </trkpt>
      <trkpt lat="43.72014" lon="7.29628">
        <ele>136.42</ele>
        <time>2018-03-16T12:50:14Z</time>
      </trkpt>
      <trkpt lat="43.72012" lon="7.29627">
        <ele>135.902</ele>
        <time>2018-03-16T12:50:15Z</time>
      </trkpt>
      <trkpt lat="43.7201" lon="7.29624">
        <ele>135.258</ele>
        <time>2018-03-16T12:50:18Z</time>
      </trkpt>
      <trkpt lat="43.7201" lon="7.29623">
        <ele>135.225</ele>
        <time>2018-03-16T12:50:20Z</time>
      </trkpt>
      <trkpt lat="43.7201" lon="7.29623">
        <ele>135.31</ele>
        <time>2018-03-16T12:50:22Z</time>
      </trkpt>
      <trkpt lat="43.72011" lon="7.29621">
        <ele>135.456</ele>
        <time>2018-03-16T12:50:23Z</time>
      </trkpt>
      <trkpt lat="43.72011" lon="7.29621">
        <ele>135.537</ele>
        <time>2018-03-16T12:50:24Z</time>
      </trkpt>
      <trkpt lat="43.72011" lon="7.29621">
        <ele>135.537</ele>
        <time>2018-03-16T12:50:24Z</time>
      </trkpt>
      <trkpt lat="43.72011" lon="7.29621">
        <ele>135.497</ele>
        <time>2018-03-16T12:50:25Z</time>
      </trkpt>
      <trkpt lat="43.72011" lon="7.2962">
        <ele>135.023</ele>
        <time>2018-03-16T12:50:27Z</time>
      </trkpt>
      <trkpt lat="43.72011" lon="7.2962">
        <ele>135.023</ele>
        <time>2018-03-16T12:50:27Z</time>
      </trkpt>
      <trkpt lat="43.7201" lon="7.2962">
        <ele>134.751</ele>
        <time>2018-03-16T12:50:28Z</time>
      </trkpt>
      <trkpt lat="43.72011" lon="7.29622">
        <ele>134.071</ele>
        <time>2018-03-16T12:50:30Z</time>
      </trkpt>
      <trkpt lat="43.72011" lon="7.29623">
        <ele>133.902</ele>
        <time>2018-03-16T12:50:31Z</time>
      </trkpt>
      <trkpt lat="43.72015" lon="7.29627">
        <ele>133.556</ele>
        <time>2018-03-16T12:50:35Z</time>
      </trkpt>
      <trkpt lat="43.72015" lon="7.29627">
        <ele>133.558</ele>
        <time>2018-03-16T12:50:37Z</time>
      </trkpt>
      <trkpt lat="43.72015" lon="7.29627">
        <ele>133.592</ele>
        <time>2018-03-16T12:50:41Z</time>
      </trkpt>
      <trkpt lat="43.72015" lon="7.29626">
        <ele>133.54</ele>
        <time>2018-03-16T12:50:42Z</time>
      </trkpt>
      <trkpt lat="43.72015" lon="7.29625">
        <ele>134.255</ele>
        <time>2018-03-16T12:50:48Z</time>
      </trkpt>
      <trkpt lat="43.72015" lon="7.29625">
        <ele>134.284</ele>
        <time>2018-03-16T12:50:51Z</time>
      </trkpt>
      <trkpt lat="43.72015" lon="7.29626">
        <ele>134.635</ele>
        <time>2018-03-16T12:50:52Z</time>
      </trkpt>
      <trkpt lat="43.72015" lon="7.29626">
        <ele>134.77</ele>
        <time>2018-03-16T12:50:53Z</time>
      </trkpt>
      <trkpt lat="43.72015" lon="7.29626">
        <ele>135.203</ele>
        <time>2018-03-16T12:51:45Z</time>
      </trkpt>
      <trkpt lat="43.72017" lon="7.29626">
        <ele>135.493</ele>
        <time>2018-03-16T12:51:46Z</time>
      </trkpt>
      <trkpt lat="43.72017" lon="7.29626">
        <ele>135.711</ele>
        <time>2018-03-16T12:51:47Z</time>
      </trkpt>
      <trkpt lat="43.72017" lon="7.29626">
        <ele>135.751</ele>
        <time>2018-03-16T12:51:48Z</time>
      </trkpt>
      <trkpt lat="43.72017" lon="7.29626">
        <ele>135.526</ele>
        <time>2018-03-16T12:51:52Z</time>
      </trkpt>
      <trkpt lat="43.72016" lon="7.29626">
        <ele>135.419</ele>
        <time>2018-03-16T12:51:53Z</time>
      </trkpt>
      <trkpt lat="43.72016" lon="7.29626">
        <ele>135.419</ele>
        <time>2018-03-16T12:51:53Z</time>
      </trkpt>
      <trkpt lat="43.72016" lon="7.29626">
        <ele>135.408</ele>
        <time>2018-03-16T12:51:54Z</time>
      </trkpt>
      <trkpt lat="43.72016" lon="7.29626">
        <ele>135.697</ele>
        <time>2018-03-16T12:51:56Z</time>
      </trkpt>
      <trkpt lat="43.72015" lon="7.29627">
        <ele>135.561</ele>
        <time>2018-03-16T12:51:57Z</time>
      </trkpt>
      <trkpt lat="43.72015" lon="7.29627">
        <ele>135.493</ele>
        <time>2018-03-16T12:51:59Z</time>
      </trkpt>
      <trkpt lat="43.72015" lon="7.29627">
        <ele>135.401</ele>
        <time>2018-03-16T12:52:00Z</time>
      </trkpt>
      <trkpt lat="43.72015" lon="7.29628">
        <ele>135.053</ele>
        <time>2018-03-16T12:52:01Z</time>
      </trkpt>
      <trkpt lat="43.72015" lon="7.29627">
        <ele>134.572</ele>
        <time>2018-03-16T12:52:02Z</time>
      </trkpt>
      <trkpt lat="43.72015" lon="7.29627">
        <ele>135.129</ele>
        <time>2018-03-16T12:52:03Z</time>
      </trkpt>
      <trkpt lat="43.72014" lon="7.29628">
        <ele>135.449</ele>
        <time>2018-03-16T12:52:05Z</time>
      </trkpt>
      <trkpt lat="43.72014" lon="7.29628">
        <ele>135.909</ele>
        <time>2018-03-16T12:52:10Z</time>
      </trkpt>
      <trkpt lat="43.72016" lon="7.2963">
        <ele>135.523</ele>
        <time>2018-03-16T12:52:11Z</time>
      </trkpt>
      <trkpt lat="43.72015" lon="7.29631">
        <ele>136.308</ele>
        <time>2018-03-16T12:52:14Z</time>
      </trkpt>
      <trkpt lat="43.72015" lon="7.29631">
        <ele>136.308</ele>
        <time>2018-03-16T12:52:14Z</time>
      </trkpt>
      <trkpt lat="43.72015" lon="7.2963">
        <ele>136.545</ele>
        <time>2018-03-16T12:52:15Z</time>
      </trkpt>
      <trkpt lat="43.72016" lon="7.29629">
        <ele>135.988</ele>
        <time>2018-03-16T12:52:16Z</time>
      </trkpt>
      <trkpt lat="43.72015" lon="7.29629">
        <ele>135.237</ele>
        <time>2018-03-16T12:52:18Z</time>
      </trkpt>
      <trkpt lat="43.72015" lon="7.2963">
        <ele>134.756</ele>
        <time>2018-03-16T12:52:19Z</time>
      </trkpt>
      <trkpt lat="43.72015" lon="7.29631">
        <ele>134.577</ele>
        <time>2018-03-16T12:52:20Z</time>
      </trkpt>
      <trkpt lat="43.72014" lon="7.29634">
        <ele>133.946</ele>
        <time>2018-03-16T12:52:22Z</time>
      </trkpt>
      <trkpt lat="43.72012" lon="7.29638">
        <ele>134.691</ele>
        <time>2018-03-16T12:52:25Z</time>
      </trkpt>
      <trkpt lat="43.72008" lon="7.29637">
        <ele>134.868</ele>
        <time>2018-03-16T12:52:28Z</time>
      </trkpt>
      <trkpt lat="43.72005" lon="7.29636">
        <ele>133.055</ele>
        <time>2018-03-16T12:52:31Z</time>
      </trkpt>
      <trkpt lat="43.72002" lon="7.29635">
        <ele>132.387</ele>
        <time>2018-03-16T12:52:34Z</time>
      </trkpt>
      <trkpt lat="43.71997" lon="7.29633">
        <ele>131.731</ele>
        <time>2018-03-16T12:52:39Z</time>
      </trkpt>
      <trkpt lat="43.71997" lon="7.29633">
        <ele>131.907</ele>
        <time>2018-03-16T12:52:40Z</time>
      </trkpt>
      <trkpt lat="43.71997" lon="7.29633">
        <ele>132.014</ele>
        <time>2018-03-16T12:53:32Z</time>
      </trkpt>
      <trkpt lat="43.71998" lon="7.29633">
        <ele>132.141</ele>
        <time>2018-03-16T12:53:33Z</time>
      </trkpt>
      <trkpt lat="43.71998" lon="7.29633">
        <ele>132.141</ele>
        <time>2018-03-16T12:53:33Z</time>
      </trkpt>
      <trkpt lat="43.71998" lon="7.29632">
        <ele>131.409</ele>
        <time>2018-03-16T12:53:34Z</time>
      </trkpt>
      <trkpt lat="43.72001" lon="7.29633">
        <ele>131.65</ele>
        <time>2018-03-16T12:53:37Z</time>
      </trkpt>
      <trkpt lat="43.72005" lon="7.29634">
        <ele>132.924</ele>
        <time>2018-03-16T12:53:40Z</time>
      </trkpt>
      <trkpt lat="43.72008" lon="7.29636">
        <ele>133.751</ele>
        <time>2018-03-16T12:53:43Z</time>
      </trkpt>
      <trkpt lat="43.72011" lon="7.29637">
        <ele>132.156</ele>
        <time>2018-03-16T12:53:46Z</time>
      </trkpt>
      <trkpt lat="43.72013" lon="7.29639">
        <ele>132.725</ele>
        <time>2018-03-16T12:53:50Z</time>
      </trkpt>
      <trkpt lat="43.72013" lon="7.29639">
        <ele>132.749</ele>
        <time>2018-03-16T12:53:51Z</time>
      </trkpt>
      <trkpt lat="43.72014" lon="7.29639">
        <ele>132.699</ele>
        <time>2018-03-16T12:53:52Z</time>
      </trkpt>
      <trkpt lat="43.72014" lon="7.29639">
        <ele>132.699</ele>
        <time>2018-03-16T12:53:52Z</time>
      </trkpt>
      <trkpt lat="43.72014" lon="7.29639">
        <ele>132.794</ele>
        <time>2018-03-16T12:53:53Z</time>
      </trkpt>
      <trkpt lat="43.72014" lon="7.29639">
        <ele>132.794</ele>
        <time>2018-03-16T12:53:53Z</time>
      </trkpt>
      <trkpt lat="43.72014" lon="7.29638">
        <ele>132.686</ele>
        <time>2018-03-16T12:53:54Z</time>
      </trkpt>
      <trkpt lat="43.72014" lon="7.29638">
        <ele>132.645</ele>
        <time>2018-03-16T12:53:55Z</time>
      </trkpt>
      <trkpt lat="43.72014" lon="7.29638">
        <ele>133.239</ele>
        <time>2018-03-16T12:54:31Z</time>
      </trkpt>
      <trkpt lat="43.72015" lon="7.29638">
        <ele>132.783</ele>
        <time>2018-03-16T12:54:32Z</time>
      </trkpt>
      <trkpt lat="43.72016" lon="7.29635">
        <ele>132.823</ele>
        <time>2018-03-16T12:54:34Z</time>
      </trkpt>
      <trkpt lat="43.72016" lon="7.2963">
        <ele>132.683</ele>
        <time>2018-03-16T12:54:37Z</time>
      </trkpt>
      <trkpt lat="43.72017" lon="7.29629">
        <ele>132.43</ele>
        <time>2018-03-16T12:54:38Z</time>
      </trkpt>
      <trkpt lat="43.72017" lon="7.2963">
        <ele>132.396</ele>
        <time>2018-03-16T12:54:39Z</time>
      </trkpt>
      <trkpt lat="43.72017" lon="7.2963">
        <ele>132.907</ele>
        <time>2018-03-16T12:54:40Z</time>
      </trkpt>
      <trkpt lat="43.72017" lon="7.2963">
        <ele>132.802</ele>
        <time>2018-03-16T12:54:41Z</time>
      </trkpt>
      <trkpt lat="43.72017" lon="7.2963">
        <ele>133.192</ele>
        <time>2018-03-16T12:54:42Z</time>
      </trkpt>
      <trkpt lat="43.72017" lon="7.2963">
        <ele>133.192</ele>
        <time>2018-03-16T12:54:42Z</time>
      </trkpt>
      <trkpt lat="43.72017" lon="7.2963">
        <ele>133.91</ele>
        <time>2018-03-16T12:54:43Z</time>
      </trkpt>
      <trkpt lat="43.72017" lon="7.2963">
        <ele>133.883</ele>
        <time>2018-03-16T12:54:45Z</time>
      </trkpt>
      <trkpt lat="43.72017" lon="7.2963">
        <ele>133.717</ele>
        <time>2018-03-16T12:54:50Z</time>
      </trkpt>
      <trkpt lat="43.72017" lon="7.2963">
        <ele>133.683</ele>
        <time>2018-03-16T12:54:51Z</time>
      </trkpt>
      <trkpt lat="43.72017" lon="7.2963">
        <ele>133.683</ele>
        <time>2018-03-16T12:54:51Z</time>
      </trkpt>
      <trkpt lat="43.72017" lon="7.2963">
        <ele>133.933</ele>
        <time>2018-03-16T12:54:52Z</time>
      </trkpt>
      <trkpt lat="43.72017" lon="7.2963">
        <ele>133.739</ele>
        <time>2018-03-16T12:55:06Z</time>
      </trkpt>
      <trkpt lat="43.72018" lon="7.2963">
        <ele>134.28</ele>
        <time>2018-03-16T12:55:07Z</time>
      </trkpt>
      <trkpt lat="43.72018" lon="7.2963">
        <ele>134.252</ele>
        <time>2018-03-16T12:55:08Z</time>
      </trkpt>
      <trkpt lat="43.72018" lon="7.2963">
        <ele>134.403</ele>
        <time>2018-03-16T12:55:12Z</time>
      </trkpt>
      <trkpt lat="43.72017" lon="7.29629">
        <ele>134.624</ele>
        <time>2018-03-16T12:55:13Z</time>
      </trkpt>
      <trkpt lat="43.72017" lon="7.29629">
        <ele>134.624</ele>
        <time>2018-03-16T12:55:13Z</time>
      </trkpt>
      <trkpt lat="43.72017" lon="7.29629">
        <ele>134.554</ele>
        <time>2018-03-16T12:55:14Z</time>
      </trkpt>
      <trkpt lat="43.72017" lon="7.29629">
        <ele>134.569</ele>
        <time>2018-03-16T12:55:15Z</time>
      </trkpt>
      <trkpt lat="43.72017" lon="7.29629">
        <ele>134.552</ele>
        <time>2018-03-16T12:55:16Z</time>
      </trkpt>
      <trkpt lat="43.72017" lon="7.29629">
        <ele>134.817</ele>
        <time>2018-03-16T12:55:18Z</time>
      </trkpt>
      <trkpt lat="43.72017" lon="7.29629">
        <ele>134.817</ele>
        <time>2018-03-16T12:55:18Z</time>
      </trkpt>
      <trkpt lat="43.72017" lon="7.29629">
        <ele>134.653</ele>
        <time>2018-03-16T12:55:19Z</time>
      </trkpt>
      <trkpt lat="43.72016" lon="7.29629">
        <ele>134.397</ele>
        <time>2018-03-16T12:55:21Z</time>
      </trkpt>
      <trkpt lat="43.72016" lon="7.29629">
        <ele>134.397</ele>
        <time>2018-03-16T12:55:21Z</time>
      </trkpt>
      <trkpt lat="43.72015" lon="7.2963">
        <ele>134.407</ele>
        <time>2018-03-16T12:55:22Z</time>
      </trkpt>
      <trkpt lat="43.72015" lon="7.2963">
        <ele>134.4</ele>
        <time>2018-03-16T12:55:23Z</time>
      </trkpt>
      <trkpt lat="43.72015" lon="7.2963">
        <ele>134.423</ele>
        <time>2018-03-16T12:56:05Z</time>
      </trkpt>
      <trkpt lat="43.72015" lon="7.29629">
        <ele>134.441</ele>
        <time>2018-03-16T12:56:06Z</time>
      </trkpt>
      <trkpt lat="43.72015" lon="7.29629">
        <ele>134.049</ele>
        <time>2018-03-16T12:56:07Z</time>
      </trkpt>
      <trkpt lat="43.72015" lon="7.29629">
        <ele>133.912</ele>
        <time>2018-03-16T12:56:09Z</time>
      </trkpt>
      <trkpt lat="43.72015" lon="7.2963">
        <ele>134.119</ele>
        <time>2018-03-16T12:56:10Z</time>
      </trkpt>
      <trkpt lat="43.72014" lon="7.29631">
        <ele>133.778</ele>
        <time>2018-03-16T12:56:12Z</time>
      </trkpt>
      <trkpt lat="43.72014" lon="7.29636">
        <ele>132.482</ele>
        <time>2018-03-16T12:56:16Z</time>
      </trkpt>
      <trkpt lat="43.72014" lon="7.29638">
        <ele>133.486</ele>
        <time>2018-03-16T12:56:19Z</time>
      </trkpt>
      <trkpt lat="43.72014" lon="7.29638">
        <ele>133.524</ele>
        <time>2018-03-16T12:56:20Z</time>
      </trkpt>
      <trkpt lat="43.72014" lon="7.29638">
        <ele>134.051</ele>
        <time>2018-03-16T12:58:45Z</time>
      </trkpt>
      <trkpt lat="43.72015" lon="7.29641">
        <ele>133.951</ele>
        <time>2018-03-16T12:58:46Z</time>
      </trkpt>
      <trkpt lat="43.72015" lon="7.29642">
        <ele>133.46</ele>
        <time>2018-03-16T12:58:47Z</time>
      </trkpt>
      <trkpt lat="43.72017" lon="7.29643">
        <ele>133.509</ele>
        <time>2018-03-16T12:58:50Z</time>
      </trkpt>
      <trkpt lat="43.72017" lon="7.29643">
        <ele>133.613</ele>
        <time>2018-03-16T12:58:52Z</time>
      </trkpt>
      <trkpt lat="43.72017" lon="7.29643">
        <ele>133.307</ele>
        <time>2018-03-16T12:58:53Z</time>
      </trkpt>
      <trkpt lat="43.72016" lon="7.29644">
        <ele>132.893</ele>
        <time>2018-03-16T12:58:54Z</time>
      </trkpt>
      <trkpt lat="43.72014" lon="7.29649">
        <ele>134.202</ele>
        <time>2018-03-16T12:58:57Z</time>
      </trkpt>
      <trkpt lat="43.72014" lon="7.29655">
        <ele>133.806</ele>
        <time>2018-03-16T12:59:00Z</time>
      </trkpt>
      <trkpt lat="43.72014" lon="7.29656">
        <ele>133.742</ele>
        <time>2018-03-16T12:59:01Z</time>
      </trkpt>
      <trkpt lat="43.72017" lon="7.29657">
        <ele>133.847</ele>
        <time>2018-03-16T12:59:03Z</time>
      </trkpt>
      <trkpt lat="43.72022" lon="7.29659">
        <ele>133.988</ele>
        <time>2018-03-16T12:59:06Z</time>
      </trkpt>
      <trkpt lat="43.72024" lon="7.2966">
        <ele>134.366</ele>
        <time>2018-03-16T12:59:08Z</time>
      </trkpt>
      <trkpt lat="43.7203" lon="7.29662">
        <ele>134.485</ele>
        <time>2018-03-16T12:59:12Z</time>
      </trkpt>
      <trkpt lat="43.72032" lon="7.29665">
        <ele>134.503</ele>
        <time>2018-03-16T12:59:15Z</time>
      </trkpt>
      <trkpt lat="43.72033" lon="7.29667">
        <ele>134.593</ele>
        <time>2018-03-16T12:59:17Z</time>
      </trkpt>
      <trkpt lat="43.72034" lon="7.29669">
        <ele>134.981</ele>
        <time>2018-03-16T12:59:20Z</time>
      </trkpt>
      <trkpt lat="43.72037" lon="7.29671">
        <ele>135.406</ele>
        <time>2018-03-16T12:59:23Z</time>
      </trkpt>
      <trkpt lat="43.7204" lon="7.29674">
        <ele>136.114</ele>
        <time>2018-03-16T12:59:26Z</time>
      </trkpt>
      <trkpt lat="43.72044" lon="7.29679">
        <ele>136.368</ele>
        <time>2018-03-16T12:59:30Z</time>
      </trkpt>
      <trkpt lat="43.72047" lon="7.29681">
        <ele>136.693</ele>
        <time>2018-03-16T12:59:33Z</time>
      </trkpt>
      <trkpt lat="43.72048" lon="7.29682">
        <ele>136.879</ele>
        <time>2018-03-16T12:59:34Z</time>
      </trkpt>
      <trkpt lat="43.72054" lon="7.29689">
        <ele>137.525</ele>
        <time>2018-03-16T12:59:41Z</time>
      </trkpt>
      <trkpt lat="43.72059" lon="7.29692">
        <ele>138.437</ele>
        <time>2018-03-16T12:59:46Z</time>
      </trkpt>
      <trkpt lat="43.72062" lon="7.29695">
        <ele>139.191</ele>
        <time>2018-03-16T12:59:49Z</time>
      </trkpt>
      <trkpt lat="43.72072" lon="7.297">
        <ele>139.99</ele>
        <time>2018-03-16T12:59:59Z</time>
      </trkpt>
      <trkpt lat="43.72082" lon="7.29698">
        <ele>141.6</ele>
        <time>2018-03-16T13:00:07Z</time>
      </trkpt>
      <trkpt lat="43.72085" lon="7.29698">
        <ele>142.181</ele>
        <time>2018-03-16T13:00:10Z</time>
      </trkpt>
      <trkpt lat="43.72091" lon="7.29695">
        <ele>143.096</ele>
        <time>2018-03-16T13:00:15Z</time>
      </trkpt>
      <trkpt lat="43.72093" lon="7.29692">
        <ele>143.599</ele>
        <time>2018-03-16T13:00:17Z</time>
      </trkpt>
      <trkpt lat="43.72095" lon="7.29689">
        <ele>144.033</ele>
        <time>2018-03-16T13:00:20Z</time>
      </trkpt>
      <trkpt lat="43.72099" lon="7.29687">
        <ele>144.537</ele>
        <time>2018-03-16T13:00:23Z</time>
      </trkpt>
      <trkpt lat="43.72101" lon="7.29684">
        <ele>144.434</ele>
        <time>2018-03-16T13:00:26Z</time>
      </trkpt>
      <trkpt lat="43.72102" lon="7.29683">
        <ele>144.652</ele>
        <time>2018-03-16T13:00:27Z</time>
      </trkpt>
      <trkpt lat="43.72104" lon="7.29678">
        <ele>145.006</ele>
        <time>2018-03-16T13:00:30Z</time>
      </trkpt>
      <trkpt lat="43.72107" lon="7.29671">
        <ele>143.947</ele>
        <time>2018-03-16T13:00:35Z</time>
      </trkpt>
      <trkpt lat="43.72109" lon="7.29669">
        <ele>144.405</ele>
        <time>2018-03-16T13:00:38Z</time>
      </trkpt>
      <trkpt lat="43.72112" lon="7.29665">
        <ele>144.087</ele>
        <time>2018-03-16T13:00:41Z</time>
      </trkpt>
      <trkpt lat="43.72115" lon="7.29662">
        <ele>144.703</ele>
        <time>2018-03-16T13:00:45Z</time>
      </trkpt>
      <trkpt lat="43.72131" lon="7.29637">
        <ele>146.082</ele>
        <time>2018-03-16T13:01:05Z</time>
      </trkpt>
      <trkpt lat="43.72134" lon="7.29634">
        <ele>146.244</ele>
        <time>2018-03-16T13:01:08Z</time>
      </trkpt>
      <trkpt lat="43.72136" lon="7.29631">
        <ele>146.809</ele>
        <time>2018-03-16T13:01:11Z</time>
      </trkpt>
      <trkpt lat="43.72138" lon="7.29626">
        <ele>147.109</ele>
        <time>2018-03-16T13:01:15Z</time>
      </trkpt>
      <trkpt lat="43.72142" lon="7.29623">
        <ele>148.185</ele>
        <time>2018-03-16T13:01:19Z</time>
      </trkpt>
      <trkpt lat="43.72144" lon="7.29621">
        <ele>148.195</ele>
        <time>2018-03-16T13:01:22Z</time>
      </trkpt>
      <trkpt lat="43.72147" lon="7.29619">
        <ele>149.066</ele>
        <time>2018-03-16T13:01:25Z</time>
      </trkpt>
      <trkpt lat="43.72151" lon="7.29612">
        <ele>148.533</ele>
        <time>2018-03-16T13:01:31Z</time>
      </trkpt>
      <trkpt lat="43.72154" lon="7.29604">
        <ele>148.553</ele>
        <time>2018-03-16T13:01:36Z</time>
      </trkpt>
      <trkpt lat="43.72157" lon="7.29602">
        <ele>149.02</ele>
        <time>2018-03-16T13:01:39Z</time>
      </trkpt>
      <trkpt lat="43.72161" lon="7.29597">
        <ele>149.229</ele>
        <time>2018-03-16T13:01:44Z</time>
      </trkpt>
      <trkpt lat="43.72164" lon="7.29593">
        <ele>149.701</ele>
        <time>2018-03-16T13:01:47Z</time>
      </trkpt>
      <trkpt lat="43.72165" lon="7.29592">
        <ele>149.687</ele>
        <time>2018-03-16T13:01:48Z</time>
      </trkpt>
      <trkpt lat="43.72168" lon="7.29587">
        <ele>149.879</ele>
        <time>2018-03-16T13:01:53Z</time>
      </trkpt>
      <trkpt lat="43.72174" lon="7.29579">
        <ele>150.268</ele>
        <time>2018-03-16T13:02:00Z</time>
      </trkpt>
      <trkpt lat="43.72177" lon="7.29579">
        <ele>150.843</ele>
        <time>2018-03-16T13:02:02Z</time>
      </trkpt>
      <trkpt lat="43.7218" lon="7.29578">
        <ele>151.071</ele>
        <time>2018-03-16T13:02:05Z</time>
      </trkpt>
      <trkpt lat="43.72185" lon="7.29568">
        <ele>151.232</ele>
        <time>2018-03-16T13:02:12Z</time>
      </trkpt>
      <trkpt lat="43.72188" lon="7.29564">
        <ele>151.586</ele>
        <time>2018-03-16T13:02:15Z</time>
      </trkpt>
      <trkpt lat="43.72191" lon="7.2956">
        <ele>151.852</ele>
        <time>2018-03-16T13:02:19Z</time>
      </trkpt>
      <trkpt lat="43.72195" lon="7.29558">
        <ele>151.972</ele>
        <time>2018-03-16T13:02:22Z</time>
      </trkpt>
      <trkpt lat="43.72196" lon="7.29558">
        <ele>152.171</ele>
        <time>2018-03-16T13:02:23Z</time>
      </trkpt>
      <trkpt lat="43.72199" lon="7.29557">
        <ele>152.514</ele>
        <time>2018-03-16T13:02:26Z</time>
      </trkpt>
      <trkpt lat="43.72202" lon="7.29556">
        <ele>152.956</ele>
        <time>2018-03-16T13:02:29Z</time>
      </trkpt>
      <trkpt lat="43.72205" lon="7.29554">
        <ele>153.463</ele>
        <time>2018-03-16T13:02:32Z</time>
      </trkpt>
      <trkpt lat="43.7221" lon="7.29554">
        <ele>153.954</ele>
        <time>2018-03-16T13:02:37Z</time>
      </trkpt>
      <trkpt lat="43.72216" lon="7.29556">
        <ele>155.249</ele>
        <time>2018-03-16T13:02:42Z</time>
      </trkpt>
      <trkpt lat="43.7222" lon="7.29557">
        <ele>155.669</ele>
        <time>2018-03-16T13:02:45Z</time>
      </trkpt>
      <trkpt lat="43.72226" lon="7.29558">
        <ele>156.313</ele>
        <time>2018-03-16T13:02:51Z</time>
      </trkpt>
      <trkpt lat="43.72237" lon="7.29554">
        <ele>156.815</ele>
        <time>2018-03-16T13:03:01Z</time>
      </trkpt>
      <trkpt lat="43.72244" lon="7.29557">
        <ele>158.255</ele>
        <time>2018-03-16T13:03:08Z</time>
      </trkpt>
      <trkpt lat="43.72249" lon="7.29556">
        <ele>158.543</ele>
        <time>2018-03-16T13:03:12Z</time>
      </trkpt>
      <trkpt lat="43.72252" lon="7.29556">
        <ele>158.924</ele>
        <time>2018-03-16T13:03:15Z</time>
      </trkpt>
      <trkpt lat="43.72259" lon="7.29556">
        <ele>159.457</ele>
        <time>2018-03-16T13:03:21Z</time>
      </trkpt>
      <trkpt lat="43.72264" lon="7.29556">
        <ele>160.005</ele>
        <time>2018-03-16T13:03:26Z</time>
      </trkpt>
      <trkpt lat="43.72267" lon="7.29559">
        <ele>160.297</ele>
        <time>2018-03-16T13:03:29Z</time>
      </trkpt>
      <trkpt lat="43.7227" lon="7.29561">
        <ele>160.541</ele>
        <time>2018-03-16T13:03:33Z</time>
      </trkpt>
      <trkpt lat="43.72273" lon="7.29561">
        <ele>160.931</ele>
        <time>2018-03-16T13:03:35Z</time>
      </trkpt>
      <trkpt lat="43.72277" lon="7.29561">
        <ele>161.476</ele>
        <time>2018-03-16T13:03:38Z</time>
      </trkpt>
      <trkpt lat="43.72284" lon="7.29561">
        <ele>161.643</ele>
        <time>2018-03-16T13:03:44Z</time>
      </trkpt>
      <trkpt lat="43.72285" lon="7.2956">
        <ele>161.614</ele>
        <time>2018-03-16T13:03:45Z</time>
      </trkpt>
      <trkpt lat="43.72288" lon="7.2956">
        <ele>161.562</ele>
        <time>2018-03-16T13:03:48Z</time>
      </trkpt>
      <trkpt lat="43.72295" lon="7.29563">
        <ele>161.672</ele>
        <time>2018-03-16T13:03:54Z</time>
      </trkpt>
      <trkpt lat="43.72299" lon="7.29564">
        <ele>161.044</ele>
        <time>2018-03-16T13:03:57Z</time>
      </trkpt>
      <trkpt lat="43.72302" lon="7.29565">
        <ele>161.078</ele>
        <time>2018-03-16T13:04:01Z</time>
      </trkpt>
      <trkpt lat="43.72305" lon="7.29566">
        <ele>160.976</ele>
        <time>2018-03-16T13:04:03Z</time>
      </trkpt>
      <trkpt lat="43.72307" lon="7.29568">
        <ele>162.571</ele>
        <time>2018-03-16T13:04:07Z</time>
      </trkpt>
      <trkpt lat="43.72315" lon="7.29576">
        <ele>162.697</ele>
        <time>2018-03-16T13:04:15Z</time>
      </trkpt>
      <trkpt lat="43.72318" lon="7.2958">
        <ele>162.904</ele>
        <time>2018-03-16T13:04:18Z</time>
      </trkpt>
      <trkpt lat="43.72321" lon="7.29585">
        <ele>163.561</ele>
        <time>2018-03-16T13:04:22Z</time>
      </trkpt>
      <trkpt lat="43.72323" lon="7.29589">
        <ele>163.412</ele>
        <time>2018-03-16T13:04:25Z</time>
      </trkpt>
      <trkpt lat="43.72324" lon="7.29594">
        <ele>164.094</ele>
        <time>2018-03-16T13:04:28Z</time>
      </trkpt>
      <trkpt lat="43.72325" lon="7.29599">
        <ele>164.94</ele>
        <time>2018-03-16T13:04:32Z</time>
      </trkpt>
      <trkpt lat="43.72327" lon="7.29601">
        <ele>165.017</ele>
        <time>2018-03-16T13:04:34Z</time>
      </trkpt>
      <trkpt lat="43.72341" lon="7.2962">
        <ele>167.039</ele>
        <time>2018-03-16T13:04:48Z</time>
      </trkpt>
      <trkpt lat="43.72342" lon="7.29625">
        <ele>167.797</ele>
        <time>2018-03-16T13:04:52Z</time>
      </trkpt>
      <trkpt lat="43.72344" lon="7.29628">
        <ele>168.15</ele>
        <time>2018-03-16T13:04:55Z</time>
      </trkpt>
      <trkpt lat="43.72346" lon="7.29632">
        <ele>168.655</ele>
        <time>2018-03-16T13:04:59Z</time>
      </trkpt>
      <trkpt lat="43.72349" lon="7.29635">
        <ele>168.947</ele>
        <time>2018-03-16T13:05:02Z</time>
      </trkpt>
      <trkpt lat="43.72352" lon="7.29638">
        <ele>169.245</ele>
        <time>2018-03-16T13:05:05Z</time>
      </trkpt>
      <trkpt lat="43.72359" lon="7.29643">
        <ele>170.693</ele>
        <time>2018-03-16T13:05:13Z</time>
      </trkpt>
      <trkpt lat="43.72359" lon="7.29643">
        <ele>170.693</ele>
        <time>2018-03-16T13:05:13Z</time>
      </trkpt>
      <trkpt lat="43.7236" lon="7.29643">
        <ele>170.674</ele>
        <time>2018-03-16T13:05:14Z</time>
      </trkpt>
      <trkpt lat="43.72364" lon="7.29645">
        <ele>170.45</ele>
        <time>2018-03-16T13:05:18Z</time>
      </trkpt>
      <trkpt lat="43.72368" lon="7.29648">
        <ele>170.791</ele>
        <time>2018-03-16T13:05:22Z</time>
      </trkpt>
      <trkpt lat="43.72369" lon="7.29649">
        <ele>170.746</ele>
        <time>2018-03-16T13:05:23Z</time>
      </trkpt>
      <trkpt lat="43.72375" lon="7.29649">
        <ele>170.954</ele>
        <time>2018-03-16T13:05:28Z</time>
      </trkpt>
      <trkpt lat="43.72378" lon="7.2965">
        <ele>171.706</ele>
        <time>2018-03-16T13:05:31Z</time>
      </trkpt>
      <trkpt lat="43.72379" lon="7.2965">
        <ele>171.404</ele>
        <time>2018-03-16T13:05:32Z</time>
      </trkpt>
      <trkpt lat="43.72381" lon="7.29649">
        <ele>171.816</ele>
        <time>2018-03-16T13:05:35Z</time>
      </trkpt>
      <trkpt lat="43.72387" lon="7.29648">
        <ele>172.145</ele>
        <time>2018-03-16T13:05:40Z</time>
      </trkpt>
      <trkpt lat="43.72389" lon="7.29649">
        <ele>172.406</ele>
        <time>2018-03-16T13:05:42Z</time>
      </trkpt>
      <trkpt lat="43.72393" lon="7.2965">
        <ele>173.07</ele>
        <time>2018-03-16T13:05:45Z</time>
      </trkpt>
      <trkpt lat="43.72397" lon="7.2965">
        <ele>173.14</ele>
        <time>2018-03-16T13:05:48Z</time>
      </trkpt>
      <trkpt lat="43.724" lon="7.29652">
        <ele>173.373</ele>
        <time>2018-03-16T13:05:51Z</time>
      </trkpt>
      <trkpt lat="43.72403" lon="7.29653">
        <ele>173.744</ele>
        <time>2018-03-16T13:05:54Z</time>
      </trkpt>
      <trkpt lat="43.72406" lon="7.29653">
        <ele>174.141</ele>
        <time>2018-03-16T13:05:57Z</time>
      </trkpt>
      <trkpt lat="43.72409" lon="7.29653">
        <ele>174.031</ele>
        <time>2018-03-16T13:06:00Z</time>
      </trkpt>
      <trkpt lat="43.72412" lon="7.29652">
        <ele>173.977</ele>
        <time>2018-03-16T13:06:03Z</time>
      </trkpt>
      <trkpt lat="43.72416" lon="7.29652">
        <ele>174.304</ele>
        <time>2018-03-16T13:06:07Z</time>
      </trkpt>
      <trkpt lat="43.7242" lon="7.29651">
        <ele>174.709</ele>
        <time>2018-03-16T13:06:10Z</time>
      </trkpt>
      <trkpt lat="43.72423" lon="7.29651">
        <ele>175.539</ele>
        <time>2018-03-16T13:06:12Z</time>
      </trkpt>
      <trkpt lat="43.72428" lon="7.2965">
        <ele>175.753</ele>
        <time>2018-03-16T13:06:16Z</time>
      </trkpt>
      <trkpt lat="43.72431" lon="7.29648">
        <ele>175.907</ele>
        <time>2018-03-16T13:06:20Z</time>
      </trkpt>
      <trkpt lat="43.72436" lon="7.2965">
        <ele>176.911</ele>
        <time>2018-03-16T13:06:24Z</time>
      </trkpt>
      <trkpt lat="43.72439" lon="7.29649">
        <ele>177.404</ele>
        <time>2018-03-16T13:06:26Z</time>
      </trkpt>
      <trkpt lat="43.72441" lon="7.29646">
        <ele>177.342</ele>
        <time>2018-03-16T13:06:29Z</time>
      </trkpt>
      <trkpt lat="43.72445" lon="7.29642">
        <ele>177.86</ele>
        <time>2018-03-16T13:06:33Z</time>
      </trkpt>
      <trkpt lat="43.72448" lon="7.29641">
        <ele>178.249</ele>
        <time>2018-03-16T13:06:35Z</time>
      </trkpt>
      <trkpt lat="43.72453" lon="7.29638">
        <ele>178.655</ele>
        <time>2018-03-16T13:06:40Z</time>
      </trkpt>
      <trkpt lat="43.72458" lon="7.29636">
        <ele>179.789</ele>
        <time>2018-03-16T13:06:44Z</time>
      </trkpt>
      <trkpt lat="43.7246" lon="7.29634">
        <ele>178.974</ele>
        <time>2018-03-16T13:06:47Z</time>
      </trkpt>
      <trkpt lat="43.72467" lon="7.29629">
        <ele>179.9</ele>
        <time>2018-03-16T13:06:53Z</time>
      </trkpt>
      <trkpt lat="43.72468" lon="7.29628">
        <ele>179.646</ele>
        <time>2018-03-16T13:06:54Z</time>
      </trkpt>
      <trkpt lat="43.72471" lon="7.29626">
        <ele>179.457</ele>
        <time>2018-03-16T13:06:57Z</time>
      </trkpt>
      <trkpt lat="43.72476" lon="7.29625">
        <ele>179.238</ele>
        <time>2018-03-16T13:07:02Z</time>
      </trkpt>
      <trkpt lat="43.72476" lon="7.29625">
        <ele>179.495</ele>
        <time>2018-03-16T13:07:03Z</time>
      </trkpt>
      <trkpt lat="43.72476" lon="7.29625">
        <ele>178.973</ele>
        <time>2018-03-16T13:07:14Z</time>
      </trkpt>
      <trkpt lat="43.72475" lon="7.29624">
        <ele>179.765</ele>
        <time>2018-03-16T13:07:15Z</time>
      </trkpt>
      <trkpt lat="43.72476" lon="7.29623">
        <ele>179.523</ele>
        <time>2018-03-16T13:07:16Z</time>
      </trkpt>
      <trkpt lat="43.72481" lon="7.29619">
        <ele>179.996</ele>
        <time>2018-03-16T13:07:21Z</time>
      </trkpt>
      <trkpt lat="43.72484" lon="7.29618">
        <ele>179.967</ele>
        <time>2018-03-16T13:07:24Z</time>
      </trkpt>
      <trkpt lat="43.72487" lon="7.29615">
        <ele>180.189</ele>
        <time>2018-03-16T13:07:27Z</time>
      </trkpt>
      <trkpt lat="43.72495" lon="7.29604">
        <ele>181.077</ele>
        <time>2018-03-16T13:07:35Z</time>
      </trkpt>
      <trkpt lat="43.72496" lon="7.29602">
        <ele>181.215</ele>
        <time>2018-03-16T13:07:37Z</time>
      </trkpt>
      <trkpt lat="43.72499" lon="7.29599">
        <ele>181.286</ele>
        <time>2018-03-16T13:07:40Z</time>
      </trkpt>
      <trkpt lat="43.72502" lon="7.29596">
        <ele>181.782</ele>
        <time>2018-03-16T13:07:43Z</time>
      </trkpt>
      <trkpt lat="43.72504" lon="7.2959">
        <ele>181.965</ele>
        <time>2018-03-16T13:07:47Z</time>
      </trkpt>
      <trkpt lat="43.7251" lon="7.29584">
        <ele>183.028</ele>
        <time>2018-03-16T13:07:53Z</time>
      </trkpt>
      <trkpt lat="43.72513" lon="7.29581">
        <ele>183.818</ele>
        <time>2018-03-16T13:07:56Z</time>
      </trkpt>
      <trkpt lat="43.72515" lon="7.29578">
        <ele>184.321</ele>
        <time>2018-03-16T13:07:59Z</time>
      </trkpt>
      <trkpt lat="43.72517" lon="7.29575">
        <ele>184.15</ele>
        <time>2018-03-16T13:08:01Z</time>
      </trkpt>
      <trkpt lat="43.7252" lon="7.2957">
        <ele>184.399</ele>
        <time>2018-03-16T13:08:05Z</time>
      </trkpt>
      <trkpt lat="43.72524" lon="7.29566">
        <ele>184.715</ele>
        <time>2018-03-16T13:08:09Z</time>
      </trkpt>
      <trkpt lat="43.72534" lon="7.29559">
        <ele>186.224</ele>
        <time>2018-03-16T13:08:18Z</time>
      </trkpt>
      <trkpt lat="43.72539" lon="7.29555">
        <ele>186.678</ele>
        <time>2018-03-16T13:08:23Z</time>
      </trkpt>
      <trkpt lat="43.72541" lon="7.29548">
        <ele>186.816</ele>
        <time>2018-03-16T13:08:27Z</time>
      </trkpt>
      <trkpt lat="43.72544" lon="7.29543">
        <ele>187.073</ele>
        <time>2018-03-16T13:08:32Z</time>
      </trkpt>
      <trkpt lat="43.72545" lon="7.29542">
        <ele>187.483</ele>
        <time>2018-03-16T13:08:33Z</time>
      </trkpt>
      <trkpt lat="43.72547" lon="7.29539">
        <ele>187.582</ele>
        <time>2018-03-16T13:08:36Z</time>
      </trkpt>
      <trkpt lat="43.72553" lon="7.29536">
        <ele>188.328</ele>
        <time>2018-03-16T13:08:41Z</time>
      </trkpt>
      <trkpt lat="43.72554" lon="7.29533">
        <ele>188.651</ele>
        <time>2018-03-16T13:08:43Z</time>
      </trkpt>
      <trkpt lat="43.72555" lon="7.29532">
        <ele>188.617</ele>
        <time>2018-03-16T13:08:44Z</time>
      </trkpt>
      <trkpt lat="43.72558" lon="7.2953">
        <ele>188.836</ele>
        <time>2018-03-16T13:08:47Z</time>
      </trkpt>
      <trkpt lat="43.72563" lon="7.29524">
        <ele>189.026</ele>
        <time>2018-03-16T13:08:52Z</time>
      </trkpt>
      <trkpt lat="43.72567" lon="7.29519">
        <ele>189.957</ele>
        <time>2018-03-16T13:08:57Z</time>
      </trkpt>
      <trkpt lat="43.7257" lon="7.29516">
        <ele>190.306</ele>
        <time>2018-03-16T13:09:00Z</time>
      </trkpt>
      <trkpt lat="43.72572" lon="7.29513">
        <ele>190.235</ele>
        <time>2018-03-16T13:09:03Z</time>
      </trkpt>
      <trkpt lat="43.72575" lon="7.29512">
        <ele>190.6</ele>
        <time>2018-03-16T13:09:05Z</time>
      </trkpt>
      <trkpt lat="43.72577" lon="7.2951">
        <ele>190.433</ele>
        <time>2018-03-16T13:09:08Z</time>
      </trkpt>
      <trkpt lat="43.7258" lon="7.29507">
        <ele>190.304</ele>
        <time>2018-03-16T13:09:11Z</time>
      </trkpt>
      <trkpt lat="43.72588" lon="7.295">
        <ele>190.448</ele>
        <time>2018-03-16T13:09:19Z</time>
      </trkpt>
      <trkpt lat="43.7259" lon="7.29497">
        <ele>190.668</ele>
        <time>2018-03-16T13:09:22Z</time>
      </trkpt>
      <trkpt lat="43.72594" lon="7.29494">
        <ele>190.764</ele>
        <time>2018-03-16T13:09:26Z</time>
      </trkpt>
      <trkpt lat="43.72599" lon="7.29487">
        <ele>191.33</ele>
        <time>2018-03-16T13:09:32Z</time>
      </trkpt>
      <trkpt lat="43.72603" lon="7.29484">
        <ele>191.842</ele>
        <time>2018-03-16T13:09:36Z</time>
      </trkpt>
      <trkpt lat="43.72607" lon="7.2948">
        <ele>191.761</ele>
        <time>2018-03-16T13:09:40Z</time>
      </trkpt>
      <trkpt lat="43.72611" lon="7.2948">
        <ele>191.902</ele>
        <time>2018-03-16T13:09:43Z</time>
      </trkpt>
      <trkpt lat="43.72616" lon="7.29479">
        <ele>191.908</ele>
        <time>2018-03-16T13:09:47Z</time>
      </trkpt>
      <trkpt lat="43.72619" lon="7.29477">
        <ele>192.501</ele>
        <time>2018-03-16T13:09:51Z</time>
      </trkpt>
      <trkpt lat="43.72621" lon="7.29476">
        <ele>192.701</ele>
        <time>2018-03-16T13:09:54Z</time>
      </trkpt>
      <trkpt lat="43.72622" lon="7.29476">
        <ele>192.547</ele>
        <time>2018-03-16T13:09:55Z</time>
      </trkpt>
      <trkpt lat="43.72628" lon="7.29477">
        <ele>193.339</ele>
        <time>2018-03-16T13:10:01Z</time>
      </trkpt>
      <trkpt lat="43.72632" lon="7.29479">
        <ele>193.75</ele>
        <time>2018-03-16T13:10:04Z</time>
      </trkpt>
      <trkpt lat="43.72635" lon="7.29479">
        <ele>194.393</ele>
        <time>2018-03-16T13:10:08Z</time>
      </trkpt>
      <trkpt lat="43.72639" lon="7.29479">
        <ele>195.089</ele>
        <time>2018-03-16T13:10:11Z</time>
      </trkpt>
      <trkpt lat="43.72648" lon="7.29481">
        <ele>195.961</ele>
        <time>2018-03-16T13:10:18Z</time>
      </trkpt>
      <trkpt lat="43.72653" lon="7.29483">
        <ele>196.37</ele>
        <time>2018-03-16T13:10:22Z</time>
      </trkpt>
      <trkpt lat="43.7266" lon="7.29487">
        <ele>197.048</ele>
        <time>2018-03-16T13:10:30Z</time>
      </trkpt>
      <trkpt lat="43.72663" lon="7.29487">
        <ele>197.413</ele>
        <time>2018-03-16T13:10:34Z</time>
      </trkpt>
      <trkpt lat="43.72669" lon="7.29489">
        <ele>197.85</ele>
        <time>2018-03-16T13:10:38Z</time>
      </trkpt>
      <trkpt lat="43.72673" lon="7.2949">
        <ele>198.638</ele>
        <time>2018-03-16T13:10:41Z</time>
      </trkpt>
      <trkpt lat="43.72683" lon="7.29495">
        <ele>198.643</ele>
        <time>2018-03-16T13:10:48Z</time>
      </trkpt>
      <trkpt lat="43.72689" lon="7.29496">
        <ele>198.952</ele>
        <time>2018-03-16T13:10:53Z</time>
      </trkpt>
      <trkpt lat="43.72696" lon="7.29498">
        <ele>199.561</ele>
        <time>2018-03-16T13:10:59Z</time>
      </trkpt>
      <trkpt lat="43.72699" lon="7.29497">
        <ele>199.704</ele>
        <time>2018-03-16T13:11:01Z</time>
      </trkpt>
      <trkpt lat="43.72707" lon="7.29499">
        <ele>199.881</ele>
        <time>2018-03-16T13:11:08Z</time>
      </trkpt>
      <trkpt lat="43.72712" lon="7.29501">
        <ele>199.915</ele>
        <time>2018-03-16T13:11:12Z</time>
      </trkpt>
      <trkpt lat="43.72722" lon="7.29505">
        <ele>200.749</ele>
        <time>2018-03-16T13:11:21Z</time>
      </trkpt>
      <trkpt lat="43.72726" lon="7.29505">
        <ele>200.631</ele>
        <time>2018-03-16T13:11:24Z</time>
      </trkpt>
      <trkpt lat="43.72729" lon="7.29506">
        <ele>200.39</ele>
        <time>2018-03-16T13:11:27Z</time>
      </trkpt>
      <trkpt lat="43.72734" lon="7.29508">
        <ele>200.148</ele>
        <time>2018-03-16T13:11:31Z</time>
      </trkpt>
      <trkpt lat="43.72738" lon="7.29509">
        <ele>200.375</ele>
        <time>2018-03-16T13:11:35Z</time>
      </trkpt>
      <trkpt lat="43.72741" lon="7.2951">
        <ele>200.394</ele>
        <time>2018-03-16T13:11:38Z</time>
      </trkpt>
      <trkpt lat="43.72744" lon="7.29513">
        <ele>199.826</ele>
        <time>2018-03-16T13:11:41Z</time>
      </trkpt>
      <trkpt lat="43.72749" lon="7.29516">
        <ele>199.626</ele>
        <time>2018-03-16T13:11:46Z</time>
      </trkpt>
      <trkpt lat="43.72751" lon="7.29516">
        <ele>199.543</ele>
        <time>2018-03-16T13:11:47Z</time>
      </trkpt>
      <trkpt lat="43.72756" lon="7.29518">
        <ele>199.592</ele>
        <time>2018-03-16T13:11:51Z</time>
      </trkpt>
      <trkpt lat="43.72759" lon="7.2952">
        <ele>199.491</ele>
        <time>2018-03-16T13:11:54Z</time>
      </trkpt>
      <trkpt lat="43.72767" lon="7.29524">
        <ele>199.532</ele>
        <time>2018-03-16T13:12:01Z</time>
      </trkpt>
      <trkpt lat="43.72767" lon="7.29524">
        <ele>199.567</ele>
        <time>2018-03-16T13:12:02Z</time>
      </trkpt>
      <trkpt lat="43.72767" lon="7.29525">
        <ele>199.938</ele>
        <time>2018-03-16T13:12:03Z</time>
      </trkpt>
      <trkpt lat="43.72767" lon="7.29525">
        <ele>199.811</ele>
        <time>2018-03-16T13:12:04Z</time>
      </trkpt>
      <trkpt lat="43.72769" lon="7.29525">
        <ele>200.009</ele>
        <time>2018-03-16T13:12:06Z</time>
      </trkpt>
      <trkpt lat="43.72773" lon="7.29529">
        <ele>200.707</ele>
        <time>2018-03-16T13:12:10Z</time>
      </trkpt>
      <trkpt lat="43.72776" lon="7.29528">
        <ele>200.727</ele>
        <time>2018-03-16T13:12:13Z</time>
      </trkpt>
      <trkpt lat="43.7277" lon="7.29525">
        <ele>199.955</ele>
        <time>2018-03-16T13:12:18Z</time>
      </trkpt>
      <trkpt lat="43.72767" lon="7.29527">
        <ele>200.362</ele>
        <time>2018-03-16T13:12:21Z</time>
      </trkpt>
      <trkpt lat="43.72767" lon="7.29531">
        <ele>199.878</ele>
        <time>2018-03-16T13:12:24Z</time>
      </trkpt>
      <trkpt lat="43.72767" lon="7.29534">
        <ele>200.864</ele>
        <time>2018-03-16T13:12:27Z</time>
      </trkpt>
      <trkpt lat="43.72771" lon="7.29533">
        <ele>200.06</ele>
        <time>2018-03-16T13:12:31Z</time>
      </trkpt>
      <trkpt lat="43.72774" lon="7.29535">
        <ele>199.982</ele>
        <time>2018-03-16T13:12:34Z</time>
      </trkpt>
      <trkpt lat="43.72774" lon="7.29535">
        <ele>200.021</ele>
        <time>2018-03-16T13:12:35Z</time>
      </trkpt>
      <trkpt lat="43.72776" lon="7.29538">
        <ele>200.453</ele>
        <time>2018-03-16T13:12:39Z</time>
      </trkpt>
      <trkpt lat="43.72777" lon="7.29539">
        <ele>200.346</ele>
        <time>2018-03-16T13:12:40Z</time>
      </trkpt>
      <trkpt lat="43.72778" lon="7.29541">
        <ele>200.803</ele>
        <time>2018-03-16T13:12:43Z</time>
      </trkpt>
      <trkpt lat="43.7278" lon="7.29544">
        <ele>201.521</ele>
        <time>2018-03-16T13:12:48Z</time>
      </trkpt>
      <trkpt lat="43.72781" lon="7.29547">
        <ele>202.709</ele>
        <time>2018-03-16T13:12:53Z</time>
      </trkpt>
      <trkpt lat="43.72781" lon="7.29547">
        <ele>203.421</ele>
        <time>2018-03-16T13:12:59Z</time>
      </trkpt>
      <trkpt lat="43.72783" lon="7.29547">
        <ele>203.308</ele>
        <time>2018-03-16T13:13:00Z</time>
      </trkpt>
      <trkpt lat="43.72783" lon="7.29547">
        <ele>203.308</ele>
        <time>2018-03-16T13:13:00Z</time>
      </trkpt>
      <trkpt lat="43.72783" lon="7.29547">
        <ele>203.38</ele>
        <time>2018-03-16T13:13:01Z</time>
      </trkpt>
      <trkpt lat="43.72783" lon="7.29547">
        <ele>203.38</ele>
        <time>2018-03-16T13:13:01Z</time>
      </trkpt>
      <trkpt lat="43.72783" lon="7.29547">
        <ele>203.83</ele>
        <time>2018-03-16T13:13:02Z</time>
      </trkpt>
      <trkpt lat="43.72783" lon="7.29547">
        <ele>203.83</ele>
        <time>2018-03-16T13:13:02Z</time>
      </trkpt>
      <trkpt lat="43.72783" lon="7.29547">
        <ele>203.631</ele>
        <time>2018-03-16T13:13:03Z</time>
      </trkpt>
      <trkpt lat="43.72783" lon="7.29547">
        <ele>203.595</ele>
        <time>2018-03-16T13:13:09Z</time>
      </trkpt>
      <trkpt lat="43.72783" lon="7.29547">
        <ele>203.513</ele>
        <time>2018-03-16T13:13:10Z</time>
      </trkpt>
      <trkpt lat="43.72783" lon="7.29547">
        <ele>203.654</ele>
        <time>2018-03-16T13:13:11Z</time>
      </trkpt>
      <trkpt lat="43.72783" lon="7.29547">
        <ele>203.655</ele>
        <time>2018-03-16T13:13:13Z</time>
      </trkpt>
      <trkpt lat="43.72783" lon="7.29547">
        <ele>203.709</ele>
        <time>2018-03-16T13:13:14Z</time>
      </trkpt>
      <trkpt lat="43.72783" lon="7.29547">
        <ele>203.709</ele>
        <time>2018-03-16T13:13:14Z</time>
      </trkpt>
      <trkpt lat="43.72783" lon="7.29547">
        <ele>203.736</ele>
        <time>2018-03-16T13:13:15Z</time>
      </trkpt>
      <trkpt lat="43.72783" lon="7.29546">
        <ele>203.857</ele>
        <time>2018-03-16T13:13:19Z</time>
      </trkpt>
      <trkpt lat="43.72783" lon="7.29546">
        <ele>203.857</ele>
        <time>2018-03-16T13:13:19Z</time>
      </trkpt>
      <trkpt lat="43.72783" lon="7.29545">
        <ele>203.763</ele>
        <time>2018-03-16T13:13:20Z</time>
      </trkpt>
      <trkpt lat="43.72781" lon="7.29544">
        <ele>203.302</ele>
        <time>2018-03-16T13:13:23Z</time>
      </trkpt>
      <trkpt lat="43.72778" lon="7.29541">
        <ele>203.04</ele>
        <time>2018-03-16T13:13:27Z</time>
      </trkpt>
      <trkpt lat="43.72778" lon="7.29541">
        <ele>202.906</ele>
        <time>2018-03-16T13:13:28Z</time>
      </trkpt>
      <trkpt lat="43.72778" lon="7.29541">
        <ele>202.906</ele>
        <time>2018-03-16T13:13:28Z</time>
      </trkpt>
      <trkpt lat="43.72778" lon="7.2954">
        <ele>202.868</ele>
        <time>2018-03-16T13:13:29Z</time>
      </trkpt>
      <trkpt lat="43.72777" lon="7.29538">
        <ele>203.108</ele>
        <time>2018-03-16T13:13:30Z</time>
      </trkpt>
      <trkpt lat="43.72776" lon="7.29536">
        <ele>203.063</ele>
        <time>2018-03-16T13:13:31Z</time>
      </trkpt>
      <trkpt lat="43.72774" lon="7.29533">
        <ele>202.567</ele>
        <time>2018-03-16T13:13:33Z</time>
      </trkpt>
      <trkpt lat="43.72772" lon="7.29531">
        <ele>202.712</ele>
        <time>2018-03-16T13:13:35Z</time>
      </trkpt>
      <trkpt lat="43.72771" lon="7.2953">
        <ele>202.45</ele>
        <time>2018-03-16T13:13:36Z</time>
      </trkpt>
      <trkpt lat="43.72771" lon="7.2953">
        <ele>202.086</ele>
        <time>2018-03-16T13:13:37Z</time>
      </trkpt>
      <trkpt lat="43.7277" lon="7.2953">
        <ele>201.867</ele>
        <time>2018-03-16T13:13:38Z</time>
      </trkpt>
      <trkpt lat="43.72768" lon="7.29526">
        <ele>202.022</ele>
        <time>2018-03-16T13:13:40Z</time>
      </trkpt>
      <trkpt lat="43.72767" lon="7.29522">
        <ele>201.721</ele>
        <time>2018-03-16T13:13:43Z</time>
      </trkpt>
      <trkpt lat="43.72769" lon="7.29519">
        <ele>201.705</ele>
        <time>2018-03-16T13:13:45Z</time>
      </trkpt>
      <trkpt lat="43.72774" lon="7.29521">
        <ele>202.151</ele>
        <time>2018-03-16T13:13:47Z</time>
      </trkpt>
      <trkpt lat="43.72775" lon="7.29522">
        <ele>201.919</ele>
        <time>2018-03-16T13:13:49Z</time>
      </trkpt>
      <trkpt lat="43.72778" lon="7.2952">
        <ele>202.494</ele>
        <time>2018-03-16T13:13:52Z</time>
      </trkpt>
      <trkpt lat="43.72783" lon="7.29518">
        <ele>201.337</ele>
        <time>2018-03-16T13:13:56Z</time>
      </trkpt>
      <trkpt lat="43.72786" lon="7.29519">
        <ele>201.485</ele>
        <time>2018-03-16T13:13:58Z</time>
      </trkpt>
      <trkpt lat="43.72791" lon="7.29522">
        <ele>201.401</ele>
        <time>2018-03-16T13:14:02Z</time>
      </trkpt>
      <trkpt lat="43.72793" lon="7.29524">
        <ele>201.688</ele>
        <time>2018-03-16T13:14:04Z</time>
      </trkpt>
      <trkpt lat="43.72812" lon="7.29529">
        <ele>201.354</ele>
        <time>2018-03-16T13:14:18Z</time>
      </trkpt>
      <trkpt lat="43.72814" lon="7.29529">
        <ele>201.285</ele>
        <time>2018-03-16T13:14:21Z</time>
      </trkpt>
      <trkpt lat="43.72824" lon="7.2953">
        <ele>201.35</ele>
        <time>2018-03-16T13:14:27Z</time>
      </trkpt>
      <trkpt lat="43.72831" lon="7.29531">
        <ele>201.899</ele>
        <time>2018-03-16T13:14:33Z</time>
      </trkpt>
      <trkpt lat="43.72834" lon="7.29532">
        <ele>202.1</ele>
        <time>2018-03-16T13:14:36Z</time>
      </trkpt>
      <trkpt lat="43.72843" lon="7.29538">
        <ele>202.334</ele>
        <time>2018-03-16T13:14:43Z</time>
      </trkpt>
      <trkpt lat="43.72848" lon="7.29541">
        <ele>202.49</ele>
        <time>2018-03-16T13:14:48Z</time>
      </trkpt>
      <trkpt lat="43.72848" lon="7.29541">
        <ele>202.736</ele>
        <time>2018-03-16T13:14:49Z</time>
      </trkpt>
      <trkpt lat="43.72851" lon="7.29542">
        <ele>202.657</ele>
        <time>2018-03-16T13:14:51Z</time>
      </trkpt>
      <trkpt lat="43.72852" lon="7.29543">
        <ele>202.761</ele>
        <time>2018-03-16T13:14:53Z</time>
      </trkpt>
      <trkpt lat="43.72852" lon="7.29543">
        <ele>202.748</ele>
        <time>2018-03-16T13:14:54Z</time>
      </trkpt>
      <trkpt lat="43.72853" lon="7.29544">
        <ele>202.958</ele>
        <time>2018-03-16T13:14:55Z</time>
      </trkpt>
      <trkpt lat="43.72856" lon="7.29545">
        <ele>202.741</ele>
        <time>2018-03-16T13:14:57Z</time>
      </trkpt>
      <trkpt lat="43.72861" lon="7.29547">
        <ele>202.46</ele>
        <time>2018-03-16T13:15:01Z</time>
      </trkpt>
      <trkpt lat="43.72862" lon="7.29547">
        <ele>202.756</ele>
        <time>2018-03-16T13:15:02Z</time>
      </trkpt>
      <trkpt lat="43.72863" lon="7.29547">
        <ele>202.579</ele>
        <time>2018-03-16T13:15:03Z</time>
      </trkpt>
      <trkpt lat="43.72873" lon="7.29551">
        <ele>202.974</ele>
        <time>2018-03-16T13:15:10Z</time>
      </trkpt>
      <trkpt lat="43.72876" lon="7.29551">
        <ele>203.495</ele>
        <time>2018-03-16T13:15:13Z</time>
      </trkpt>
      <trkpt lat="43.7288" lon="7.29552">
        <ele>203.564</ele>
        <time>2018-03-16T13:15:16Z</time>
      </trkpt>
      <trkpt lat="43.72884" lon="7.29554">
        <ele>203.032</ele>
        <time>2018-03-16T13:15:20Z</time>
      </trkpt>
      <trkpt lat="43.72887" lon="7.29554">
        <ele>202.836</ele>
        <time>2018-03-16T13:15:23Z</time>
      </trkpt>
      <trkpt lat="43.72894" lon="7.29556">
        <ele>204.388</ele>
        <time>2018-03-16T13:15:29Z</time>
      </trkpt>
      <trkpt lat="43.72896" lon="7.29557">
        <ele>204.74</ele>
        <time>2018-03-16T13:15:31Z</time>
      </trkpt>
      <trkpt lat="43.729" lon="7.29558">
        <ele>205.089</ele>
        <time>2018-03-16T13:15:34Z</time>
      </trkpt>
      <trkpt lat="43.72903" lon="7.2956">
        <ele>205.437</ele>
        <time>2018-03-16T13:15:37Z</time>
      </trkpt>
      <trkpt lat="43.72908" lon="7.29563">
        <ele>206.043</ele>
        <time>2018-03-16T13:15:41Z</time>
      </trkpt>
      <trkpt lat="43.72909" lon="7.29563">
        <ele>206.347</ele>
        <time>2018-03-16T13:15:42Z</time>
      </trkpt>
      <trkpt lat="43.72909" lon="7.29563">
        <ele>206.311</ele>
        <time>2018-03-16T13:15:43Z</time>
      </trkpt>
      <trkpt lat="43.72912" lon="7.29564">
        <ele>206.961</ele>
        <time>2018-03-16T13:15:45Z</time>
      </trkpt>
      <trkpt lat="43.72916" lon="7.29565">
        <ele>207.245</ele>
        <time>2018-03-16T13:15:48Z</time>
      </trkpt>
      <trkpt lat="43.72919" lon="7.29565">
        <ele>207.442</ele>
        <time>2018-03-16T13:15:51Z</time>
      </trkpt>
      <trkpt lat="43.72921" lon="7.29569">
        <ele>207.278</ele>
        <time>2018-03-16T13:15:54Z</time>
      </trkpt>
      <trkpt lat="43.72923" lon="7.2957">
        <ele>207.568</ele>
        <time>2018-03-16T13:15:57Z</time>
      </trkpt>
      <trkpt lat="43.72924" lon="7.29569">
        <ele>207.825</ele>
        <time>2018-03-16T13:15:58Z</time>
      </trkpt>
      <trkpt lat="43.72925" lon="7.29569">
        <ele>208.185</ele>
        <time>2018-03-16T13:15:59Z</time>
      </trkpt>
      <trkpt lat="43.72929" lon="7.2957">
        <ele>208.209</ele>
        <time>2018-03-16T13:16:02Z</time>
      </trkpt>
      <trkpt lat="43.72933" lon="7.29575">
        <ele>208.245</ele>
        <time>2018-03-16T13:16:07Z</time>
      </trkpt>
      <trkpt lat="43.72937" lon="7.29577">
        <ele>208.877</ele>
        <time>2018-03-16T13:16:11Z</time>
      </trkpt>
      <trkpt lat="43.72941" lon="7.29578">
        <ele>208.572</ele>
        <time>2018-03-16T13:16:14Z</time>
      </trkpt>
      <trkpt lat="43.72945" lon="7.29579">
        <ele>208.806</ele>
        <time>2018-03-16T13:16:18Z</time>
      </trkpt>
      <trkpt lat="43.72949" lon="7.29579">
        <ele>208.925</ele>
        <time>2018-03-16T13:16:21Z</time>
      </trkpt>
      <trkpt lat="43.72956" lon="7.29578">
        <ele>208.933</ele>
        <time>2018-03-16T13:16:26Z</time>
      </trkpt>
      <trkpt lat="43.72959" lon="7.2958">
        <ele>209.31</ele>
        <time>2018-03-16T13:16:29Z</time>
      </trkpt>
      <trkpt lat="43.72963" lon="7.29581">
        <ele>209.689</ele>
        <time>2018-03-16T13:16:32Z</time>
      </trkpt>
      <trkpt lat="43.72966" lon="7.29581">
        <ele>209.903</ele>
        <time>2018-03-16T13:16:35Z</time>
      </trkpt>
      <trkpt lat="43.7297" lon="7.29582">
        <ele>210.282</ele>
        <time>2018-03-16T13:16:38Z</time>
      </trkpt>
      <trkpt lat="43.72973" lon="7.29583">
        <ele>210.548</ele>
        <time>2018-03-16T13:16:41Z</time>
      </trkpt>
      <trkpt lat="43.72975" lon="7.29584">
        <ele>210.958</ele>
        <time>2018-03-16T13:16:44Z</time>
      </trkpt>
      <trkpt lat="43.72979" lon="7.29584">
        <ele>211.189</ele>
        <time>2018-03-16T13:16:47Z</time>
      </trkpt>
      <trkpt lat="43.72983" lon="7.29585">
        <ele>211.058</ele>
        <time>2018-03-16T13:16:50Z</time>
      </trkpt>
      <trkpt lat="43.72986" lon="7.29584">
        <ele>211.282</ele>
        <time>2018-03-16T13:16:53Z</time>
      </trkpt>
      <trkpt lat="43.72989" lon="7.29581">
        <ele>212.058</ele>
        <time>2018-03-16T13:16:57Z</time>
      </trkpt>
      <trkpt lat="43.72991" lon="7.2958">
        <ele>212.273</ele>
        <time>2018-03-16T13:17:00Z</time>
      </trkpt>
      <trkpt lat="43.72992" lon="7.2958">
        <ele>213.155</ele>
        <time>2018-03-16T13:17:01Z</time>
      </trkpt>
      <trkpt lat="43.72993" lon="7.29581">
        <ele>213.218</ele>
        <time>2018-03-16T13:17:02Z</time>
      </trkpt>
      <trkpt lat="43.72999" lon="7.2958">
        <ele>213.372</ele>
        <time>2018-03-16T13:17:07Z</time>
      </trkpt>
      <trkpt lat="43.73002" lon="7.2958">
        <ele>213.735</ele>
        <time>2018-03-16T13:17:10Z</time>
      </trkpt>
      <trkpt lat="43.73009" lon="7.2958">
        <ele>213.375</ele>
        <time>2018-03-16T13:17:15Z</time>
      </trkpt>
      <trkpt lat="43.73012" lon="7.29579">
        <ele>213.625</ele>
        <time>2018-03-16T13:17:18Z</time>
      </trkpt>
      <trkpt lat="43.73015" lon="7.2958">
        <ele>214.808</ele>
        <time>2018-03-16T13:17:21Z</time>
      </trkpt>
      <trkpt lat="43.73016" lon="7.2958">
        <ele>214.53</ele>
        <time>2018-03-16T13:17:22Z</time>
      </trkpt>
      <trkpt lat="43.73022" lon="7.2958">
        <ele>214.999</ele>
        <time>2018-03-16T13:17:28Z</time>
      </trkpt>
      <trkpt lat="43.73033" lon="7.29579">
        <ele>216.162</ele>
        <time>2018-03-16T13:17:38Z</time>
      </trkpt>
      <trkpt lat="43.73039" lon="7.29577">
        <ele>216.566</ele>
        <time>2018-03-16T13:17:43Z</time>
      </trkpt>
      <trkpt lat="43.73045" lon="7.29579">
        <ele>217.152</ele>
        <time>2018-03-16T13:17:48Z</time>
      </trkpt>
      <trkpt lat="43.73047" lon="7.29581">
        <ele>217.407</ele>
        <time>2018-03-16T13:17:51Z</time>
      </trkpt>
      <trkpt lat="43.7305" lon="7.29582">
        <ele>217.259</ele>
        <time>2018-03-16T13:17:56Z</time>
      </trkpt>
      <trkpt lat="43.73051" lon="7.29582">
        <ele>217.191</ele>
        <time>2018-03-16T13:17:57Z</time>
      </trkpt>
      <trkpt lat="43.73051" lon="7.29582">
        <ele>217.159</ele>
        <time>2018-03-16T13:17:58Z</time>
      </trkpt>
      <trkpt lat="43.73054" lon="7.29583">
        <ele>217.192</ele>
        <time>2018-03-16T13:18:00Z</time>
      </trkpt>
      <trkpt lat="43.73056" lon="7.29587">
        <ele>217.481</ele>
        <time>2018-03-16T13:18:03Z</time>
      </trkpt>
      <trkpt lat="43.73059" lon="7.29591">
        <ele>217.869</ele>
        <time>2018-03-16T13:18:06Z</time>
      </trkpt>
      <trkpt lat="43.73062" lon="7.29595">
        <ele>217.935</ele>
        <time>2018-03-16T13:18:10Z</time>
      </trkpt>
      <trkpt lat="43.73063" lon="7.29599">
        <ele>218.061</ele>
        <time>2018-03-16T13:18:13Z</time>
      </trkpt>
      <trkpt lat="43.73064" lon="7.29604">
        <ele>218.403</ele>
        <time>2018-03-16T13:18:16Z</time>
      </trkpt>
      <trkpt lat="43.73069" lon="7.29617">
        <ele>219.438</ele>
        <time>2018-03-16T13:18:25Z</time>
      </trkpt>
      <trkpt lat="43.7307" lon="7.29624">
        <ele>220.036</ele>
        <time>2018-03-16T13:18:30Z</time>
      </trkpt>
      <trkpt lat="43.73071" lon="7.29629">
        <ele>220.698</ele>
        <time>2018-03-16T13:18:33Z</time>
      </trkpt>
      <trkpt lat="43.73071" lon="7.29633">
        <ele>221.003</ele>
        <time>2018-03-16T13:18:36Z</time>
      </trkpt>
      <trkpt lat="43.73072" lon="7.29639">
        <ele>221.343</ele>
        <time>2018-03-16T13:18:39Z</time>
      </trkpt>
      <trkpt lat="43.73074" lon="7.29643">
        <ele>221.464</ele>
        <time>2018-03-16T13:18:42Z</time>
      </trkpt>
      <trkpt lat="43.73076" lon="7.29647">
        <ele>221.236</ele>
        <time>2018-03-16T13:18:45Z</time>
      </trkpt>
      <trkpt lat="43.73075" lon="7.29656">
        <ele>222.275</ele>
        <time>2018-03-16T13:18:50Z</time>
      </trkpt>
      <trkpt lat="43.73074" lon="7.2966">
        <ele>222.668</ele>
        <time>2018-03-16T13:18:52Z</time>
      </trkpt>
      <trkpt lat="43.73074" lon="7.29663">
        <ele>222.982</ele>
        <time>2018-03-16T13:18:54Z</time>
      </trkpt>
      <trkpt lat="43.73074" lon="7.29663">
        <ele>222.627</ele>
        <time>2018-03-16T13:18:55Z</time>
      </trkpt>
      <trkpt lat="43.73074" lon="7.29663">
        <ele>222.627</ele>
        <time>2018-03-16T13:18:55Z</time>
      </trkpt>
      <trkpt lat="43.73074" lon="7.29663">
        <ele>222.837</ele>
        <time>2018-03-16T13:18:56Z</time>
      </trkpt>
      <trkpt lat="43.73074" lon="7.29664">
        <ele>223.082</ele>
        <time>2018-03-16T13:18:57Z</time>
      </trkpt>
      <trkpt lat="43.73075" lon="7.29674">
        <ele>222.992</ele>
        <time>2018-03-16T13:19:03Z</time>
      </trkpt>
      <trkpt lat="43.73076" lon="7.29678">
        <ele>222.943</ele>
        <time>2018-03-16T13:19:06Z</time>
      </trkpt>
      <trkpt lat="43.73076" lon="7.29682">
        <ele>222.852</ele>
        <time>2018-03-16T13:19:09Z</time>
      </trkpt>
      <trkpt lat="43.73076" lon="7.29686">
        <ele>223.04</ele>
        <time>2018-03-16T13:19:12Z</time>
      </trkpt>
      <trkpt lat="43.73076" lon="7.2969">
        <ele>223.026</ele>
        <time>2018-03-16T13:19:14Z</time>
      </trkpt>
      <trkpt lat="43.73076" lon="7.29698">
        <ele>223.445</ele>
        <time>2018-03-16T13:19:19Z</time>
      </trkpt>
      <trkpt lat="43.73075" lon="7.29699">
        <ele>223.703</ele>
        <time>2018-03-16T13:19:21Z</time>
      </trkpt>
      <trkpt lat="43.73074" lon="7.29701">
        <ele>223.839</ele>
        <time>2018-03-16T13:19:23Z</time>
      </trkpt>
      <trkpt lat="43.73072" lon="7.29705">
        <ele>224.806</ele>
        <time>2018-03-16T13:19:26Z</time>
      </trkpt>
      <trkpt lat="43.7307" lon="7.29709">
        <ele>225.545</ele>
        <time>2018-03-16T13:19:29Z</time>
      </trkpt>
      <trkpt lat="43.7307" lon="7.29713">
        <ele>225.738</ele>
        <time>2018-03-16T13:19:32Z</time>
      </trkpt>
      <trkpt lat="43.73071" lon="7.29718">
        <ele>225.591</ele>
        <time>2018-03-16T13:19:35Z</time>
      </trkpt>
      <trkpt lat="43.73072" lon="7.29722">
        <ele>225.539</ele>
        <time>2018-03-16T13:19:37Z</time>
      </trkpt>
      <trkpt lat="43.73073" lon="7.29727">
        <ele>225.581</ele>
        <time>2018-03-16T13:19:40Z</time>
      </trkpt>
      <trkpt lat="43.73075" lon="7.29732">
        <ele>225.492</ele>
        <time>2018-03-16T13:19:43Z</time>
      </trkpt>
      <trkpt lat="43.73073" lon="7.29735">
        <ele>225.846</ele>
        <time>2018-03-16T13:19:45Z</time>
      </trkpt>
      <trkpt lat="43.73071" lon="7.2974">
        <ele>225.841</ele>
        <time>2018-03-16T13:19:49Z</time>
      </trkpt>
      <trkpt lat="43.73071" lon="7.29744">
        <ele>225.824</ele>
        <time>2018-03-16T13:19:52Z</time>
      </trkpt>
      <trkpt lat="43.73071" lon="7.29748">
        <ele>226.387</ele>
        <time>2018-03-16T13:19:56Z</time>
      </trkpt>
      <trkpt lat="43.73069" lon="7.29753">
        <ele>226.519</ele>
        <time>2018-03-16T13:19:59Z</time>
      </trkpt>
      <trkpt lat="43.73069" lon="7.29759">
        <ele>226.844</ele>
        <time>2018-03-16T13:20:03Z</time>
      </trkpt>
      <trkpt lat="43.7307" lon="7.2976">
        <ele>226.71</ele>
        <time>2018-03-16T13:20:05Z</time>
      </trkpt>
      <trkpt lat="43.7307" lon="7.2976">
        <ele>226.71</ele>
        <time>2018-03-16T13:20:05Z</time>
      </trkpt>
      <trkpt lat="43.7307" lon="7.29761">
        <ele>226.645</ele>
        <time>2018-03-16T13:20:06Z</time>
      </trkpt>
      <trkpt lat="43.7307" lon="7.29762">
        <ele>226.667</ele>
        <time>2018-03-16T13:20:07Z</time>
      </trkpt>
      <trkpt lat="43.73069" lon="7.29767">
        <ele>226.857</ele>
        <time>2018-03-16T13:20:10Z</time>
      </trkpt>
      <trkpt lat="43.73069" lon="7.29773">
        <ele>226.448</ele>
        <time>2018-03-16T13:20:14Z</time>
      </trkpt>
      <trkpt lat="43.73069" lon="7.29777">
        <ele>226.433</ele>
        <time>2018-03-16T13:20:16Z</time>
      </trkpt>
      <trkpt lat="43.73069" lon="7.29787">
        <ele>227.502</ele>
        <time>2018-03-16T13:20:22Z</time>
      </trkpt>
      <trkpt lat="43.73069" lon="7.29799">
        <ele>227.659</ele>
        <time>2018-03-16T13:20:30Z</time>
      </trkpt>
      <trkpt lat="43.73068" lon="7.29803">
        <ele>227.72</ele>
        <time>2018-03-16T13:20:33Z</time>
      </trkpt>
      <trkpt lat="43.73068" lon="7.29809">
        <ele>227.827</ele>
        <time>2018-03-16T13:20:37Z</time>
      </trkpt>
      <trkpt lat="43.73067" lon="7.29812">
        <ele>227.898</ele>
        <time>2018-03-16T13:20:39Z</time>
      </trkpt>
      <trkpt lat="43.73066" lon="7.29816">
        <ele>228.32</ele>
        <time>2018-03-16T13:20:41Z</time>
      </trkpt>
      <trkpt lat="43.73063" lon="7.29823">
        <ele>229.878</ele>
        <time>2018-03-16T13:20:46Z</time>
      </trkpt>
      <trkpt lat="43.7306" lon="7.29829">
        <ele>230.719</ele>
        <time>2018-03-16T13:20:50Z</time>
      </trkpt>
      <trkpt lat="43.73059" lon="7.29834">
        <ele>230.507</ele>
        <time>2018-03-16T13:20:53Z</time>
      </trkpt>
      <trkpt lat="43.73056" lon="7.29841">
        <ele>231.203</ele>
        <time>2018-03-16T13:20:57Z</time>
      </trkpt>
      <trkpt lat="43.73056" lon="7.29842">
        <ele>230.997</ele>
        <time>2018-03-16T13:20:58Z</time>
      </trkpt>
      <trkpt lat="43.73056" lon="7.29843">
        <ele>230.993</ele>
        <time>2018-03-16T13:20:59Z</time>
      </trkpt>
      <trkpt lat="43.73056" lon="7.29848">
        <ele>231.306</ele>
        <time>2018-03-16T13:21:02Z</time>
      </trkpt>
      <trkpt lat="43.73056" lon="7.29853">
        <ele>231.14</ele>
        <time>2018-03-16T13:21:05Z</time>
      </trkpt>
      <trkpt lat="43.73055" lon="7.29862">
        <ele>231.148</ele>
        <time>2018-03-16T13:21:11Z</time>
      </trkpt>
      <trkpt lat="43.73054" lon="7.29864">
        <ele>230.906</ele>
        <time>2018-03-16T13:21:13Z</time>
      </trkpt>
      <trkpt lat="43.73054" lon="7.29864">
        <ele>231.044</ele>
        <time>2018-03-16T13:21:14Z</time>
      </trkpt>
      <trkpt lat="43.73053" lon="7.29867">
        <ele>231.564</ele>
        <time>2018-03-16T13:21:16Z</time>
      </trkpt>
      <trkpt lat="43.73052" lon="7.29871">
        <ele>231.465</ele>
        <time>2018-03-16T13:21:19Z</time>
      </trkpt>
      <trkpt lat="43.73052" lon="7.29872">
        <ele>231.604</ele>
        <time>2018-03-16T13:21:21Z</time>
      </trkpt>
      <trkpt lat="43.73052" lon="7.29872">
        <ele>231.84</ele>
        <time>2018-03-16T13:21:22Z</time>
      </trkpt>
      <trkpt lat="43.73052" lon="7.29872">
        <ele>232.258</ele>
        <time>2018-03-16T13:21:24Z</time>
      </trkpt>
      <trkpt lat="43.73052" lon="7.29874">
        <ele>232.295</ele>
        <time>2018-03-16T13:21:25Z</time>
      </trkpt>
      <trkpt lat="43.73052" lon="7.29876">
        <ele>232.856</ele>
        <time>2018-03-16T13:21:27Z</time>
      </trkpt>
      <trkpt lat="43.73052" lon="7.29877">
        <ele>232.513</ele>
        <time>2018-03-16T13:21:28Z</time>
      </trkpt>
      <trkpt lat="43.73051" lon="7.29882">
        <ele>232.478</ele>
        <time>2018-03-16T13:21:31Z</time>
      </trkpt>
      <trkpt lat="43.7305" lon="7.29886">
        <ele>232.795</ele>
        <time>2018-03-16T13:21:33Z</time>
      </trkpt>
      <trkpt lat="43.73049" lon="7.29888">
        <ele>233.202</ele>
        <time>2018-03-16T13:21:35Z</time>
      </trkpt>
      <trkpt lat="43.73047" lon="7.29889">
        <ele>233.55</ele>
        <time>2018-03-16T13:21:38Z</time>
      </trkpt>
      <trkpt lat="43.73047" lon="7.29889">
        <ele>233.55</ele>
        <time>2018-03-16T13:21:38Z</time>
      </trkpt>
      <trkpt lat="43.73047" lon="7.29889">
        <ele>234.591</ele>
        <time>2018-03-16T13:21:39Z</time>
      </trkpt>
      <trkpt lat="43.73046" lon="7.2989">
        <ele>234.805</ele>
        <time>2018-03-16T13:21:41Z</time>
      </trkpt>
      <trkpt lat="43.73046" lon="7.29891">
        <ele>234.504</ele>
        <time>2018-03-16T13:21:42Z</time>
      </trkpt>
      <trkpt lat="43.73043" lon="7.29894">
        <ele>235.628</ele>
        <time>2018-03-16T13:21:45Z</time>
      </trkpt>
      <trkpt lat="43.7304" lon="7.29901">
        <ele>236.027</ele>
        <time>2018-03-16T13:21:50Z</time>
      </trkpt>
      <trkpt lat="43.73037" lon="7.29905">
        <ele>237.859</ele>
        <time>2018-03-16T13:21:53Z</time>
      </trkpt>
      <trkpt lat="43.73034" lon="7.2991">
        <ele>237.929</ele>
        <time>2018-03-16T13:21:56Z</time>
      </trkpt>
      <trkpt lat="43.73032" lon="7.29913">
        <ele>238.25</ele>
        <time>2018-03-16T13:21:59Z</time>
      </trkpt>
      <trkpt lat="43.73028" lon="7.29918">
        <ele>239.2</ele>
        <time>2018-03-16T13:22:05Z</time>
      </trkpt>
      <trkpt lat="43.73028" lon="7.29919">
        <ele>239.219</ele>
        <time>2018-03-16T13:22:06Z</time>
      </trkpt>
      <trkpt lat="43.73028" lon="7.29919">
        <ele>238.903</ele>
        <time>2018-03-16T13:22:07Z</time>
      </trkpt>
      <trkpt lat="43.73028" lon="7.29919">
        <ele>238.23</ele>
        <time>2018-03-16T13:22:10Z</time>
      </trkpt>
      <trkpt lat="43.73029" lon="7.2992">
        <ele>238.378</ele>
        <time>2018-03-16T13:22:11Z</time>
      </trkpt>
      <trkpt lat="43.73028" lon="7.2992">
        <ele>239.21</ele>
        <time>2018-03-16T13:22:12Z</time>
      </trkpt>
      <trkpt lat="43.73025" lon="7.29926">
        <ele>240.857</ele>
        <time>2018-03-16T13:22:16Z</time>
      </trkpt>
      <trkpt lat="43.7302" lon="7.29932">
        <ele>241.316</ele>
        <time>2018-03-16T13:22:20Z</time>
      </trkpt>
      <trkpt lat="43.73018" lon="7.29937">
        <ele>241.386</ele>
        <time>2018-03-16T13:22:23Z</time>
      </trkpt>
      <trkpt lat="43.73015" lon="7.29944">
        <ele>241.481</ele>
        <time>2018-03-16T13:22:29Z</time>
      </trkpt>
      <trkpt lat="43.73012" lon="7.29949">
        <ele>241.655</ele>
        <time>2018-03-16T13:22:34Z</time>
      </trkpt>
      <trkpt lat="43.73009" lon="7.29953">
        <ele>242.312</ele>
        <time>2018-03-16T13:22:38Z</time>
      </trkpt>
      <trkpt lat="43.73009" lon="7.29956">
        <ele>242.828</ele>
        <time>2018-03-16T13:22:41Z</time>
      </trkpt>
      <trkpt lat="43.73009" lon="7.29956">
        <ele>243.468</ele>
        <time>2018-03-16T13:22:42Z</time>
      </trkpt>
      <trkpt lat="43.73009" lon="7.29956">
        <ele>243.276</ele>
        <time>2018-03-16T13:22:45Z</time>
      </trkpt>
      <trkpt lat="43.7301" lon="7.29956">
        <ele>244.93</ele>
        <time>2018-03-16T13:22:46Z</time>
      </trkpt>
      <trkpt lat="43.7301" lon="7.29956">
        <ele>244.93</ele>
        <time>2018-03-16T13:22:46Z</time>
      </trkpt>
      <trkpt lat="43.7301" lon="7.29956">
        <ele>245.107</ele>
        <time>2018-03-16T13:22:47Z</time>
      </trkpt>
      <trkpt lat="43.7301" lon="7.29956">
        <ele>244.17</ele>
        <time>2018-03-16T13:23:12Z</time>
      </trkpt>
      <trkpt lat="43.7301" lon="7.29958">
        <ele>245.138</ele>
        <time>2018-03-16T13:23:13Z</time>
      </trkpt>
      <trkpt lat="43.73009" lon="7.2996">
        <ele>245.508</ele>
        <time>2018-03-16T13:23:15Z</time>
      </trkpt>
      <trkpt lat="43.73004" lon="7.29968">
        <ele>246.145</ele>
        <time>2018-03-16T13:23:23Z</time>
      </trkpt>
      <trkpt lat="43.73002" lon="7.29971">
        <ele>246.277</ele>
        <time>2018-03-16T13:23:25Z</time>
      </trkpt>
      <trkpt lat="43.73001" lon="7.29972">
        <ele>246.845</ele>
        <time>2018-03-16T13:23:26Z</time>
      </trkpt>
      <trkpt lat="43.72996" lon="7.29977">
        <ele>246.707</ele>
        <time>2018-03-16T13:23:30Z</time>
      </trkpt>
      <trkpt lat="43.72993" lon="7.2998">
        <ele>247.078</ele>
        <time>2018-03-16T13:23:33Z</time>
      </trkpt>
      <trkpt lat="43.72991" lon="7.29983">
        <ele>246.905</ele>
        <time>2018-03-16T13:23:35Z</time>
      </trkpt>
      <trkpt lat="43.72987" lon="7.29988">
        <ele>247.056</ele>
        <time>2018-03-16T13:23:39Z</time>
      </trkpt>
      <trkpt lat="43.72984" lon="7.29992">
        <ele>248.119</ele>
        <time>2018-03-16T13:23:43Z</time>
      </trkpt>
      <trkpt lat="43.72978" lon="7.3">
        <ele>249.586</ele>
        <time>2018-03-16T13:23:52Z</time>
      </trkpt>
      <trkpt lat="43.72976" lon="7.30001">
        <ele>249.42</ele>
        <time>2018-03-16T13:23:53Z</time>
      </trkpt>
      <trkpt lat="43.72974" lon="7.30002">
        <ele>249.841</ele>
        <time>2018-03-16T13:23:56Z</time>
      </trkpt>
      <trkpt lat="43.72971" lon="7.30007">
        <ele>249.34</ele>
        <time>2018-03-16T13:24:02Z</time>
      </trkpt>
      <trkpt lat="43.7297" lon="7.3001">
        <ele>249.72</ele>
        <time>2018-03-16T13:24:06Z</time>
      </trkpt>
      <trkpt lat="43.7297" lon="7.30011">
        <ele>249.892</ele>
        <time>2018-03-16T13:24:07Z</time>
      </trkpt>
      <trkpt lat="43.72966" lon="7.30018">
        <ele>249.206</ele>
        <time>2018-03-16T13:24:13Z</time>
      </trkpt>
      <trkpt lat="43.72962" lon="7.30024">
        <ele>250.537</ele>
        <time>2018-03-16T13:24:17Z</time>
      </trkpt>
      <trkpt lat="43.72958" lon="7.30027">
        <ele>251.13</ele>
        <time>2018-03-16T13:24:20Z</time>
      </trkpt>
      <trkpt lat="43.72958" lon="7.30028">
        <ele>251.825</ele>
        <time>2018-03-16T13:24:21Z</time>
      </trkpt>
      <trkpt lat="43.72957" lon="7.30029">
        <ele>252.223</ele>
        <time>2018-03-16T13:24:23Z</time>
      </trkpt>
      <trkpt lat="43.72957" lon="7.30029">
        <ele>252.223</ele>
        <time>2018-03-16T13:24:23Z</time>
      </trkpt>
      <trkpt lat="43.72956" lon="7.30031">
        <ele>252.251</ele>
        <time>2018-03-16T13:24:24Z</time>
      </trkpt>
      <trkpt lat="43.72954" lon="7.30034">
        <ele>252.27</ele>
        <time>2018-03-16T13:24:27Z</time>
      </trkpt>
      <trkpt lat="43.72953" lon="7.30038">
        <ele>252.326</ele>
        <time>2018-03-16T13:24:30Z</time>
      </trkpt>
      <trkpt lat="43.72953" lon="7.30038">
        <ele>252.315</ele>
        <time>2018-03-16T13:24:31Z</time>
      </trkpt>
      <trkpt lat="43.72953" lon="7.30038">
        <ele>252.315</ele>
        <time>2018-03-16T13:24:31Z</time>
      </trkpt>
      <trkpt lat="43.72953" lon="7.30038">
        <ele>252.259</ele>
        <time>2018-03-16T13:24:32Z</time>
      </trkpt>
      <trkpt lat="43.72953" lon="7.30038">
        <ele>252.259</ele>
        <time>2018-03-16T13:24:32Z</time>
      </trkpt>
      <trkpt lat="43.72952" lon="7.30039">
        <ele>252.07</ele>
        <time>2018-03-16T13:24:33Z</time>
      </trkpt>
      <trkpt lat="43.7295" lon="7.30043">
        <ele>252.222</ele>
        <time>2018-03-16T13:24:36Z</time>
      </trkpt>
      <trkpt lat="43.7295" lon="7.30047">
        <ele>252.293</ele>
        <time>2018-03-16T13:24:38Z</time>
      </trkpt>
      <trkpt lat="43.7295" lon="7.30051">
        <ele>252.927</ele>
        <time>2018-03-16T13:24:41Z</time>
      </trkpt>
      <trkpt lat="43.72949" lon="7.30054">
        <ele>252.925</ele>
        <time>2018-03-16T13:24:43Z</time>
      </trkpt>
      <trkpt lat="43.72949" lon="7.30059">
        <ele>253.036</ele>
        <time>2018-03-16T13:24:46Z</time>
      </trkpt>
      <trkpt lat="43.72951" lon="7.30064">
        <ele>253.277</ele>
        <time>2018-03-16T13:24:49Z</time>
      </trkpt>
      <trkpt lat="43.72953" lon="7.30068">
        <ele>253.531</ele>
        <time>2018-03-16T13:24:52Z</time>
      </trkpt>
      <trkpt lat="43.72953" lon="7.30069">
        <ele>253.572</ele>
        <time>2018-03-16T13:24:53Z</time>
      </trkpt>
      <trkpt lat="43.72959" lon="7.30079">
        <ele>253.95</ele>
        <time>2018-03-16T13:25:00Z</time>
      </trkpt>
      <trkpt lat="43.7296" lon="7.30085">
        <ele>254.27</ele>
        <time>2018-03-16T13:25:05Z</time>
      </trkpt>
      <trkpt lat="43.72964" lon="7.30091">
        <ele>254.505</ele>
        <time>2018-03-16T13:25:10Z</time>
      </trkpt>
      <trkpt lat="43.72965" lon="7.30096">
        <ele>254.598</ele>
        <time>2018-03-16T13:25:13Z</time>
      </trkpt>
      <trkpt lat="43.72967" lon="7.30099">
        <ele>254.892</ele>
        <time>2018-03-16T13:25:16Z</time>
      </trkpt>
      <trkpt lat="43.72967" lon="7.30099">
        <ele>254.779</ele>
        <time>2018-03-16T13:25:17Z</time>
      </trkpt>
      <trkpt lat="43.72967" lon="7.30099">
        <ele>254.845</ele>
        <time>2018-03-16T13:25:18Z</time>
      </trkpt>
      <trkpt lat="43.72968" lon="7.30099">
        <ele>254.685</ele>
        <time>2018-03-16T13:25:19Z</time>
      </trkpt>
      <trkpt lat="43.72968" lon="7.301">
        <ele>254.768</ele>
        <time>2018-03-16T13:25:21Z</time>
      </trkpt>
      <trkpt lat="43.72968" lon="7.301">
        <ele>254.813</ele>
        <time>2018-03-16T13:25:22Z</time>
      </trkpt>
      <trkpt lat="43.72968" lon="7.301">
        <ele>254.739</ele>
        <time>2018-03-16T13:25:23Z</time>
      </trkpt>
      <trkpt lat="43.72968" lon="7.301">
        <ele>254.724</ele>
        <time>2018-03-16T13:25:24Z</time>
      </trkpt>
      <trkpt lat="43.7297" lon="7.3011">
        <ele>255.354</ele>
        <time>2018-03-16T13:25:31Z</time>
      </trkpt>
      <trkpt lat="43.72976" lon="7.30119">
        <ele>256.087</ele>
        <time>2018-03-16T13:25:38Z</time>
      </trkpt>
      <trkpt lat="43.72978" lon="7.30124">
        <ele>256.385</ele>
        <time>2018-03-16T13:25:42Z</time>
      </trkpt>
      <trkpt lat="43.7298" lon="7.30128">
        <ele>256.594</ele>
        <time>2018-03-16T13:25:45Z</time>
      </trkpt>
      <trkpt lat="43.72984" lon="7.30134">
        <ele>256.844</ele>
        <time>2018-03-16T13:25:50Z</time>
      </trkpt>
      <trkpt lat="43.72985" lon="7.3014">
        <ele>257.292</ele>
        <time>2018-03-16T13:25:54Z</time>
      </trkpt>
      <trkpt lat="43.72983" lon="7.3015">
        <ele>257.978</ele>
        <time>2018-03-16T13:26:00Z</time>
      </trkpt>
      <trkpt lat="43.72984" lon="7.30154">
        <ele>259.443</ele>
        <time>2018-03-16T13:26:03Z</time>
      </trkpt>
      <trkpt lat="43.72985" lon="7.30159">
        <ele>259.331</ele>
        <time>2018-03-16T13:26:06Z</time>
      </trkpt>
      <trkpt lat="43.72987" lon="7.30163">
        <ele>258.656</ele>
        <time>2018-03-16T13:26:09Z</time>
      </trkpt>
      <trkpt lat="43.7299" lon="7.30174">
        <ele>259.179</ele>
        <time>2018-03-16T13:26:16Z</time>
      </trkpt>
      <trkpt lat="43.72991" lon="7.30187">
        <ele>259.712</ele>
        <time>2018-03-16T13:26:25Z</time>
      </trkpt>
      <trkpt lat="43.72991" lon="7.30192">
        <ele>259.982</ele>
        <time>2018-03-16T13:26:28Z</time>
      </trkpt>
      <trkpt lat="43.72993" lon="7.3021">
        <ele>260.856</ele>
        <time>2018-03-16T13:26:39Z</time>
      </trkpt>
      <trkpt lat="43.72992" lon="7.30214">
        <ele>261.011</ele>
        <time>2018-03-16T13:26:42Z</time>
      </trkpt>
      <trkpt lat="43.72992" lon="7.3022">
        <ele>261.072</ele>
        <time>2018-03-16T13:26:45Z</time>
      </trkpt>
      <trkpt lat="43.72989" lon="7.30234">
        <ele>262.342</ele>
        <time>2018-03-16T13:26:55Z</time>
      </trkpt>
      <trkpt lat="43.72989" lon="7.30236">
        <ele>262.553</ele>
        <time>2018-03-16T13:26:57Z</time>
      </trkpt>
      <trkpt lat="43.7299" lon="7.30237">
        <ele>262.512</ele>
        <time>2018-03-16T13:26:58Z</time>
      </trkpt>
      <trkpt lat="43.72992" lon="7.30241">
        <ele>262.899</ele>
        <time>2018-03-16T13:27:02Z</time>
      </trkpt>
      <trkpt lat="43.72993" lon="7.30244">
        <ele>262.965</ele>
        <time>2018-03-16T13:27:04Z</time>
      </trkpt>
      <trkpt lat="43.72993" lon="7.30248">
        <ele>263.375</ele>
        <time>2018-03-16T13:27:06Z</time>
      </trkpt>
      <trkpt lat="43.72992" lon="7.30254">
        <ele>263.437</ele>
        <time>2018-03-16T13:27:09Z</time>
      </trkpt>
      <trkpt lat="43.72986" lon="7.30268">
        <ele>263.222</ele>
        <time>2018-03-16T13:27:18Z</time>
      </trkpt>
      <trkpt lat="43.72985" lon="7.30269">
        <ele>263.592</ele>
        <time>2018-03-16T13:27:19Z</time>
      </trkpt>
      <trkpt lat="43.72982" lon="7.30271">
        <ele>264.147</ele>
        <time>2018-03-16T13:27:22Z</time>
      </trkpt>
      <trkpt lat="43.72979" lon="7.30272">
        <ele>264.287</ele>
        <time>2018-03-16T13:27:24Z</time>
      </trkpt>
      <trkpt lat="43.72975" lon="7.30276">
        <ele>263.816</ele>
        <time>2018-03-16T13:27:28Z</time>
      </trkpt>
      <trkpt lat="43.7297" lon="7.30278">
        <ele>263.718</ele>
        <time>2018-03-16T13:27:32Z</time>
      </trkpt>
      <trkpt lat="43.72967" lon="7.3028">
        <ele>263.654</ele>
        <time>2018-03-16T13:27:34Z</time>
      </trkpt>
      <trkpt lat="43.72956" lon="7.30281">
        <ele>263.652</ele>
        <time>2018-03-16T13:27:42Z</time>
      </trkpt>
      <trkpt lat="43.72952" lon="7.30281">
        <ele>263.587</ele>
        <time>2018-03-16T13:27:45Z</time>
      </trkpt>
      <trkpt lat="43.72949" lon="7.30281">
        <ele>263.656</ele>
        <time>2018-03-16T13:27:47Z</time>
      </trkpt>
      <trkpt lat="43.72942" lon="7.3028">
        <ele>263.273</ele>
        <time>2018-03-16T13:27:52Z</time>
      </trkpt>
      <trkpt lat="43.72934" lon="7.30282">
        <ele>263.705</ele>
        <time>2018-03-16T13:27:57Z</time>
      </trkpt>
      <trkpt lat="43.7293" lon="7.30283">
        <ele>263.797</ele>
        <time>2018-03-16T13:28:00Z</time>
      </trkpt>
      <trkpt lat="43.72909" lon="7.30283">
        <ele>264.19</ele>
        <time>2018-03-16T13:28:15Z</time>
      </trkpt>
      <trkpt lat="43.72904" lon="7.30283">
        <ele>264.243</ele>
        <time>2018-03-16T13:28:19Z</time>
      </trkpt>
      <trkpt lat="43.729" lon="7.30284">
        <ele>264.543</ele>
        <time>2018-03-16T13:28:22Z</time>
      </trkpt>
      <trkpt lat="43.72896" lon="7.30284">
        <ele>264.44</ele>
        <time>2018-03-16T13:28:25Z</time>
      </trkpt>
      <trkpt lat="43.72893" lon="7.30283">
        <ele>264.185</ele>
        <time>2018-03-16T13:28:28Z</time>
      </trkpt>
      <trkpt lat="43.72889" lon="7.30284">
        <ele>264.098</ele>
        <time>2018-03-16T13:28:32Z</time>
      </trkpt>
      <trkpt lat="43.72886" lon="7.30285">
        <ele>263.79</ele>
        <time>2018-03-16T13:28:35Z</time>
      </trkpt>
      <trkpt lat="43.7288" lon="7.30285">
        <ele>263.837</ele>
        <time>2018-03-16T13:28:39Z</time>
      </trkpt>
      <trkpt lat="43.72877" lon="7.30285">
        <ele>263.857</ele>
        <time>2018-03-16T13:28:41Z</time>
      </trkpt>
      <trkpt lat="43.72875" lon="7.30286">
        <ele>264.479</ele>
        <time>2018-03-16T13:28:42Z</time>
      </trkpt>
      <trkpt lat="43.72869" lon="7.30289">
        <ele>263.962</ele>
        <time>2018-03-16T13:28:46Z</time>
      </trkpt>
      <trkpt lat="43.72864" lon="7.3029">
        <ele>264.306</ele>
        <time>2018-03-16T13:28:50Z</time>
      </trkpt>
      <trkpt lat="43.72864" lon="7.30289">
        <ele>264.358</ele>
        <time>2018-03-16T13:28:51Z</time>
      </trkpt>
      <trkpt lat="43.72862" lon="7.3029">
        <ele>264.369</ele>
        <time>2018-03-16T13:28:53Z</time>
      </trkpt>
      <trkpt lat="43.72855" lon="7.3029">
        <ele>264.739</ele>
        <time>2018-03-16T13:28:58Z</time>
      </trkpt>
      <trkpt lat="43.72852" lon="7.30288">
        <ele>264.731</ele>
        <time>2018-03-16T13:29:01Z</time>
      </trkpt>
      <trkpt lat="43.72845" lon="7.30289">
        <ele>264.695</ele>
        <time>2018-03-16T13:29:06Z</time>
      </trkpt>
      <trkpt lat="43.72834" lon="7.30285">
        <ele>264.84</ele>
        <time>2018-03-16T13:29:16Z</time>
      </trkpt>
      <trkpt lat="43.72831" lon="7.30286">
        <ele>265.169</ele>
        <time>2018-03-16T13:29:19Z</time>
      </trkpt>
      <trkpt lat="43.72824" lon="7.30287">
        <ele>265.36</ele>
        <time>2018-03-16T13:29:24Z</time>
      </trkpt>
      <trkpt lat="43.72816" lon="7.3029">
        <ele>265.596</ele>
        <time>2018-03-16T13:29:31Z</time>
      </trkpt>
      <trkpt lat="43.72812" lon="7.30291">
        <ele>265.641</ele>
        <time>2018-03-16T13:29:35Z</time>
      </trkpt>
      <trkpt lat="43.72806" lon="7.30291">
        <ele>265.484</ele>
        <time>2018-03-16T13:29:40Z</time>
      </trkpt>
      <trkpt lat="43.72803" lon="7.30291">
        <ele>265.472</ele>
        <time>2018-03-16T13:29:43Z</time>
      </trkpt>
      <trkpt lat="43.728" lon="7.30291">
        <ele>264.901</ele>
        <time>2018-03-16T13:29:46Z</time>
      </trkpt>
      <trkpt lat="43.72797" lon="7.30295">
        <ele>265.382</ele>
        <time>2018-03-16T13:29:49Z</time>
      </trkpt>
      <trkpt lat="43.72795" lon="7.30296">
        <ele>265.352</ele>
        <time>2018-03-16T13:29:52Z</time>
      </trkpt>
      <trkpt lat="43.72794" lon="7.30296">
        <ele>265.39</ele>
        <time>2018-03-16T13:29:53Z</time>
      </trkpt>
      <trkpt lat="43.72794" lon="7.30296">
        <ele>265.39</ele>
        <time>2018-03-16T13:29:53Z</time>
      </trkpt>
      <trkpt lat="43.72793" lon="7.30296">
        <ele>265.392</ele>
        <time>2018-03-16T13:29:54Z</time>
      </trkpt>
      <trkpt lat="43.72789" lon="7.30299">
        <ele>265.297</ele>
        <time>2018-03-16T13:29:58Z</time>
      </trkpt>
      <trkpt lat="43.72786" lon="7.30302">
        <ele>265.559</ele>
        <time>2018-03-16T13:30:01Z</time>
      </trkpt>
      <trkpt lat="43.72783" lon="7.30304">
        <ele>265.678</ele>
        <time>2018-03-16T13:30:03Z</time>
      </trkpt>
      <trkpt lat="43.72781" lon="7.30306">
        <ele>265.232</ele>
        <time>2018-03-16T13:30:05Z</time>
      </trkpt>
      <trkpt lat="43.72777" lon="7.30308">
        <ele>265.122</ele>
        <time>2018-03-16T13:30:07Z</time>
      </trkpt>
      <trkpt lat="43.7277" lon="7.30312">
        <ele>265.202</ele>
        <time>2018-03-16T13:30:13Z</time>
      </trkpt>
      <trkpt lat="43.72765" lon="7.30316">
        <ele>264.971</ele>
        <time>2018-03-16T13:30:18Z</time>
      </trkpt>
      <trkpt lat="43.72762" lon="7.30317">
        <ele>264.987</ele>
        <time>2018-03-16T13:30:20Z</time>
      </trkpt>
      <trkpt lat="43.72756" lon="7.3032">
        <ele>265.093</ele>
        <time>2018-03-16T13:30:25Z</time>
      </trkpt>
      <trkpt lat="43.7275" lon="7.30322">
        <ele>265.294</ele>
        <time>2018-03-16T13:30:29Z</time>
      </trkpt>
      <trkpt lat="43.72745" lon="7.30325">
        <ele>265.104</ele>
        <time>2018-03-16T13:30:33Z</time>
      </trkpt>
      <trkpt lat="43.72742" lon="7.30328">
        <ele>265.028</ele>
        <time>2018-03-16T13:30:35Z</time>
      </trkpt>
      <trkpt lat="43.7274" lon="7.3033">
        <ele>264.803</ele>
        <time>2018-03-16T13:30:37Z</time>
      </trkpt>
      <trkpt lat="43.72736" lon="7.3033">
        <ele>264.684</ele>
        <time>2018-03-16T13:30:40Z</time>
      </trkpt>
      <trkpt lat="43.72726" lon="7.3034">
        <ele>264.473</ele>
        <time>2018-03-16T13:30:50Z</time>
      </trkpt>
      <trkpt lat="43.72722" lon="7.30341">
        <ele>264.754</ele>
        <time>2018-03-16T13:30:54Z</time>
      </trkpt>
      <trkpt lat="43.72717" lon="7.30342">
        <ele>265.148</ele>
        <time>2018-03-16T13:30:58Z</time>
      </trkpt>
      <trkpt lat="43.72715" lon="7.3034">
        <ele>265.491</ele>
        <time>2018-03-16T13:31:01Z</time>
      </trkpt>
      <trkpt lat="43.72712" lon="7.30341">
        <ele>265.441</ele>
        <time>2018-03-16T13:31:03Z</time>
      </trkpt>
      <trkpt lat="43.7271" lon="7.30343">
        <ele>265.728</ele>
        <time>2018-03-16T13:31:05Z</time>
      </trkpt>
      <trkpt lat="43.72708" lon="7.30344">
        <ele>265.628</ele>
        <time>2018-03-16T13:31:07Z</time>
      </trkpt>
      <trkpt lat="43.72703" lon="7.30342">
        <ele>265.195</ele>
        <time>2018-03-16T13:31:11Z</time>
      </trkpt>
      <trkpt lat="43.72696" lon="7.30345">
        <ele>265.243</ele>
        <time>2018-03-16T13:31:16Z</time>
      </trkpt>
      <trkpt lat="43.72693" lon="7.30347">
        <ele>265.224</ele>
        <time>2018-03-16T13:31:18Z</time>
      </trkpt>
      <trkpt lat="43.72684" lon="7.30348">
        <ele>265.77</ele>
        <time>2018-03-16T13:31:25Z</time>
      </trkpt>
      <trkpt lat="43.72674" lon="7.30344">
        <ele>265.61</ele>
        <time>2018-03-16T13:31:32Z</time>
      </trkpt>
      <trkpt lat="43.72667" lon="7.3034">
        <ele>265.591</ele>
        <time>2018-03-16T13:31:38Z</time>
      </trkpt>
      <trkpt lat="43.72662" lon="7.30339">
        <ele>265.436</ele>
        <time>2018-03-16T13:31:41Z</time>
      </trkpt>
      <trkpt lat="43.72659" lon="7.30338">
        <ele>265.578</ele>
        <time>2018-03-16T13:31:44Z</time>
      </trkpt>
      <trkpt lat="43.72655" lon="7.30335">
        <ele>265.678</ele>
        <time>2018-03-16T13:31:47Z</time>
      </trkpt>
      <trkpt lat="43.72653" lon="7.30333">
        <ele>265.641</ele>
        <time>2018-03-16T13:31:49Z</time>
      </trkpt>
      <trkpt lat="43.72648" lon="7.3033">
        <ele>265.602</ele>
        <time>2018-03-16T13:31:53Z</time>
      </trkpt>
      <trkpt lat="43.72629" lon="7.30316">
        <ele>265.62</ele>
        <time>2018-03-16T13:32:09Z</time>
      </trkpt>
      <trkpt lat="43.72624" lon="7.30314">
        <ele>265.656</ele>
        <time>2018-03-16T13:32:13Z</time>
      </trkpt>
      <trkpt lat="43.72617" lon="7.30308">
        <ele>265.662</ele>
        <time>2018-03-16T13:32:21Z</time>
      </trkpt>
      <trkpt lat="43.72613" lon="7.30307">
        <ele>265.697</ele>
        <time>2018-03-16T13:32:24Z</time>
      </trkpt>
      <trkpt lat="43.72598" lon="7.30308">
        <ele>266.02</ele>
        <time>2018-03-16T13:32:34Z</time>
      </trkpt>
      <trkpt lat="43.72597" lon="7.30308">
        <ele>265.96</ele>
        <time>2018-03-16T13:32:35Z</time>
      </trkpt>
      <trkpt lat="43.72594" lon="7.30307">
        <ele>266.237</ele>
        <time>2018-03-16T13:32:38Z</time>
      </trkpt>
      <trkpt lat="43.72589" lon="7.30309">
        <ele>266.393</ele>
        <time>2018-03-16T13:32:41Z</time>
      </trkpt>
      <trkpt lat="43.72586" lon="7.3031">
        <ele>266.535</ele>
        <time>2018-03-16T13:32:43Z</time>
      </trkpt>
      <trkpt lat="43.72586" lon="7.3031">
        <ele>266.535</ele>
        <time>2018-03-16T13:32:43Z</time>
      </trkpt>
      <trkpt lat="43.72586" lon="7.3031">
        <ele>266.484</ele>
        <time>2018-03-16T13:32:44Z</time>
      </trkpt>
      <trkpt lat="43.72583" lon="7.30309">
        <ele>266.536</ele>
        <time>2018-03-16T13:32:47Z</time>
      </trkpt>
      <trkpt lat="43.7258" lon="7.30308">
        <ele>266.638</ele>
        <time>2018-03-16T13:32:49Z</time>
      </trkpt>
      <trkpt lat="43.72577" lon="7.30307">
        <ele>266.78</ele>
        <time>2018-03-16T13:32:51Z</time>
      </trkpt>
      <trkpt lat="43.72571" lon="7.30311">
        <ele>266.802</ele>
        <time>2018-03-16T13:32:56Z</time>
      </trkpt>
      <trkpt lat="43.7257" lon="7.3031">
        <ele>266.74</ele>
        <time>2018-03-16T13:32:58Z</time>
      </trkpt>
      <trkpt lat="43.72569" lon="7.3031">
        <ele>266.972</ele>
        <time>2018-03-16T13:32:59Z</time>
      </trkpt>
      <trkpt lat="43.72565" lon="7.3031">
        <ele>267.024</ele>
        <time>2018-03-16T13:33:02Z</time>
      </trkpt>
      <trkpt lat="43.72563" lon="7.3031">
        <ele>267.009</ele>
        <time>2018-03-16T13:33:03Z</time>
      </trkpt>
      <trkpt lat="43.72556" lon="7.30309">
        <ele>267.126</ele>
        <time>2018-03-16T13:33:07Z</time>
      </trkpt>
      <trkpt lat="43.72553" lon="7.30309">
        <ele>267.086</ele>
        <time>2018-03-16T13:33:09Z</time>
      </trkpt>
      <trkpt lat="43.72551" lon="7.30307">
        <ele>267.06</ele>
        <time>2018-03-16T13:33:11Z</time>
      </trkpt>
      <trkpt lat="43.72545" lon="7.30305">
        <ele>267.438</ele>
        <time>2018-03-16T13:33:15Z</time>
      </trkpt>
      <trkpt lat="43.7254" lon="7.30306">
        <ele>267.515</ele>
        <time>2018-03-16T13:33:19Z</time>
      </trkpt>
      <trkpt lat="43.7254" lon="7.30306">
        <ele>267.645</ele>
        <time>2018-03-16T13:33:20Z</time>
      </trkpt>
      <trkpt lat="43.7254" lon="7.30306">
        <ele>267.763</ele>
        <time>2018-03-16T13:33:22Z</time>
      </trkpt>
      <trkpt lat="43.72539" lon="7.30306">
        <ele>267.702</ele>
        <time>2018-03-16T13:33:23Z</time>
      </trkpt>
      <trkpt lat="43.72538" lon="7.30305">
        <ele>267.642</ele>
        <time>2018-03-16T13:33:26Z</time>
      </trkpt>
      <trkpt lat="43.72535" lon="7.30305">
        <ele>267.739</ele>
        <time>2018-03-16T13:33:28Z</time>
      </trkpt>
      <trkpt lat="43.72532" lon="7.30308">
        <ele>267.816</ele>
        <time>2018-03-16T13:33:31Z</time>
      </trkpt>
      <trkpt lat="43.72529" lon="7.30311">
        <ele>268.314</ele>
        <time>2018-03-16T13:33:34Z</time>
      </trkpt>
      <trkpt lat="43.72528" lon="7.30316">
        <ele>269.033</ele>
        <time>2018-03-16T13:33:37Z</time>
      </trkpt>
      <trkpt lat="43.72526" lon="7.30319">
        <ele>269.433</ele>
        <time>2018-03-16T13:33:39Z</time>
      </trkpt>
      <trkpt lat="43.72519" lon="7.30327">
        <ele>269.703</ele>
        <time>2018-03-16T13:33:44Z</time>
      </trkpt>
      <trkpt lat="43.72512" lon="7.30336">
        <ele>270.106</ele>
        <time>2018-03-16T13:33:49Z</time>
      </trkpt>
      <trkpt lat="43.72511" lon="7.30336">
        <ele>270.055</ele>
        <time>2018-03-16T13:33:50Z</time>
      </trkpt>
      <trkpt lat="43.72505" lon="7.30339">
        <ele>270.513</ele>
        <time>2018-03-16T13:33:55Z</time>
      </trkpt>
      <trkpt lat="43.72502" lon="7.30341">
        <ele>270.53</ele>
        <time>2018-03-16T13:33:58Z</time>
      </trkpt>
      <trkpt lat="43.72481" lon="7.30345">
        <ele>270.202</ele>
        <time>2018-03-16T13:34:15Z</time>
      </trkpt>
      <trkpt lat="43.72478" lon="7.30345">
        <ele>270.347</ele>
        <time>2018-03-16T13:34:17Z</time>
      </trkpt>
      <trkpt lat="43.72475" lon="7.30345">
        <ele>270.183</ele>
        <time>2018-03-16T13:34:19Z</time>
      </trkpt>
      <trkpt lat="43.7247" lon="7.30346">
        <ele>270.188</ele>
        <time>2018-03-16T13:34:22Z</time>
      </trkpt>
      <trkpt lat="43.72462" lon="7.30344">
        <ele>269.98</ele>
        <time>2018-03-16T13:34:28Z</time>
      </trkpt>
      <trkpt lat="43.72461" lon="7.30344">
        <ele>269.835</ele>
        <time>2018-03-16T13:34:29Z</time>
      </trkpt>
      <trkpt lat="43.72455" lon="7.30345">
        <ele>269.596</ele>
        <time>2018-03-16T13:34:33Z</time>
      </trkpt>
      <trkpt lat="43.72451" lon="7.30341">
        <ele>269.927</ele>
        <time>2018-03-16T13:34:36Z</time>
      </trkpt>
      <trkpt lat="43.72448" lon="7.30341">
        <ele>270.377</ele>
        <time>2018-03-16T13:34:38Z</time>
      </trkpt>
      <trkpt lat="43.72435" lon="7.3034">
        <ele>270.693</ele>
        <time>2018-03-16T13:34:48Z</time>
      </trkpt>
      <trkpt lat="43.72432" lon="7.30336">
        <ele>270.618</ele>
        <time>2018-03-16T13:34:51Z</time>
      </trkpt>
      <trkpt lat="43.72428" lon="7.30335">
        <ele>271.058</ele>
        <time>2018-03-16T13:34:55Z</time>
      </trkpt>
      <trkpt lat="43.72423" lon="7.30334">
        <ele>271.078</ele>
        <time>2018-03-16T13:34:58Z</time>
      </trkpt>
      <trkpt lat="43.72419" lon="7.30333">
        <ele>271.101</ele>
        <time>2018-03-16T13:35:01Z</time>
      </trkpt>
      <trkpt lat="43.72416" lon="7.30332">
        <ele>270.946</ele>
        <time>2018-03-16T13:35:03Z</time>
      </trkpt>
      <trkpt lat="43.72412" lon="7.30332">
        <ele>270.148</ele>
        <time>2018-03-16T13:35:06Z</time>
      </trkpt>
      <trkpt lat="43.72408" lon="7.30335">
        <ele>270.755</ele>
        <time>2018-03-16T13:35:09Z</time>
      </trkpt>
      <trkpt lat="43.72404" lon="7.30337">
        <ele>271.128</ele>
        <time>2018-03-16T13:35:11Z</time>
      </trkpt>
      <trkpt lat="43.72398" lon="7.30343">
        <ele>271.51</ele>
        <time>2018-03-16T13:35:16Z</time>
      </trkpt>
      <trkpt lat="43.72392" lon="7.30346">
        <ele>272.27</ele>
        <time>2018-03-16T13:35:20Z</time>
      </trkpt>
      <trkpt lat="43.72388" lon="7.30348">
        <ele>271.99</ele>
        <time>2018-03-16T13:35:24Z</time>
      </trkpt>
      <trkpt lat="43.72381" lon="7.3035">
        <ele>272.086</ele>
        <time>2018-03-16T13:35:29Z</time>
      </trkpt>
      <trkpt lat="43.72378" lon="7.30353">
        <ele>272.139</ele>
        <time>2018-03-16T13:35:31Z</time>
      </trkpt>
      <trkpt lat="43.72371" lon="7.30358">
        <ele>272.538</ele>
        <time>2018-03-16T13:35:37Z</time>
      </trkpt>
      <trkpt lat="43.72366" lon="7.3036">
        <ele>272.884</ele>
        <time>2018-03-16T13:35:40Z</time>
      </trkpt>
      <trkpt lat="43.72366" lon="7.3036">
        <ele>273.246</ele>
        <time>2018-03-16T13:35:42Z</time>
      </trkpt>
      <trkpt lat="43.72366" lon="7.3036">
        <ele>272.862</ele>
        <time>2018-03-16T13:35:45Z</time>
      </trkpt>
      <trkpt lat="43.72365" lon="7.3036">
        <ele>273.006</ele>
        <time>2018-03-16T13:35:46Z</time>
      </trkpt>
      <trkpt lat="43.72364" lon="7.3036">
        <ele>272.915</ele>
        <time>2018-03-16T13:35:47Z</time>
      </trkpt>
      <trkpt lat="43.72353" lon="7.30364">
        <ele>273.249</ele>
        <time>2018-03-16T13:35:55Z</time>
      </trkpt>
      <trkpt lat="43.72353" lon="7.30364">
        <ele>273.249</ele>
        <time>2018-03-16T13:35:55Z</time>
      </trkpt>
      <trkpt lat="43.72353" lon="7.30364">
        <ele>272.928</ele>
        <time>2018-03-16T13:35:56Z</time>
      </trkpt>
      <trkpt lat="43.7235" lon="7.30364">
        <ele>272.772</ele>
        <time>2018-03-16T13:35:58Z</time>
      </trkpt>
      <trkpt lat="43.72347" lon="7.30366">
        <ele>272.456</ele>
        <time>2018-03-16T13:36:00Z</time>
      </trkpt>
      <trkpt lat="43.72343" lon="7.30367">
        <ele>272.416</ele>
        <time>2018-03-16T13:36:03Z</time>
      </trkpt>
      <trkpt lat="43.72334" lon="7.30368">
        <ele>272.506</ele>
        <time>2018-03-16T13:36:09Z</time>
      </trkpt>
      <trkpt lat="43.72331" lon="7.30367">
        <ele>271.685</ele>
        <time>2018-03-16T13:36:11Z</time>
      </trkpt>
      <trkpt lat="43.72306" lon="7.3038">
        <ele>273.328</ele>
        <time>2018-03-16T13:36:30Z</time>
      </trkpt>
      <trkpt lat="43.72303" lon="7.30382">
        <ele>273.518</ele>
        <time>2018-03-16T13:36:33Z</time>
      </trkpt>
      <trkpt lat="43.72299" lon="7.30383">
        <ele>273.878</ele>
        <time>2018-03-16T13:36:36Z</time>
      </trkpt>
      <trkpt lat="43.72291" lon="7.30386">
        <ele>274.032</ele>
        <time>2018-03-16T13:36:43Z</time>
      </trkpt>
      <trkpt lat="43.72282" lon="7.30389">
        <ele>274.457</ele>
        <time>2018-03-16T13:36:50Z</time>
      </trkpt>
      <trkpt lat="43.72279" lon="7.30391">
        <ele>274.43</ele>
        <time>2018-03-16T13:36:53Z</time>
      </trkpt>
      <trkpt lat="43.72269" lon="7.30391">
        <ele>273.955</ele>
        <time>2018-03-16T13:37:00Z</time>
      </trkpt>
      <trkpt lat="43.72265" lon="7.30391">
        <ele>273.606</ele>
        <time>2018-03-16T13:37:03Z</time>
      </trkpt>
      <trkpt lat="43.72261" lon="7.3039">
        <ele>274.064</ele>
        <time>2018-03-16T13:37:06Z</time>
      </trkpt>
      <trkpt lat="43.72255" lon="7.30388">
        <ele>274.357</ele>
        <time>2018-03-16T13:37:10Z</time>
      </trkpt>
      <trkpt lat="43.72252" lon="7.30387">
        <ele>274.666</ele>
        <time>2018-03-16T13:37:12Z</time>
      </trkpt>
      <trkpt lat="43.72227" lon="7.30381">
        <ele>275.667</ele>
        <time>2018-03-16T13:37:30Z</time>
      </trkpt>
      <trkpt lat="43.72224" lon="7.30381">
        <ele>275.588</ele>
        <time>2018-03-16T13:37:32Z</time>
      </trkpt>
      <trkpt lat="43.7222" lon="7.30379">
        <ele>275.849</ele>
        <time>2018-03-16T13:37:37Z</time>
      </trkpt>
      <trkpt lat="43.72218" lon="7.30376">
        <ele>276.089</ele>
        <time>2018-03-16T13:37:39Z</time>
      </trkpt>
      <trkpt lat="43.72216" lon="7.30374">
        <ele>276.359</ele>
        <time>2018-03-16T13:37:42Z</time>
      </trkpt>
      <trkpt lat="43.72215" lon="7.30373">
        <ele>276.435</ele>
        <time>2018-03-16T13:37:43Z</time>
      </trkpt>
      <trkpt lat="43.72202" lon="7.30362">
        <ele>277.288</ele>
        <time>2018-03-16T13:37:54Z</time>
      </trkpt>
      <trkpt lat="43.72199" lon="7.30359">
        <ele>277.294</ele>
        <time>2018-03-16T13:37:56Z</time>
      </trkpt>
      <trkpt lat="43.7219" lon="7.30353">
        <ele>277.832</ele>
        <time>2018-03-16T13:38:02Z</time>
      </trkpt>
      <trkpt lat="43.72187" lon="7.3035">
        <ele>277.776</ele>
        <time>2018-03-16T13:38:05Z</time>
      </trkpt>
      <trkpt lat="43.72183" lon="7.3035">
        <ele>278.102</ele>
        <time>2018-03-16T13:38:07Z</time>
      </trkpt>
      <trkpt lat="43.7218" lon="7.30352">
        <ele>278.105</ele>
        <time>2018-03-16T13:38:09Z</time>
      </trkpt>
      <trkpt lat="43.72177" lon="7.30351">
        <ele>278.234</ele>
        <time>2018-03-16T13:38:12Z</time>
      </trkpt>
      <trkpt lat="43.72177" lon="7.3035">
        <ele>278.234</ele>
        <time>2018-03-16T13:38:13Z</time>
      </trkpt>
      <trkpt lat="43.72177" lon="7.30349">
        <ele>278.386</ele>
        <time>2018-03-16T13:38:14Z</time>
      </trkpt>
      <trkpt lat="43.72174" lon="7.30346">
        <ele>278.54</ele>
        <time>2018-03-16T13:38:16Z</time>
      </trkpt>
      <trkpt lat="43.72171" lon="7.30343">
        <ele>278.666</ele>
        <time>2018-03-16T13:38:19Z</time>
      </trkpt>
      <trkpt lat="43.72167" lon="7.30342">
        <ele>278.848</ele>
        <time>2018-03-16T13:38:22Z</time>
      </trkpt>
      <trkpt lat="43.72164" lon="7.30343">
        <ele>278.738</ele>
        <time>2018-03-16T13:38:24Z</time>
      </trkpt>
      <trkpt lat="43.7216" lon="7.30342">
        <ele>278.683</ele>
        <time>2018-03-16T13:38:27Z</time>
      </trkpt>
      <trkpt lat="43.72157" lon="7.30341">
        <ele>278.911</ele>
        <time>2018-03-16T13:38:30Z</time>
      </trkpt>
      <trkpt lat="43.72156" lon="7.3034">
        <ele>278.958</ele>
        <time>2018-03-16T13:38:32Z</time>
      </trkpt>
      <trkpt lat="43.72156" lon="7.30339">
        <ele>278.994</ele>
        <time>2018-03-16T13:38:33Z</time>
      </trkpt>
      <trkpt lat="43.72156" lon="7.30339">
        <ele>278.994</ele>
        <time>2018-03-16T13:38:33Z</time>
      </trkpt>
      <trkpt lat="43.72156" lon="7.30338">
        <ele>278.92</ele>
        <time>2018-03-16T13:38:34Z</time>
      </trkpt>
      <trkpt lat="43.72154" lon="7.30335">
        <ele>279.049</ele>
        <time>2018-03-16T13:38:36Z</time>
      </trkpt>
      <trkpt lat="43.72152" lon="7.30332">
        <ele>279.072</ele>
        <time>2018-03-16T13:38:38Z</time>
      </trkpt>
      <trkpt lat="43.72147" lon="7.30324">
        <ele>280.044</ele>
        <time>2018-03-16T13:38:43Z</time>
      </trkpt>
      <trkpt lat="43.72142" lon="7.30322">
        <ele>280.472</ele>
        <time>2018-03-16T13:38:47Z</time>
      </trkpt>
      <trkpt lat="43.72134" lon="7.30317">
        <ele>280.85</ele>
        <time>2018-03-16T13:38:52Z</time>
      </trkpt>
      <trkpt lat="43.72131" lon="7.30314">
        <ele>280.697</ele>
        <time>2018-03-16T13:38:55Z</time>
      </trkpt>
      <trkpt lat="43.72128" lon="7.30314">
        <ele>280.588</ele>
        <time>2018-03-16T13:38:58Z</time>
      </trkpt>
      <trkpt lat="43.72121" lon="7.30316">
        <ele>281.395</ele>
        <time>2018-03-16T13:39:02Z</time>
      </trkpt>
      <trkpt lat="43.72113" lon="7.30319">
        <ele>281.813</ele>
        <time>2018-03-16T13:39:08Z</time>
      </trkpt>
      <trkpt lat="43.72109" lon="7.30321">
        <ele>281.933</ele>
        <time>2018-03-16T13:39:11Z</time>
      </trkpt>
      <trkpt lat="43.72108" lon="7.3032">
        <ele>281.803</ele>
        <time>2018-03-16T13:39:12Z</time>
      </trkpt>
      <trkpt lat="43.72108" lon="7.3032">
        <ele>281.767</ele>
        <time>2018-03-16T13:39:13Z</time>
      </trkpt>
      <trkpt lat="43.72107" lon="7.3032">
        <ele>281.867</ele>
        <time>2018-03-16T13:39:14Z</time>
      </trkpt>
      <trkpt lat="43.72102" lon="7.30328">
        <ele>282.272</ele>
        <time>2018-03-16T13:39:19Z</time>
      </trkpt>
      <trkpt lat="43.72101" lon="7.30329">
        <ele>282.325</ele>
        <time>2018-03-16T13:39:21Z</time>
      </trkpt>
      <trkpt lat="43.721" lon="7.30331">
        <ele>282.443</ele>
        <time>2018-03-16T13:39:22Z</time>
      </trkpt>
      <trkpt lat="43.72097" lon="7.30339">
        <ele>282.637</ele>
        <time>2018-03-16T13:39:27Z</time>
      </trkpt>
      <trkpt lat="43.72097" lon="7.3034">
        <ele>282.943</ele>
        <time>2018-03-16T13:39:28Z</time>
      </trkpt>
      <trkpt lat="43.72097" lon="7.3034">
        <ele>282.856</ele>
        <time>2018-03-16T13:39:29Z</time>
      </trkpt>
      <trkpt lat="43.72097" lon="7.3034">
        <ele>282.856</ele>
        <time>2018-03-16T13:39:29Z</time>
      </trkpt>
      <trkpt lat="43.72096" lon="7.3034">
        <ele>282.886</ele>
        <time>2018-03-16T13:39:30Z</time>
      </trkpt>
      <trkpt lat="43.72096" lon="7.3034">
        <ele>282.913</ele>
        <time>2018-03-16T13:39:31Z</time>
      </trkpt>
      <trkpt lat="43.72096" lon="7.3034">
        <ele>282.662</ele>
        <time>2018-03-16T13:39:32Z</time>
      </trkpt>
      <trkpt lat="43.72095" lon="7.30355">
        <ele>283.026</ele>
        <time>2018-03-16T13:39:39Z</time>
      </trkpt>
      <trkpt lat="43.72096" lon="7.30362">
        <ele>283.281</ele>
        <time>2018-03-16T13:39:43Z</time>
      </trkpt>
      <trkpt lat="43.72097" lon="7.30367">
        <ele>283.384</ele>
        <time>2018-03-16T13:39:46Z</time>
      </trkpt>
      <trkpt lat="43.72097" lon="7.30372">
        <ele>284.193</ele>
        <time>2018-03-16T13:39:49Z</time>
      </trkpt>
      <trkpt lat="43.72098" lon="7.30376">
        <ele>284.333</ele>
        <time>2018-03-16T13:39:52Z</time>
      </trkpt>
      <trkpt lat="43.72096" lon="7.30394">
        <ele>284.672</ele>
        <time>2018-03-16T13:40:03Z</time>
      </trkpt>
      <trkpt lat="43.72097" lon="7.30405">
        <ele>284.85</ele>
        <time>2018-03-16T13:40:09Z</time>
      </trkpt>
      <trkpt lat="43.72096" lon="7.30409">
        <ele>285.085</ele>
        <time>2018-03-16T13:40:11Z</time>
      </trkpt>
      <trkpt lat="43.72094" lon="7.30419">
        <ele>285.835</ele>
        <time>2018-03-16T13:40:17Z</time>
      </trkpt>
      <trkpt lat="43.72093" lon="7.30423">
        <ele>285.831</ele>
        <time>2018-03-16T13:40:19Z</time>
      </trkpt>
      <trkpt lat="43.72093" lon="7.30429">
        <ele>286.303</ele>
        <time>2018-03-16T13:40:22Z</time>
      </trkpt>
      <trkpt lat="43.72094" lon="7.30434">
        <ele>286.487</ele>
        <time>2018-03-16T13:40:25Z</time>
      </trkpt>
      <trkpt lat="43.72093" lon="7.30439">
        <ele>286.4</ele>
        <time>2018-03-16T13:40:29Z</time>
      </trkpt>
      <trkpt lat="43.72093" lon="7.30444">
        <ele>286.187</ele>
        <time>2018-03-16T13:40:32Z</time>
      </trkpt>
      <trkpt lat="43.72091" lon="7.30449">
        <ele>286.257</ele>
        <time>2018-03-16T13:40:34Z</time>
      </trkpt>
      <trkpt lat="43.72091" lon="7.30453">
        <ele>287.262</ele>
        <time>2018-03-16T13:40:37Z</time>
      </trkpt>
      <trkpt lat="43.72091" lon="7.30453">
        <ele>287.284</ele>
        <time>2018-03-16T13:40:38Z</time>
      </trkpt>
      <trkpt lat="43.72091" lon="7.30453">
        <ele>287.332</ele>
        <time>2018-03-16T13:40:41Z</time>
      </trkpt>
      <trkpt lat="43.72092" lon="7.30455">
        <ele>287.178</ele>
        <time>2018-03-16T13:40:42Z</time>
      </trkpt>
      <trkpt lat="43.72089" lon="7.30462">
        <ele>286.591</ele>
        <time>2018-03-16T13:40:46Z</time>
      </trkpt>
      <trkpt lat="43.72089" lon="7.30463">
        <ele>287.595</ele>
        <time>2018-03-16T13:40:47Z</time>
      </trkpt>
      <trkpt lat="43.72088" lon="7.30464">
        <ele>287.673</ele>
        <time>2018-03-16T13:40:48Z</time>
      </trkpt>
      <trkpt lat="43.72086" lon="7.30467">
        <ele>287.908</ele>
        <time>2018-03-16T13:40:50Z</time>
      </trkpt>
      <trkpt lat="43.72081" lon="7.30475">
        <ele>287.986</ele>
        <time>2018-03-16T13:40:55Z</time>
      </trkpt>
      <trkpt lat="43.72079" lon="7.30479">
        <ele>288.036</ele>
        <time>2018-03-16T13:40:58Z</time>
      </trkpt>
      <trkpt lat="43.72073" lon="7.30486">
        <ele>288.392</ele>
        <time>2018-03-16T13:41:04Z</time>
      </trkpt>
      <trkpt lat="43.72069" lon="7.30488">
        <ele>288.108</ele>
        <time>2018-03-16T13:41:08Z</time>
      </trkpt>
      <trkpt lat="43.72066" lon="7.30489">
        <ele>288.671</ele>
        <time>2018-03-16T13:41:11Z</time>
      </trkpt>
      <trkpt lat="43.72063" lon="7.30489">
        <ele>288.693</ele>
        <time>2018-03-16T13:41:15Z</time>
      </trkpt>
      <trkpt lat="43.7206" lon="7.30492">
        <ele>289.051</ele>
        <time>2018-03-16T13:41:18Z</time>
      </trkpt>
      <trkpt lat="43.72055" lon="7.30494">
        <ele>289.281</ele>
        <time>2018-03-16T13:41:22Z</time>
      </trkpt>
      <trkpt lat="43.72053" lon="7.30498">
        <ele>289.638</ele>
        <time>2018-03-16T13:41:25Z</time>
      </trkpt>
      <trkpt lat="43.7205" lon="7.305">
        <ele>289.833</ele>
        <time>2018-03-16T13:41:28Z</time>
      </trkpt>
      <trkpt lat="43.72046" lon="7.30502">
        <ele>289.916</ele>
        <time>2018-03-16T13:41:31Z</time>
      </trkpt>
      <trkpt lat="43.72043" lon="7.30502">
        <ele>290.332</ele>
        <time>2018-03-16T13:41:34Z</time>
      </trkpt>
      <trkpt lat="43.7204" lon="7.30505">
        <ele>290.401</ele>
        <time>2018-03-16T13:41:36Z</time>
      </trkpt>
      <trkpt lat="43.72029" lon="7.30518">
        <ele>290.694</ele>
        <time>2018-03-16T13:41:45Z</time>
      </trkpt>
      <trkpt lat="43.72025" lon="7.30519">
        <ele>291.312</ele>
        <time>2018-03-16T13:41:49Z</time>
      </trkpt>
      <trkpt lat="43.7202" lon="7.30524">
        <ele>291.731</ele>
        <time>2018-03-16T13:41:53Z</time>
      </trkpt>
      <trkpt lat="43.7202" lon="7.30524">
        <ele>291.615</ele>
        <time>2018-03-16T13:41:54Z</time>
      </trkpt>
      <trkpt lat="43.7202" lon="7.30524">
        <ele>291.615</ele>
        <time>2018-03-16T13:41:54Z</time>
      </trkpt>
      <trkpt lat="43.72019" lon="7.30525">
        <ele>291.376</ele>
        <time>2018-03-16T13:41:55Z</time>
      </trkpt>
      <trkpt lat="43.72018" lon="7.30526">
        <ele>291.679</ele>
        <time>2018-03-16T13:41:56Z</time>
      </trkpt>
      <trkpt lat="43.72017" lon="7.30526">
        <ele>291.601</ele>
        <time>2018-03-16T13:41:57Z</time>
      </trkpt>
      <trkpt lat="43.72009" lon="7.3053">
        <ele>292.099</ele>
        <time>2018-03-16T13:42:03Z</time>
      </trkpt>
      <trkpt lat="43.72006" lon="7.30532">
        <ele>292.373</ele>
        <time>2018-03-16T13:42:06Z</time>
      </trkpt>
      <trkpt lat="43.72005" lon="7.30533">
        <ele>292.556</ele>
        <time>2018-03-16T13:42:07Z</time>
      </trkpt>
      <trkpt lat="43.72003" lon="7.30538">
        <ele>292.693</ele>
        <time>2018-03-16T13:42:09Z</time>
      </trkpt>
      <trkpt lat="43.72001" lon="7.30541">
        <ele>293.022</ele>
        <time>2018-03-16T13:42:11Z</time>
      </trkpt>
      <trkpt lat="43.72001" lon="7.30542">
        <ele>293.08</ele>
        <time>2018-03-16T13:42:12Z</time>
      </trkpt>
      <trkpt lat="43.71998" lon="7.30545">
        <ele>293.186</ele>
        <time>2018-03-16T13:42:16Z</time>
      </trkpt>
      <trkpt lat="43.71998" lon="7.30545">
        <ele>292.815</ele>
        <time>2018-03-16T13:42:17Z</time>
      </trkpt>
      <trkpt lat="43.71998" lon="7.30545">
        <ele>293.187</ele>
        <time>2018-03-16T13:42:21Z</time>
      </trkpt>
      <trkpt lat="43.71996" lon="7.30547">
        <ele>292.678</ele>
        <time>2018-03-16T13:42:22Z</time>
      </trkpt>
      <trkpt lat="43.71994" lon="7.3055">
        <ele>293.039</ele>
        <time>2018-03-16T13:42:25Z</time>
      </trkpt>
      <trkpt lat="43.71993" lon="7.30553">
        <ele>293.275</ele>
        <time>2018-03-16T13:42:27Z</time>
      </trkpt>
      <trkpt lat="43.71991" lon="7.30556">
        <ele>293.702</ele>
        <time>2018-03-16T13:42:30Z</time>
      </trkpt>
      <trkpt lat="43.7199" lon="7.30556">
        <ele>293.492</ele>
        <time>2018-03-16T13:42:32Z</time>
      </trkpt>
      <trkpt lat="43.7199" lon="7.30556">
        <ele>293.422</ele>
        <time>2018-03-16T13:42:35Z</time>
      </trkpt>
      <trkpt lat="43.71989" lon="7.30557">
        <ele>293.213</ele>
        <time>2018-03-16T13:42:36Z</time>
      </trkpt>
      <trkpt lat="43.71988" lon="7.30558">
        <ele>292.425</ele>
        <time>2018-03-16T13:42:37Z</time>
      </trkpt>
      <trkpt lat="43.71986" lon="7.30562">
        <ele>293.787</ele>
        <time>2018-03-16T13:42:41Z</time>
      </trkpt>
      <trkpt lat="43.71985" lon="7.30564">
        <ele>293.492</ele>
        <time>2018-03-16T13:42:42Z</time>
      </trkpt>
      <trkpt lat="43.71979" lon="7.30571">
        <ele>293.232</ele>
        <time>2018-03-16T13:42:47Z</time>
      </trkpt>
      <trkpt lat="43.71977" lon="7.30574">
        <ele>293.572</ele>
        <time>2018-03-16T13:42:50Z</time>
      </trkpt>
      <trkpt lat="43.71976" lon="7.30577">
        <ele>293.734</ele>
        <time>2018-03-16T13:42:53Z</time>
      </trkpt>
      <trkpt lat="43.71974" lon="7.30581">
        <ele>293.827</ele>
        <time>2018-03-16T13:42:56Z</time>
      </trkpt>
      <trkpt lat="43.71971" lon="7.30585">
        <ele>293.636</ele>
        <time>2018-03-16T13:42:59Z</time>
      </trkpt>
      <trkpt lat="43.71968" lon="7.30589">
        <ele>293.938</ele>
        <time>2018-03-16T13:43:02Z</time>
      </trkpt>
      <trkpt lat="43.71967" lon="7.30593">
        <ele>293.717</ele>
        <time>2018-03-16T13:43:04Z</time>
      </trkpt>
      <trkpt lat="43.71964" lon="7.30597">
        <ele>294.709</ele>
        <time>2018-03-16T13:43:07Z</time>
      </trkpt>
      <trkpt lat="43.71962" lon="7.306">
        <ele>294.333</ele>
        <time>2018-03-16T13:43:10Z</time>
      </trkpt>
      <trkpt lat="43.7196" lon="7.30603">
        <ele>294.023</ele>
        <time>2018-03-16T13:43:12Z</time>
      </trkpt>
      <trkpt lat="43.71954" lon="7.30615">
        <ele>295.441</ele>
        <time>2018-03-16T13:43:19Z</time>
      </trkpt>
      <trkpt lat="43.71949" lon="7.30623">
        <ele>295.82</ele>
        <time>2018-03-16T13:43:24Z</time>
      </trkpt>
      <trkpt lat="43.71947" lon="7.30628">
        <ele>295.722</ele>
        <time>2018-03-16T13:43:26Z</time>
      </trkpt>
      <trkpt lat="43.71944" lon="7.30633">
        <ele>296.291</ele>
        <time>2018-03-16T13:43:30Z</time>
      </trkpt>
      <trkpt lat="43.71943" lon="7.30633">
        <ele>296.205</ele>
        <time>2018-03-16T13:43:31Z</time>
      </trkpt>
      <trkpt lat="43.71942" lon="7.30634">
        <ele>296.214</ele>
        <time>2018-03-16T13:43:32Z</time>
      </trkpt>
      <trkpt lat="43.7194" lon="7.30638">
        <ele>296.016</ele>
        <time>2018-03-16T13:43:35Z</time>
      </trkpt>
      <trkpt lat="43.71937" lon="7.30641">
        <ele>296.762</ele>
        <time>2018-03-16T13:43:38Z</time>
      </trkpt>
      <trkpt lat="43.71935" lon="7.30644">
        <ele>297.217</ele>
        <time>2018-03-16T13:43:41Z</time>
      </trkpt>
      <trkpt lat="43.71933" lon="7.30645">
        <ele>297.233</ele>
        <time>2018-03-16T13:43:42Z</time>
      </trkpt>
      <trkpt lat="43.71928" lon="7.30651">
        <ele>297.697</ele>
        <time>2018-03-16T13:43:46Z</time>
      </trkpt>
      <trkpt lat="43.71928" lon="7.30651">
        <ele>297.89</ele>
        <time>2018-03-16T13:43:47Z</time>
      </trkpt>
      <trkpt lat="43.71926" lon="7.30654">
        <ele>298.41</ele>
        <time>2018-03-16T13:43:50Z</time>
      </trkpt>
      <trkpt lat="43.71923" lon="7.30657">
        <ele>297.765</ele>
        <time>2018-03-16T13:43:52Z</time>
      </trkpt>
      <trkpt lat="43.71921" lon="7.3066">
        <ele>297.718</ele>
        <time>2018-03-16T13:43:54Z</time>
      </trkpt>
      <trkpt lat="43.71918" lon="7.30666">
        <ele>297.774</ele>
        <time>2018-03-16T13:43:56Z</time>
      </trkpt>
      <trkpt lat="43.71916" lon="7.30674">
        <ele>297.77</ele>
        <time>2018-03-16T13:43:59Z</time>
      </trkpt>
      <trkpt lat="43.71915" lon="7.30676">
        <ele>298.379</ele>
        <time>2018-03-16T13:44:02Z</time>
      </trkpt>
      <trkpt lat="43.71915" lon="7.30677">
        <ele>298.439</ele>
        <time>2018-03-16T13:44:03Z</time>
      </trkpt>
      <trkpt lat="43.71913" lon="7.30682">
        <ele>298.79</ele>
        <time>2018-03-16T13:44:06Z</time>
      </trkpt>
      <trkpt lat="43.71911" lon="7.30688">
        <ele>299.07</ele>
        <time>2018-03-16T13:44:09Z</time>
      </trkpt>
      <trkpt lat="43.71909" lon="7.30691">
        <ele>299.168</ele>
        <time>2018-03-16T13:44:11Z</time>
      </trkpt>
      <trkpt lat="43.71908" lon="7.30695">
        <ele>299.479</ele>
        <time>2018-03-16T13:44:14Z</time>
      </trkpt>
      <trkpt lat="43.71908" lon="7.30698">
        <ele>299.937</ele>
        <time>2018-03-16T13:44:18Z</time>
      </trkpt>
      <trkpt lat="43.71908" lon="7.30698">
        <ele>299.898</ele>
        <time>2018-03-16T13:44:21Z</time>
      </trkpt>
      <trkpt lat="43.71907" lon="7.30701">
        <ele>299.925</ele>
        <time>2018-03-16T13:44:22Z</time>
      </trkpt>
      <trkpt lat="43.71905" lon="7.30705">
        <ele>299.83</ele>
        <time>2018-03-16T13:44:25Z</time>
      </trkpt>
      <trkpt lat="43.71903" lon="7.30708">
        <ele>300.128</ele>
        <time>2018-03-16T13:44:26Z</time>
      </trkpt>
      <trkpt lat="43.71902" lon="7.30713">
        <ele>300.37</ele>
        <time>2018-03-16T13:44:29Z</time>
      </trkpt>
      <trkpt lat="43.71901" lon="7.30716">
        <ele>300.201</ele>
        <time>2018-03-16T13:44:31Z</time>
      </trkpt>
      <trkpt lat="43.719" lon="7.30718">
        <ele>300.161</ele>
        <time>2018-03-16T13:44:32Z</time>
      </trkpt>
      <trkpt lat="43.71899" lon="7.30729">
        <ele>300.508</ele>
        <time>2018-03-16T13:44:36Z</time>
      </trkpt>
      <trkpt lat="43.71899" lon="7.30733">
        <ele>300.774</ele>
        <time>2018-03-16T13:44:38Z</time>
      </trkpt>
      <trkpt lat="43.71899" lon="7.30738">
        <ele>300.891</ele>
        <time>2018-03-16T13:44:41Z</time>
      </trkpt>
      <trkpt lat="43.71901" lon="7.30742">
        <ele>301.352</ele>
        <time>2018-03-16T13:44:45Z</time>
      </trkpt>
      <trkpt lat="43.719" lon="7.30746">
        <ele>301.324</ele>
        <time>2018-03-16T13:44:47Z</time>
      </trkpt>
      <trkpt lat="43.71901" lon="7.30754">
        <ele>302.898</ele>
        <time>2018-03-16T13:44:50Z</time>
      </trkpt>
      <trkpt lat="43.71902" lon="7.30759">
        <ele>302.048</ele>
        <time>2018-03-16T13:44:52Z</time>
      </trkpt>
      <trkpt lat="43.71903" lon="7.30761">
        <ele>302.166</ele>
        <time>2018-03-16T13:44:54Z</time>
      </trkpt>
      <trkpt lat="43.71903" lon="7.30761">
        <ele>302.013</ele>
        <time>2018-03-16T13:44:58Z</time>
      </trkpt>
      <trkpt lat="43.71902" lon="7.30764">
        <ele>302.655</ele>
        <time>2018-03-16T13:44:59Z</time>
      </trkpt>
      <trkpt lat="43.71902" lon="7.30764">
        <ele>302.655</ele>
        <time>2018-03-16T13:44:59Z</time>
      </trkpt>
      <trkpt lat="43.71902" lon="7.30764">
        <ele>302.202</ele>
        <time>2018-03-16T13:45:00Z</time>
      </trkpt>
      <trkpt lat="43.71902" lon="7.30764">
        <ele>302.171</ele>
        <time>2018-03-16T13:45:01Z</time>
      </trkpt>
      <trkpt lat="43.71901" lon="7.30766">
        <ele>302.236</ele>
        <time>2018-03-16T13:45:02Z</time>
      </trkpt>
      <trkpt lat="43.71901" lon="7.30769">
        <ele>301.951</ele>
        <time>2018-03-16T13:45:04Z</time>
      </trkpt>
      <trkpt lat="43.71904" lon="7.30772">
        <ele>302.615</ele>
        <time>2018-03-16T13:45:07Z</time>
      </trkpt>
      <trkpt lat="43.71906" lon="7.30777">
        <ele>302.393</ele>
        <time>2018-03-16T13:45:10Z</time>
      </trkpt>
      <trkpt lat="43.71906" lon="7.30777">
        <ele>302.744</ele>
        <time>2018-03-16T13:45:11Z</time>
      </trkpt>
      <trkpt lat="43.71906" lon="7.30777">
        <ele>302.695</ele>
        <time>2018-03-16T13:45:12Z</time>
      </trkpt>
      <trkpt lat="43.71906" lon="7.30777">
        <ele>302.502</ele>
        <time>2018-03-16T13:45:14Z</time>
      </trkpt>
      <trkpt lat="43.71907" lon="7.30779">
        <ele>302.623</ele>
        <time>2018-03-16T13:45:15Z</time>
      </trkpt>
      <trkpt lat="43.71908" lon="7.3078">
        <ele>302.382</ele>
        <time>2018-03-16T13:45:16Z</time>
      </trkpt>
      <trkpt lat="43.71909" lon="7.30783">
        <ele>302.754</ele>
        <time>2018-03-16T13:45:19Z</time>
      </trkpt>
      <trkpt lat="43.71913" lon="7.30786">
        <ele>302.796</ele>
        <time>2018-03-16T13:45:22Z</time>
      </trkpt>
      <trkpt lat="43.71916" lon="7.30789">
        <ele>302.957</ele>
        <time>2018-03-16T13:45:24Z</time>
      </trkpt>
      <trkpt lat="43.71919" lon="7.30791">
        <ele>303</ele>
        <time>2018-03-16T13:45:26Z</time>
      </trkpt>
      <trkpt lat="43.71922" lon="7.30793">
        <ele>303.175</ele>
        <time>2018-03-16T13:45:28Z</time>
      </trkpt>
      <trkpt lat="43.71924" lon="7.30796">
        <ele>303.283</ele>
        <time>2018-03-16T13:45:30Z</time>
      </trkpt>
      <trkpt lat="43.71928" lon="7.30803">
        <ele>303.435</ele>
        <time>2018-03-16T13:45:34Z</time>
      </trkpt>
      <trkpt lat="43.71931" lon="7.3081">
        <ele>303.731</ele>
        <time>2018-03-16T13:45:38Z</time>
      </trkpt>
      <trkpt lat="43.71933" lon="7.30815">
        <ele>304.111</ele>
        <time>2018-03-16T13:45:41Z</time>
      </trkpt>
      <trkpt lat="43.71937" lon="7.30825">
        <ele>304.719</ele>
        <time>2018-03-16T13:45:47Z</time>
      </trkpt>
      <trkpt lat="43.71939" lon="7.30829">
        <ele>304.98</ele>
        <time>2018-03-16T13:45:50Z</time>
      </trkpt>
      <trkpt lat="43.71941" lon="7.30835">
        <ele>305.036</ele>
        <time>2018-03-16T13:45:53Z</time>
      </trkpt>
      <trkpt lat="43.71941" lon="7.30844">
        <ele>304.574</ele>
        <time>2018-03-16T13:45:57Z</time>
      </trkpt>
      <trkpt lat="43.71942" lon="7.30857">
        <ele>305.56</ele>
        <time>2018-03-16T13:46:05Z</time>
      </trkpt>
      <trkpt lat="43.71941" lon="7.30863">
        <ele>305.427</ele>
        <time>2018-03-16T13:46:08Z</time>
      </trkpt>
      <trkpt lat="43.71939" lon="7.30876">
        <ele>306.732</ele>
        <time>2018-03-16T13:46:16Z</time>
      </trkpt>
      <trkpt lat="43.71939" lon="7.30876">
        <ele>306.732</ele>
        <time>2018-03-16T13:46:16Z</time>
      </trkpt>
      <trkpt lat="43.71939" lon="7.30876">
        <ele>306.734</ele>
        <time>2018-03-16T13:46:17Z</time>
      </trkpt>
      <trkpt lat="43.71939" lon="7.30876">
        <ele>306.734</ele>
        <time>2018-03-16T13:46:17Z</time>
      </trkpt>
      <trkpt lat="43.71938" lon="7.30876">
        <ele>306.639</ele>
        <time>2018-03-16T13:46:18Z</time>
      </trkpt>
      <trkpt lat="43.71938" lon="7.30876">
        <ele>306.639</ele>
        <time>2018-03-16T13:46:18Z</time>
      </trkpt>
      <trkpt lat="43.71938" lon="7.30876">
        <ele>306.608</ele>
        <time>2018-03-16T13:46:19Z</time>
      </trkpt>
      <trkpt lat="43.71938" lon="7.30876">
        <ele>306.435</ele>
        <time>2018-03-16T13:46:43Z</time>
      </trkpt>
      <trkpt lat="43.71937" lon="7.30877">
        <ele>306.582</ele>
        <time>2018-03-16T13:46:44Z</time>
      </trkpt>
      <trkpt lat="43.71935" lon="7.3088">
        <ele>306.954</ele>
        <time>2018-03-16T13:46:46Z</time>
      </trkpt>
      <trkpt lat="43.71928" lon="7.30895">
        <ele>307.107</ele>
        <time>2018-03-16T13:46:57Z</time>
      </trkpt>
      <trkpt lat="43.71927" lon="7.30895">
        <ele>307.195</ele>
        <time>2018-03-16T13:46:58Z</time>
      </trkpt>
      <trkpt lat="43.71927" lon="7.30895">
        <ele>307.298</ele>
        <time>2018-03-16T13:46:59Z</time>
      </trkpt>
      <trkpt lat="43.71926" lon="7.30897">
        <ele>307.143</ele>
        <time>2018-03-16T13:47:02Z</time>
      </trkpt>
      <trkpt lat="43.71923" lon="7.309">
        <ele>307.066</ele>
        <time>2018-03-16T13:47:04Z</time>
      </trkpt>
      <trkpt lat="43.71922" lon="7.30903">
        <ele>307.063</ele>
        <time>2018-03-16T13:47:05Z</time>
      </trkpt>
      <trkpt lat="43.7192" lon="7.30909">
        <ele>307.208</ele>
        <time>2018-03-16T13:47:08Z</time>
      </trkpt>
      <trkpt lat="43.71918" lon="7.30916">
        <ele>307.319</ele>
        <time>2018-03-16T13:47:11Z</time>
      </trkpt>
      <trkpt lat="43.71913" lon="7.30925">
        <ele>307.789</ele>
        <time>2018-03-16T13:47:17Z</time>
      </trkpt>
      <trkpt lat="43.7191" lon="7.30929">
        <ele>307.861</ele>
        <time>2018-03-16T13:47:20Z</time>
      </trkpt>
      <trkpt lat="43.71909" lon="7.30933">
        <ele>307.873</ele>
        <time>2018-03-16T13:47:23Z</time>
      </trkpt>
      <trkpt lat="43.71909" lon="7.30936">
        <ele>308.089</ele>
        <time>2018-03-16T13:47:25Z</time>
      </trkpt>
      <trkpt lat="43.71908" lon="7.30937">
        <ele>308.173</ele>
        <time>2018-03-16T13:47:26Z</time>
      </trkpt>
      <trkpt lat="43.71908" lon="7.30942">
        <ele>307.989</ele>
        <time>2018-03-16T13:47:29Z</time>
      </trkpt>
      <trkpt lat="43.71908" lon="7.30948">
        <ele>308.403</ele>
        <time>2018-03-16T13:47:32Z</time>
      </trkpt>
      <trkpt lat="43.71908" lon="7.30954">
        <ele>308.139</ele>
        <time>2018-03-16T13:47:34Z</time>
      </trkpt>
      <trkpt lat="43.71905" lon="7.30965">
        <ele>307.894</ele>
        <time>2018-03-16T13:47:39Z</time>
      </trkpt>
      <trkpt lat="43.71885" lon="7.30995">
        <ele>309.448</ele>
        <time>2018-03-16T13:47:59Z</time>
      </trkpt>
      <trkpt lat="43.71883" lon="7.30997">
        <ele>309.773</ele>
        <time>2018-03-16T13:48:01Z</time>
      </trkpt>
      <trkpt lat="43.71875" lon="7.31005">
        <ele>310.031</ele>
        <time>2018-03-16T13:48:07Z</time>
      </trkpt>
      <trkpt lat="43.71871" lon="7.31007">
        <ele>310.264</ele>
        <time>2018-03-16T13:48:10Z</time>
      </trkpt>
      <trkpt lat="43.71866" lon="7.31009">
        <ele>310.407</ele>
        <time>2018-03-16T13:48:14Z</time>
      </trkpt>
      <trkpt lat="43.7185" lon="7.31019">
        <ele>310.868</ele>
        <time>2018-03-16T13:48:25Z</time>
      </trkpt>
      <trkpt lat="43.71847" lon="7.3102">
        <ele>311.459</ele>
        <time>2018-03-16T13:48:27Z</time>
      </trkpt>
      <trkpt lat="43.71842" lon="7.31022">
        <ele>311.595</ele>
        <time>2018-03-16T13:48:31Z</time>
      </trkpt>
      <trkpt lat="43.71832" lon="7.31026">
        <ele>312.936</ele>
        <time>2018-03-16T13:48:40Z</time>
      </trkpt>
      <trkpt lat="43.71828" lon="7.31029">
        <ele>312.884</ele>
        <time>2018-03-16T13:48:43Z</time>
      </trkpt>
      <trkpt lat="43.71819" lon="7.31032">
        <ele>313.294</ele>
        <time>2018-03-16T13:48:49Z</time>
      </trkpt>
      <trkpt lat="43.71815" lon="7.31031">
        <ele>313.794</ele>
        <time>2018-03-16T13:48:52Z</time>
      </trkpt>
      <trkpt lat="43.71811" lon="7.31032">
        <ele>314.411</ele>
        <time>2018-03-16T13:48:55Z</time>
      </trkpt>
      <trkpt lat="43.71809" lon="7.31033">
        <ele>314.585</ele>
        <time>2018-03-16T13:48:57Z</time>
      </trkpt>
      <trkpt lat="43.71805" lon="7.31034">
        <ele>314.734</ele>
        <time>2018-03-16T13:48:59Z</time>
      </trkpt>
      <trkpt lat="43.71804" lon="7.31035">
        <ele>314.765</ele>
        <time>2018-03-16T13:49:01Z</time>
      </trkpt>
      <trkpt lat="43.71804" lon="7.31035">
        <ele>314.953</ele>
        <time>2018-03-16T13:49:02Z</time>
      </trkpt>
      <trkpt lat="43.71804" lon="7.31035">
        <ele>314.953</ele>
        <time>2018-03-16T13:49:02Z</time>
      </trkpt>
      <trkpt lat="43.71803" lon="7.31036">
        <ele>314.717</ele>
        <time>2018-03-16T13:49:03Z</time>
      </trkpt>
      <trkpt lat="43.71802" lon="7.31036">
        <ele>314.964</ele>
        <time>2018-03-16T13:49:05Z</time>
      </trkpt>
      <trkpt lat="43.71799" lon="7.31038">
        <ele>314.728</ele>
        <time>2018-03-16T13:49:07Z</time>
      </trkpt>
      <trkpt lat="43.71796" lon="7.3104">
        <ele>315.052</ele>
        <time>2018-03-16T13:49:09Z</time>
      </trkpt>
      <trkpt lat="43.71792" lon="7.31042">
        <ele>314.509</ele>
        <time>2018-03-16T13:49:12Z</time>
      </trkpt>
      <trkpt lat="43.7179" lon="7.31045">
        <ele>314.251</ele>
        <time>2018-03-16T13:49:14Z</time>
      </trkpt>
      <trkpt lat="43.71788" lon="7.31047">
        <ele>314.732</ele>
        <time>2018-03-16T13:49:16Z</time>
      </trkpt>
      <trkpt lat="43.71785" lon="7.31048">
        <ele>314.45</ele>
        <time>2018-03-16T13:49:18Z</time>
      </trkpt>
      <trkpt lat="43.71776" lon="7.31049">
        <ele>315.627</ele>
        <time>2018-03-16T13:49:24Z</time>
      </trkpt>
      <trkpt lat="43.71774" lon="7.31048">
        <ele>315.648</ele>
        <time>2018-03-16T13:49:26Z</time>
      </trkpt>
      <trkpt lat="43.7177" lon="7.31047">
        <ele>316.742</ele>
        <time>2018-03-16T13:49:29Z</time>
      </trkpt>
      <trkpt lat="43.71766" lon="7.31047">
        <ele>316.964</ele>
        <time>2018-03-16T13:49:32Z</time>
      </trkpt>
      <trkpt lat="43.71756" lon="7.31052">
        <ele>317.654</ele>
        <time>2018-03-16T13:49:41Z</time>
      </trkpt>
      <trkpt lat="43.71745" lon="7.31056">
        <ele>318.421</ele>
        <time>2018-03-16T13:49:49Z</time>
      </trkpt>
      <trkpt lat="43.7173" lon="7.31061">
        <ele>318.913</ele>
        <time>2018-03-16T13:50:00Z</time>
      </trkpt>
      <trkpt lat="43.71727" lon="7.31061">
        <ele>318.989</ele>
        <time>2018-03-16T13:50:03Z</time>
      </trkpt>
      <trkpt lat="43.71726" lon="7.31061">
        <ele>319.191</ele>
        <time>2018-03-16T13:50:04Z</time>
      </trkpt>
      <trkpt lat="43.71723" lon="7.31062">
        <ele>319.503</ele>
        <time>2018-03-16T13:50:07Z</time>
      </trkpt>
      <trkpt lat="43.71721" lon="7.31065">
        <ele>320.149</ele>
        <time>2018-03-16T13:50:10Z</time>
      </trkpt>
      <trkpt lat="43.71721" lon="7.31065">
        <ele>320.149</ele>
        <time>2018-03-16T13:50:10Z</time>
      </trkpt>
      <trkpt lat="43.71721" lon="7.31065">
        <ele>320.045</ele>
        <time>2018-03-16T13:50:11Z</time>
      </trkpt>
      <trkpt lat="43.71721" lon="7.31065">
        <ele>320.045</ele>
        <time>2018-03-16T13:50:11Z</time>
      </trkpt>
      <trkpt lat="43.71722" lon="7.31065">
        <ele>319.952</ele>
        <time>2018-03-16T13:50:12Z</time>
      </trkpt>
      <trkpt lat="43.71722" lon="7.31065">
        <ele>319.89</ele>
        <time>2018-03-16T13:50:13Z</time>
      </trkpt>
      <trkpt lat="43.71722" lon="7.31065">
        <ele>319.69</ele>
        <time>2018-03-16T13:50:14Z</time>
      </trkpt>
      <trkpt lat="43.71722" lon="7.31065">
        <ele>319.647</ele>
        <time>2018-03-16T13:50:15Z</time>
      </trkpt>
      <trkpt lat="43.71722" lon="7.31065">
        <ele>319.826</ele>
        <time>2018-03-16T13:50:16Z</time>
      </trkpt>
      <trkpt lat="43.71722" lon="7.31065">
        <ele>319.824</ele>
        <time>2018-03-16T13:50:18Z</time>
      </trkpt>
      <trkpt lat="43.71721" lon="7.31065">
        <ele>319.773</ele>
        <time>2018-03-16T13:50:19Z</time>
      </trkpt>
      <trkpt lat="43.7172" lon="7.31066">
        <ele>320.042</ele>
        <time>2018-03-16T13:50:20Z</time>
      </trkpt>
      <trkpt lat="43.71716" lon="7.31069">
        <ele>320.257</ele>
        <time>2018-03-16T13:50:23Z</time>
      </trkpt>
      <trkpt lat="43.71714" lon="7.31074">
        <ele>320.436</ele>
        <time>2018-03-16T13:50:25Z</time>
      </trkpt>
      <trkpt lat="43.71712" lon="7.31079">
        <ele>320.673</ele>
        <time>2018-03-16T13:50:27Z</time>
      </trkpt>
      <trkpt lat="43.71709" lon="7.31085">
        <ele>320.744</ele>
        <time>2018-03-16T13:50:30Z</time>
      </trkpt>
      <trkpt lat="43.71701" lon="7.31114">
        <ele>322.14</ele>
        <time>2018-03-16T13:50:45Z</time>
      </trkpt>
      <trkpt lat="43.71699" lon="7.31117">
        <ele>322.26</ele>
        <time>2018-03-16T13:50:47Z</time>
      </trkpt>
      <trkpt lat="43.71697" lon="7.31119">
        <ele>322.327</ele>
        <time>2018-03-16T13:50:48Z</time>
      </trkpt>
      <trkpt lat="43.71691" lon="7.31129">
        <ele>322.562</ele>
        <time>2018-03-16T13:50:55Z</time>
      </trkpt>
      <trkpt lat="43.71691" lon="7.31133">
        <ele>322.585</ele>
        <time>2018-03-16T13:50:57Z</time>
      </trkpt>
      <trkpt lat="43.71692" lon="7.31139">
        <ele>322.666</ele>
        <time>2018-03-16T13:51:00Z</time>
      </trkpt>
      <trkpt lat="43.71691" lon="7.31167">
        <ele>324.554</ele>
        <time>2018-03-16T13:51:15Z</time>
      </trkpt>
      <trkpt lat="43.71691" lon="7.31172">
        <ele>324.209</ele>
        <time>2018-03-16T13:51:17Z</time>
      </trkpt>
      <trkpt lat="43.71692" lon="7.31176">
        <ele>324.742</ele>
        <time>2018-03-16T13:51:19Z</time>
      </trkpt>
      <trkpt lat="43.71692" lon="7.31181">
        <ele>324.929</ele>
        <time>2018-03-16T13:51:22Z</time>
      </trkpt>
      <trkpt lat="43.71691" lon="7.31187">
        <ele>324.98</ele>
        <time>2018-03-16T13:51:25Z</time>
      </trkpt>
      <trkpt lat="43.7169" lon="7.31204">
        <ele>325.043</ele>
        <time>2018-03-16T13:51:34Z</time>
      </trkpt>
      <trkpt lat="43.71686" lon="7.31214">
        <ele>326.069</ele>
        <time>2018-03-16T13:51:39Z</time>
      </trkpt>
      <trkpt lat="43.71686" lon="7.31219">
        <ele>325.808</ele>
        <time>2018-03-16T13:51:42Z</time>
      </trkpt>
      <trkpt lat="43.71686" lon="7.31223">
        <ele>325.745</ele>
        <time>2018-03-16T13:51:45Z</time>
      </trkpt>
      <trkpt lat="43.71686" lon="7.31228">
        <ele>325.65</ele>
        <time>2018-03-16T13:51:48Z</time>
      </trkpt>
      <trkpt lat="43.71685" lon="7.31234">
        <ele>325.822</ele>
        <time>2018-03-16T13:51:51Z</time>
      </trkpt>
      <trkpt lat="43.71683" lon="7.31239">
        <ele>325.849</ele>
        <time>2018-03-16T13:51:54Z</time>
      </trkpt>
      <trkpt lat="43.71672" lon="7.3126">
        <ele>326.619</ele>
        <time>2018-03-16T13:52:08Z</time>
      </trkpt>
      <trkpt lat="43.71669" lon="7.31264">
        <ele>326.191</ele>
        <time>2018-03-16T13:52:12Z</time>
      </trkpt>
      <trkpt lat="43.71668" lon="7.31266">
        <ele>326.121</ele>
        <time>2018-03-16T13:52:14Z</time>
      </trkpt>
      <trkpt lat="43.71668" lon="7.31266">
        <ele>326.435</ele>
        <time>2018-03-16T13:52:15Z</time>
      </trkpt>
      <trkpt lat="43.71668" lon="7.31266">
        <ele>326.05</ele>
        <time>2018-03-16T13:52:16Z</time>
      </trkpt>
      <trkpt lat="43.71667" lon="7.31266">
        <ele>325.75</ele>
        <time>2018-03-16T13:52:17Z</time>
      </trkpt>
      <trkpt lat="43.71666" lon="7.31266">
        <ele>325.529</ele>
        <time>2018-03-16T13:52:18Z</time>
      </trkpt>
      <trkpt lat="43.71666" lon="7.31266">
        <ele>325.751</ele>
        <time>2018-03-16T13:52:19Z</time>
      </trkpt>
      <trkpt lat="43.71663" lon="7.31268">
        <ele>325.574</ele>
        <time>2018-03-16T13:52:22Z</time>
      </trkpt>
      <trkpt lat="43.71663" lon="7.31268">
        <ele>325.743</ele>
        <time>2018-03-16T13:52:24Z</time>
      </trkpt>
      <trkpt lat="43.71663" lon="7.31269">
        <ele>325.621</ele>
        <time>2018-03-16T13:52:25Z</time>
      </trkpt>
      <trkpt lat="43.71663" lon="7.31269">
        <ele>325.559</ele>
        <time>2018-03-16T13:52:27Z</time>
      </trkpt>
      <trkpt lat="43.71663" lon="7.31269">
        <ele>325.535</ele>
        <time>2018-03-16T13:52:40Z</time>
      </trkpt>
      <trkpt lat="43.71663" lon="7.3127">
        <ele>325.737</ele>
        <time>2018-03-16T13:52:41Z</time>
      </trkpt>
      <trkpt lat="43.71662" lon="7.31271">
        <ele>325.753</ele>
        <time>2018-03-16T13:52:42Z</time>
      </trkpt>
      <trkpt lat="43.71662" lon="7.31275">
        <ele>325.664</ele>
        <time>2018-03-16T13:52:44Z</time>
      </trkpt>
      <trkpt lat="43.71662" lon="7.31286">
        <ele>325.074</ele>
        <time>2018-03-16T13:52:49Z</time>
      </trkpt>
      <trkpt lat="43.71664" lon="7.31295">
        <ele>324.055</ele>
        <time>2018-03-16T13:52:54Z</time>
      </trkpt>
      <trkpt lat="43.71666" lon="7.31299">
        <ele>324.236</ele>
        <time>2018-03-16T13:52:57Z</time>
      </trkpt>
      <trkpt lat="43.71666" lon="7.31299">
        <ele>324.443</ele>
        <time>2018-03-16T13:52:58Z</time>
      </trkpt>
      <trkpt lat="43.71666" lon="7.31299">
        <ele>324.443</ele>
        <time>2018-03-16T13:52:58Z</time>
      </trkpt>
      <trkpt lat="43.71666" lon="7.31299">
        <ele>324.294</ele>
        <time>2018-03-16T13:52:59Z</time>
      </trkpt>
      <trkpt lat="43.71666" lon="7.31301">
        <ele>324.15</ele>
        <time>2018-03-16T13:53:01Z</time>
      </trkpt>
      <trkpt lat="43.71666" lon="7.31304">
        <ele>324.133</ele>
        <time>2018-03-16T13:53:03Z</time>
      </trkpt>
      <trkpt lat="43.71666" lon="7.31304">
        <ele>324.399</ele>
        <time>2018-03-16T13:53:13Z</time>
      </trkpt>
      <trkpt lat="43.71666" lon="7.31305">
        <ele>323.805</ele>
        <time>2018-03-16T13:53:14Z</time>
      </trkpt>
      <trkpt lat="43.71666" lon="7.31305">
        <ele>323.805</ele>
        <time>2018-03-16T13:53:14Z</time>
      </trkpt>
      <trkpt lat="43.71665" lon="7.31305">
        <ele>324.546</ele>
        <time>2018-03-16T13:53:15Z</time>
      </trkpt>
      <trkpt lat="43.71665" lon="7.31305">
        <ele>324.489</ele>
        <time>2018-03-16T13:53:16Z</time>
      </trkpt>
      <trkpt lat="43.71665" lon="7.31305">
        <ele>325.166</ele>
        <time>2018-03-16T13:53:59Z</time>
      </trkpt>
      <trkpt lat="43.71664" lon="7.31306">
        <ele>325.144</ele>
        <time>2018-03-16T13:54:00Z</time>
      </trkpt>
      <trkpt lat="43.71664" lon="7.31307">
        <ele>325.034</ele>
        <time>2018-03-16T13:54:01Z</time>
      </trkpt>
      <trkpt lat="43.71664" lon="7.31312">
        <ele>324.817</ele>
        <time>2018-03-16T13:54:04Z</time>
      </trkpt>
      <trkpt lat="43.71662" lon="7.3132">
        <ele>324.125</ele>
        <time>2018-03-16T13:54:09Z</time>
      </trkpt>
      <trkpt lat="43.7166" lon="7.31329">
        <ele>323.916</ele>
        <time>2018-03-16T13:54:13Z</time>
      </trkpt>
      <trkpt lat="43.71658" lon="7.31333">
        <ele>323.09</ele>
        <time>2018-03-16T13:54:15Z</time>
      </trkpt>
      <trkpt lat="43.71655" lon="7.31347">
        <ele>322.117</ele>
        <time>2018-03-16T13:54:21Z</time>
      </trkpt>
      <trkpt lat="43.71656" lon="7.31354">
        <ele>321.331</ele>
        <time>2018-03-16T13:54:24Z</time>
      </trkpt>
      <trkpt lat="43.71656" lon="7.31363">
        <ele>321.49</ele>
        <time>2018-03-16T13:54:29Z</time>
      </trkpt>
      <trkpt lat="43.71654" lon="7.31377">
        <ele>320.041</ele>
        <time>2018-03-16T13:54:35Z</time>
      </trkpt>
      <trkpt lat="43.71654" lon="7.31382">
        <ele>319.968</ele>
        <time>2018-03-16T13:54:37Z</time>
      </trkpt>
      <trkpt lat="43.71655" lon="7.31388">
        <ele>320.055</ele>
        <time>2018-03-16T13:54:40Z</time>
      </trkpt>
      <trkpt lat="43.71655" lon="7.3139">
        <ele>319.596</ele>
        <time>2018-03-16T13:54:41Z</time>
      </trkpt>
      <trkpt lat="43.71654" lon="7.31414">
        <ele>318.225</ele>
        <time>2018-03-16T13:54:51Z</time>
      </trkpt>
      <trkpt lat="43.71655" lon="7.31422">
        <ele>318.277</ele>
        <time>2018-03-16T13:54:55Z</time>
      </trkpt>
      <trkpt lat="43.71654" lon="7.31438">
        <ele>317.151</ele>
        <time>2018-03-16T13:55:01Z</time>
      </trkpt>
      <trkpt lat="43.71656" lon="7.31444">
        <ele>316.993</ele>
        <time>2018-03-16T13:55:04Z</time>
      </trkpt>
      <trkpt lat="43.71655" lon="7.31448">
        <ele>316.36</ele>
        <time>2018-03-16T13:55:07Z</time>
      </trkpt>
      <trkpt lat="43.71655" lon="7.31454">
        <ele>315.526</ele>
        <time>2018-03-16T13:55:10Z</time>
      </trkpt>
      <trkpt lat="43.71655" lon="7.31458">
        <ele>315.665</ele>
        <time>2018-03-16T13:55:12Z</time>
      </trkpt>
      <trkpt lat="43.71653" lon="7.31462">
        <ele>316.118</ele>
        <time>2018-03-16T13:55:14Z</time>
      </trkpt>
      <trkpt lat="43.71652" lon="7.31467">
        <ele>316.072</ele>
        <time>2018-03-16T13:55:16Z</time>
      </trkpt>
      <trkpt lat="43.71648" lon="7.31472">
        <ele>316.141</ele>
        <time>2018-03-16T13:55:19Z</time>
      </trkpt>
      <trkpt lat="43.71647" lon="7.31476">
        <ele>315.182</ele>
        <time>2018-03-16T13:55:21Z</time>
      </trkpt>
      <trkpt lat="43.71647" lon="7.31479">
        <ele>314.872</ele>
        <time>2018-03-16T13:55:23Z</time>
      </trkpt>
      <trkpt lat="43.71647" lon="7.31487">
        <ele>314.324</ele>
        <time>2018-03-16T13:55:26Z</time>
      </trkpt>
      <trkpt lat="43.71646" lon="7.31494">
        <ele>313.808</ele>
        <time>2018-03-16T13:55:29Z</time>
      </trkpt>
      <trkpt lat="43.71641" lon="7.31507">
        <ele>313.298</ele>
        <time>2018-03-16T13:55:35Z</time>
      </trkpt>
      <trkpt lat="43.7164" lon="7.3151">
        <ele>312.925</ele>
        <time>2018-03-16T13:55:37Z</time>
      </trkpt>
      <trkpt lat="43.71639" lon="7.31514">
        <ele>312.64</ele>
        <time>2018-03-16T13:55:39Z</time>
      </trkpt>
      <trkpt lat="43.71638" lon="7.31519">
        <ele>312.561</ele>
        <time>2018-03-16T13:55:41Z</time>
      </trkpt>
      <trkpt lat="43.71637" lon="7.31524">
        <ele>312.324</ele>
        <time>2018-03-16T13:55:44Z</time>
      </trkpt>
      <trkpt lat="43.71637" lon="7.31533">
        <ele>311.753</ele>
        <time>2018-03-16T13:55:47Z</time>
      </trkpt>
      <trkpt lat="43.71634" lon="7.31552">
        <ele>311.337</ele>
        <time>2018-03-16T13:55:55Z</time>
      </trkpt>
      <trkpt lat="43.71634" lon="7.31556">
        <ele>310.917</ele>
        <time>2018-03-16T13:55:57Z</time>
      </trkpt>
      <trkpt lat="43.71633" lon="7.3156">
        <ele>311.444</ele>
        <time>2018-03-16T13:55:59Z</time>
      </trkpt>
      <trkpt lat="43.71633" lon="7.31568">
        <ele>311.089</ele>
        <time>2018-03-16T13:56:03Z</time>
      </trkpt>
      <trkpt lat="43.71633" lon="7.3158">
        <ele>311.513</ele>
        <time>2018-03-16T13:56:09Z</time>
      </trkpt>
      <trkpt lat="43.71634" lon="7.31585">
        <ele>311.488</ele>
        <time>2018-03-16T13:56:11Z</time>
      </trkpt>
      <trkpt lat="43.71634" lon="7.31592">
        <ele>310.068</ele>
        <time>2018-03-16T13:56:14Z</time>
      </trkpt>
      <trkpt lat="43.71633" lon="7.316">
        <ele>309.589</ele>
        <time>2018-03-16T13:56:18Z</time>
      </trkpt>
      <trkpt lat="43.71633" lon="7.31608">
        <ele>309.88</ele>
        <time>2018-03-16T13:56:21Z</time>
      </trkpt>
      <trkpt lat="43.71632" lon="7.31612">
        <ele>309.419</ele>
        <time>2018-03-16T13:56:23Z</time>
      </trkpt>
      <trkpt lat="43.71625" lon="7.3163">
        <ele>307.757</ele>
        <time>2018-03-16T13:56:31Z</time>
      </trkpt>
      <trkpt lat="43.71623" lon="7.31636">
        <ele>307.933</ele>
        <time>2018-03-16T13:56:34Z</time>
      </trkpt>
      <trkpt lat="43.71622" lon="7.31645">
        <ele>307.437</ele>
        <time>2018-03-16T13:56:38Z</time>
      </trkpt>
      <trkpt lat="43.71621" lon="7.31651">
        <ele>307.546</ele>
        <time>2018-03-16T13:56:40Z</time>
      </trkpt>
      <trkpt lat="43.71615" lon="7.31663">
        <ele>306.731</ele>
        <time>2018-03-16T13:56:46Z</time>
      </trkpt>
      <trkpt lat="43.71613" lon="7.31667">
        <ele>306.086</ele>
        <time>2018-03-16T13:56:48Z</time>
      </trkpt>
      <trkpt lat="43.71602" lon="7.31692">
        <ele>304.97</ele>
        <time>2018-03-16T13:57:03Z</time>
      </trkpt>
      <trkpt lat="43.71596" lon="7.31715">
        <ele>302.683</ele>
        <time>2018-03-16T13:57:15Z</time>
      </trkpt>
      <trkpt lat="43.71596" lon="7.31715">
        <ele>303.602</ele>
        <time>2018-03-16T13:57:17Z</time>
      </trkpt>
      <trkpt lat="43.71596" lon="7.31715">
        <ele>303.602</ele>
        <time>2018-03-16T13:57:17Z</time>
      </trkpt>
      <trkpt lat="43.71596" lon="7.31715">
        <ele>303.438</ele>
        <time>2018-03-16T13:57:18Z</time>
      </trkpt>
      <trkpt lat="43.71596" lon="7.31715">
        <ele>303.384</ele>
        <time>2018-03-16T13:57:19Z</time>
      </trkpt>
      <trkpt lat="43.71597" lon="7.31715">
        <ele>303.28</ele>
        <time>2018-03-16T13:57:20Z</time>
      </trkpt>
      <trkpt lat="43.71597" lon="7.31716">
        <ele>303.29</ele>
        <time>2018-03-16T13:57:21Z</time>
      </trkpt>
      <trkpt lat="43.71594" lon="7.3172">
        <ele>302.694</ele>
        <time>2018-03-16T13:57:24Z</time>
      </trkpt>
      <trkpt lat="43.71593" lon="7.31728">
        <ele>302.453</ele>
        <time>2018-03-16T13:57:30Z</time>
      </trkpt>
      <trkpt lat="43.71592" lon="7.31728">
        <ele>302.589</ele>
        <time>2018-03-16T13:57:31Z</time>
      </trkpt>
      <trkpt lat="43.71592" lon="7.31728">
        <ele>302.486</ele>
        <time>2018-03-16T13:57:32Z</time>
      </trkpt>
      <trkpt lat="43.71587" lon="7.31726">
        <ele>302.667</ele>
        <time>2018-03-16T13:57:35Z</time>
      </trkpt>
      <trkpt lat="43.71584" lon="7.31723">
        <ele>302.495</ele>
        <time>2018-03-16T13:57:38Z</time>
      </trkpt>
      <trkpt lat="43.71583" lon="7.31728">
        <ele>301.828</ele>
        <time>2018-03-16T13:57:43Z</time>
      </trkpt>
      <trkpt lat="43.71584" lon="7.31733">
        <ele>301.486</ele>
        <time>2018-03-16T13:57:45Z</time>
      </trkpt>
      <trkpt lat="43.71582" lon="7.31756">
        <ele>301.014</ele>
        <time>2018-03-16T13:57:55Z</time>
      </trkpt>
      <trkpt lat="43.7158" lon="7.31761">
        <ele>300.626</ele>
        <time>2018-03-16T13:57:57Z</time>
      </trkpt>
      <trkpt lat="43.71576" lon="7.31779">
        <ele>300.616</ele>
        <time>2018-03-16T13:58:05Z</time>
      </trkpt>
      <trkpt lat="43.71574" lon="7.31786">
        <ele>299.585</ele>
        <time>2018-03-16T13:58:09Z</time>
      </trkpt>
      <trkpt lat="43.71572" lon="7.3179">
        <ele>299.236</ele>
        <time>2018-03-16T13:58:11Z</time>
      </trkpt>
      <trkpt lat="43.71564" lon="7.31821">
        <ele>299.359</ele>
        <time>2018-03-16T13:58:26Z</time>
      </trkpt>
      <trkpt lat="43.71565" lon="7.3183">
        <ele>299.029</ele>
        <time>2018-03-16T13:58:31Z</time>
      </trkpt>
      <trkpt lat="43.71561" lon="7.31851">
        <ele>298.579</ele>
        <time>2018-03-16T13:58:41Z</time>
      </trkpt>
      <trkpt lat="43.71561" lon="7.31856">
        <ele>298.395</ele>
        <time>2018-03-16T13:58:43Z</time>
      </trkpt>
      <trkpt lat="43.71559" lon="7.31863">
        <ele>298.129</ele>
        <time>2018-03-16T13:58:46Z</time>
      </trkpt>
      <trkpt lat="43.71558" lon="7.31867">
        <ele>297.622</ele>
        <time>2018-03-16T13:58:48Z</time>
      </trkpt>
      <trkpt lat="43.71558" lon="7.31872">
        <ele>297.25</ele>
        <time>2018-03-16T13:58:50Z</time>
      </trkpt>
      <trkpt lat="43.71556" lon="7.31878">
        <ele>297.078</ele>
        <time>2018-03-16T13:58:53Z</time>
      </trkpt>
      <trkpt lat="43.71554" lon="7.31884">
        <ele>297.098</ele>
        <time>2018-03-16T13:58:56Z</time>
      </trkpt>
      <trkpt lat="43.71553" lon="7.31906">
        <ele>295.856</ele>
        <time>2018-03-16T13:59:05Z</time>
      </trkpt>
      <trkpt lat="43.71553" lon="7.31907">
        <ele>295.735</ele>
        <time>2018-03-16T13:59:06Z</time>
      </trkpt>
      <trkpt lat="43.71553" lon="7.31922">
        <ele>294.85</ele>
        <time>2018-03-16T13:59:13Z</time>
      </trkpt>
      <trkpt lat="43.71549" lon="7.31937">
        <ele>294.32</ele>
        <time>2018-03-16T13:59:19Z</time>
      </trkpt>
      <trkpt lat="43.71546" lon="7.3195">
        <ele>293.978</ele>
        <time>2018-03-16T13:59:24Z</time>
      </trkpt>
      <trkpt lat="43.71545" lon="7.31954">
        <ele>293.854</ele>
        <time>2018-03-16T13:59:26Z</time>
      </trkpt>
      <trkpt lat="43.71544" lon="7.31961">
        <ele>293.316</ele>
        <time>2018-03-16T13:59:29Z</time>
      </trkpt>
      <trkpt lat="43.71537" lon="7.31985">
        <ele>291.055</ele>
        <time>2018-03-16T13:59:41Z</time>
      </trkpt>
      <trkpt lat="43.71534" lon="7.31994">
        <ele>291.651</ele>
        <time>2018-03-16T13:59:45Z</time>
      </trkpt>
      <trkpt lat="43.71532" lon="7.32">
        <ele>290.587</ele>
        <time>2018-03-16T13:59:48Z</time>
      </trkpt>
      <trkpt lat="43.71521" lon="7.32033">
        <ele>289.004</ele>
        <time>2018-03-16T14:00:03Z</time>
      </trkpt>
      <trkpt lat="43.71518" lon="7.32039">
        <ele>288.899</ele>
        <time>2018-03-16T14:00:08Z</time>
      </trkpt>
      <trkpt lat="43.71518" lon="7.32039">
        <ele>288.74</ele>
        <time>2018-03-16T14:00:09Z</time>
      </trkpt>
      <trkpt lat="43.71518" lon="7.32039">
        <ele>288.592</ele>
        <time>2018-03-16T14:00:10Z</time>
      </trkpt>
      <trkpt lat="43.71517" lon="7.3204">
        <ele>288.731</ele>
        <time>2018-03-16T14:00:11Z</time>
      </trkpt>
      <trkpt lat="43.71514" lon="7.32043">
        <ele>288.626</ele>
        <time>2018-03-16T14:00:13Z</time>
      </trkpt>
      <trkpt lat="43.71513" lon="7.32047">
        <ele>288.035</ele>
        <time>2018-03-16T14:00:15Z</time>
      </trkpt>
      <trkpt lat="43.71512" lon="7.32049">
        <ele>287.445</ele>
        <time>2018-03-16T14:00:16Z</time>
      </trkpt>
      <trkpt lat="43.7151" lon="7.32055">
        <ele>287.943</ele>
        <time>2018-03-16T14:00:19Z</time>
      </trkpt>
      <trkpt lat="43.71509" lon="7.32057">
        <ele>288.056</ele>
        <time>2018-03-16T14:00:20Z</time>
      </trkpt>
      <trkpt lat="43.71506" lon="7.32062">
        <ele>287.709</ele>
        <time>2018-03-16T14:00:23Z</time>
      </trkpt>
      <trkpt lat="43.71503" lon="7.32065">
        <ele>286.957</ele>
        <time>2018-03-16T14:00:26Z</time>
      </trkpt>
      <trkpt lat="43.71501" lon="7.32069">
        <ele>287.105</ele>
        <time>2018-03-16T14:00:29Z</time>
      </trkpt>
      <trkpt lat="43.715" lon="7.32072">
        <ele>287.275</ele>
        <time>2018-03-16T14:00:30Z</time>
      </trkpt>
      <trkpt lat="43.71498" lon="7.32079">
        <ele>286.708</ele>
        <time>2018-03-16T14:00:33Z</time>
      </trkpt>
      <trkpt lat="43.71496" lon="7.32083">
        <ele>286.43</ele>
        <time>2018-03-16T14:00:37Z</time>
      </trkpt>
      <trkpt lat="43.71494" lon="7.3209">
        <ele>285.589</ele>
        <time>2018-03-16T14:00:41Z</time>
      </trkpt>
      <trkpt lat="43.71492" lon="7.32097">
        <ele>284.988</ele>
        <time>2018-03-16T14:00:45Z</time>
      </trkpt>
      <trkpt lat="43.71491" lon="7.32101">
        <ele>285.138</ele>
        <time>2018-03-16T14:00:47Z</time>
      </trkpt>
      <trkpt lat="43.71491" lon="7.32102">
        <ele>285.239</ele>
        <time>2018-03-16T14:00:48Z</time>
      </trkpt>
      <trkpt lat="43.71491" lon="7.32103">
        <ele>285.481</ele>
        <time>2018-03-16T14:00:49Z</time>
      </trkpt>
      <trkpt lat="43.71489" lon="7.32103">
        <ele>285.805</ele>
        <time>2018-03-16T14:00:51Z</time>
      </trkpt>
      <trkpt lat="43.71487" lon="7.32104">
        <ele>284.314</ele>
        <time>2018-03-16T14:00:54Z</time>
      </trkpt>
      <trkpt lat="43.71486" lon="7.32107">
        <ele>284.241</ele>
        <time>2018-03-16T14:00:56Z</time>
      </trkpt>
      <trkpt lat="43.71486" lon="7.32108">
        <ele>284.328</ele>
        <time>2018-03-16T14:00:58Z</time>
      </trkpt>
      <trkpt lat="43.71486" lon="7.32108">
        <ele>284.328</ele>
        <time>2018-03-16T14:00:58Z</time>
      </trkpt>
      <trkpt lat="43.71485" lon="7.32111">
        <ele>284.418</ele>
        <time>2018-03-16T14:00:59Z</time>
      </trkpt>
      <trkpt lat="43.71485" lon="7.32113">
        <ele>284.192</ele>
        <time>2018-03-16T14:01:00Z</time>
      </trkpt>
      <trkpt lat="43.71485" lon="7.32115">
        <ele>284.544</ele>
        <time>2018-03-16T14:01:01Z</time>
      </trkpt>
      <trkpt lat="43.71484" lon="7.32118">
        <ele>284.207</ele>
        <time>2018-03-16T14:01:04Z</time>
      </trkpt>
      <trkpt lat="43.71484" lon="7.32119">
        <ele>283.637</ele>
        <time>2018-03-16T14:01:05Z</time>
      </trkpt>
      <trkpt lat="43.71484" lon="7.3212">
        <ele>283.679</ele>
        <time>2018-03-16T14:01:06Z</time>
      </trkpt>
      <trkpt lat="43.71483" lon="7.32125">
        <ele>283.735</ele>
        <time>2018-03-16T14:01:08Z</time>
      </trkpt>
      <trkpt lat="43.71482" lon="7.32134">
        <ele>283.317</ele>
        <time>2018-03-16T14:01:10Z</time>
      </trkpt>
      <trkpt lat="43.7148" lon="7.32148">
        <ele>282.584</ele>
        <time>2018-03-16T14:01:14Z</time>
      </trkpt>
      <trkpt lat="43.71478" lon="7.32151">
        <ele>282.853</ele>
        <time>2018-03-16T14:01:16Z</time>
      </trkpt>
      <trkpt lat="43.71476" lon="7.32153">
        <ele>282.549</ele>
        <time>2018-03-16T14:01:18Z</time>
      </trkpt>
      <trkpt lat="43.71472" lon="7.32156">
        <ele>282.522</ele>
        <time>2018-03-16T14:01:20Z</time>
      </trkpt>
      <trkpt lat="43.71469" lon="7.32159">
        <ele>281.997</ele>
        <time>2018-03-16T14:01:22Z</time>
      </trkpt>
      <trkpt lat="43.71463" lon="7.32161">
        <ele>281.481</ele>
        <time>2018-03-16T14:01:26Z</time>
      </trkpt>
      <trkpt lat="43.7146" lon="7.32163">
        <ele>281.872</ele>
        <time>2018-03-16T14:01:28Z</time>
      </trkpt>
      <trkpt lat="43.71457" lon="7.32165">
        <ele>281.888</ele>
        <time>2018-03-16T14:01:30Z</time>
      </trkpt>
      <trkpt lat="43.71453" lon="7.32166">
        <ele>281.403</ele>
        <time>2018-03-16T14:01:32Z</time>
      </trkpt>
      <trkpt lat="43.7145" lon="7.32168">
        <ele>280.945</ele>
        <time>2018-03-16T14:01:34Z</time>
      </trkpt>
      <trkpt lat="43.71446" lon="7.3217">
        <ele>280.927</ele>
        <time>2018-03-16T14:01:37Z</time>
      </trkpt>
      <trkpt lat="43.71427" lon="7.32187">
        <ele>279.196</ele>
        <time>2018-03-16T14:01:50Z</time>
      </trkpt>
      <trkpt lat="43.71424" lon="7.32188">
        <ele>279.575</ele>
        <time>2018-03-16T14:01:52Z</time>
      </trkpt>
      <trkpt lat="43.71418" lon="7.32198">
        <ele>277.665</ele>
        <time>2018-03-16T14:01:58Z</time>
      </trkpt>
      <trkpt lat="43.71417" lon="7.32202">
        <ele>277.701</ele>
        <time>2018-03-16T14:02:00Z</time>
      </trkpt>
      <trkpt lat="43.71413" lon="7.32206">
        <ele>277.56</ele>
        <time>2018-03-16T14:02:04Z</time>
      </trkpt>
      <trkpt lat="43.71412" lon="7.32207">
        <ele>277.253</ele>
        <time>2018-03-16T14:02:05Z</time>
      </trkpt>
      <trkpt lat="43.7141" lon="7.32208">
        <ele>277.231</ele>
        <time>2018-03-16T14:02:06Z</time>
      </trkpt>
      <trkpt lat="43.71405" lon="7.3221">
        <ele>276.958</ele>
        <time>2018-03-16T14:02:10Z</time>
      </trkpt>
      <trkpt lat="43.71403" lon="7.32213">
        <ele>277.037</ele>
        <time>2018-03-16T14:02:12Z</time>
      </trkpt>
      <trkpt lat="43.714" lon="7.32214">
        <ele>276.332</ele>
        <time>2018-03-16T14:02:14Z</time>
      </trkpt>
      <trkpt lat="43.71397" lon="7.32212">
        <ele>276.367</ele>
        <time>2018-03-16T14:02:16Z</time>
      </trkpt>
      <trkpt lat="43.71396" lon="7.32205">
        <ele>275.959</ele>
        <time>2018-03-16T14:02:19Z</time>
      </trkpt>
      <trkpt lat="43.71398" lon="7.32199">
        <ele>273.969</ele>
        <time>2018-03-16T14:02:22Z</time>
      </trkpt>
      <trkpt lat="43.71403" lon="7.32193">
        <ele>275.058</ele>
        <time>2018-03-16T14:02:26Z</time>
      </trkpt>
      <trkpt lat="43.71405" lon="7.32191">
        <ele>274.611</ele>
        <time>2018-03-16T14:02:28Z</time>
      </trkpt>
      <trkpt lat="43.71409" lon="7.32187">
        <ele>274.661</ele>
        <time>2018-03-16T14:02:32Z</time>
      </trkpt>
      <trkpt lat="43.71409" lon="7.32187">
        <ele>274.205</ele>
        <time>2018-03-16T14:02:34Z</time>
      </trkpt>
      <trkpt lat="43.7141" lon="7.32186">
        <ele>274.098</ele>
        <time>2018-03-16T14:02:35Z</time>
      </trkpt>
      <trkpt lat="43.71416" lon="7.32179">
        <ele>273.104</ele>
        <time>2018-03-16T14:02:40Z</time>
      </trkpt>
      <trkpt lat="43.71423" lon="7.32175">
        <ele>272.506</ele>
        <time>2018-03-16T14:02:44Z</time>
      </trkpt>
      <trkpt lat="43.71425" lon="7.32173">
        <ele>272.733</ele>
        <time>2018-03-16T14:02:46Z</time>
      </trkpt>
      <trkpt lat="43.71428" lon="7.32171">
        <ele>271.849</ele>
        <time>2018-03-16T14:02:48Z</time>
      </trkpt>
      <trkpt lat="43.7144" lon="7.32159">
        <ele>270.96</ele>
        <time>2018-03-16T14:02:57Z</time>
      </trkpt>
      <trkpt lat="43.71452" lon="7.32148">
        <ele>269.912</ele>
        <time>2018-03-16T14:03:06Z</time>
      </trkpt>
      <trkpt lat="43.71463" lon="7.32129">
        <ele>268.317</ele>
        <time>2018-03-16T14:03:17Z</time>
      </trkpt>
      <trkpt lat="43.71464" lon="7.32118">
        <ele>268.134</ele>
        <time>2018-03-16T14:03:22Z</time>
      </trkpt>
      <trkpt lat="43.71468" lon="7.32065">
        <ele>266.804</ele>
        <time>2018-03-16T14:03:46Z</time>
      </trkpt>
      <trkpt lat="43.71468" lon="7.32065">
        <ele>268.031</ele>
        <time>2018-03-16T14:03:49Z</time>
      </trkpt>
      <trkpt lat="43.71469" lon="7.32063">
        <ele>267.043</ele>
        <time>2018-03-16T14:03:50Z</time>
      </trkpt>
      <trkpt lat="43.71471" lon="7.32046">
        <ele>266.178</ele>
        <time>2018-03-16T14:03:58Z</time>
      </trkpt>
      <trkpt lat="43.71471" lon="7.32042">
        <ele>266.336</ele>
        <time>2018-03-16T14:04:00Z</time>
      </trkpt>
      <trkpt lat="43.71473" lon="7.32022">
        <ele>265.61</ele>
        <time>2018-03-16T14:04:08Z</time>
      </trkpt>
      <trkpt lat="43.71473" lon="7.32021">
        <ele>265.759</ele>
        <time>2018-03-16T14:04:10Z</time>
      </trkpt>
      <trkpt lat="43.71473" lon="7.32021">
        <ele>265.801</ele>
        <time>2018-03-16T14:04:11Z</time>
      </trkpt>
      <trkpt lat="43.71473" lon="7.32021">
        <ele>265.531</ele>
        <time>2018-03-16T14:04:19Z</time>
      </trkpt>
      <trkpt lat="43.71473" lon="7.32023">
        <ele>265.793</ele>
        <time>2018-03-16T14:04:20Z</time>
      </trkpt>
      <trkpt lat="43.71473" lon="7.32022">
        <ele>265.596</ele>
        <time>2018-03-16T14:04:21Z</time>
      </trkpt>
      <trkpt lat="43.71474" lon="7.32018">
        <ele>265.039</ele>
        <time>2018-03-16T14:04:24Z</time>
      </trkpt>
      <trkpt lat="43.71474" lon="7.32018">
        <ele>265.208</ele>
        <time>2018-03-16T14:04:29Z</time>
      </trkpt>
      <trkpt lat="43.71474" lon="7.32018">
        <ele>265.304</ele>
        <time>2018-03-16T14:04:30Z</time>
      </trkpt>
      <trkpt lat="43.71474" lon="7.32014">
        <ele>264.714</ele>
        <time>2018-03-16T14:04:33Z</time>
      </trkpt>
      <trkpt lat="43.71475" lon="7.32007">
        <ele>263.77</ele>
        <time>2018-03-16T14:04:37Z</time>
      </trkpt>
      <trkpt lat="43.71474" lon="7.32">
        <ele>263.734</ele>
        <time>2018-03-16T14:04:41Z</time>
      </trkpt>
      <trkpt lat="43.71481" lon="7.31958">
        <ele>261.717</ele>
        <time>2018-03-16T14:04:59Z</time>
      </trkpt>
      <trkpt lat="43.71482" lon="7.31952">
        <ele>262.053</ele>
        <time>2018-03-16T14:05:02Z</time>
      </trkpt>
      <trkpt lat="43.7148" lon="7.31938">
        <ele>260.713</ele>
        <time>2018-03-16T14:05:09Z</time>
      </trkpt>
      <trkpt lat="43.7148" lon="7.31934">
        <ele>260.424</ele>
        <time>2018-03-16T14:05:11Z</time>
      </trkpt>
      <trkpt lat="43.71476" lon="7.31917">
        <ele>259.838</ele>
        <time>2018-03-16T14:05:19Z</time>
      </trkpt>
      <trkpt lat="43.71477" lon="7.31909">
        <ele>259.61</ele>
        <time>2018-03-16T14:05:23Z</time>
      </trkpt>
      <trkpt lat="43.71476" lon="7.31898">
        <ele>259.027</ele>
        <time>2018-03-16T14:05:28Z</time>
      </trkpt>
      <trkpt lat="43.71476" lon="7.31894">
        <ele>258.714</ele>
        <time>2018-03-16T14:05:30Z</time>
      </trkpt>
      <trkpt lat="43.71471" lon="7.31881">
        <ele>257.376</ele>
        <time>2018-03-16T14:05:37Z</time>
      </trkpt>
      <trkpt lat="43.71473" lon="7.31886">
        <ele>257.525</ele>
        <time>2018-03-16T14:05:41Z</time>
      </trkpt>
      <trkpt lat="43.71474" lon="7.31891">
        <ele>258.13</ele>
        <time>2018-03-16T14:05:43Z</time>
      </trkpt>
      <trkpt lat="43.71474" lon="7.31892">
        <ele>258.212</ele>
        <time>2018-03-16T14:05:45Z</time>
      </trkpt>
      <trkpt lat="43.71474" lon="7.31892">
        <ele>257.331</ele>
        <time>2018-03-16T14:06:03Z</time>
      </trkpt>
      <trkpt lat="43.71474" lon="7.31891">
        <ele>257.135</ele>
        <time>2018-03-16T14:06:04Z</time>
      </trkpt>
      <trkpt lat="43.71474" lon="7.31889">
        <ele>256.718</ele>
        <time>2018-03-16T14:06:05Z</time>
      </trkpt>
      <trkpt lat="43.71468" lon="7.31878">
        <ele>255.075</ele>
        <time>2018-03-16T14:06:12Z</time>
      </trkpt>
      <trkpt lat="43.71464" lon="7.31873">
        <ele>254.056</ele>
        <time>2018-03-16T14:06:16Z</time>
      </trkpt>
      <trkpt lat="43.7146" lon="7.31871">
        <ele>253.091</ele>
        <time>2018-03-16T14:06:19Z</time>
      </trkpt>
      <trkpt lat="43.7145" lon="7.31868">
        <ele>251.774</ele>
        <time>2018-03-16T14:06:25Z</time>
      </trkpt>
      <trkpt lat="43.71443" lon="7.3187">
        <ele>250.344</ele>
        <time>2018-03-16T14:06:33Z</time>
      </trkpt>
      <trkpt lat="43.71441" lon="7.31874">
        <ele>250.213</ele>
        <time>2018-03-16T14:06:35Z</time>
      </trkpt>
      <trkpt lat="43.7144" lon="7.31877">
        <ele>249.823</ele>
        <time>2018-03-16T14:06:38Z</time>
      </trkpt>
      <trkpt lat="43.71436" lon="7.31875">
        <ele>250.2</ele>
        <time>2018-03-16T14:06:44Z</time>
      </trkpt>
      <trkpt lat="43.71433" lon="7.31877">
        <ele>250.663</ele>
        <time>2018-03-16T14:06:47Z</time>
      </trkpt>
      <trkpt lat="43.71432" lon="7.31881">
        <ele>251.053</ele>
        <time>2018-03-16T14:06:50Z</time>
      </trkpt>
      <trkpt lat="43.71432" lon="7.31881">
        <ele>251.844</ele>
        <time>2018-03-16T14:06:52Z</time>
      </trkpt>
      <trkpt lat="43.71432" lon="7.31882">
        <ele>252.268</ele>
        <time>2018-03-16T14:06:54Z</time>
      </trkpt>
      <trkpt lat="43.71431" lon="7.31883">
        <ele>252.519</ele>
        <time>2018-03-16T14:06:55Z</time>
      </trkpt>
      <trkpt lat="43.7143" lon="7.31882">
        <ele>252.443</ele>
        <time>2018-03-16T14:06:56Z</time>
      </trkpt>
      <trkpt lat="43.71427" lon="7.31885">
        <ele>252.81</ele>
        <time>2018-03-16T14:06:59Z</time>
      </trkpt>
      <trkpt lat="43.71422" lon="7.319">
        <ele>250.037</ele>
        <time>2018-03-16T14:07:07Z</time>
      </trkpt>
      <trkpt lat="43.71417" lon="7.31906">
        <ele>250.851</ele>
        <time>2018-03-16T14:07:11Z</time>
      </trkpt>
      <trkpt lat="43.71415" lon="7.3191">
        <ele>249.786</ele>
        <time>2018-03-16T14:07:13Z</time>
      </trkpt>
      <trkpt lat="43.71413" lon="7.31914">
        <ele>248.944</ele>
        <time>2018-03-16T14:07:15Z</time>
      </trkpt>
      <trkpt lat="43.71403" lon="7.31926">
        <ele>248.351</ele>
        <time>2018-03-16T14:07:24Z</time>
      </trkpt>
      <trkpt lat="43.714" lon="7.31927">
        <ele>248.431</ele>
        <time>2018-03-16T14:07:26Z</time>
      </trkpt>
      <trkpt lat="43.71397" lon="7.31929">
        <ele>248.2</ele>
        <time>2018-03-16T14:07:28Z</time>
      </trkpt>
      <trkpt lat="43.71385" lon="7.31939">
        <ele>246.808</ele>
        <time>2018-03-16T14:07:37Z</time>
      </trkpt>
      <trkpt lat="43.71379" lon="7.31942">
        <ele>246.502</ele>
        <time>2018-03-16T14:07:41Z</time>
      </trkpt>
      <trkpt lat="43.71376" lon="7.31945">
        <ele>246.066</ele>
        <time>2018-03-16T14:07:44Z</time>
      </trkpt>
      <trkpt lat="43.71376" lon="7.31945">
        <ele>245.962</ele>
        <time>2018-03-16T14:07:45Z</time>
      </trkpt>
      <trkpt lat="43.71376" lon="7.31945">
        <ele>245.538</ele>
        <time>2018-03-16T14:07:48Z</time>
      </trkpt>
      <trkpt lat="43.71374" lon="7.31947">
        <ele>245.432</ele>
        <time>2018-03-16T14:07:49Z</time>
      </trkpt>
      <trkpt lat="43.71363" lon="7.31951">
        <ele>243.965</ele>
        <time>2018-03-16T14:07:56Z</time>
      </trkpt>
      <trkpt lat="43.71359" lon="7.31953">
        <ele>243.749</ele>
        <time>2018-03-16T14:07:58Z</time>
      </trkpt>
      <trkpt lat="43.71356" lon="7.31954">
        <ele>243.192</ele>
        <time>2018-03-16T14:08:00Z</time>
      </trkpt>
      <trkpt lat="43.71353" lon="7.31954">
        <ele>242.749</ele>
        <time>2018-03-16T14:08:02Z</time>
      </trkpt>
      <trkpt lat="43.71347" lon="7.31953">
        <ele>242.281</ele>
        <time>2018-03-16T14:08:06Z</time>
      </trkpt>
      <trkpt lat="43.71335" lon="7.31953">
        <ele>241.511</ele>
        <time>2018-03-16T14:08:13Z</time>
      </trkpt>
      <trkpt lat="43.71332" lon="7.31953">
        <ele>240.982</ele>
        <time>2018-03-16T14:08:15Z</time>
      </trkpt>
      <trkpt lat="43.71325" lon="7.31954">
        <ele>241.556</ele>
        <time>2018-03-16T14:08:19Z</time>
      </trkpt>
      <trkpt lat="43.71308" lon="7.31951">
        <ele>239.543</ele>
        <time>2018-03-16T14:08:31Z</time>
      </trkpt>
      <trkpt lat="43.71295" lon="7.31948">
        <ele>238.536</ele>
        <time>2018-03-16T14:08:39Z</time>
      </trkpt>
      <trkpt lat="43.71292" lon="7.31947">
        <ele>238.898</ele>
        <time>2018-03-16T14:08:41Z</time>
      </trkpt>
      <trkpt lat="43.71287" lon="7.31946">
        <ele>238.09</ele>
        <time>2018-03-16T14:08:45Z</time>
      </trkpt>
      <trkpt lat="43.71279" lon="7.31948">
        <ele>237.74</ele>
        <time>2018-03-16T14:08:50Z</time>
      </trkpt>
      <trkpt lat="43.71274" lon="7.31947">
        <ele>237.648</ele>
        <time>2018-03-16T14:08:53Z</time>
      </trkpt>
      <trkpt lat="43.71263" lon="7.31942">
        <ele>236.74</ele>
        <time>2018-03-16T14:09:01Z</time>
      </trkpt>
      <trkpt lat="43.71259" lon="7.31941">
        <ele>236.758</ele>
        <time>2018-03-16T14:09:04Z</time>
      </trkpt>
      <trkpt lat="43.71255" lon="7.31941">
        <ele>235.897</ele>
        <time>2018-03-16T14:09:07Z</time>
      </trkpt>
      <trkpt lat="43.71249" lon="7.31942">
        <ele>236.053</ele>
        <time>2018-03-16T14:09:11Z</time>
      </trkpt>
      <trkpt lat="43.71243" lon="7.31943">
        <ele>235.61</ele>
        <time>2018-03-16T14:09:15Z</time>
      </trkpt>
      <trkpt lat="43.71235" lon="7.31943">
        <ele>234.763</ele>
        <time>2018-03-16T14:09:20Z</time>
      </trkpt>
      <trkpt lat="43.71228" lon="7.31943">
        <ele>234.31</ele>
        <time>2018-03-16T14:09:24Z</time>
      </trkpt>
      <trkpt lat="43.71221" lon="7.31942">
        <ele>233.935</ele>
        <time>2018-03-16T14:09:28Z</time>
      </trkpt>
      <trkpt lat="43.71217" lon="7.31941">
        <ele>233.542</ele>
        <time>2018-03-16T14:09:30Z</time>
      </trkpt>
      <trkpt lat="43.71214" lon="7.31938">
        <ele>233.111</ele>
        <time>2018-03-16T14:09:33Z</time>
      </trkpt>
      <trkpt lat="43.71208" lon="7.31929">
        <ele>232.47</ele>
        <time>2018-03-16T14:09:38Z</time>
      </trkpt>
      <trkpt lat="43.71205" lon="7.31923">
        <ele>231.812</ele>
        <time>2018-03-16T14:09:42Z</time>
      </trkpt>
      <trkpt lat="43.712" lon="7.3192">
        <ele>231.515</ele>
        <time>2018-03-16T14:09:45Z</time>
      </trkpt>
      <trkpt lat="43.71197" lon="7.3192">
        <ele>231.272</ele>
        <time>2018-03-16T14:09:47Z</time>
      </trkpt>
      <trkpt lat="43.71191" lon="7.31923">
        <ele>230.594</ele>
        <time>2018-03-16T14:09:51Z</time>
      </trkpt>
      <trkpt lat="43.71171" lon="7.31933">
        <ele>230.122</ele>
        <time>2018-03-16T14:10:03Z</time>
      </trkpt>
      <trkpt lat="43.71163" lon="7.31932">
        <ele>229.808</ele>
        <time>2018-03-16T14:10:08Z</time>
      </trkpt>
      <trkpt lat="43.71155" lon="7.3193">
        <ele>229.355</ele>
        <time>2018-03-16T14:10:13Z</time>
      </trkpt>
      <trkpt lat="43.71148" lon="7.31929">
        <ele>228.598</ele>
        <time>2018-03-16T14:10:17Z</time>
      </trkpt>
      <trkpt lat="43.71137" lon="7.31925">
        <ele>227.883</ele>
        <time>2018-03-16T14:10:24Z</time>
      </trkpt>
      <trkpt lat="43.71134" lon="7.31923">
        <ele>227.691</ele>
        <time>2018-03-16T14:10:26Z</time>
      </trkpt>
      <trkpt lat="43.71125" lon="7.31916">
        <ele>227.181</ele>
        <time>2018-03-16T14:10:32Z</time>
      </trkpt>
      <trkpt lat="43.71121" lon="7.31912">
        <ele>226.656</ele>
        <time>2018-03-16T14:10:35Z</time>
      </trkpt>
      <trkpt lat="43.71119" lon="7.31908">
        <ele>226.336</ele>
        <time>2018-03-16T14:10:37Z</time>
      </trkpt>
      <trkpt lat="43.71104" lon="7.31894">
        <ele>225.403</ele>
        <time>2018-03-16T14:10:48Z</time>
      </trkpt>
      <trkpt lat="43.71101" lon="7.31892">
        <ele>225.098</ele>
        <time>2018-03-16T14:10:50Z</time>
      </trkpt>
      <trkpt lat="43.71086" lon="7.31882">
        <ele>224.447</ele>
        <time>2018-03-16T14:11:00Z</time>
      </trkpt>
      <trkpt lat="43.71079" lon="7.31879">
        <ele>224.098</ele>
        <time>2018-03-16T14:11:05Z</time>
      </trkpt>
      <trkpt lat="43.7107" lon="7.31868">
        <ele>222.912</ele>
        <time>2018-03-16T14:11:13Z</time>
      </trkpt>
      <trkpt lat="43.71066" lon="7.31858">
        <ele>222.005</ele>
        <time>2018-03-16T14:11:18Z</time>
      </trkpt>
      <trkpt lat="43.71064" lon="7.31852">
        <ele>221.842</ele>
        <time>2018-03-16T14:11:20Z</time>
      </trkpt>
      <trkpt lat="43.71063" lon="7.31849">
        <ele>221.467</ele>
        <time>2018-03-16T14:11:23Z</time>
      </trkpt>
      <trkpt lat="43.7106" lon="7.31848">
        <ele>221.499</ele>
        <time>2018-03-16T14:11:25Z</time>
      </trkpt>
      <trkpt lat="43.71056" lon="7.31846">
        <ele>220.837</ele>
        <time>2018-03-16T14:11:28Z</time>
      </trkpt>
      <trkpt lat="43.71055" lon="7.31846">
        <ele>220.57</ele>
        <time>2018-03-16T14:11:30Z</time>
      </trkpt>
      <trkpt lat="43.71054" lon="7.31848">
        <ele>220.244</ele>
        <time>2018-03-16T14:11:32Z</time>
      </trkpt>
      <trkpt lat="43.71053" lon="7.31849">
        <ele>219.95</ele>
        <time>2018-03-16T14:11:34Z</time>
      </trkpt>
      <trkpt lat="43.71053" lon="7.31853">
        <ele>219.439</ele>
        <time>2018-03-16T14:11:36Z</time>
      </trkpt>
      <trkpt lat="43.71054" lon="7.31857">
        <ele>219.305</ele>
        <time>2018-03-16T14:11:38Z</time>
      </trkpt>
      <trkpt lat="43.71055" lon="7.31859">
        <ele>219.444</ele>
        <time>2018-03-16T14:11:40Z</time>
      </trkpt>
      <trkpt lat="43.71058" lon="7.31864">
        <ele>218.563</ele>
        <time>2018-03-16T14:11:44Z</time>
      </trkpt>
      <trkpt lat="43.71061" lon="7.31869">
        <ele>218.507</ele>
        <time>2018-03-16T14:11:47Z</time>
      </trkpt>
      <trkpt lat="43.71065" lon="7.31874">
        <ele>218.047</ele>
        <time>2018-03-16T14:11:50Z</time>
      </trkpt>
      <trkpt lat="43.71066" lon="7.31879">
        <ele>217.61</ele>
        <time>2018-03-16T14:11:53Z</time>
      </trkpt>
      <trkpt lat="43.71069" lon="7.31885">
        <ele>216.904</ele>
        <time>2018-03-16T14:11:56Z</time>
      </trkpt>
      <trkpt lat="43.71072" lon="7.31887">
        <ele>216.777</ele>
        <time>2018-03-16T14:11:58Z</time>
      </trkpt>
      <trkpt lat="43.71075" lon="7.3189">
        <ele>217.222</ele>
        <time>2018-03-16T14:12:01Z</time>
      </trkpt>
      <trkpt lat="43.71083" lon="7.31903">
        <ele>215.413</ele>
        <time>2018-03-16T14:12:09Z</time>
      </trkpt>
      <trkpt lat="43.7109" lon="7.31909">
        <ele>215.184</ele>
        <time>2018-03-16T14:12:14Z</time>
      </trkpt>
      <trkpt lat="43.711" lon="7.31921">
        <ele>214.297</ele>
        <time>2018-03-16T14:12:21Z</time>
      </trkpt>
      <trkpt lat="43.71103" lon="7.31922">
        <ele>214.049</ele>
        <time>2018-03-16T14:12:23Z</time>
      </trkpt>
      <trkpt lat="43.71109" lon="7.31928">
        <ele>213.365</ele>
        <time>2018-03-16T14:12:28Z</time>
      </trkpt>
      <trkpt lat="43.71114" lon="7.31933">
        <ele>212.841</ele>
        <time>2018-03-16T14:12:32Z</time>
      </trkpt>
      <trkpt lat="43.71118" lon="7.31943">
        <ele>212.571</ele>
        <time>2018-03-16T14:12:37Z</time>
      </trkpt>
      <trkpt lat="43.7112" lon="7.31948">
        <ele>212.39</ele>
        <time>2018-03-16T14:12:39Z</time>
      </trkpt>
      <trkpt lat="43.71121" lon="7.31953">
        <ele>212.116</ele>
        <time>2018-03-16T14:12:42Z</time>
      </trkpt>
      <trkpt lat="43.71121" lon="7.31958">
        <ele>212.02</ele>
        <time>2018-03-16T14:12:44Z</time>
      </trkpt>
      <trkpt lat="43.71123" lon="7.31961">
        <ele>211.898</ele>
        <time>2018-03-16T14:12:46Z</time>
      </trkpt>
      <trkpt lat="43.71144" lon="7.31969">
        <ele>210.706</ele>
        <time>2018-03-16T14:12:58Z</time>
      </trkpt>
      <trkpt lat="43.71146" lon="7.31965">
        <ele>210.428</ele>
        <time>2018-03-16T14:13:01Z</time>
      </trkpt>
      <trkpt lat="43.71148" lon="7.31962">
        <ele>210.171</ele>
        <time>2018-03-16T14:13:03Z</time>
      </trkpt>
      <trkpt lat="43.71152" lon="7.3196">
        <ele>209.605</ele>
        <time>2018-03-16T14:13:06Z</time>
      </trkpt>
      <trkpt lat="43.71151" lon="7.3196">
        <ele>209.825</ele>
        <time>2018-03-16T14:13:08Z</time>
      </trkpt>
      <trkpt lat="43.71151" lon="7.3196">
        <ele>209.825</ele>
        <time>2018-03-16T14:13:08Z</time>
      </trkpt>
      <trkpt lat="43.71151" lon="7.3196">
        <ele>209.919</ele>
        <time>2018-03-16T14:13:09Z</time>
      </trkpt>
      <trkpt lat="43.71151" lon="7.3196">
        <ele>209.803</ele>
        <time>2018-03-16T14:13:10Z</time>
      </trkpt>
      <trkpt lat="43.71151" lon="7.3196">
        <ele>209.803</ele>
        <time>2018-03-16T14:13:10Z</time>
      </trkpt>
      <trkpt lat="43.71151" lon="7.3196">
        <ele>209.715</ele>
        <time>2018-03-16T14:13:11Z</time>
      </trkpt>
      <trkpt lat="43.71151" lon="7.3196">
        <ele>209.364</ele>
        <time>2018-03-16T14:13:12Z</time>
      </trkpt>
      <trkpt lat="43.71152" lon="7.31961">
        <ele>209.506</ele>
        <time>2018-03-16T14:13:13Z</time>
      </trkpt>
      <trkpt lat="43.71155" lon="7.31961">
        <ele>209.158</ele>
        <time>2018-03-16T14:13:15Z</time>
      </trkpt>
      <trkpt lat="43.71166" lon="7.31961">
        <ele>208.393</ele>
        <time>2018-03-16T14:13:23Z</time>
      </trkpt>
      <trkpt lat="43.7117" lon="7.31961">
        <ele>208.251</ele>
        <time>2018-03-16T14:13:25Z</time>
      </trkpt>
      <trkpt lat="43.71175" lon="7.31961">
        <ele>207.764</ele>
        <time>2018-03-16T14:13:28Z</time>
      </trkpt>
      <trkpt lat="43.71178" lon="7.31962">
        <ele>207.821</ele>
        <time>2018-03-16T14:13:30Z</time>
      </trkpt>
      <trkpt lat="43.71181" lon="7.31965">
        <ele>207.353</ele>
        <time>2018-03-16T14:13:32Z</time>
      </trkpt>
      <trkpt lat="43.71183" lon="7.31972">
        <ele>206.844</ele>
        <time>2018-03-16T14:13:35Z</time>
      </trkpt>
      <trkpt lat="43.71185" lon="7.31976">
        <ele>206.68</ele>
        <time>2018-03-16T14:13:37Z</time>
      </trkpt>
      <trkpt lat="43.71187" lon="7.31979">
        <ele>206.722</ele>
        <time>2018-03-16T14:13:39Z</time>
      </trkpt>
      <trkpt lat="43.712" lon="7.31992">
        <ele>206.27</ele>
        <time>2018-03-16T14:13:48Z</time>
      </trkpt>
      <trkpt lat="43.71203" lon="7.31993">
        <ele>205.905</ele>
        <time>2018-03-16T14:13:50Z</time>
      </trkpt>
      <trkpt lat="43.71207" lon="7.31994">
        <ele>205.709</ele>
        <time>2018-03-16T14:13:52Z</time>
      </trkpt>
      <trkpt lat="43.71211" lon="7.31994">
        <ele>205.318</ele>
        <time>2018-03-16T14:13:54Z</time>
      </trkpt>
      <trkpt lat="43.71212" lon="7.31994">
        <ele>205.439</ele>
        <time>2018-03-16T14:13:55Z</time>
      </trkpt>
      <trkpt lat="43.71216" lon="7.31995">
        <ele>204.949</ele>
        <time>2018-03-16T14:13:58Z</time>
      </trkpt>
      <trkpt lat="43.71219" lon="7.31994">
        <ele>204.639</ele>
        <time>2018-03-16T14:14:01Z</time>
      </trkpt>
      <trkpt lat="43.71224" lon="7.31994">
        <ele>204.279</ele>
        <time>2018-03-16T14:14:04Z</time>
      </trkpt>
      <trkpt lat="43.7123" lon="7.31996">
        <ele>204.091</ele>
        <time>2018-03-16T14:14:08Z</time>
      </trkpt>
      <trkpt lat="43.71235" lon="7.31996">
        <ele>203.804</ele>
        <time>2018-03-16T14:14:12Z</time>
      </trkpt>
      <trkpt lat="43.71235" lon="7.31996">
        <ele>203.945</ele>
        <time>2018-03-16T14:14:13Z</time>
      </trkpt>
      <trkpt lat="43.71235" lon="7.31997">
        <ele>203.842</ele>
        <time>2018-03-16T14:14:16Z</time>
      </trkpt>
      <trkpt lat="43.71235" lon="7.31997">
        <ele>203.661</ele>
        <time>2018-03-16T14:14:18Z</time>
      </trkpt>
      <trkpt lat="43.71235" lon="7.31999">
        <ele>203.978</ele>
        <time>2018-03-16T14:14:19Z</time>
      </trkpt>
      <trkpt lat="43.71235" lon="7.32002">
        <ele>203.47</ele>
        <time>2018-03-16T14:14:22Z</time>
      </trkpt>
      <trkpt lat="43.71235" lon="7.32002">
        <ele>203.848</ele>
        <time>2018-03-16T14:14:24Z</time>
      </trkpt>
      <trkpt lat="43.71234" lon="7.32003">
        <ele>203.648</ele>
        <time>2018-03-16T14:14:25Z</time>
      </trkpt>
      <trkpt lat="43.71234" lon="7.32003">
        <ele>203.648</ele>
        <time>2018-03-16T14:14:25Z</time>
      </trkpt>
      <trkpt lat="43.71234" lon="7.32003">
        <ele>203.738</ele>
        <time>2018-03-16T14:14:26Z</time>
      </trkpt>
      <trkpt lat="43.71234" lon="7.32003">
        <ele>203.738</ele>
        <time>2018-03-16T14:14:26Z</time>
      </trkpt>
      <trkpt lat="43.71234" lon="7.32003">
        <ele>203.604</ele>
        <time>2018-03-16T14:14:27Z</time>
      </trkpt>
      <trkpt lat="43.71233" lon="7.32003">
        <ele>203.605</ele>
        <time>2018-03-16T14:14:29Z</time>
      </trkpt>
      <trkpt lat="43.71231" lon="7.32006">
        <ele>203.09</ele>
        <time>2018-03-16T14:14:32Z</time>
      </trkpt>
      <trkpt lat="43.71229" lon="7.32011">
        <ele>203.171</ele>
        <time>2018-03-16T14:14:34Z</time>
      </trkpt>
      <trkpt lat="43.71226" lon="7.32014">
        <ele>202.891</ele>
        <time>2018-03-16T14:14:37Z</time>
      </trkpt>
      <trkpt lat="43.71222" lon="7.32014">
        <ele>202.582</ele>
        <time>2018-03-16T14:14:39Z</time>
      </trkpt>
      <trkpt lat="43.71213" lon="7.32013">
        <ele>201.498</ele>
        <time>2018-03-16T14:14:44Z</time>
      </trkpt>
      <trkpt lat="43.71199" lon="7.32008">
        <ele>199.398</ele>
        <time>2018-03-16T14:14:52Z</time>
      </trkpt>
      <trkpt lat="43.71189" lon="7.32">
        <ele>197.934</ele>
        <time>2018-03-16T14:14:59Z</time>
      </trkpt>
      <trkpt lat="43.71176" lon="7.31997">
        <ele>197.032</ele>
        <time>2018-03-16T14:15:07Z</time>
      </trkpt>
      <trkpt lat="43.71173" lon="7.31996">
        <ele>196.83</ele>
        <time>2018-03-16T14:15:09Z</time>
      </trkpt>
      <trkpt lat="43.71154" lon="7.31994">
        <ele>195.767</ele>
        <time>2018-03-16T14:15:20Z</time>
      </trkpt>
      <trkpt lat="43.71151" lon="7.31995">
        <ele>195.584</ele>
        <time>2018-03-16T14:15:22Z</time>
      </trkpt>
      <trkpt lat="43.71138" lon="7.31995">
        <ele>194.63</ele>
        <time>2018-03-16T14:15:30Z</time>
      </trkpt>
      <trkpt lat="43.71135" lon="7.31993">
        <ele>194.42</ele>
        <time>2018-03-16T14:15:32Z</time>
      </trkpt>
      <trkpt lat="43.71127" lon="7.3199">
        <ele>194.45</ele>
        <time>2018-03-16T14:15:37Z</time>
      </trkpt>
      <trkpt lat="43.71123" lon="7.31988">
        <ele>193.868</ele>
        <time>2018-03-16T14:15:40Z</time>
      </trkpt>
      <trkpt lat="43.71097" lon="7.31978">
        <ele>192.191</ele>
        <time>2018-03-16T14:15:56Z</time>
      </trkpt>
      <trkpt lat="43.71091" lon="7.31975">
        <ele>191.536</ele>
        <time>2018-03-16T14:16:00Z</time>
      </trkpt>
      <trkpt lat="43.71066" lon="7.31966">
        <ele>190.209</ele>
        <time>2018-03-16T14:16:16Z</time>
      </trkpt>
      <trkpt lat="43.71063" lon="7.31965">
        <ele>190.176</ele>
        <time>2018-03-16T14:16:18Z</time>
      </trkpt>
      <trkpt lat="43.71056" lon="7.31961">
        <ele>189.623</ele>
        <time>2018-03-16T14:16:23Z</time>
      </trkpt>
      <trkpt lat="43.71044" lon="7.3195">
        <ele>188.852</ele>
        <time>2018-03-16T14:16:31Z</time>
      </trkpt>
      <trkpt lat="43.71041" lon="7.31947">
        <ele>188.809</ele>
        <time>2018-03-16T14:16:33Z</time>
      </trkpt>
      <trkpt lat="43.71038" lon="7.31943">
        <ele>188.387</ele>
        <time>2018-03-16T14:16:36Z</time>
      </trkpt>
      <trkpt lat="43.71032" lon="7.31937">
        <ele>188.03</ele>
        <time>2018-03-16T14:16:41Z</time>
      </trkpt>
      <trkpt lat="43.71029" lon="7.31934">
        <ele>187.722</ele>
        <time>2018-03-16T14:16:43Z</time>
      </trkpt>
      <trkpt lat="43.71014" lon="7.3192">
        <ele>186.677</ele>
        <time>2018-03-16T14:16:54Z</time>
      </trkpt>
      <trkpt lat="43.7099" lon="7.31885">
        <ele>184.744</ele>
        <time>2018-03-16T14:17:17Z</time>
      </trkpt>
      <trkpt lat="43.70984" lon="7.31859">
        <ele>183.856</ele>
        <time>2018-03-16T14:17:31Z</time>
      </trkpt>
      <trkpt lat="43.70984" lon="7.31844">
        <ele>183.114</ele>
        <time>2018-03-16T14:17:38Z</time>
      </trkpt>
      <trkpt lat="43.70985" lon="7.31836">
        <ele>182.737</ele>
        <time>2018-03-16T14:17:43Z</time>
      </trkpt>
      <trkpt lat="43.70985" lon="7.31831">
        <ele>182.337</ele>
        <time>2018-03-16T14:17:46Z</time>
      </trkpt>
      <trkpt lat="43.70985" lon="7.31826">
        <ele>181.958</ele>
        <time>2018-03-16T14:17:50Z</time>
      </trkpt>
      <trkpt lat="43.70985" lon="7.31825">
        <ele>181.942</ele>
        <time>2018-03-16T14:17:51Z</time>
      </trkpt>
      <trkpt lat="43.70986" lon="7.3182">
        <ele>181.767</ele>
        <time>2018-03-16T14:17:54Z</time>
      </trkpt>
      <trkpt lat="43.70984" lon="7.31816">
        <ele>181.219</ele>
        <time>2018-03-16T14:17:56Z</time>
      </trkpt>
      <trkpt lat="43.70985" lon="7.31809">
        <ele>181.245</ele>
        <time>2018-03-16T14:17:59Z</time>
      </trkpt>
      <trkpt lat="43.70986" lon="7.31803">
        <ele>180.975</ele>
        <time>2018-03-16T14:18:02Z</time>
      </trkpt>
      <trkpt lat="43.70987" lon="7.31801">
        <ele>181.893</ele>
        <time>2018-03-16T14:18:04Z</time>
      </trkpt>
      <trkpt lat="43.70987" lon="7.31801">
        <ele>181.893</ele>
        <time>2018-03-16T14:18:04Z</time>
      </trkpt>
      <trkpt lat="43.70987" lon="7.31801">
        <ele>181.549</ele>
        <time>2018-03-16T14:18:05Z</time>
      </trkpt>
      <trkpt lat="43.70987" lon="7.31801">
        <ele>181.549</ele>
        <time>2018-03-16T14:18:05Z</time>
      </trkpt>
      <trkpt lat="43.70987" lon="7.318">
        <ele>181.142</ele>
        <time>2018-03-16T14:18:06Z</time>
      </trkpt>
      <trkpt lat="43.70987" lon="7.318">
        <ele>181.142</ele>
        <time>2018-03-16T14:18:06Z</time>
      </trkpt>
      <trkpt lat="43.70987" lon="7.31798">
        <ele>181.224</ele>
        <time>2018-03-16T14:18:07Z</time>
      </trkpt>
      <trkpt lat="43.70988" lon="7.31796">
        <ele>180.988</ele>
        <time>2018-03-16T14:18:08Z</time>
      </trkpt>
      <trkpt lat="43.70988" lon="7.31794">
        <ele>180.266</ele>
        <time>2018-03-16T14:18:10Z</time>
      </trkpt>
      <trkpt lat="43.70988" lon="7.31789">
        <ele>178.809</ele>
        <time>2018-03-16T14:18:15Z</time>
      </trkpt>
      <trkpt lat="43.70987" lon="7.31783">
        <ele>178.501</ele>
        <time>2018-03-16T14:18:18Z</time>
      </trkpt>
      <trkpt lat="43.70985" lon="7.31777">
        <ele>177.486</ele>
        <time>2018-03-16T14:18:21Z</time>
      </trkpt>
      <trkpt lat="43.70985" lon="7.31771">
        <ele>176.439</ele>
        <time>2018-03-16T14:18:25Z</time>
      </trkpt>
      <trkpt lat="43.70983" lon="7.31759">
        <ele>175.394</ele>
        <time>2018-03-16T14:18:34Z</time>
      </trkpt>
      <trkpt lat="43.70983" lon="7.31759">
        <ele>175.343</ele>
        <time>2018-03-16T14:18:38Z</time>
      </trkpt>
      <trkpt lat="43.70982" lon="7.31759">
        <ele>174.813</ele>
        <time>2018-03-16T14:18:39Z</time>
      </trkpt>
      <trkpt lat="43.70981" lon="7.31756">
        <ele>175.057</ele>
        <time>2018-03-16T14:18:41Z</time>
      </trkpt>
      <trkpt lat="43.7098" lon="7.31749">
        <ele>174.324</ele>
        <time>2018-03-16T14:18:45Z</time>
      </trkpt>
      <trkpt lat="43.7098" lon="7.31744">
        <ele>173.749</ele>
        <time>2018-03-16T14:18:48Z</time>
      </trkpt>
      <trkpt lat="43.70978" lon="7.31738">
        <ele>173.095</ele>
        <time>2018-03-16T14:18:52Z</time>
      </trkpt>
      <trkpt lat="43.70978" lon="7.31735">
        <ele>172.52</ele>
        <time>2018-03-16T14:18:55Z</time>
      </trkpt>
      <trkpt lat="43.70978" lon="7.31735">
        <ele>172.247</ele>
        <time>2018-03-16T14:18:58Z</time>
      </trkpt>
      <trkpt lat="43.70979" lon="7.31734">
        <ele>172.456</ele>
        <time>2018-03-16T14:18:59Z</time>
      </trkpt>
      <trkpt lat="43.70979" lon="7.31734">
        <ele>172.456</ele>
        <time>2018-03-16T14:18:59Z</time>
      </trkpt>
      <trkpt lat="43.70979" lon="7.31734">
        <ele>172.553</ele>
        <time>2018-03-16T14:19:00Z</time>
      </trkpt>
      <trkpt lat="43.70979" lon="7.31734">
        <ele>172.553</ele>
        <time>2018-03-16T14:19:00Z</time>
      </trkpt>
      <trkpt lat="43.70979" lon="7.31733">
        <ele>172.486</ele>
        <time>2018-03-16T14:19:01Z</time>
      </trkpt>
      <trkpt lat="43.70979" lon="7.31733">
        <ele>172.486</ele>
        <time>2018-03-16T14:19:01Z</time>
      </trkpt>
      <trkpt lat="43.70979" lon="7.31732">
        <ele>172.214</ele>
        <time>2018-03-16T14:19:02Z</time>
      </trkpt>
      <trkpt lat="43.70979" lon="7.31727">
        <ele>171.52</ele>
        <time>2018-03-16T14:19:06Z</time>
      </trkpt>
      <trkpt lat="43.70977" lon="7.3172">
        <ele>170.449</ele>
        <time>2018-03-16T14:19:10Z</time>
      </trkpt>
      <trkpt lat="43.70975" lon="7.31716">
        <ele>169.925</ele>
        <time>2018-03-16T14:19:12Z</time>
      </trkpt>
      <trkpt lat="43.70974" lon="7.31713">
        <ele>169.795</ele>
        <time>2018-03-16T14:19:14Z</time>
      </trkpt>
      <trkpt lat="43.70971" lon="7.317">
        <ele>168.15</ele>
        <time>2018-03-16T14:19:22Z</time>
      </trkpt>
      <trkpt lat="43.70969" lon="7.31689">
        <ele>166.76</ele>
        <time>2018-03-16T14:19:28Z</time>
      </trkpt>
      <trkpt lat="43.70968" lon="7.31685">
        <ele>166.723</ele>
        <time>2018-03-16T14:19:30Z</time>
      </trkpt>
      <trkpt lat="43.70968" lon="7.31683">
        <ele>166.348</ele>
        <time>2018-03-16T14:19:33Z</time>
      </trkpt>
      <trkpt lat="43.70968" lon="7.31683">
        <ele>166.434</ele>
        <time>2018-03-16T14:19:47Z</time>
      </trkpt>
      <trkpt lat="43.70969" lon="7.31681">
        <ele>166.039</ele>
        <time>2018-03-16T14:19:48Z</time>
      </trkpt>
      <trkpt lat="43.70969" lon="7.3168">
        <ele>165.996</ele>
        <time>2018-03-16T14:19:49Z</time>
      </trkpt>
      <trkpt lat="43.70967" lon="7.31672">
        <ele>165.461</ele>
        <time>2018-03-16T14:19:53Z</time>
      </trkpt>
      <trkpt lat="43.70968" lon="7.31669">
        <ele>164.916</ele>
        <time>2018-03-16T14:19:55Z</time>
      </trkpt>
      <trkpt lat="43.70967" lon="7.31668">
        <ele>164.838</ele>
        <time>2018-03-16T14:19:56Z</time>
      </trkpt>
      <trkpt lat="43.70965" lon="7.31662">
        <ele>163.976</ele>
        <time>2018-03-16T14:20:00Z</time>
      </trkpt>
      <trkpt lat="43.70963" lon="7.31658">
        <ele>163.727</ele>
        <time>2018-03-16T14:20:03Z</time>
      </trkpt>
      <trkpt lat="43.70962" lon="7.31651">
        <ele>162.853</ele>
        <time>2018-03-16T14:20:10Z</time>
      </trkpt>
      <trkpt lat="43.70962" lon="7.31651">
        <ele>162.417</ele>
        <time>2018-03-16T14:20:12Z</time>
      </trkpt>
      <trkpt lat="43.70962" lon="7.31649">
        <ele>162.131</ele>
        <time>2018-03-16T14:20:16Z</time>
      </trkpt>
      <trkpt lat="43.70961" lon="7.31649">
        <ele>161.973</ele>
        <time>2018-03-16T14:20:17Z</time>
      </trkpt>
      <trkpt lat="43.70961" lon="7.31647">
        <ele>161.737</ele>
        <time>2018-03-16T14:20:18Z</time>
      </trkpt>
      <trkpt lat="43.70961" lon="7.31646">
        <ele>161.802</ele>
        <time>2018-03-16T14:20:19Z</time>
      </trkpt>
      <trkpt lat="43.70961" lon="7.31643">
        <ele>160.809</ele>
        <time>2018-03-16T14:20:23Z</time>
      </trkpt>
      <trkpt lat="43.70961" lon="7.31641">
        <ele>160.637</ele>
        <time>2018-03-16T14:20:25Z</time>
      </trkpt>
      <trkpt lat="43.70962" lon="7.31641">
        <ele>160.452</ele>
        <time>2018-03-16T14:20:26Z</time>
      </trkpt>
      <trkpt lat="43.70962" lon="7.31641">
        <ele>160.452</ele>
        <time>2018-03-16T14:20:26Z</time>
      </trkpt>
      <trkpt lat="43.70962" lon="7.31641">
        <ele>160.175</ele>
        <time>2018-03-16T14:20:27Z</time>
      </trkpt>
      <trkpt lat="43.70962" lon="7.31636">
        <ele>159.444</ele>
        <time>2018-03-16T14:20:33Z</time>
      </trkpt>
      <trkpt lat="43.70962" lon="7.31633">
        <ele>159.523</ele>
        <time>2018-03-16T14:20:35Z</time>
      </trkpt>
      <trkpt lat="43.70962" lon="7.31632">
        <ele>159.265</ele>
        <time>2018-03-16T14:20:37Z</time>
      </trkpt>
      <trkpt lat="43.70961" lon="7.3163">
        <ele>158.865</ele>
        <time>2018-03-16T14:20:39Z</time>
      </trkpt>
      <trkpt lat="43.70962" lon="7.31629">
        <ele>158.726</ele>
        <time>2018-03-16T14:20:40Z</time>
      </trkpt>
      <trkpt lat="43.70962" lon="7.31628">
        <ele>158.909</ele>
        <time>2018-03-16T14:20:41Z</time>
      </trkpt>
      <trkpt lat="43.70962" lon="7.31624">
        <ele>158.159</ele>
        <time>2018-03-16T14:20:45Z</time>
      </trkpt>
      <trkpt lat="43.70962" lon="7.31624">
        <ele>157.776</ele>
        <time>2018-03-16T14:20:46Z</time>
      </trkpt>
      <trkpt lat="43.70962" lon="7.31625">
        <ele>157.882</ele>
        <time>2018-03-16T14:20:47Z</time>
      </trkpt>
      <trkpt lat="43.70962" lon="7.31625">
        <ele>157.749</ele>
        <time>2018-03-16T14:20:48Z</time>
      </trkpt>
      <trkpt lat="43.70962" lon="7.31625">
        <ele>157.749</ele>
        <time>2018-03-16T14:20:48Z</time>
      </trkpt>
      <trkpt lat="43.70962" lon="7.31625">
        <ele>157.744</ele>
        <time>2018-03-16T14:20:49Z</time>
      </trkpt>
      <trkpt lat="43.70961" lon="7.31626">
        <ele>157.782</ele>
        <time>2018-03-16T14:20:51Z</time>
      </trkpt>
      <trkpt lat="43.70961" lon="7.31626">
        <ele>157.631</ele>
        <time>2018-03-16T14:20:54Z</time>
      </trkpt>
      <trkpt lat="43.70962" lon="7.31627">
        <ele>157.589</ele>
        <time>2018-03-16T14:20:55Z</time>
      </trkpt>
      <trkpt lat="43.70963" lon="7.31627">
        <ele>157.694</ele>
        <time>2018-03-16T14:20:56Z</time>
      </trkpt>
      <trkpt lat="43.70963" lon="7.31627">
        <ele>157.659</ele>
        <time>2018-03-16T14:20:57Z</time>
      </trkpt>
      <trkpt lat="43.70963" lon="7.31627">
        <ele>157.659</ele>
        <time>2018-03-16T14:20:57Z</time>
      </trkpt>
      <trkpt lat="43.70963" lon="7.31627">
        <ele>157.808</ele>
        <time>2018-03-16T14:20:58Z</time>
      </trkpt>
      <trkpt lat="43.70963" lon="7.31627">
        <ele>157.808</ele>
        <time>2018-03-16T14:20:58Z</time>
      </trkpt>
      <trkpt lat="43.70963" lon="7.31627">
        <ele>157.653</ele>
        <time>2018-03-16T14:20:59Z</time>
      </trkpt>
      <trkpt lat="43.70963" lon="7.31627">
        <ele>157.653</ele>
        <time>2018-03-16T14:20:59Z</time>
      </trkpt>
      <trkpt lat="43.70963" lon="7.31626">
        <ele>158.066</ele>
        <time>2018-03-16T14:21:00Z</time>
      </trkpt>
      <trkpt lat="43.70963" lon="7.31625">
        <ele>158.099</ele>
        <time>2018-03-16T14:21:01Z</time>
      </trkpt>
      <trkpt lat="43.70963" lon="7.31625">
        <ele>158.406</ele>
        <time>2018-03-16T14:21:03Z</time>
      </trkpt>
      <trkpt lat="43.70963" lon="7.31625">
        <ele>158.406</ele>
        <time>2018-03-16T14:21:03Z</time>
      </trkpt>
      <trkpt lat="43.70962" lon="7.31624">
        <ele>158.247</ele>
        <time>2018-03-16T14:21:04Z</time>
      </trkpt>
      <trkpt lat="43.70962" lon="7.31623">
        <ele>158.342</ele>
        <time>2018-03-16T14:21:05Z</time>
      </trkpt>
      <trkpt lat="43.70962" lon="7.31622">
        <ele>157.887</ele>
        <time>2018-03-16T14:21:06Z</time>
      </trkpt>
      <trkpt lat="43.70963" lon="7.3162">
        <ele>157.53</ele>
        <time>2018-03-16T14:21:09Z</time>
      </trkpt>
      <trkpt lat="43.70963" lon="7.3162">
        <ele>157.53</ele>
        <time>2018-03-16T14:21:09Z</time>
      </trkpt>
      <trkpt lat="43.70963" lon="7.31621">
        <ele>157.442</ele>
        <time>2018-03-16T14:21:10Z</time>
      </trkpt>
      <trkpt lat="43.70963" lon="7.31621">
        <ele>157.583</ele>
        <time>2018-03-16T14:21:11Z</time>
      </trkpt>
      <trkpt lat="43.70963" lon="7.31621">
        <ele>157.804</ele>
        <time>2018-03-16T14:21:12Z</time>
      </trkpt>
      <trkpt lat="43.70963" lon="7.31621">
        <ele>157.732</ele>
        <time>2018-03-16T14:21:13Z</time>
      </trkpt>
      <trkpt lat="43.70963" lon="7.31621">
        <ele>157.732</ele>
        <time>2018-03-16T14:21:13Z</time>
      </trkpt>
      <trkpt lat="43.70962" lon="7.3162">
        <ele>157.749</ele>
        <time>2018-03-16T14:21:14Z</time>
      </trkpt>
      <trkpt lat="43.70962" lon="7.3162">
        <ele>157.667</ele>
        <time>2018-03-16T14:21:15Z</time>
      </trkpt>
      <trkpt lat="43.70962" lon="7.3162">
        <ele>157.743</ele>
        <time>2018-03-16T14:21:17Z</time>
      </trkpt>
      <trkpt lat="43.70963" lon="7.31621">
        <ele>157.603</ele>
        <time>2018-03-16T14:21:18Z</time>
      </trkpt>
      <trkpt lat="43.70963" lon="7.31621">
        <ele>157.603</ele>
        <time>2018-03-16T14:21:18Z</time>
      </trkpt>
      <trkpt lat="43.70963" lon="7.31621">
        <ele>157.562</ele>
        <time>2018-03-16T14:21:19Z</time>
      </trkpt>
      <trkpt lat="43.70963" lon="7.31621">
        <ele>157.691</ele>
        <time>2018-03-16T14:21:22Z</time>
      </trkpt>
      <trkpt lat="43.70963" lon="7.3162">
        <ele>157.364</ele>
        <time>2018-03-16T14:21:23Z</time>
      </trkpt>
      <trkpt lat="43.70963" lon="7.31619">
        <ele>157.012</ele>
        <time>2018-03-16T14:21:25Z</time>
      </trkpt>
      <trkpt lat="43.70963" lon="7.31619">
        <ele>157.012</ele>
        <time>2018-03-16T14:21:25Z</time>
      </trkpt>
      <trkpt lat="43.70964" lon="7.31619">
        <ele>156.958</ele>
        <time>2018-03-16T14:21:26Z</time>
      </trkpt>
      <trkpt lat="43.70964" lon="7.31619">
        <ele>156.972</ele>
        <time>2018-03-16T14:21:27Z</time>
      </trkpt>
      <trkpt lat="43.70964" lon="7.31619">
        <ele>156.971</ele>
        <time>2018-03-16T14:21:29Z</time>
      </trkpt>
      <trkpt lat="43.70964" lon="7.3162">
        <ele>156.947</ele>
        <time>2018-03-16T14:21:30Z</time>
      </trkpt>
      <trkpt lat="43.70964" lon="7.3162">
        <ele>157.037</ele>
        <time>2018-03-16T14:21:32Z</time>
      </trkpt>
      <trkpt lat="43.70964" lon="7.3162">
        <ele>156.911</ele>
        <time>2018-03-16T14:21:33Z</time>
      </trkpt>
      <trkpt lat="43.70964" lon="7.3162">
        <ele>156.911</ele>
        <time>2018-03-16T14:21:33Z</time>
      </trkpt>
      <trkpt lat="43.70963" lon="7.3162">
        <ele>156.859</ele>
        <time>2018-03-16T14:21:34Z</time>
      </trkpt>
      <trkpt lat="43.70963" lon="7.3162">
        <ele>157.074</ele>
        <time>2018-03-16T14:21:35Z</time>
      </trkpt>
      <trkpt lat="43.70963" lon="7.3162">
        <ele>157.074</ele>
        <time>2018-03-16T14:21:35Z</time>
      </trkpt>
      <trkpt lat="43.70964" lon="7.31621">
        <ele>157.082</ele>
        <time>2018-03-16T14:21:36Z</time>
      </trkpt>
      <trkpt lat="43.70964" lon="7.31623">
        <ele>157.306</ele>
        <time>2018-03-16T14:21:38Z</time>
      </trkpt>
      <trkpt lat="43.70964" lon="7.31623">
        <ele>157.306</ele>
        <time>2018-03-16T14:21:38Z</time>
      </trkpt>
      <trkpt lat="43.70964" lon="7.31625">
        <ele>157.76</ele>
        <time>2018-03-16T14:21:38Z</time>
      </trkpt>
      <trkpt lat="43.70964" lon="7.31626">
        <ele>157.179</ele>
        <time>2018-03-16T14:21:39Z</time>
      </trkpt>
      <trkpt lat="43.70965" lon="7.31629">
        <ele>158.654</ele>
        <time>2018-03-16T14:21:42Z</time>
      </trkpt>
      <trkpt lat="43.70964" lon="7.31634">
        <ele>159.59</ele>
        <time>2018-03-16T14:21:47Z</time>
      </trkpt>
      <trkpt lat="43.70963" lon="7.31636">
        <ele>160.242</ele>
        <time>2018-03-16T14:21:50Z</time>
      </trkpt>
      <trkpt lat="43.70963" lon="7.31636">
        <ele>160.242</ele>
        <time>2018-03-16T14:21:50Z</time>
      </trkpt>
      <trkpt lat="43.70964" lon="7.31636">
        <ele>160.253</ele>
        <time>2018-03-16T14:21:51Z</time>
      </trkpt>
      <trkpt lat="43.70964" lon="7.3164">
        <ele>161.122</ele>
        <time>2018-03-16T14:21:55Z</time>
      </trkpt>
      <trkpt lat="43.70964" lon="7.31641">
        <ele>161.45</ele>
        <time>2018-03-16T14:21:56Z</time>
      </trkpt>
      <trkpt lat="43.70965" lon="7.31642">
        <ele>161.493</ele>
        <time>2018-03-16T14:21:57Z</time>
      </trkpt>
      <trkpt lat="43.70965" lon="7.31646">
        <ele>161.771</ele>
        <time>2018-03-16T14:21:59Z</time>
      </trkpt>
      <trkpt lat="43.70965" lon="7.31653">
        <ele>162.254</ele>
        <time>2018-03-16T14:22:02Z</time>
      </trkpt>
      <trkpt lat="43.70965" lon="7.31654">
        <ele>162.62</ele>
        <time>2018-03-16T14:22:03Z</time>
      </trkpt>
      <trkpt lat="43.70965" lon="7.31655">
        <ele>162.725</ele>
        <time>2018-03-16T14:22:04Z</time>
      </trkpt>
      <trkpt lat="43.70967" lon="7.3166">
        <ele>163.165</ele>
        <time>2018-03-16T14:22:07Z</time>
      </trkpt>
      <trkpt lat="43.70969" lon="7.31663">
        <ele>163.883</ele>
        <time>2018-03-16T14:22:10Z</time>
      </trkpt>
      <trkpt lat="43.70972" lon="7.31665">
        <ele>164.388</ele>
        <time>2018-03-16T14:22:13Z</time>
      </trkpt>
      <trkpt lat="43.70974" lon="7.31668">
        <ele>164.76</ele>
        <time>2018-03-16T14:22:16Z</time>
      </trkpt>
      <trkpt lat="43.70975" lon="7.31674">
        <ele>165.453</ele>
        <time>2018-03-16T14:22:19Z</time>
      </trkpt>
      <trkpt lat="43.70975" lon="7.31678">
        <ele>165.987</ele>
        <time>2018-03-16T14:22:22Z</time>
      </trkpt>
      <trkpt lat="43.70974" lon="7.31682">
        <ele>166.437</ele>
        <time>2018-03-16T14:22:26Z</time>
      </trkpt>
      <trkpt lat="43.70975" lon="7.31684">
        <ele>166.879</ele>
        <time>2018-03-16T14:22:28Z</time>
      </trkpt>
      <trkpt lat="43.70979" lon="7.31699">
        <ele>169.432</ele>
        <time>2018-03-16T14:22:42Z</time>
      </trkpt>
      <trkpt lat="43.70979" lon="7.317">
        <ele>168.947</ele>
        <time>2018-03-16T14:22:44Z</time>
      </trkpt>
      <trkpt lat="43.70979" lon="7.317">
        <ele>168.84</ele>
        <time>2018-03-16T14:22:46Z</time>
      </trkpt>
      <trkpt lat="43.70979" lon="7.317">
        <ele>168.844</ele>
        <time>2018-03-16T14:22:47Z</time>
      </trkpt>
      <trkpt lat="43.70979" lon="7.317">
        <ele>168.844</ele>
        <time>2018-03-16T14:22:47Z</time>
      </trkpt>
      <trkpt lat="43.70979" lon="7.317">
        <ele>168.882</ele>
        <time>2018-03-16T14:22:48Z</time>
      </trkpt>
      <trkpt lat="43.70979" lon="7.317">
        <ele>168.515</ele>
        <time>2018-03-16T14:23:28Z</time>
      </trkpt>
      <trkpt lat="43.70981" lon="7.317">
        <ele>168.584</ele>
        <time>2018-03-16T14:23:29Z</time>
      </trkpt>
      <trkpt lat="43.70981" lon="7.317">
        <ele>168.379</ele>
        <time>2018-03-16T14:23:30Z</time>
      </trkpt>
      <trkpt lat="43.70981" lon="7.317">
        <ele>168.557</ele>
        <time>2018-03-16T14:23:49Z</time>
      </trkpt>
      <trkpt lat="43.70981" lon="7.31699">
        <ele>168.799</ele>
        <time>2018-03-16T14:23:50Z</time>
      </trkpt>
      <trkpt lat="43.70981" lon="7.31699">
        <ele>168.799</ele>
        <time>2018-03-16T14:23:50Z</time>
      </trkpt>
      <trkpt lat="43.70981" lon="7.31699">
        <ele>168.552</ele>
        <time>2018-03-16T14:23:51Z</time>
      </trkpt>
      <trkpt lat="43.70981" lon="7.31699">
        <ele>168.503</ele>
        <time>2018-03-16T14:23:54Z</time>
      </trkpt>
      <trkpt lat="43.70981" lon="7.317">
        <ele>168.386</ele>
        <time>2018-03-16T14:23:55Z</time>
      </trkpt>
      <trkpt lat="43.70981" lon="7.31703">
        <ele>168.657</ele>
        <time>2018-03-16T14:23:57Z</time>
      </trkpt>
      <trkpt lat="43.70981" lon="7.3171">
        <ele>169.379</ele>
        <time>2018-03-16T14:24:01Z</time>
      </trkpt>
      <trkpt lat="43.70981" lon="7.31716">
        <ele>169.689</ele>
        <time>2018-03-16T14:24:03Z</time>
      </trkpt>
      <trkpt lat="43.70981" lon="7.31721">
        <ele>170.501</ele>
        <time>2018-03-16T14:24:06Z</time>
      </trkpt>
      <trkpt lat="43.7098" lon="7.31728">
        <ele>170.879</ele>
        <time>2018-03-16T14:24:09Z</time>
      </trkpt>
      <trkpt lat="43.70982" lon="7.31731">
        <ele>171.516</ele>
        <time>2018-03-16T14:24:12Z</time>
      </trkpt>
      <trkpt lat="43.70985" lon="7.31734">
        <ele>172.065</ele>
        <time>2018-03-16T14:24:14Z</time>
      </trkpt>
      <trkpt lat="43.70987" lon="7.31737">
        <ele>172.478</ele>
        <time>2018-03-16T14:24:17Z</time>
      </trkpt>
      <trkpt lat="43.70989" lon="7.31742">
        <ele>172.932</ele>
        <time>2018-03-16T14:24:20Z</time>
      </trkpt>
      <trkpt lat="43.7099" lon="7.31746">
        <ele>173.445</ele>
        <time>2018-03-16T14:24:23Z</time>
      </trkpt>
      <trkpt lat="43.7099" lon="7.31751">
        <ele>174.077</ele>
        <time>2018-03-16T14:24:26Z</time>
      </trkpt>
      <trkpt lat="43.70991" lon="7.31755">
        <ele>174.799</ele>
        <time>2018-03-16T14:24:29Z</time>
      </trkpt>
      <trkpt lat="43.70991" lon="7.3176">
        <ele>174.976</ele>
        <time>2018-03-16T14:24:32Z</time>
      </trkpt>
      <trkpt lat="43.70992" lon="7.31764">
        <ele>175.458</ele>
        <time>2018-03-16T14:24:35Z</time>
      </trkpt>
      <trkpt lat="43.70994" lon="7.31767">
        <ele>176.051</ele>
        <time>2018-03-16T14:24:38Z</time>
      </trkpt>
      <trkpt lat="43.70995" lon="7.31772">
        <ele>176.576</ele>
        <time>2018-03-16T14:24:41Z</time>
      </trkpt>
      <trkpt lat="43.70997" lon="7.31779">
        <ele>177.642</ele>
        <time>2018-03-16T14:24:47Z</time>
      </trkpt>
      <trkpt lat="43.70997" lon="7.31782">
        <ele>178.06</ele>
        <time>2018-03-16T14:24:49Z</time>
      </trkpt>
      <trkpt lat="43.70996" lon="7.31787">
        <ele>178.285</ele>
        <time>2018-03-16T14:24:52Z</time>
      </trkpt>
      <trkpt lat="43.70996" lon="7.31793">
        <ele>178.071</ele>
        <time>2018-03-16T14:24:57Z</time>
      </trkpt>
      <trkpt lat="43.70996" lon="7.31793">
        <ele>178.221</ele>
        <time>2018-03-16T14:24:58Z</time>
      </trkpt>
      <trkpt lat="43.70995" lon="7.31795">
        <ele>179.042</ele>
        <time>2018-03-16T14:25:00Z</time>
      </trkpt>
      <trkpt lat="43.70995" lon="7.31797">
        <ele>179.153</ele>
        <time>2018-03-16T14:25:03Z</time>
      </trkpt>
      <trkpt lat="43.70996" lon="7.31797">
        <ele>178.702</ele>
        <time>2018-03-16T14:25:04Z</time>
      </trkpt>
      <trkpt lat="43.70998" lon="7.31794">
        <ele>179.027</ele>
        <time>2018-03-16T14:25:07Z</time>
      </trkpt>
      <trkpt lat="43.70996" lon="7.31788">
        <ele>178.926</ele>
        <time>2018-03-16T14:25:10Z</time>
      </trkpt>
      <trkpt lat="43.70994" lon="7.31779">
        <ele>178.675</ele>
        <time>2018-03-16T14:25:15Z</time>
      </trkpt>
      <trkpt lat="43.70994" lon="7.31774">
        <ele>178.511</ele>
        <time>2018-03-16T14:25:18Z</time>
      </trkpt>
      <trkpt lat="43.70992" lon="7.31771">
        <ele>178.37</ele>
        <time>2018-03-16T14:25:21Z</time>
      </trkpt>
      <trkpt lat="43.70991" lon="7.31767">
        <ele>178.427</ele>
        <time>2018-03-16T14:25:23Z</time>
      </trkpt>
      <trkpt lat="43.70989" lon="7.31762">
        <ele>178.479</ele>
        <time>2018-03-16T14:25:26Z</time>
      </trkpt>
      <trkpt lat="43.70989" lon="7.31757">
        <ele>178.438</ele>
        <time>2018-03-16T14:25:29Z</time>
      </trkpt>
      <trkpt lat="43.7099" lon="7.31753">
        <ele>178.422</ele>
        <time>2018-03-16T14:25:31Z</time>
      </trkpt>
      <trkpt lat="43.7099" lon="7.31742">
        <ele>178.238</ele>
        <time>2018-03-16T14:25:36Z</time>
      </trkpt>
      <trkpt lat="43.70989" lon="7.31738">
        <ele>178.229</ele>
        <time>2018-03-16T14:25:38Z</time>
      </trkpt>
      <trkpt lat="43.70989" lon="7.31733">
        <ele>178.184</ele>
        <time>2018-03-16T14:25:41Z</time>
      </trkpt>
      <trkpt lat="43.70989" lon="7.31728">
        <ele>178.348</ele>
        <time>2018-03-16T14:25:45Z</time>
      </trkpt>
      <trkpt lat="43.70988" lon="7.31723">
        <ele>178.135</ele>
        <time>2018-03-16T14:25:48Z</time>
      </trkpt>
      <trkpt lat="43.70986" lon="7.31716">
        <ele>177.862</ele>
        <time>2018-03-16T14:25:53Z</time>
      </trkpt>
      <trkpt lat="43.70986" lon="7.31711">
        <ele>178.048</ele>
        <time>2018-03-16T14:25:56Z</time>
      </trkpt>
      <trkpt lat="43.70983" lon="7.31705">
        <ele>177.418</ele>
        <time>2018-03-16T14:25:59Z</time>
      </trkpt>
      <trkpt lat="43.7098" lon="7.31701">
        <ele>177.057</ele>
        <time>2018-03-16T14:26:02Z</time>
      </trkpt>
      <trkpt lat="43.70973" lon="7.3169">
        <ele>175.309</ele>
        <time>2018-03-16T14:26:10Z</time>
      </trkpt>
      <trkpt lat="43.70971" lon="7.31679">
        <ele>173.452</ele>
        <time>2018-03-16T14:26:18Z</time>
      </trkpt>
      <trkpt lat="43.70971" lon="7.31674">
        <ele>172.097</ele>
        <time>2018-03-16T14:26:25Z</time>
      </trkpt>
      <trkpt lat="43.7097" lon="7.3167">
        <ele>171.17</ele>
        <time>2018-03-16T14:26:30Z</time>
      </trkpt>
      <trkpt lat="43.70969" lon="7.31665">
        <ele>170.144</ele>
        <time>2018-03-16T14:26:34Z</time>
      </trkpt>
      <trkpt lat="43.70969" lon="7.31661">
        <ele>169.606</ele>
        <time>2018-03-16T14:26:38Z</time>
      </trkpt>
      <trkpt lat="43.7097" lon="7.31656">
        <ele>169.451</ele>
        <time>2018-03-16T14:26:41Z</time>
      </trkpt>
      <trkpt lat="43.70969" lon="7.3165">
        <ele>169.688</ele>
        <time>2018-03-16T14:26:45Z</time>
      </trkpt>
      <trkpt lat="43.70969" lon="7.31646">
        <ele>169.716</ele>
        <time>2018-03-16T14:26:48Z</time>
      </trkpt>
      <trkpt lat="43.70969" lon="7.31646">
        <ele>169.673</ele>
        <time>2018-03-16T14:26:49Z</time>
      </trkpt>
      <trkpt lat="43.70969" lon="7.31646">
        <ele>169.628</ele>
        <time>2018-03-16T14:26:57Z</time>
      </trkpt>
      <trkpt lat="43.70968" lon="7.31646">
        <ele>169.667</ele>
        <time>2018-03-16T14:26:58Z</time>
      </trkpt>
      <trkpt lat="43.70967" lon="7.31646">
        <ele>169.57</ele>
        <time>2018-03-16T14:26:59Z</time>
      </trkpt>
      <trkpt lat="43.70962" lon="7.31647">
        <ele>170.027</ele>
        <time>2018-03-16T14:27:04Z</time>
      </trkpt>
      <trkpt lat="43.70962" lon="7.31647">
        <ele>169.925</ele>
        <time>2018-03-16T14:27:05Z</time>
      </trkpt>
      <trkpt lat="43.70962" lon="7.31647">
        <ele>169.878</ele>
        <time>2018-03-16T14:27:11Z</time>
      </trkpt>
      <trkpt lat="43.70964" lon="7.31649">
        <ele>169.546</ele>
        <time>2018-03-16T14:27:12Z</time>
      </trkpt>
      <trkpt lat="43.70966" lon="7.31655">
        <ele>169.651</ele>
        <time>2018-03-16T14:27:15Z</time>
      </trkpt>
      <trkpt lat="43.70969" lon="7.31664">
        <ele>169.866</ele>
        <time>2018-03-16T14:27:19Z</time>
      </trkpt>
      <trkpt lat="43.7097" lon="7.31668">
        <ele>170.083</ele>
        <time>2018-03-16T14:27:22Z</time>
      </trkpt>
      <trkpt lat="43.7097" lon="7.31668">
        <ele>170.507</ele>
        <time>2018-03-16T14:27:23Z</time>
      </trkpt>
      <trkpt lat="43.7097" lon="7.31668">
        <ele>170.796</ele>
        <time>2018-03-16T14:27:24Z</time>
      </trkpt>
      <trkpt lat="43.7097" lon="7.31669">
        <ele>171.035</ele>
        <time>2018-03-16T14:27:25Z</time>
      </trkpt>
      <trkpt lat="43.7097" lon="7.3167">
        <ele>170.905</ele>
        <time>2018-03-16T14:27:26Z</time>
      </trkpt>
      <trkpt lat="43.70971" lon="7.31673">
        <ele>171.736</ele>
        <time>2018-03-16T14:27:29Z</time>
      </trkpt>
      <trkpt lat="43.70973" lon="7.31677">
        <ele>172.133</ele>
        <time>2018-03-16T14:27:33Z</time>
      </trkpt>
      <trkpt lat="43.70973" lon="7.31677">
        <ele>172.518</ele>
        <time>2018-03-16T14:27:34Z</time>
      </trkpt>
      <trkpt lat="43.70973" lon="7.31677">
        <ele>172.518</ele>
        <time>2018-03-16T14:27:34Z</time>
      </trkpt>
      <trkpt lat="43.70973" lon="7.31677">
        <ele>172.613</ele>
        <time>2018-03-16T14:27:35Z</time>
      </trkpt>
      <trkpt lat="43.70974" lon="7.31679">
        <ele>172.831</ele>
        <time>2018-03-16T14:27:38Z</time>
      </trkpt>
      <trkpt lat="43.70974" lon="7.3168">
        <ele>173.168</ele>
        <time>2018-03-16T14:27:40Z</time>
      </trkpt>
      <trkpt lat="43.70976" lon="7.31686">
        <ele>173.553</ele>
        <time>2018-03-16T14:27:44Z</time>
      </trkpt>
      <trkpt lat="43.70979" lon="7.31693">
        <ele>174.134</ele>
        <time>2018-03-16T14:27:48Z</time>
      </trkpt>
      <trkpt lat="43.70982" lon="7.31693">
        <ele>174.236</ele>
        <time>2018-03-16T14:27:51Z</time>
      </trkpt>
      <trkpt lat="43.70983" lon="7.31689">
        <ele>174.101</ele>
        <time>2018-03-16T14:27:53Z</time>
      </trkpt>
      <trkpt lat="43.70983" lon="7.31683">
        <ele>174.102</ele>
        <time>2018-03-16T14:27:57Z</time>
      </trkpt>
      <trkpt lat="43.70982" lon="7.31675">
        <ele>173.926</ele>
        <time>2018-03-16T14:28:01Z</time>
      </trkpt>
      <trkpt lat="43.70984" lon="7.3167">
        <ele>173.88</ele>
        <time>2018-03-16T14:28:04Z</time>
      </trkpt>
      <trkpt lat="43.70986" lon="7.31666">
        <ele>173.768</ele>
        <time>2018-03-16T14:28:07Z</time>
      </trkpt>
      <trkpt lat="43.70987" lon="7.31662">
        <ele>173.79</ele>
        <time>2018-03-16T14:28:10Z</time>
      </trkpt>
      <trkpt lat="43.70988" lon="7.31657">
        <ele>173.768</ele>
        <time>2018-03-16T14:28:14Z</time>
      </trkpt>
      <trkpt lat="43.70988" lon="7.31652">
        <ele>173.853</ele>
        <time>2018-03-16T14:28:17Z</time>
      </trkpt>
      <trkpt lat="43.7099" lon="7.31648">
        <ele>173.419</ele>
        <time>2018-03-16T14:28:21Z</time>
      </trkpt>
      <trkpt lat="43.70991" lon="7.31641">
        <ele>173.327</ele>
        <time>2018-03-16T14:28:25Z</time>
      </trkpt>
      <trkpt lat="43.70991" lon="7.31636">
        <ele>173.158</ele>
        <time>2018-03-16T14:28:28Z</time>
      </trkpt>
      <trkpt lat="43.70991" lon="7.3163">
        <ele>173</ele>
        <time>2018-03-16T14:28:31Z</time>
      </trkpt>
      <trkpt lat="43.70992" lon="7.31624">
        <ele>172.863</ele>
        <time>2018-03-16T14:28:34Z</time>
      </trkpt>
      <trkpt lat="43.70992" lon="7.31622">
        <ele>173.143</ele>
        <time>2018-03-16T14:28:36Z</time>
      </trkpt>
      <trkpt lat="43.70992" lon="7.31622">
        <ele>173.143</ele>
        <time>2018-03-16T14:28:36Z</time>
      </trkpt>
      <trkpt lat="43.7099" lon="7.31619">
        <ele>173.145</ele>
        <time>2018-03-16T14:28:37Z</time>
      </trkpt>
      <trkpt lat="43.7099" lon="7.31619">
        <ele>173.238</ele>
        <time>2018-03-16T14:28:38Z</time>
      </trkpt>
      <trkpt lat="43.7099" lon="7.31619">
        <ele>173.12</ele>
        <time>2018-03-16T14:28:43Z</time>
      </trkpt>
      <trkpt lat="43.7099" lon="7.31617">
        <ele>173.02</ele>
        <time>2018-03-16T14:28:44Z</time>
      </trkpt>
      <trkpt lat="43.7099" lon="7.31617">
        <ele>172.908</ele>
        <time>2018-03-16T14:28:45Z</time>
      </trkpt>
      <trkpt lat="43.7099" lon="7.31617">
        <ele>172.947</ele>
        <time>2018-03-16T14:28:46Z</time>
      </trkpt>
      <trkpt lat="43.7099" lon="7.31616">
        <ele>173.078</ele>
        <time>2018-03-16T14:28:47Z</time>
      </trkpt>
      <trkpt lat="43.7099" lon="7.31616">
        <ele>173.078</ele>
        <time>2018-03-16T14:28:47Z</time>
      </trkpt>
      <trkpt lat="43.7099" lon="7.31616">
        <ele>173.162</ele>
        <time>2018-03-16T14:28:48Z</time>
      </trkpt>
      <trkpt lat="43.7099" lon="7.31616">
        <ele>173.017</ele>
        <time>2018-03-16T14:28:58Z</time>
      </trkpt>
      <trkpt lat="43.7099" lon="7.31616">
        <ele>173.046</ele>
        <time>2018-03-16T14:28:59Z</time>
      </trkpt>
      <trkpt lat="43.7099" lon="7.31616">
        <ele>173.087</ele>
        <time>2018-03-16T14:29:00Z</time>
      </trkpt>
      <trkpt lat="43.7099" lon="7.31616">
        <ele>173.065</ele>
        <time>2018-03-16T14:29:03Z</time>
      </trkpt>
      <trkpt lat="43.7099" lon="7.31615">
        <ele>172.878</ele>
        <time>2018-03-16T14:29:04Z</time>
      </trkpt>
      <trkpt lat="43.70991" lon="7.31608">
        <ele>172.567</ele>
        <time>2018-03-16T14:29:07Z</time>
      </trkpt>
      <trkpt lat="43.7099" lon="7.31601">
        <ele>172.703</ele>
        <time>2018-03-16T14:29:10Z</time>
      </trkpt>
      <trkpt lat="43.7099" lon="7.3159">
        <ele>173.529</ele>
        <time>2018-03-16T14:29:16Z</time>
      </trkpt>
      <trkpt lat="43.7099" lon="7.31589">
        <ele>173.375</ele>
        <time>2018-03-16T14:29:18Z</time>
      </trkpt>
      <trkpt lat="43.70989" lon="7.31589">
        <ele>173.304</ele>
        <time>2018-03-16T14:29:19Z</time>
      </trkpt>
      <trkpt lat="43.70989" lon="7.3159">
        <ele>173.374</ele>
        <time>2018-03-16T14:29:20Z</time>
      </trkpt>
      <trkpt lat="43.70989" lon="7.3159">
        <ele>173.381</ele>
        <time>2018-03-16T14:29:22Z</time>
      </trkpt>
      <trkpt lat="43.70989" lon="7.3159">
        <ele>173.381</ele>
        <time>2018-03-16T14:29:22Z</time>
      </trkpt>
      <trkpt lat="43.70989" lon="7.3159">
        <ele>173.283</ele>
        <time>2018-03-16T14:29:23Z</time>
      </trkpt>
      <trkpt lat="43.70989" lon="7.3159">
        <ele>172.935</ele>
        <time>2018-03-16T14:29:25Z</time>
      </trkpt>
      <trkpt lat="43.70989" lon="7.3159">
        <ele>173.488</ele>
        <time>2018-03-16T14:29:26Z</time>
      </trkpt>
      <trkpt lat="43.7099" lon="7.31588">
        <ele>173.175</ele>
        <time>2018-03-16T14:29:27Z</time>
      </trkpt>
      <trkpt lat="43.70989" lon="7.31567">
        <ele>173.445</ele>
        <time>2018-03-16T14:29:37Z</time>
      </trkpt>
      <trkpt lat="43.70995" lon="7.31546">
        <ele>173.936</ele>
        <time>2018-03-16T14:29:48Z</time>
      </trkpt>
      <trkpt lat="43.70997" lon="7.31542">
        <ele>173.919</ele>
        <time>2018-03-16T14:29:50Z</time>
      </trkpt>
      <trkpt lat="43.70998" lon="7.31538">
        <ele>174.335</ele>
        <time>2018-03-16T14:29:52Z</time>
      </trkpt>
      <trkpt lat="43.71003" lon="7.3153">
        <ele>174.542</ele>
        <time>2018-03-16T14:29:57Z</time>
      </trkpt>
      <trkpt lat="43.71004" lon="7.31526">
        <ele>174.664</ele>
        <time>2018-03-16T14:29:59Z</time>
      </trkpt>
      <trkpt lat="43.71008" lon="7.31519">
        <ele>175.869</ele>
        <time>2018-03-16T14:30:03Z</time>
      </trkpt>
      <trkpt lat="43.71009" lon="7.31518">
        <ele>174.164</ele>
        <time>2018-03-16T14:30:05Z</time>
      </trkpt>
      <trkpt lat="43.71008" lon="7.31519">
        <ele>173.739</ele>
        <time>2018-03-16T14:30:06Z</time>
      </trkpt>
      <trkpt lat="43.71008" lon="7.31521">
        <ele>174.974</ele>
        <time>2018-03-16T14:30:07Z</time>
      </trkpt>
      <trkpt lat="43.71006" lon="7.31523">
        <ele>174.747</ele>
        <time>2018-03-16T14:30:08Z</time>
      </trkpt>
      <trkpt lat="43.71003" lon="7.31534">
        <ele>174.213</ele>
        <time>2018-03-16T14:30:12Z</time>
      </trkpt>
      <trkpt lat="43.71" lon="7.3154">
        <ele>174.943</ele>
        <time>2018-03-16T14:30:15Z</time>
      </trkpt>
      <trkpt lat="43.70997" lon="7.31546">
        <ele>175.116</ele>
        <time>2018-03-16T14:30:18Z</time>
      </trkpt>
      <trkpt lat="43.70988" lon="7.31576">
        <ele>175.672</ele>
        <time>2018-03-16T14:30:33Z</time>
      </trkpt>
      <trkpt lat="43.70988" lon="7.31595">
        <ele>176.536</ele>
        <time>2018-03-16T14:30:42Z</time>
      </trkpt>
      <trkpt lat="43.7099" lon="7.31606">
        <ele>176.609</ele>
        <time>2018-03-16T14:30:47Z</time>
      </trkpt>
      <trkpt lat="43.70991" lon="7.31629">
        <ele>177.455</ele>
        <time>2018-03-16T14:30:58Z</time>
      </trkpt>
      <trkpt lat="43.70991" lon="7.31633">
        <ele>177.835</ele>
        <time>2018-03-16T14:31:01Z</time>
      </trkpt>
      <trkpt lat="43.70991" lon="7.31641">
        <ele>178.251</ele>
        <time>2018-03-16T14:31:05Z</time>
      </trkpt>
      <trkpt lat="43.70992" lon="7.31646">
        <ele>178.188</ele>
        <time>2018-03-16T14:31:07Z</time>
      </trkpt>
      <trkpt lat="43.70996" lon="7.31669">
        <ele>179.434</ele>
        <time>2018-03-16T14:31:17Z</time>
      </trkpt>
      <trkpt lat="43.70998" lon="7.31682">
        <ele>180.034</ele>
        <time>2018-03-16T14:31:23Z</time>
      </trkpt>
      <trkpt lat="43.70998" lon="7.31688">
        <ele>180.285</ele>
        <time>2018-03-16T14:31:26Z</time>
      </trkpt>
      <trkpt lat="43.70998" lon="7.31692">
        <ele>180.081</ele>
        <time>2018-03-16T14:31:28Z</time>
      </trkpt>
      <trkpt lat="43.70997" lon="7.317">
        <ele>180.715</ele>
        <time>2018-03-16T14:31:32Z</time>
      </trkpt>
      <trkpt lat="43.70996" lon="7.31704">
        <ele>180.875</ele>
        <time>2018-03-16T14:31:34Z</time>
      </trkpt>
      <trkpt lat="43.70997" lon="7.31709">
        <ele>181.145</ele>
        <time>2018-03-16T14:31:37Z</time>
      </trkpt>
      <trkpt lat="43.70997" lon="7.31713">
        <ele>181.503</ele>
        <time>2018-03-16T14:31:39Z</time>
      </trkpt>
      <trkpt lat="43.70997" lon="7.3172">
        <ele>181.468</ele>
        <time>2018-03-16T14:31:42Z</time>
      </trkpt>
      <trkpt lat="43.70997" lon="7.31724">
        <ele>181.47</ele>
        <time>2018-03-16T14:31:44Z</time>
      </trkpt>
      <trkpt lat="43.70997" lon="7.31728">
        <ele>181.525</ele>
        <time>2018-03-16T14:31:46Z</time>
      </trkpt>
      <trkpt lat="43.70999" lon="7.3174">
        <ele>181.987</ele>
        <time>2018-03-16T14:31:51Z</time>
      </trkpt>
      <trkpt lat="43.70999" lon="7.31744">
        <ele>182.299</ele>
        <time>2018-03-16T14:31:53Z</time>
      </trkpt>
      <trkpt lat="43.70998" lon="7.31755">
        <ele>182.364</ele>
        <time>2018-03-16T14:31:57Z</time>
      </trkpt>
      <trkpt lat="43.70996" lon="7.31761">
        <ele>182.401</ele>
        <time>2018-03-16T14:32:00Z</time>
      </trkpt>
      <trkpt lat="43.70995" lon="7.31777">
        <ele>182.859</ele>
        <time>2018-03-16T14:32:07Z</time>
      </trkpt>
      <trkpt lat="43.70996" lon="7.31782">
        <ele>182.777</ele>
        <time>2018-03-16T14:32:10Z</time>
      </trkpt>
      <trkpt lat="43.70996" lon="7.31791">
        <ele>182.956</ele>
        <time>2018-03-16T14:32:14Z</time>
      </trkpt>
      <trkpt lat="43.70995" lon="7.31795">
        <ele>183.257</ele>
        <time>2018-03-16T14:32:16Z</time>
      </trkpt>
      <trkpt lat="43.70993" lon="7.31799">
        <ele>183.094</ele>
        <time>2018-03-16T14:32:18Z</time>
      </trkpt>
      <trkpt lat="43.70993" lon="7.31803">
        <ele>183.394</ele>
        <time>2018-03-16T14:32:21Z</time>
      </trkpt>
      <trkpt lat="43.7099" lon="7.31801">
        <ele>182.717</ele>
        <time>2018-03-16T14:32:24Z</time>
      </trkpt>
      <trkpt lat="43.70987" lon="7.31792">
        <ele>181.118</ele>
        <time>2018-03-16T14:32:28Z</time>
      </trkpt>
      <trkpt lat="43.70986" lon="7.31785">
        <ele>179.704</ele>
        <time>2018-03-16T14:32:31Z</time>
      </trkpt>
      <trkpt lat="43.70984" lon="7.31782">
        <ele>179.954</ele>
        <time>2018-03-16T14:32:33Z</time>
      </trkpt>
      <trkpt lat="43.70983" lon="7.31781">
        <ele>179.916</ele>
        <time>2018-03-16T14:32:35Z</time>
      </trkpt>
      <trkpt lat="43.70983" lon="7.31781">
        <ele>179.916</ele>
        <time>2018-03-16T14:32:35Z</time>
      </trkpt>
      <trkpt lat="43.70982" lon="7.31781">
        <ele>179.872</ele>
        <time>2018-03-16T14:32:36Z</time>
      </trkpt>
      <trkpt lat="43.70981" lon="7.31777">
        <ele>179.53</ele>
        <time>2018-03-16T14:32:38Z</time>
      </trkpt>
      <trkpt lat="43.7098" lon="7.31767">
        <ele>178.234</ele>
        <time>2018-03-16T14:32:43Z</time>
      </trkpt>
      <trkpt lat="43.70981" lon="7.31763">
        <ele>177.718</ele>
        <time>2018-03-16T14:32:46Z</time>
      </trkpt>
      <trkpt lat="43.70979" lon="7.31756">
        <ele>176.732</ele>
        <time>2018-03-16T14:32:51Z</time>
      </trkpt>
      <trkpt lat="43.70978" lon="7.31752">
        <ele>176.656</ele>
        <time>2018-03-16T14:32:53Z</time>
      </trkpt>
      <trkpt lat="43.70977" lon="7.31749">
        <ele>176.065</ele>
        <time>2018-03-16T14:32:56Z</time>
      </trkpt>
      <trkpt lat="43.70977" lon="7.31744">
        <ele>175.598</ele>
        <time>2018-03-16T14:32:59Z</time>
      </trkpt>
      <trkpt lat="43.70976" lon="7.31738">
        <ele>175.287</ele>
        <time>2018-03-16T14:33:03Z</time>
      </trkpt>
      <trkpt lat="43.70976" lon="7.31732">
        <ele>174.229</ele>
        <time>2018-03-16T14:33:08Z</time>
      </trkpt>
      <trkpt lat="43.70974" lon="7.31718">
        <ele>172.24</ele>
        <time>2018-03-16T14:33:16Z</time>
      </trkpt>
      <trkpt lat="43.70973" lon="7.31712">
        <ele>172.299</ele>
        <time>2018-03-16T14:33:19Z</time>
      </trkpt>
      <trkpt lat="43.7097" lon="7.31705">
        <ele>171.398</ele>
        <time>2018-03-16T14:33:23Z</time>
      </trkpt>
      <trkpt lat="43.7097" lon="7.31704">
        <ele>171.464</ele>
        <time>2018-03-16T14:33:24Z</time>
      </trkpt>
      <trkpt lat="43.70968" lon="7.31694">
        <ele>170.362</ele>
        <time>2018-03-16T14:33:30Z</time>
      </trkpt>
      <trkpt lat="43.70966" lon="7.31678">
        <ele>168.349</ele>
        <time>2018-03-16T14:33:40Z</time>
      </trkpt>
      <trkpt lat="43.70965" lon="7.31671">
        <ele>167.733</ele>
        <time>2018-03-16T14:33:45Z</time>
      </trkpt>
      <trkpt lat="43.70964" lon="7.31666">
        <ele>167.363</ele>
        <time>2018-03-16T14:33:48Z</time>
      </trkpt>
      <trkpt lat="43.70963" lon="7.31661">
        <ele>166.923</ele>
        <time>2018-03-16T14:33:51Z</time>
      </trkpt>
      <trkpt lat="43.70961" lon="7.31658">
        <ele>166.18</ele>
        <time>2018-03-16T14:33:54Z</time>
      </trkpt>
      <trkpt lat="43.70959" lon="7.31656">
        <ele>165.825</ele>
        <time>2018-03-16T14:33:56Z</time>
      </trkpt>
      <trkpt lat="43.70958" lon="7.31654">
        <ele>165.392</ele>
        <time>2018-03-16T14:33:58Z</time>
      </trkpt>
      <trkpt lat="43.70958" lon="7.31653">
        <ele>165.556</ele>
        <time>2018-03-16T14:33:59Z</time>
      </trkpt>
      <trkpt lat="43.70958" lon="7.31649">
        <ele>164.673</ele>
        <time>2018-03-16T14:34:03Z</time>
      </trkpt>
      <trkpt lat="43.70959" lon="7.31645">
        <ele>163.808</ele>
        <time>2018-03-16T14:34:08Z</time>
      </trkpt>
      <trkpt lat="43.70958" lon="7.31644">
        <ele>163.229</ele>
        <time>2018-03-16T14:34:11Z</time>
      </trkpt>
      <trkpt lat="43.7096" lon="7.3164">
        <ele>162.49</ele>
        <time>2018-03-16T14:34:16Z</time>
      </trkpt>
      <trkpt lat="43.7096" lon="7.31639">
        <ele>162.221</ele>
        <time>2018-03-16T14:34:17Z</time>
      </trkpt>
      <trkpt lat="43.70961" lon="7.31639">
        <ele>162.075</ele>
        <time>2018-03-16T14:34:18Z</time>
      </trkpt>
      <trkpt lat="43.70964" lon="7.31638">
        <ele>161.674</ele>
        <time>2018-03-16T14:34:22Z</time>
      </trkpt>
      <trkpt lat="43.70964" lon="7.31637">
        <ele>161.41</ele>
        <time>2018-03-16T14:34:23Z</time>
      </trkpt>
      <trkpt lat="43.70964" lon="7.31632">
        <ele>160.896</ele>
        <time>2018-03-16T14:34:26Z</time>
      </trkpt>
      <trkpt lat="43.70963" lon="7.31628">
        <ele>160.325</ele>
        <time>2018-03-16T14:34:29Z</time>
      </trkpt>
      <trkpt lat="43.70962" lon="7.31626">
        <ele>160.311</ele>
        <time>2018-03-16T14:34:31Z</time>
      </trkpt>
      <trkpt lat="43.70962" lon="7.31624">
        <ele>159.847</ele>
        <time>2018-03-16T14:34:33Z</time>
      </trkpt>
      <trkpt lat="43.70962" lon="7.31623">
        <ele>159.527</ele>
        <time>2018-03-16T14:34:35Z</time>
      </trkpt>
      <trkpt lat="43.70962" lon="7.31623">
        <ele>159.604</ele>
        <time>2018-03-16T14:34:36Z</time>
      </trkpt>
      <trkpt lat="43.70962" lon="7.31623">
        <ele>159.837</ele>
        <time>2018-03-16T14:34:41Z</time>
      </trkpt>
      <trkpt lat="43.70961" lon="7.31623">
        <ele>159.799</ele>
        <time>2018-03-16T14:34:42Z</time>
      </trkpt>
      <trkpt lat="43.7096" lon="7.31623">
        <ele>159.762</ele>
        <time>2018-03-16T14:34:45Z</time>
      </trkpt>
      <trkpt lat="43.7096" lon="7.31623">
        <ele>159.762</ele>
        <time>2018-03-16T14:34:45Z</time>
      </trkpt>
      <trkpt lat="43.70961" lon="7.31622">
        <ele>159.818</ele>
        <time>2018-03-16T14:34:46Z</time>
      </trkpt>
      <trkpt lat="43.70962" lon="7.31621">
        <ele>159.476</ele>
        <time>2018-03-16T14:34:49Z</time>
      </trkpt>
      <trkpt lat="43.70962" lon="7.31621">
        <ele>159.476</ele>
        <time>2018-03-16T14:34:49Z</time>
      </trkpt>
      <trkpt lat="43.70962" lon="7.31621">
        <ele>159.721</ele>
        <time>2018-03-16T14:34:50Z</time>
      </trkpt>
      <trkpt lat="43.70962" lon="7.31621">
        <ele>159.716</ele>
        <time>2018-03-16T14:34:52Z</time>
      </trkpt>
      <trkpt lat="43.70964" lon="7.31622">
        <ele>159.736</ele>
        <time>2018-03-16T14:34:53Z</time>
      </trkpt>
      <trkpt lat="43.70966" lon="7.31624">
        <ele>159.719</ele>
        <time>2018-03-16T14:34:56Z</time>
      </trkpt>
      <trkpt lat="43.70969" lon="7.31624">
        <ele>159.713</ele>
        <time>2018-03-16T14:34:58Z</time>
      </trkpt>
      <trkpt lat="43.7097" lon="7.31624">
        <ele>159.814</ele>
        <time>2018-03-16T14:34:58Z</time>
      </trkpt>
      <trkpt lat="43.7097" lon="7.31624">
        <ele>159.814</ele>
        <time>2018-03-16T14:34:58Z</time>
      </trkpt>
      <trkpt lat="43.7097" lon="7.31624">
        <ele>159.805</ele>
        <time>2018-03-16T14:34:59Z</time>
      </trkpt>
      <trkpt lat="43.7097" lon="7.31624">
        <ele>160.138</ele>
        <time>2018-03-16T14:35:01Z</time>
      </trkpt>
      <trkpt lat="43.70971" lon="7.31625">
        <ele>160.415</ele>
        <time>2018-03-16T14:35:02Z</time>
      </trkpt>
      <trkpt lat="43.70971" lon="7.31625">
        <ele>160.415</ele>
        <time>2018-03-16T14:35:02Z</time>
      </trkpt>
      <trkpt lat="43.70971" lon="7.31625">
        <ele>160.355</ele>
        <time>2018-03-16T14:35:03Z</time>
      </trkpt>
      <trkpt lat="43.70971" lon="7.31625">
        <ele>160.462</ele>
        <time>2018-03-16T14:35:05Z</time>
      </trkpt>
      <trkpt lat="43.70971" lon="7.31627">
        <ele>160.442</ele>
        <time>2018-03-16T14:35:06Z</time>
      </trkpt>
      <trkpt lat="43.70971" lon="7.31627">
        <ele>160.442</ele>
        <time>2018-03-16T14:35:06Z</time>
      </trkpt>
      <trkpt lat="43.70971" lon="7.31627">
        <ele>160.485</ele>
        <time>2018-03-16T14:35:07Z</time>
      </trkpt>
      <trkpt lat="43.70971" lon="7.31627">
        <ele>160.485</ele>
        <time>2018-03-16T14:35:07Z</time>
      </trkpt>
      <trkpt lat="43.70971" lon="7.31626">
        <ele>160.326</ele>
        <time>2018-03-16T14:35:08Z</time>
      </trkpt>
      <trkpt lat="43.70971" lon="7.31626">
        <ele>160.399</ele>
        <time>2018-03-16T14:35:10Z</time>
      </trkpt>
      <trkpt lat="43.70971" lon="7.31626">
        <ele>160.399</ele>
        <time>2018-03-16T14:35:10Z</time>
      </trkpt>
      <trkpt lat="43.70971" lon="7.31626">
        <ele>160.515</ele>
        <time>2018-03-16T14:35:11Z</time>
      </trkpt>
      <trkpt lat="43.70971" lon="7.31626">
        <ele>160.515</ele>
        <time>2018-03-16T14:35:11Z</time>
      </trkpt>
      <trkpt lat="43.70971" lon="7.31626">
        <ele>160.311</ele>
        <time>2018-03-16T14:35:12Z</time>
      </trkpt>
      <trkpt lat="43.70971" lon="7.31626">
        <ele>160.221</ele>
        <time>2018-03-16T14:35:13Z</time>
      </trkpt>
      <trkpt lat="43.70971" lon="7.31626">
        <ele>160.221</ele>
        <time>2018-03-16T14:35:13Z</time>
      </trkpt>
      <trkpt lat="43.70971" lon="7.31626">
        <ele>160.287</ele>
        <time>2018-03-16T14:35:14Z</time>
      </trkpt>
      <trkpt lat="43.70971" lon="7.31625">
        <ele>160.175</ele>
        <time>2018-03-16T14:35:15Z</time>
      </trkpt>
      <trkpt lat="43.70971" lon="7.31625">
        <ele>160.175</ele>
        <time>2018-03-16T14:35:15Z</time>
      </trkpt>
      <trkpt lat="43.7097" lon="7.31625">
        <ele>160.028</ele>
        <time>2018-03-16T14:35:16Z</time>
      </trkpt>
      <trkpt lat="43.7097" lon="7.31624">
        <ele>159.898</ele>
        <time>2018-03-16T14:35:18Z</time>
      </trkpt>
      <trkpt lat="43.7097" lon="7.31624">
        <ele>159.898</ele>
        <time>2018-03-16T14:35:18Z</time>
      </trkpt>
      <trkpt lat="43.7097" lon="7.31623">
        <ele>159.679</ele>
        <time>2018-03-16T14:35:19Z</time>
      </trkpt>
      <trkpt lat="43.70969" lon="7.31623">
        <ele>159.891</ele>
        <time>2018-03-16T14:35:21Z</time>
      </trkpt>
      <trkpt lat="43.70969" lon="7.31623">
        <ele>159.891</ele>
        <time>2018-03-16T14:35:21Z</time>
      </trkpt>
      <trkpt lat="43.70968" lon="7.31623">
        <ele>159.709</ele>
        <time>2018-03-16T14:35:22Z</time>
      </trkpt>
      <trkpt lat="43.70968" lon="7.31623">
        <ele>159.709</ele>
        <time>2018-03-16T14:35:22Z</time>
      </trkpt>
      <trkpt lat="43.70968" lon="7.31623">
        <ele>159.707</ele>
        <time>2018-03-16T14:35:23Z</time>
      </trkpt>
      <trkpt lat="43.70968" lon="7.31623">
        <ele>159.971</ele>
        <time>2018-03-16T14:35:25Z</time>
      </trkpt>
      <trkpt lat="43.70967" lon="7.3162">
        <ele>159.692</ele>
        <time>2018-03-16T14:35:26Z</time>
      </trkpt>
      <trkpt lat="43.70966" lon="7.31619">
        <ele>159.724</ele>
        <time>2018-03-16T14:35:29Z</time>
      </trkpt>
      <trkpt lat="43.70966" lon="7.31619">
        <ele>159.616</ele>
        <time>2018-03-16T14:35:31Z</time>
      </trkpt>
      <trkpt lat="43.70966" lon="7.31619">
        <ele>159.616</ele>
        <time>2018-03-16T14:35:31Z</time>
      </trkpt>
      <trkpt lat="43.70966" lon="7.31619">
        <ele>159.594</ele>
        <time>2018-03-16T14:35:32Z</time>
      </trkpt>
      <trkpt lat="43.70965" lon="7.31618">
        <ele>159.716</ele>
        <time>2018-03-16T14:35:34Z</time>
      </trkpt>
      <trkpt lat="43.70965" lon="7.31618">
        <ele>159.749</ele>
        <time>2018-03-16T14:35:35Z</time>
      </trkpt>
      <trkpt lat="43.70965" lon="7.31618">
        <ele>159.713</ele>
        <time>2018-03-16T14:35:40Z</time>
      </trkpt>
      <trkpt lat="43.70965" lon="7.31619">
        <ele>159.618</ele>
        <time>2018-03-16T14:35:41Z</time>
      </trkpt>
      <trkpt lat="43.70965" lon="7.31619">
        <ele>159.582</ele>
        <time>2018-03-16T14:35:42Z</time>
      </trkpt>
      <trkpt lat="43.70965" lon="7.31619">
        <ele>159.582</ele>
        <time>2018-03-16T14:35:42Z</time>
      </trkpt>
      <trkpt lat="43.70963" lon="7.31619">
        <ele>159.574</ele>
        <time>2018-03-16T14:35:43Z</time>
      </trkpt>
      <trkpt lat="43.70962" lon="7.31618">
        <ele>159.629</ele>
        <time>2018-03-16T14:35:46Z</time>
      </trkpt>
      <trkpt lat="43.70962" lon="7.31618">
        <ele>159.629</ele>
        <time>2018-03-16T14:35:46Z</time>
      </trkpt>
      <trkpt lat="43.70962" lon="7.31618">
        <ele>159.773</ele>
        <time>2018-03-16T14:35:47Z</time>
      </trkpt>
      <trkpt lat="43.70962" lon="7.31616">
        <ele>159.261</ele>
        <time>2018-03-16T14:35:51Z</time>
      </trkpt>
      <trkpt lat="43.70962" lon="7.31616">
        <ele>159.022</ele>
        <time>2018-03-16T14:35:52Z</time>
      </trkpt>
      <trkpt lat="43.70962" lon="7.31616">
        <ele>158.847</ele>
        <time>2018-03-16T14:35:53Z</time>
      </trkpt>
      <trkpt lat="43.70962" lon="7.31616">
        <ele>159.42</ele>
        <time>2018-03-16T14:35:57Z</time>
      </trkpt>
      <trkpt lat="43.70959" lon="7.31615">
        <ele>159.374</ele>
        <time>2018-03-16T14:35:58Z</time>
      </trkpt>
      <trkpt lat="43.70959" lon="7.31614">
        <ele>159.324</ele>
        <time>2018-03-16T14:35:59Z</time>
      </trkpt>
      <trkpt lat="43.70959" lon="7.31613">
        <ele>159.24</ele>
        <time>2018-03-16T14:36:00Z</time>
      </trkpt>
      <trkpt lat="43.70959" lon="7.31613">
        <ele>158.992</ele>
        <time>2018-03-16T14:36:01Z</time>
      </trkpt>
      <trkpt lat="43.70959" lon="7.31613">
        <ele>158.992</ele>
        <time>2018-03-16T14:36:01Z</time>
      </trkpt>
      <trkpt lat="43.70958" lon="7.31612">
        <ele>159.056</ele>
        <time>2018-03-16T14:36:02Z</time>
      </trkpt>
      <trkpt lat="43.70958" lon="7.31612">
        <ele>159.314</ele>
        <time>2018-03-16T14:36:03Z</time>
      </trkpt>
      <trkpt lat="43.70958" lon="7.31612">
        <ele>159.472</ele>
        <time>2018-03-16T14:36:05Z</time>
      </trkpt>
      <trkpt lat="43.70958" lon="7.31613">
        <ele>159.446</ele>
        <time>2018-03-16T14:36:06Z</time>
      </trkpt>
      <trkpt lat="43.70959" lon="7.31617">
        <ele>159.857</ele>
        <time>2018-03-16T14:36:09Z</time>
      </trkpt>
      <trkpt lat="43.70959" lon="7.31619">
        <ele>159.902</ele>
        <time>2018-03-16T14:36:10Z</time>
      </trkpt>
      <trkpt lat="43.70961" lon="7.3162">
        <ele>159.899</ele>
        <time>2018-03-16T14:36:12Z</time>
      </trkpt>
      <trkpt lat="43.70961" lon="7.3162">
        <ele>160.009</ele>
        <time>2018-03-16T14:36:14Z</time>
      </trkpt>
      <trkpt lat="43.70963" lon="7.31621">
        <ele>159.968</ele>
        <time>2018-03-16T14:36:15Z</time>
      </trkpt>
      <trkpt lat="43.70963" lon="7.31621">
        <ele>160.203</ele>
        <time>2018-03-16T14:36:18Z</time>
      </trkpt>
      <trkpt lat="43.70963" lon="7.31621">
        <ele>160.07</ele>
        <time>2018-03-16T14:36:30Z</time>
      </trkpt>
      <trkpt lat="43.70965" lon="7.31623">
        <ele>160.329</ele>
        <time>2018-03-16T14:36:31Z</time>
      </trkpt>
      <trkpt lat="43.70966" lon="7.31624">
        <ele>160.51</ele>
        <time>2018-03-16T14:36:34Z</time>
      </trkpt>
      <trkpt lat="43.70966" lon="7.31624">
        <ele>160.476</ele>
        <time>2018-03-16T14:36:37Z</time>
      </trkpt>
      <trkpt lat="43.70967" lon="7.31625">
        <ele>160.369</ele>
        <time>2018-03-16T14:36:38Z</time>
      </trkpt>
      <trkpt lat="43.70967" lon="7.31625">
        <ele>160.369</ele>
        <time>2018-03-16T14:36:38Z</time>
      </trkpt>
      <trkpt lat="43.70967" lon="7.31625">
        <ele>160.485</ele>
        <time>2018-03-16T14:36:39Z</time>
      </trkpt>
      <trkpt lat="43.70967" lon="7.31625">
        <ele>160.443</ele>
        <time>2018-03-16T14:36:43Z</time>
      </trkpt>
      <trkpt lat="43.70967" lon="7.31625">
        <ele>160.302</ele>
        <time>2018-03-16T14:36:44Z</time>
      </trkpt>
      <trkpt lat="43.70967" lon="7.31625">
        <ele>160.316</ele>
        <time>2018-03-16T14:36:45Z</time>
      </trkpt>
      <trkpt lat="43.70967" lon="7.31625">
        <ele>160.296</ele>
        <time>2018-03-16T14:36:46Z</time>
      </trkpt>
      <trkpt lat="43.70966" lon="7.31625">
        <ele>160.347</ele>
        <time>2018-03-16T14:36:47Z</time>
      </trkpt>
      <trkpt lat="43.70966" lon="7.31626">
        <ele>159.935</ele>
        <time>2018-03-16T14:36:49Z</time>
      </trkpt>
      <trkpt lat="43.70966" lon="7.31626">
        <ele>159.892</ele>
        <time>2018-03-16T14:36:50Z</time>
      </trkpt>
      <trkpt lat="43.70966" lon="7.31626">
        <ele>159.895</ele>
        <time>2018-03-16T14:36:51Z</time>
      </trkpt>
      <trkpt lat="43.70966" lon="7.31626">
        <ele>159.943</ele>
        <time>2018-03-16T14:36:57Z</time>
      </trkpt>
      <trkpt lat="43.70967" lon="7.31627">
        <ele>159.991</ele>
        <time>2018-03-16T14:36:58Z</time>
      </trkpt>
      <trkpt lat="43.70967" lon="7.31627">
        <ele>160.261</ele>
        <time>2018-03-16T14:37:00Z</time>
      </trkpt>
      <trkpt lat="43.70967" lon="7.31627">
        <ele>160.565</ele>
        <time>2018-03-16T14:37:03Z</time>
      </trkpt>
      <trkpt lat="43.70967" lon="7.31627">
        <ele>160.609</ele>
        <time>2018-03-16T14:37:04Z</time>
      </trkpt>
      <trkpt lat="43.70967" lon="7.31627">
        <ele>160.609</ele>
        <time>2018-03-16T14:37:04Z</time>
      </trkpt>
      <trkpt lat="43.70967" lon="7.31627">
        <ele>160.598</ele>
        <time>2018-03-16T14:37:05Z</time>
      </trkpt>
      <trkpt lat="43.70967" lon="7.31627">
        <ele>160.579</ele>
        <time>2018-03-16T14:37:07Z</time>
      </trkpt>
      <trkpt lat="43.70966" lon="7.31626">
        <ele>160.579</ele>
        <time>2018-03-16T14:37:08Z</time>
      </trkpt>
      <trkpt lat="43.70966" lon="7.31626">
        <ele>160.593</ele>
        <time>2018-03-16T14:37:10Z</time>
      </trkpt>
      <trkpt lat="43.70966" lon="7.31626">
        <ele>160.473</ele>
        <time>2018-03-16T14:37:16Z</time>
      </trkpt>
      <trkpt lat="43.70967" lon="7.31626">
        <ele>159.979</ele>
        <time>2018-03-16T14:37:17Z</time>
      </trkpt>
      <trkpt lat="43.70967" lon="7.31626">
        <ele>160.046</ele>
        <time>2018-03-16T14:37:18Z</time>
      </trkpt>
      <trkpt lat="43.70967" lon="7.31626">
        <ele>160.046</ele>
        <time>2018-03-16T14:37:18Z</time>
      </trkpt>
      <trkpt lat="43.70967" lon="7.31627">
        <ele>160.134</ele>
        <time>2018-03-16T14:37:19Z</time>
      </trkpt>
      <trkpt lat="43.70967" lon="7.31627">
        <ele>160.205</ele>
        <time>2018-03-16T14:37:20Z</time>
      </trkpt>
      <trkpt lat="43.70967" lon="7.31627">
        <ele>160.205</ele>
        <time>2018-03-16T14:37:20Z</time>
      </trkpt>
      <trkpt lat="43.70967" lon="7.31628">
        <ele>160.756</ele>
        <time>2018-03-16T14:37:21Z</time>
      </trkpt>
      <trkpt lat="43.70967" lon="7.31628">
        <ele>160.255</ele>
        <time>2018-03-16T14:37:22Z</time>
      </trkpt>
      <trkpt lat="43.70967" lon="7.31628">
        <ele>160.255</ele>
        <time>2018-03-16T14:37:22Z</time>
      </trkpt>
      <trkpt lat="43.70967" lon="7.31628">
        <ele>161.309</ele>
        <time>2018-03-16T14:37:23Z</time>
      </trkpt>
      <trkpt lat="43.70967" lon="7.31628">
        <ele>161.309</ele>
        <time>2018-03-16T14:37:23Z</time>
      </trkpt>
      <trkpt lat="43.70967" lon="7.31628">
        <ele>159.514</ele>
        <time>2018-03-16T14:37:24Z</time>
      </trkpt>
      <trkpt lat="43.70967" lon="7.31628">
        <ele>159.514</ele>
        <time>2018-03-16T14:37:24Z</time>
      </trkpt>
      <trkpt lat="43.70966" lon="7.31628">
        <ele>159.483</ele>
        <time>2018-03-16T14:37:25Z</time>
      </trkpt>
      <trkpt lat="43.70966" lon="7.31627">
        <ele>160.058</ele>
        <time>2018-03-16T14:37:27Z</time>
      </trkpt>
      <trkpt lat="43.70969" lon="7.31626">
        <ele>160.008</ele>
        <time>2018-03-16T14:37:31Z</time>
      </trkpt>
      <trkpt lat="43.70969" lon="7.31627">
        <ele>159.856</ele>
        <time>2018-03-16T14:37:32Z</time>
      </trkpt>
      <trkpt lat="43.70969" lon="7.31627">
        <ele>159.812</ele>
        <time>2018-03-16T14:37:33Z</time>
      </trkpt>
      <trkpt lat="43.70969" lon="7.31627">
        <ele>159.636</ele>
        <time>2018-03-16T14:37:41Z</time>
      </trkpt>
      <trkpt lat="43.70968" lon="7.31628">
        <ele>159.639</ele>
        <time>2018-03-16T14:37:42Z</time>
      </trkpt>
      <trkpt lat="43.70968" lon="7.31628">
        <ele>159.639</ele>
        <time>2018-03-16T14:37:42Z</time>
      </trkpt>
      <trkpt lat="43.70968" lon="7.31627">
        <ele>159.751</ele>
        <time>2018-03-16T14:37:43Z</time>
      </trkpt>
      <trkpt lat="43.70967" lon="7.31626">
        <ele>159.5</ele>
        <time>2018-03-16T14:37:46Z</time>
      </trkpt>
      <trkpt lat="43.70967" lon="7.31626">
        <ele>159.5</ele>
        <time>2018-03-16T14:37:46Z</time>
      </trkpt>
      <trkpt lat="43.70967" lon="7.31624">
        <ele>159.035</ele>
        <time>2018-03-16T14:37:47Z</time>
      </trkpt>
      <trkpt lat="43.70968" lon="7.31624">
        <ele>158.277</ele>
        <time>2018-03-16T14:37:49Z</time>
      </trkpt>
      <trkpt lat="43.70968" lon="7.31624">
        <ele>158.277</ele>
        <time>2018-03-16T14:37:49Z</time>
      </trkpt>
      <trkpt lat="43.70968" lon="7.31623">
        <ele>158.71</ele>
        <time>2018-03-16T14:37:50Z</time>
      </trkpt>
      <trkpt lat="43.70968" lon="7.31623">
        <ele>158.836</ele>
        <time>2018-03-16T14:37:51Z</time>
      </trkpt>
      <trkpt lat="43.70968" lon="7.31623">
        <ele>158.836</ele>
        <time>2018-03-16T14:37:51Z</time>
      </trkpt>
      <trkpt lat="43.70968" lon="7.31624">
        <ele>158.596</ele>
        <time>2018-03-16T14:37:52Z</time>
      </trkpt>
      <trkpt lat="43.70969" lon="7.31624">
        <ele>158.692</ele>
        <time>2018-03-16T14:37:54Z</time>
      </trkpt>
      <trkpt lat="43.70969" lon="7.31624">
        <ele>158.921</ele>
        <time>2018-03-16T14:37:56Z</time>
      </trkpt>
      <trkpt lat="43.70969" lon="7.31624">
        <ele>159.025</ele>
        <time>2018-03-16T14:37:57Z</time>
      </trkpt>
      <trkpt lat="43.70969" lon="7.31625">
        <ele>158.967</ele>
        <time>2018-03-16T14:37:58Z</time>
      </trkpt>
      <trkpt lat="43.70969" lon="7.31627">
        <ele>158.999</ele>
        <time>2018-03-16T14:38:01Z</time>
      </trkpt>
      <trkpt lat="43.70968" lon="7.31628">
        <ele>158.614</ele>
        <time>2018-03-16T14:38:03Z</time>
      </trkpt>
      <trkpt lat="43.70968" lon="7.31628">
        <ele>158.614</ele>
        <time>2018-03-16T14:38:03Z</time>
      </trkpt>
      <trkpt lat="43.70969" lon="7.31629">
        <ele>158.695</ele>
        <time>2018-03-16T14:38:04Z</time>
      </trkpt>
      <trkpt lat="43.7097" lon="7.31629">
        <ele>158.649</ele>
        <time>2018-03-16T14:38:05Z</time>
      </trkpt>
      <trkpt lat="43.70972" lon="7.31629">
        <ele>158.873</ele>
        <time>2018-03-16T14:38:06Z</time>
      </trkpt>
      <trkpt lat="43.70972" lon="7.31629">
        <ele>158.661</ele>
        <time>2018-03-16T14:38:07Z</time>
      </trkpt>
      <trkpt lat="43.70972" lon="7.31629">
        <ele>158.661</ele>
        <time>2018-03-16T14:38:07Z</time>
      </trkpt>
      <trkpt lat="43.70973" lon="7.31629">
        <ele>158.797</ele>
        <time>2018-03-16T14:38:08Z</time>
      </trkpt>
      <trkpt lat="43.70974" lon="7.31629">
        <ele>158.782</ele>
        <time>2018-03-16T14:38:09Z</time>
      </trkpt>
      <trkpt lat="43.70975" lon="7.31629">
        <ele>158.799</ele>
        <time>2018-03-16T14:38:13Z</time>
      </trkpt>
      <trkpt lat="43.70975" lon="7.31629">
        <ele>158.799</ele>
        <time>2018-03-16T14:38:13Z</time>
      </trkpt>
      <trkpt lat="43.70975" lon="7.31629">
        <ele>158.814</ele>
        <time>2018-03-16T14:38:14Z</time>
      </trkpt>
      <trkpt lat="43.70974" lon="7.31629">
        <ele>158.698</ele>
        <time>2018-03-16T14:38:15Z</time>
      </trkpt>
      <trkpt lat="43.70973" lon="7.31628">
        <ele>158.72</ele>
        <time>2018-03-16T14:38:16Z</time>
      </trkpt>
      <trkpt lat="43.70972" lon="7.31627">
        <ele>158.618</ele>
        <time>2018-03-16T14:38:17Z</time>
      </trkpt>
      <trkpt lat="43.70973" lon="7.31625">
        <ele>158.371</ele>
        <time>2018-03-16T14:38:21Z</time>
      </trkpt>
      <trkpt lat="43.70973" lon="7.31625">
        <ele>158.371</ele>
        <time>2018-03-16T14:38:21Z</time>
      </trkpt>
      <trkpt lat="43.70973" lon="7.31625">
        <ele>158.321</ele>
        <time>2018-03-16T14:38:22Z</time>
      </trkpt>
      <trkpt lat="43.70973" lon="7.31625">
        <ele>158.321</ele>
        <time>2018-03-16T14:38:22Z</time>
      </trkpt>
      <trkpt lat="43.70972" lon="7.31624">
        <ele>158.375</ele>
        <time>2018-03-16T14:38:23Z</time>
      </trkpt>
      <trkpt lat="43.70972" lon="7.31622">
        <ele>158.569</ele>
        <time>2018-03-16T14:38:25Z</time>
      </trkpt>
      <trkpt lat="43.70972" lon="7.31622">
        <ele>158.401</ele>
        <time>2018-03-16T14:38:26Z</time>
      </trkpt>
      <trkpt lat="43.70972" lon="7.31622">
        <ele>158.401</ele>
        <time>2018-03-16T14:38:26Z</time>
      </trkpt>
      <trkpt lat="43.70972" lon="7.31621">
        <ele>158.221</ele>
        <time>2018-03-16T14:38:27Z</time>
      </trkpt>
      <trkpt lat="43.70972" lon="7.31621">
        <ele>158.174</ele>
        <time>2018-03-16T14:38:28Z</time>
      </trkpt>
      <trkpt lat="43.70972" lon="7.31621">
        <ele>158.174</ele>
        <time>2018-03-16T14:38:28Z</time>
      </trkpt>
      <trkpt lat="43.70972" lon="7.31621">
        <ele>158.27</ele>
        <time>2018-03-16T14:38:29Z</time>
      </trkpt>
      <trkpt lat="43.70972" lon="7.31621">
        <ele>158.373</ele>
        <time>2018-03-16T14:38:30Z</time>
      </trkpt>
      <trkpt lat="43.70972" lon="7.31621">
        <ele>158.373</ele>
        <time>2018-03-16T14:38:30Z</time>
      </trkpt>
      <trkpt lat="43.70971" lon="7.31621">
        <ele>158.138</ele>
        <time>2018-03-16T14:38:31Z</time>
      </trkpt>
      <trkpt lat="43.7097" lon="7.3162">
        <ele>157.979</ele>
        <time>2018-03-16T14:38:33Z</time>
      </trkpt>
      <trkpt lat="43.7097" lon="7.3162">
        <ele>157.979</ele>
        <time>2018-03-16T14:38:33Z</time>
      </trkpt>
      <trkpt lat="43.7097" lon="7.3162">
        <ele>158.013</ele>
        <time>2018-03-16T14:38:34Z</time>
      </trkpt>
      <trkpt lat="43.7097" lon="7.3162">
        <ele>158.013</ele>
        <time>2018-03-16T14:38:34Z</time>
      </trkpt>
      <trkpt lat="43.70969" lon="7.3162">
        <ele>158.05</ele>
        <time>2018-03-16T14:38:35Z</time>
      </trkpt>
      <trkpt lat="43.70969" lon="7.3162">
        <ele>158.05</ele>
        <time>2018-03-16T14:38:35Z</time>
      </trkpt>
      <trkpt lat="43.70969" lon="7.31619">
        <ele>157.811</ele>
        <time>2018-03-16T14:38:36Z</time>
      </trkpt>
      <trkpt lat="43.70969" lon="7.31618">
        <ele>157.805</ele>
        <time>2018-03-16T14:38:37Z</time>
      </trkpt>
      <trkpt lat="43.70968" lon="7.31617">
        <ele>157.749</ele>
        <time>2018-03-16T14:38:38Z</time>
      </trkpt>
      <trkpt lat="43.70968" lon="7.31617">
        <ele>157.665</ele>
        <time>2018-03-16T14:38:40Z</time>
      </trkpt>
      <trkpt lat="43.70968" lon="7.31617">
        <ele>157.631</ele>
        <time>2018-03-16T14:38:41Z</time>
      </trkpt>
      <trkpt lat="43.70968" lon="7.31616">
        <ele>157.597</ele>
        <time>2018-03-16T14:38:42Z</time>
      </trkpt>
      <trkpt lat="43.70968" lon="7.31616">
        <ele>157.522</ele>
        <time>2018-03-16T14:38:43Z</time>
      </trkpt>
      <trkpt lat="43.70968" lon="7.31615">
        <ele>157.371</ele>
        <time>2018-03-16T14:38:44Z</time>
      </trkpt>
      <trkpt lat="43.70968" lon="7.31614">
        <ele>157.308</ele>
        <time>2018-03-16T14:38:47Z</time>
      </trkpt>
      <trkpt lat="43.70968" lon="7.31614">
        <ele>157.371</ele>
        <time>2018-03-16T14:38:52Z</time>
      </trkpt>
      <trkpt lat="43.70968" lon="7.31614">
        <ele>157.4</ele>
        <time>2018-03-16T14:38:53Z</time>
      </trkpt>
      <trkpt lat="43.70968" lon="7.31614">
        <ele>157.276</ele>
        <time>2018-03-16T14:38:54Z</time>
      </trkpt>
      <trkpt lat="43.70968" lon="7.31614">
        <ele>157.276</ele>
        <time>2018-03-16T14:38:54Z</time>
      </trkpt>
      <trkpt lat="43.70968" lon="7.31614">
        <ele>157.177</ele>
        <time>2018-03-16T14:38:55Z</time>
      </trkpt>
      <trkpt lat="43.70968" lon="7.31614">
        <ele>157.281</ele>
        <time>2018-03-16T14:38:56Z</time>
      </trkpt>
      <trkpt lat="43.70968" lon="7.31614">
        <ele>157.307</ele>
        <time>2018-03-16T14:38:57Z</time>
      </trkpt>
      <trkpt lat="43.70968" lon="7.31614">
        <ele>157.33</ele>
        <time>2018-03-16T14:38:58Z</time>
      </trkpt>
      <trkpt lat="43.70967" lon="7.31614">
        <ele>157.27</ele>
        <time>2018-03-16T14:38:59Z</time>
      </trkpt>
      <trkpt lat="43.70967" lon="7.31614">
        <ele>157.208</ele>
        <time>2018-03-16T14:39:00Z</time>
      </trkpt>
      <trkpt lat="43.70967" lon="7.31614">
        <ele>157.208</ele>
        <time>2018-03-16T14:39:00Z</time>
      </trkpt>
      <trkpt lat="43.70966" lon="7.31613">
        <ele>157.351</ele>
        <time>2018-03-16T14:39:01Z</time>
      </trkpt>
      <trkpt lat="43.70967" lon="7.31613">
        <ele>157.102</ele>
        <time>2018-03-16T14:39:04Z</time>
      </trkpt>
      <trkpt lat="43.70967" lon="7.31614">
        <ele>156.926</ele>
        <time>2018-03-16T14:39:08Z</time>
      </trkpt>
      <trkpt lat="43.70967" lon="7.31614">
        <ele>156.926</ele>
        <time>2018-03-16T14:39:08Z</time>
      </trkpt>
      <trkpt lat="43.70968" lon="7.31614">
        <ele>157.547</ele>
        <time>2018-03-16T14:39:09Z</time>
      </trkpt>
      <trkpt lat="43.70968" lon="7.31614">
        <ele>157.456</ele>
        <time>2018-03-16T14:39:10Z</time>
      </trkpt>
      <trkpt lat="43.70968" lon="7.31614">
        <ele>157.309</ele>
        <time>2018-03-16T14:39:15Z</time>
      </trkpt>
      <trkpt lat="43.70968" lon="7.31616">
        <ele>157.25</ele>
        <time>2018-03-16T14:39:16Z</time>
      </trkpt>
      <trkpt lat="43.70968" lon="7.31618">
        <ele>157.327</ele>
        <time>2018-03-16T14:39:17Z</time>
      </trkpt>
      <trkpt lat="43.70968" lon="7.31617">
        <ele>157.159</ele>
        <time>2018-03-16T14:39:18Z</time>
      </trkpt>
      <trkpt lat="43.70966" lon="7.31613">
        <ele>157.376</ele>
        <time>2018-03-16T14:39:21Z</time>
      </trkpt>
      <trkpt lat="43.70966" lon="7.31613">
        <ele>157.385</ele>
        <time>2018-03-16T14:39:22Z</time>
      </trkpt>
      <trkpt lat="43.70966" lon="7.31613">
        <ele>157.385</ele>
        <time>2018-03-16T14:39:22Z</time>
      </trkpt>
      <trkpt lat="43.70965" lon="7.31612">
        <ele>157.498</ele>
        <time>2018-03-16T14:39:23Z</time>
      </trkpt>
      <trkpt lat="43.70965" lon="7.31612">
        <ele>157.496</ele>
        <time>2018-03-16T14:39:24Z</time>
      </trkpt>
      <trkpt lat="43.70965" lon="7.31612">
        <ele>157.615</ele>
        <time>2018-03-16T14:39:25Z</time>
      </trkpt>
      <trkpt lat="43.70965" lon="7.3161">
        <ele>157.34</ele>
        <time>2018-03-16T14:39:26Z</time>
      </trkpt>
      <trkpt lat="43.70965" lon="7.3161">
        <ele>157.34</ele>
        <time>2018-03-16T14:39:26Z</time>
      </trkpt>
      <trkpt lat="43.70965" lon="7.3161">
        <ele>157.589</ele>
        <time>2018-03-16T14:39:27Z</time>
      </trkpt>
      <trkpt lat="43.70965" lon="7.3161">
        <ele>157.897</ele>
        <time>2018-03-16T14:39:36Z</time>
      </trkpt>
      <trkpt lat="43.70968" lon="7.3161">
        <ele>157.613</ele>
        <time>2018-03-16T14:39:37Z</time>
      </trkpt>
      <trkpt lat="43.70968" lon="7.3161">
        <ele>157.613</ele>
        <time>2018-03-16T14:39:37Z</time>
      </trkpt>
      <trkpt lat="43.70968" lon="7.31609">
        <ele>157.572</ele>
        <time>2018-03-16T14:39:38Z</time>
      </trkpt>
      <trkpt lat="43.70968" lon="7.31609">
        <ele>157.669</ele>
        <time>2018-03-16T14:39:39Z</time>
      </trkpt>
      <trkpt lat="43.70968" lon="7.31609">
        <ele>157.755</ele>
        <time>2018-03-16T14:39:40Z</time>
      </trkpt>
      <trkpt lat="43.70968" lon="7.31608">
        <ele>157.677</ele>
        <time>2018-03-16T14:39:41Z</time>
      </trkpt>
      <trkpt lat="43.70968" lon="7.31608">
        <ele>157.677</ele>
        <time>2018-03-16T14:39:41Z</time>
      </trkpt>
      <trkpt lat="43.70967" lon="7.31608">
        <ele>157.578</ele>
        <time>2018-03-16T14:39:42Z</time>
      </trkpt>
      <trkpt lat="43.70966" lon="7.31608">
        <ele>157.504</ele>
        <time>2018-03-16T14:39:43Z</time>
      </trkpt>
      <trkpt lat="43.70961" lon="7.3161">
        <ele>157.431</ele>
        <time>2018-03-16T14:39:48Z</time>
      </trkpt>
      <trkpt lat="43.70961" lon="7.3161">
        <ele>162.698</ele>
        <time>2018-03-16T14:40:13Z</time>
      </trkpt>
      <trkpt lat="43.70963" lon="7.31611">
        <ele>157.662</ele>
        <time>2018-03-16T14:40:14Z</time>
      </trkpt>
      <trkpt lat="43.70963" lon="7.31611">
        <ele>157.662</ele>
        <time>2018-03-16T14:40:14Z</time>
      </trkpt>
      <trkpt lat="43.70963" lon="7.31611">
        <ele>157.663</ele>
        <time>2018-03-16T14:40:15Z</time>
      </trkpt>
      <trkpt lat="43.70963" lon="7.31611">
        <ele>157.663</ele>
        <time>2018-03-16T14:40:15Z</time>
      </trkpt>
      <trkpt lat="43.70964" lon="7.31612">
        <ele>157.657</ele>
        <time>2018-03-16T14:40:16Z</time>
      </trkpt>
      <trkpt lat="43.70964" lon="7.31612">
        <ele>158.15</ele>
        <time>2018-03-16T14:40:17Z</time>
      </trkpt>
      <trkpt lat="43.70964" lon="7.31612">
        <ele>158.15</ele>
        <time>2018-03-16T14:40:17Z</time>
      </trkpt>
      <trkpt lat="43.70965" lon="7.31611">
        <ele>157.748</ele>
        <time>2018-03-16T14:40:18Z</time>
      </trkpt>
      <trkpt lat="43.70964" lon="7.31611">
        <ele>149.102</ele>
        <time>2018-03-16T14:40:19Z</time>
      </trkpt>
      <trkpt lat="43.70964" lon="7.3161">
        <ele>150.949</ele>
        <time>2018-03-16T14:40:21Z</time>
      </trkpt>
      <trkpt lat="43.70964" lon="7.3161">
        <ele>150.949</ele>
        <time>2018-03-16T14:40:21Z</time>
      </trkpt>
      <trkpt lat="43.70964" lon="7.31609">
        <ele>150.886</ele>
        <time>2018-03-16T14:40:22Z</time>
      </trkpt>
      <trkpt lat="43.70964" lon="7.31609">
        <ele>153.611</ele>
        <time>2018-03-16T14:40:23Z</time>
      </trkpt>
      <trkpt lat="43.70964" lon="7.31609">
        <ele>153.323</ele>
        <time>2018-03-16T14:40:25Z</time>
      </trkpt>
      <trkpt lat="43.70965" lon="7.3161">
        <ele>153.992</ele>
        <time>2018-03-16T14:40:26Z</time>
      </trkpt>
      <trkpt lat="43.70966" lon="7.3161">
        <ele>154.328</ele>
        <time>2018-03-16T14:40:27Z</time>
      </trkpt>
      <trkpt lat="43.70966" lon="7.31611">
        <ele>157.311</ele>
        <time>2018-03-16T14:40:30Z</time>
      </trkpt>
      <trkpt lat="43.70966" lon="7.31611">
        <ele>157.311</ele>
        <time>2018-03-16T14:40:30Z</time>
      </trkpt>
      <trkpt lat="43.70968" lon="7.31613">
        <ele>157.272</ele>
        <time>2018-03-16T14:40:31Z</time>
      </trkpt>
      <trkpt lat="43.70968" lon="7.31613">
        <ele>158.269</ele>
        <time>2018-03-16T14:40:32Z</time>
      </trkpt>
      <trkpt lat="43.70968" lon="7.31613">
        <ele>158.269</ele>
        <time>2018-03-16T14:40:32Z</time>
      </trkpt>
      <trkpt lat="43.70968" lon="7.31614">
        <ele>157.793</ele>
        <time>2018-03-16T14:40:33Z</time>
      </trkpt>
      <trkpt lat="43.70968" lon="7.31614">
        <ele>158.1</ele>
        <time>2018-03-16T14:40:35Z</time>
      </trkpt>
      <trkpt lat="43.70968" lon="7.31613">
        <ele>158.129</ele>
        <time>2018-03-16T14:40:37Z</time>
      </trkpt>
      <trkpt lat="43.70968" lon="7.31613">
        <ele>158.745</ele>
        <time>2018-03-16T14:42:03Z</time>
      </trkpt>
      <trkpt lat="43.70968" lon="7.31614">
        <ele>158.349</ele>
        <time>2018-03-16T14:42:04Z</time>
      </trkpt>
      <trkpt lat="43.7097" lon="7.31619">
        <ele>159.121</ele>
        <time>2018-03-16T14:42:07Z</time>
      </trkpt>
      <trkpt lat="43.70972" lon="7.31622">
        <ele>160.297</ele>
        <time>2018-03-16T14:42:11Z</time>
      </trkpt>
      <trkpt lat="43.70972" lon="7.31623">
        <ele>160.426</ele>
        <time>2018-03-16T14:42:12Z</time>
      </trkpt>
      <trkpt lat="43.70971" lon="7.31625">
        <ele>160.675</ele>
        <time>2018-03-16T14:42:13Z</time>
      </trkpt>
      <trkpt lat="43.70971" lon="7.31629">
        <ele>161.039</ele>
        <time>2018-03-16T14:42:15Z</time>
      </trkpt>
      <trkpt lat="43.70972" lon="7.31631">
        <ele>161.574</ele>
        <time>2018-03-16T14:42:18Z</time>
      </trkpt>
      <trkpt lat="43.70972" lon="7.31631">
        <ele>161.574</ele>
        <time>2018-03-16T14:42:18Z</time>
      </trkpt>
      <trkpt lat="43.70971" lon="7.31633">
        <ele>161.923</ele>
        <time>2018-03-16T14:42:19Z</time>
      </trkpt>
      <trkpt lat="43.7097" lon="7.31635">
        <ele>162.181</ele>
        <time>2018-03-16T14:42:21Z</time>
      </trkpt>
      <trkpt lat="43.7097" lon="7.31638">
        <ele>162.525</ele>
        <time>2018-03-16T14:42:23Z</time>
      </trkpt>
      <trkpt lat="43.70969" lon="7.31638">
        <ele>162.806</ele>
        <time>2018-03-16T14:42:24Z</time>
      </trkpt>
      <trkpt lat="43.7097" lon="7.3164">
        <ele>163.269</ele>
        <time>2018-03-16T14:42:26Z</time>
      </trkpt>
      <trkpt lat="43.7097" lon="7.3164">
        <ele>163.482</ele>
        <time>2018-03-16T14:42:27Z</time>
      </trkpt>
      <trkpt lat="43.7097" lon="7.3164">
        <ele>163.482</ele>
        <time>2018-03-16T14:42:27Z</time>
      </trkpt>
      <trkpt lat="43.70969" lon="7.3164">
        <ele>163.693</ele>
        <time>2018-03-16T14:42:28Z</time>
      </trkpt>
      <trkpt lat="43.70969" lon="7.31641">
        <ele>163.862</ele>
        <time>2018-03-16T14:42:29Z</time>
      </trkpt>
      <trkpt lat="43.70967" lon="7.31646">
        <ele>164.368</ele>
        <time>2018-03-16T14:42:32Z</time>
      </trkpt>
      <trkpt lat="43.70966" lon="7.31652">
        <ele>165.141</ele>
        <time>2018-03-16T14:42:35Z</time>
      </trkpt>
      <trkpt lat="43.70967" lon="7.3166">
        <ele>166.088</ele>
        <time>2018-03-16T14:42:40Z</time>
      </trkpt>
      <trkpt lat="43.70967" lon="7.31662">
        <ele>166.319</ele>
        <time>2018-03-16T14:42:42Z</time>
      </trkpt>
      <trkpt lat="43.70968" lon="7.31663">
        <ele>166.434</ele>
        <time>2018-03-16T14:42:43Z</time>
      </trkpt>
      <trkpt lat="43.70968" lon="7.31668">
        <ele>167.127</ele>
        <time>2018-03-16T14:42:46Z</time>
      </trkpt>
      <trkpt lat="43.70969" lon="7.31674">
        <ele>167.669</ele>
        <time>2018-03-16T14:42:50Z</time>
      </trkpt>
      <trkpt lat="43.70971" lon="7.31679">
        <ele>168.032</ele>
        <time>2018-03-16T14:42:53Z</time>
      </trkpt>
      <trkpt lat="43.70972" lon="7.31684">
        <ele>168.561</ele>
        <time>2018-03-16T14:42:56Z</time>
      </trkpt>
      <trkpt lat="43.70973" lon="7.31693">
        <ele>169.736</ele>
        <time>2018-03-16T14:43:02Z</time>
      </trkpt>
      <trkpt lat="43.70975" lon="7.31694">
        <ele>169.815</ele>
        <time>2018-03-16T14:43:03Z</time>
      </trkpt>
      <trkpt lat="43.70977" lon="7.31695">
        <ele>170.141</ele>
        <time>2018-03-16T14:43:05Z</time>
      </trkpt>
      <trkpt lat="43.70979" lon="7.31699">
        <ele>170.964</ele>
        <time>2018-03-16T14:43:09Z</time>
      </trkpt>
      <trkpt lat="43.70981" lon="7.31703">
        <ele>171.466</ele>
        <time>2018-03-16T14:43:12Z</time>
      </trkpt>
      <trkpt lat="43.70983" lon="7.31707">
        <ele>172.075</ele>
        <time>2018-03-16T14:43:16Z</time>
      </trkpt>
      <trkpt lat="43.70985" lon="7.31712">
        <ele>172.912</ele>
        <time>2018-03-16T14:43:20Z</time>
      </trkpt>
      <trkpt lat="43.70988" lon="7.31717">
        <ele>174.203</ele>
        <time>2018-03-16T14:43:26Z</time>
      </trkpt>
      <trkpt lat="43.70988" lon="7.31718">
        <ele>174.267</ele>
        <time>2018-03-16T14:43:27Z</time>
      </trkpt>
      <trkpt lat="43.70988" lon="7.31723">
        <ele>174.841</ele>
        <time>2018-03-16T14:43:31Z</time>
      </trkpt>
      <trkpt lat="43.70988" lon="7.31739">
        <ele>176.484</ele>
        <time>2018-03-16T14:43:39Z</time>
      </trkpt>
      <trkpt lat="43.70987" lon="7.31745">
        <ele>177.108</ele>
        <time>2018-03-16T14:43:42Z</time>
      </trkpt>
      <trkpt lat="43.70987" lon="7.31748">
        <ele>177.576</ele>
        <time>2018-03-16T14:43:44Z</time>
      </trkpt>
      <trkpt lat="43.70988" lon="7.31749">
        <ele>177.475</ele>
        <time>2018-03-16T14:43:45Z</time>
      </trkpt>
      <trkpt lat="43.70991" lon="7.3175">
        <ele>177.791</ele>
        <time>2018-03-16T14:43:48Z</time>
      </trkpt>
      <trkpt lat="43.70991" lon="7.31755">
        <ele>178.189</ele>
        <time>2018-03-16T14:43:50Z</time>
      </trkpt>
      <trkpt lat="43.70992" lon="7.31759">
        <ele>178.69</ele>
        <time>2018-03-16T14:43:53Z</time>
      </trkpt>
      <trkpt lat="43.70993" lon="7.31764">
        <ele>179.38</ele>
        <time>2018-03-16T14:43:56Z</time>
      </trkpt>
      <trkpt lat="43.70993" lon="7.31768">
        <ele>179.553</ele>
        <time>2018-03-16T14:43:58Z</time>
      </trkpt>
      <trkpt lat="43.70992" lon="7.31775">
        <ele>180.044</ele>
        <time>2018-03-16T14:44:02Z</time>
      </trkpt>
      <trkpt lat="43.70992" lon="7.31781">
        <ele>180.763</ele>
        <time>2018-03-16T14:44:06Z</time>
      </trkpt>
      <trkpt lat="43.70992" lon="7.31782">
        <ele>181.147</ele>
        <time>2018-03-16T14:44:07Z</time>
      </trkpt>
      <trkpt lat="43.70992" lon="7.31784">
        <ele>181.417</ele>
        <time>2018-03-16T14:44:08Z</time>
      </trkpt>
      <trkpt lat="43.7099" lon="7.31793">
        <ele>182.968</ele>
        <time>2018-03-16T14:44:13Z</time>
      </trkpt>
      <trkpt lat="43.70989" lon="7.31797">
        <ele>182.102</ele>
        <time>2018-03-16T14:44:16Z</time>
      </trkpt>
      <trkpt lat="43.70989" lon="7.31797">
        <ele>182.102</ele>
        <time>2018-03-16T14:44:16Z</time>
      </trkpt>
      <trkpt lat="43.70989" lon="7.31797">
        <ele>181.001</ele>
        <time>2018-03-16T14:44:17Z</time>
      </trkpt>
      <trkpt lat="43.70989" lon="7.31798">
        <ele>180.177</ele>
        <time>2018-03-16T14:44:18Z</time>
      </trkpt>
      <trkpt lat="43.70989" lon="7.31799">
        <ele>179.072</ele>
        <time>2018-03-16T14:44:21Z</time>
      </trkpt>
      <trkpt lat="43.70989" lon="7.31799">
        <ele>179.072</ele>
        <time>2018-03-16T14:44:21Z</time>
      </trkpt>
      <trkpt lat="43.70989" lon="7.31799">
        <ele>178.573</ele>
        <time>2018-03-16T14:44:22Z</time>
      </trkpt>
      <trkpt lat="43.70989" lon="7.31799">
        <ele>177.786</ele>
        <time>2018-03-16T14:44:25Z</time>
      </trkpt>
      <trkpt lat="43.7099" lon="7.31798">
        <ele>177.59</ele>
        <time>2018-03-16T14:44:26Z</time>
      </trkpt>
      <trkpt lat="43.70991" lon="7.31797">
        <ele>177.215</ele>
        <time>2018-03-16T14:44:28Z</time>
      </trkpt>
      <trkpt lat="43.70992" lon="7.31794">
        <ele>176.938</ele>
        <time>2018-03-16T14:44:31Z</time>
      </trkpt>
      <trkpt lat="43.70993" lon="7.3179">
        <ele>176.783</ele>
        <time>2018-03-16T14:44:33Z</time>
      </trkpt>
      <trkpt lat="43.70992" lon="7.31784">
        <ele>176.77</ele>
        <time>2018-03-16T14:44:36Z</time>
      </trkpt>
      <trkpt lat="43.70992" lon="7.3178">
        <ele>176.68</ele>
        <time>2018-03-16T14:44:38Z</time>
      </trkpt>
      <trkpt lat="43.7099" lon="7.31763">
        <ele>176.139</ele>
        <time>2018-03-16T14:44:48Z</time>
      </trkpt>
      <trkpt lat="43.7099" lon="7.31756">
        <ele>176.217</ele>
        <time>2018-03-16T14:44:52Z</time>
      </trkpt>
      <trkpt lat="43.70991" lon="7.31751">
        <ele>176.08</ele>
        <time>2018-03-16T14:44:56Z</time>
      </trkpt>
      <trkpt lat="43.7099" lon="7.31745">
        <ele>176.063</ele>
        <time>2018-03-16T14:44:59Z</time>
      </trkpt>
      <trkpt lat="43.70989" lon="7.31738">
        <ele>176.135</ele>
        <time>2018-03-16T14:45:03Z</time>
      </trkpt>
      <trkpt lat="43.7099" lon="7.3173">
        <ele>176.239</ele>
        <time>2018-03-16T14:45:07Z</time>
      </trkpt>
      <trkpt lat="43.70991" lon="7.31726">
        <ele>176.08</ele>
        <time>2018-03-16T14:45:09Z</time>
      </trkpt>
      <trkpt lat="43.7099" lon="7.31715">
        <ele>176.231</ele>
        <time>2018-03-16T14:45:14Z</time>
      </trkpt>
      <trkpt lat="43.70992" lon="7.31711">
        <ele>176.144</ele>
        <time>2018-03-16T14:45:17Z</time>
      </trkpt>
      <trkpt lat="43.70995" lon="7.31711">
        <ele>176.43</ele>
        <time>2018-03-16T14:45:19Z</time>
      </trkpt>
      <trkpt lat="43.70998" lon="7.31713">
        <ele>176.325</ele>
        <time>2018-03-16T14:45:22Z</time>
      </trkpt>
      <trkpt lat="43.70998" lon="7.31713">
        <ele>176.51</ele>
        <time>2018-03-16T14:45:23Z</time>
      </trkpt>
      <trkpt lat="43.70998" lon="7.31713">
        <ele>176.52</ele>
        <time>2018-03-16T14:45:27Z</time>
      </trkpt>
      <trkpt lat="43.70999" lon="7.31714">
        <ele>176.621</ele>
        <time>2018-03-16T14:45:28Z</time>
      </trkpt>
      <trkpt lat="43.70999" lon="7.31714">
        <ele>176.315</ele>
        <time>2018-03-16T14:45:30Z</time>
      </trkpt>
      <trkpt lat="43.70999" lon="7.31714">
        <ele>176.315</ele>
        <time>2018-03-16T14:45:30Z</time>
      </trkpt>
      <trkpt lat="43.71" lon="7.31714">
        <ele>176.392</ele>
        <time>2018-03-16T14:45:31Z</time>
      </trkpt>
      <trkpt lat="43.71" lon="7.31714">
        <ele>176.443</ele>
        <time>2018-03-16T14:45:32Z</time>
      </trkpt>
      <trkpt lat="43.71" lon="7.31714">
        <ele>176.443</ele>
        <time>2018-03-16T14:45:32Z</time>
      </trkpt>
      <trkpt lat="43.71" lon="7.31714">
        <ele>176.622</ele>
        <time>2018-03-16T14:45:33Z</time>
      </trkpt>
      <trkpt lat="43.71" lon="7.31714">
        <ele>176.409</ele>
        <time>2018-03-16T14:46:07Z</time>
      </trkpt>
      <trkpt lat="43.71001" lon="7.31717">
        <ele>176.161</ele>
        <time>2018-03-16T14:46:08Z</time>
      </trkpt>
      <trkpt lat="43.71" lon="7.31716">
        <ele>176.399</ele>
        <time>2018-03-16T14:46:09Z</time>
      </trkpt>
      <trkpt lat="43.71" lon="7.31715">
        <ele>176.365</ele>
        <time>2018-03-16T14:46:10Z</time>
      </trkpt>
      <trkpt lat="43.71" lon="7.31715">
        <ele>176.188</ele>
        <time>2018-03-16T14:46:11Z</time>
      </trkpt>
      <trkpt lat="43.71" lon="7.31715">
        <ele>176.365</ele>
        <time>2018-03-16T14:46:12Z</time>
      </trkpt>
      <trkpt lat="43.71" lon="7.31715">
        <ele>176.365</ele>
        <time>2018-03-16T14:46:12Z</time>
      </trkpt>
      <trkpt lat="43.71001" lon="7.31715">
        <ele>176.326</ele>
        <time>2018-03-16T14:46:13Z</time>
      </trkpt>
      <trkpt lat="43.71001" lon="7.31715">
        <ele>176.326</ele>
        <time>2018-03-16T14:46:13Z</time>
      </trkpt>
      <trkpt lat="43.71001" lon="7.31715">
        <ele>176.777</ele>
        <time>2018-03-16T14:46:14Z</time>
      </trkpt>
      <trkpt lat="43.71001" lon="7.31715">
        <ele>176.276</ele>
        <time>2018-03-16T14:46:15Z</time>
      </trkpt>
      <trkpt lat="43.71001" lon="7.31715">
        <ele>176.276</ele>
        <time>2018-03-16T14:46:20Z</time>
      </trkpt>
    </trkseg>
  </trk>
</gpx>